<?xml version="1.0" encoding="UTF-8" standalone="no" ?>
<gpx xmlns="http://www.topografix.com/GPX/1/1" xmlns:xsi="http://www.w3.org/2001/XMLSchema-instance" xsi:schemaLocation="http://www.topografix.com/GPX/1/1 http://www.topografix.com/GPX/1/1/gpx.xsd" version="1.1" creator="VisuGPX - https://www.visugpx.com">
  <metadata>
    <name>Pornichet Estivale août 2022</name>
    <desc><![CDATA[Estivale août 2022]]></desc>
  </metadata>
  <trk>
    <name><![CDATA[Pornichet Cyclisme]]></name>
    <trkseg>
      <trkpt lat="47.27031" lon="-2.34462">
        <ele>10.60000038147</ele>
        <time>2022-08-04T07:12:54.000Z</time>
      </trkpt>
      <trkpt lat="47.27032" lon="-2.34448">
        <ele>10.60000038147</ele>
        <time>2022-08-04T07:12:57.000Z</time>
      </trkpt>
      <trkpt lat="47.27032" lon="-2.34444">
        <ele>11.60000038147</ele>
        <time>2022-08-04T07:12:58.000Z</time>
      </trkpt>
      <trkpt lat="47.27031" lon="-2.34439">
        <ele>12.199999809265</ele>
        <time>2022-08-04T07:12:59.000Z</time>
      </trkpt>
      <trkpt lat="47.2703" lon="-2.34434">
        <ele>12.60000038147</ele>
        <time>2022-08-04T07:13:00.000Z</time>
      </trkpt>
      <trkpt lat="47.27024" lon="-2.34402">
        <ele>12.60000038147</ele>
        <time>2022-08-04T07:13:06.000Z</time>
      </trkpt>
      <trkpt lat="47.27013" lon="-2.34354">
        <ele>12.60000038147</ele>
        <time>2022-08-04T07:13:14.000Z</time>
      </trkpt>
      <trkpt lat="47.27009" lon="-2.34327">
        <ele>12.60000038147</ele>
        <time>2022-08-04T07:13:20.000Z</time>
      </trkpt>
      <trkpt lat="47.27007" lon="-2.34309">
        <ele>12.60000038147</ele>
        <time>2022-08-04T07:13:25.000Z</time>
      </trkpt>
      <trkpt lat="47.27006" lon="-2.34288">
        <ele>12.60000038147</ele>
        <time>2022-08-04T07:13:29.000Z</time>
      </trkpt>
      <trkpt lat="47.27006" lon="-2.34282">
        <ele>12.60000038147</ele>
        <time>2022-08-04T07:13:30.000Z</time>
      </trkpt>
      <trkpt lat="47.27002" lon="-2.34263">
        <ele>12.60000038147</ele>
        <time>2022-08-04T07:13:33.000Z</time>
      </trkpt>
      <trkpt lat="47.26992" lon="-2.34215">
        <ele>12.60000038147</ele>
        <time>2022-08-04T07:13:41.000Z</time>
      </trkpt>
      <trkpt lat="47.26977" lon="-2.34151">
        <ele>12.60000038147</ele>
        <time>2022-08-04T07:13:50.000Z</time>
      </trkpt>
      <trkpt lat="47.26964" lon="-2.34093">
        <ele>12.60000038147</ele>
        <time>2022-08-04T07:13:58.000Z</time>
      </trkpt>
      <trkpt lat="47.26951" lon="-2.34043">
        <ele>12.60000038147</ele>
        <time>2022-08-04T07:14:05.000Z</time>
      </trkpt>
      <trkpt lat="47.26946" lon="-2.34021">
        <ele>12</ele>
        <time>2022-08-04T07:14:08.000Z</time>
      </trkpt>
      <trkpt lat="47.26945" lon="-2.34014">
        <ele>10.60000038147</ele>
        <time>2022-08-04T07:14:09.000Z</time>
      </trkpt>
      <trkpt lat="47.26943" lon="-2.34006">
        <ele>9.8000001907349</ele>
        <time>2022-08-04T07:14:10.000Z</time>
      </trkpt>
      <trkpt lat="47.26941" lon="-2.33999">
        <ele>9.1999998092651</ele>
        <time>2022-08-04T07:14:11.000Z</time>
      </trkpt>
      <trkpt lat="47.2694" lon="-2.33992">
        <ele>9.1999998092651</ele>
        <time>2022-08-04T07:14:12.000Z</time>
      </trkpt>
      <trkpt lat="47.26926" lon="-2.33931">
        <ele>9.1999998092651</ele>
        <time>2022-08-04T07:14:20.000Z</time>
      </trkpt>
      <trkpt lat="47.26912" lon="-2.33869">
        <ele>9.1999998092651</ele>
        <time>2022-08-04T07:14:28.000Z</time>
      </trkpt>
      <trkpt lat="47.26901" lon="-2.33822">
        <ele>9.1999998092651</ele>
        <time>2022-08-04T07:14:35.000Z</time>
      </trkpt>
      <trkpt lat="47.26894" lon="-2.33797">
        <ele>9.1999998092651</ele>
        <time>2022-08-04T07:14:39.000Z</time>
      </trkpt>
      <trkpt lat="47.26887" lon="-2.3379">
        <ele>9.1999998092651</ele>
        <time>2022-08-04T07:14:41.000Z</time>
      </trkpt>
      <trkpt lat="47.26879" lon="-2.33785">
        <ele>9.1999998092651</ele>
        <time>2022-08-04T07:14:43.000Z</time>
      </trkpt>
      <trkpt lat="47.26874" lon="-2.33783">
        <ele>8.8000001907349</ele>
        <time>2022-08-04T07:14:44.000Z</time>
      </trkpt>
      <trkpt lat="47.26869" lon="-2.33782">
        <ele>8.1999998092651</ele>
        <time>2022-08-04T07:14:45.000Z</time>
      </trkpt>
      <trkpt lat="47.26864" lon="-2.3378">
        <ele>7.8000001907349</ele>
        <time>2022-08-04T07:14:46.000Z</time>
      </trkpt>
      <trkpt lat="47.26859" lon="-2.33778">
        <ele>7.4000000953674</ele>
        <time>2022-08-04T07:14:47.000Z</time>
      </trkpt>
      <trkpt lat="47.26854" lon="-2.33777">
        <ele>7</ele>
        <time>2022-08-04T07:14:48.000Z</time>
      </trkpt>
      <trkpt lat="47.26845" lon="-2.33774">
        <ele>7</ele>
        <time>2022-08-04T07:14:50.000Z</time>
      </trkpt>
      <trkpt lat="47.26834" lon="-2.33764">
        <ele>7</ele>
        <time>2022-08-04T07:14:53.000Z</time>
      </trkpt>
      <trkpt lat="47.2683" lon="-2.33759">
        <ele>7</ele>
        <time>2022-08-04T07:14:54.000Z</time>
      </trkpt>
      <trkpt lat="47.26803" lon="-2.3373">
        <ele>7</ele>
        <time>2022-08-04T07:15:01.000Z</time>
      </trkpt>
      <trkpt lat="47.2678" lon="-2.33712">
        <ele>7</ele>
        <time>2022-08-04T07:15:06.000Z</time>
      </trkpt>
      <trkpt lat="47.26775" lon="-2.3371">
        <ele>7</ele>
        <time>2022-08-04T07:15:07.000Z</time>
      </trkpt>
      <trkpt lat="47.26755" lon="-2.33702">
        <ele>7</ele>
        <time>2022-08-04T07:15:11.000Z</time>
      </trkpt>
      <trkpt lat="47.26745" lon="-2.337">
        <ele>7</ele>
        <time>2022-08-04T07:15:13.000Z</time>
      </trkpt>
      <trkpt lat="47.26711" lon="-2.33698">
        <ele>7</ele>
        <time>2022-08-04T07:15:19.000Z</time>
      </trkpt>
      <trkpt lat="47.26668" lon="-2.33698">
        <ele>7</ele>
        <time>2022-08-04T07:15:27.000Z</time>
      </trkpt>
      <trkpt lat="47.26629" lon="-2.33699">
        <ele>7</ele>
        <time>2022-08-04T07:15:35.000Z</time>
      </trkpt>
      <trkpt lat="47.26606" lon="-2.33703">
        <ele>7</ele>
        <time>2022-08-04T07:15:40.000Z</time>
      </trkpt>
      <trkpt lat="47.26603" lon="-2.33701">
        <ele>7</ele>
        <time>2022-08-04T07:15:41.000Z</time>
      </trkpt>
      <trkpt lat="47.26595" lon="-2.33696">
        <ele>7</ele>
        <time>2022-08-04T07:15:43.000Z</time>
      </trkpt>
      <trkpt lat="47.2659" lon="-2.33693">
        <ele>7</ele>
        <time>2022-08-04T07:15:44.000Z</time>
      </trkpt>
      <trkpt lat="47.26574" lon="-2.3368">
        <ele>7</ele>
        <time>2022-08-04T07:15:48.000Z</time>
      </trkpt>
      <trkpt lat="47.26574" lon="-2.33657">
        <ele>7</ele>
        <time>2022-08-04T07:15:51.000Z</time>
      </trkpt>
      <trkpt lat="47.26574" lon="-2.33648">
        <ele>7</ele>
        <time>2022-08-04T07:15:52.000Z</time>
      </trkpt>
      <trkpt lat="47.2657" lon="-2.33622">
        <ele>7</ele>
        <time>2022-08-04T07:15:55.000Z</time>
      </trkpt>
      <trkpt lat="47.26566" lon="-2.33594">
        <ele>6.5999999046326</ele>
        <time>2022-08-04T07:15:58.000Z</time>
      </trkpt>
      <trkpt lat="47.26564" lon="-2.33585">
        <ele>6.1999998092651</ele>
        <time>2022-08-04T07:15:59.000Z</time>
      </trkpt>
      <trkpt lat="47.26563" lon="-2.33575">
        <ele>5.8000001907349</ele>
        <time>2022-08-04T07:16:00.000Z</time>
      </trkpt>
      <trkpt lat="47.26562" lon="-2.33566">
        <ele>5.4000000953674</ele>
        <time>2022-08-04T07:16:01.000Z</time>
      </trkpt>
      <trkpt lat="47.2656" lon="-2.33557">
        <ele>5</ele>
        <time>2022-08-04T07:16:02.000Z</time>
      </trkpt>
      <trkpt lat="47.26548" lon="-2.33474">
        <ele>5</ele>
        <time>2022-08-04T07:16:11.000Z</time>
      </trkpt>
      <trkpt lat="47.26546" lon="-2.33464">
        <ele>4.1999998092651</ele>
        <time>2022-08-04T07:16:12.000Z</time>
      </trkpt>
      <trkpt lat="47.26545" lon="-2.33455">
        <ele>3.7999999523163</ele>
        <time>2022-08-04T07:16:13.000Z</time>
      </trkpt>
      <trkpt lat="47.26544" lon="-2.33446">
        <ele>3.4000000953674</ele>
        <time>2022-08-04T07:16:14.000Z</time>
      </trkpt>
      <trkpt lat="47.26542" lon="-2.33437">
        <ele>3</ele>
        <time>2022-08-04T07:16:15.000Z</time>
      </trkpt>
      <trkpt lat="47.26536" lon="-2.33405">
        <ele>3</ele>
        <time>2022-08-04T07:16:19.000Z</time>
      </trkpt>
      <trkpt lat="47.26523" lon="-2.33359">
        <ele>3</ele>
        <time>2022-08-04T07:16:25.000Z</time>
      </trkpt>
      <trkpt lat="47.26519" lon="-2.33353">
        <ele>3</ele>
        <time>2022-08-04T07:16:26.000Z</time>
      </trkpt>
      <trkpt lat="47.26506" lon="-2.33337">
        <ele>3</ele>
        <time>2022-08-04T07:16:29.000Z</time>
      </trkpt>
      <trkpt lat="47.26492" lon="-2.33312">
        <ele>3</ele>
        <time>2022-08-04T07:16:33.000Z</time>
      </trkpt>
      <trkpt lat="47.26493" lon="-2.33288">
        <ele>3</ele>
        <time>2022-08-04T07:16:36.000Z</time>
      </trkpt>
      <trkpt lat="47.26493" lon="-2.3328">
        <ele>3</ele>
        <time>2022-08-04T07:16:37.000Z</time>
      </trkpt>
      <trkpt lat="47.26496" lon="-2.33254">
        <ele>3</ele>
        <time>2022-08-04T07:16:40.000Z</time>
      </trkpt>
      <trkpt lat="47.26499" lon="-2.33245">
        <ele>3</ele>
        <time>2022-08-04T07:16:41.000Z</time>
      </trkpt>
      <trkpt lat="47.26513" lon="-2.33228">
        <ele>3</ele>
        <time>2022-08-04T07:16:44.000Z</time>
      </trkpt>
      <trkpt lat="47.26524" lon="-2.33221">
        <ele>3</ele>
        <time>2022-08-04T07:16:46.000Z</time>
      </trkpt>
      <trkpt lat="47.26546" lon="-2.33208">
        <ele>3</ele>
        <time>2022-08-04T07:16:50.000Z</time>
      </trkpt>
      <trkpt lat="47.26577" lon="-2.33189">
        <ele>3</ele>
        <time>2022-08-04T07:16:56.000Z</time>
      </trkpt>
      <trkpt lat="47.26587" lon="-2.33167">
        <ele>3</ele>
        <time>2022-08-04T07:16:59.000Z</time>
      </trkpt>
      <trkpt lat="47.26585" lon="-2.33141">
        <ele>3</ele>
        <time>2022-08-04T07:17:02.000Z</time>
      </trkpt>
      <trkpt lat="47.26572" lon="-2.33123">
        <ele>3</ele>
        <time>2022-08-04T07:17:05.000Z</time>
      </trkpt>
      <trkpt lat="47.26562" lon="-2.33115">
        <ele>3</ele>
        <time>2022-08-04T07:17:07.000Z</time>
      </trkpt>
      <trkpt lat="47.26557" lon="-2.33111">
        <ele>3</ele>
        <time>2022-08-04T07:17:08.000Z</time>
      </trkpt>
      <trkpt lat="47.26541" lon="-2.331">
        <ele>3</ele>
        <time>2022-08-04T07:17:11.000Z</time>
      </trkpt>
      <trkpt lat="47.26531" lon="-2.33095">
        <ele>3</ele>
        <time>2022-08-04T07:17:13.000Z</time>
      </trkpt>
      <trkpt lat="47.26517" lon="-2.33084">
        <ele>3</ele>
        <time>2022-08-04T07:17:16.000Z</time>
      </trkpt>
      <trkpt lat="47.26512" lon="-2.3308">
        <ele>3</ele>
        <time>2022-08-04T07:17:17.000Z</time>
      </trkpt>
      <trkpt lat="47.26484" lon="-2.33053">
        <ele>3</ele>
        <time>2022-08-04T07:17:23.000Z</time>
      </trkpt>
      <trkpt lat="47.26447" lon="-2.33009">
        <ele>3</ele>
        <time>2022-08-04T07:17:32.000Z</time>
      </trkpt>
      <trkpt lat="47.26425" lon="-2.32979">
        <ele>3</ele>
        <time>2022-08-04T07:17:38.000Z</time>
      </trkpt>
      <trkpt lat="47.26422" lon="-2.32973">
        <ele>3</ele>
        <time>2022-08-04T07:17:39.000Z</time>
      </trkpt>
      <trkpt lat="47.26405" lon="-2.32925">
        <ele>3</ele>
        <time>2022-08-04T07:17:46.000Z</time>
      </trkpt>
      <trkpt lat="47.26387" lon="-2.32876">
        <ele>3</ele>
        <time>2022-08-04T07:17:53.000Z</time>
      </trkpt>
      <trkpt lat="47.26366" lon="-2.32821">
        <ele>3</ele>
        <time>2022-08-04T07:18:01.000Z</time>
      </trkpt>
      <trkpt lat="47.26351" lon="-2.32783">
        <ele>3</ele>
        <time>2022-08-04T07:18:08.000Z</time>
      </trkpt>
      <trkpt lat="47.26336" lon="-2.32739">
        <ele>3</ele>
        <time>2022-08-04T07:18:15.000Z</time>
      </trkpt>
      <trkpt lat="47.26316" lon="-2.32683">
        <ele>3</ele>
        <time>2022-08-04T07:18:23.000Z</time>
      </trkpt>
      <trkpt lat="47.26308" lon="-2.32657">
        <ele>3</ele>
        <time>2022-08-04T07:18:27.000Z</time>
      </trkpt>
      <trkpt lat="47.26307" lon="-2.32649">
        <ele>3</ele>
        <time>2022-08-04T07:18:28.000Z</time>
      </trkpt>
      <trkpt lat="47.26306" lon="-2.32613">
        <ele>3</ele>
        <time>2022-08-04T07:18:33.000Z</time>
      </trkpt>
      <trkpt lat="47.26304" lon="-2.32564">
        <ele>3</ele>
        <time>2022-08-04T07:18:40.000Z</time>
      </trkpt>
      <trkpt lat="47.26303" lon="-2.32557">
        <ele>3</ele>
        <time>2022-08-04T07:18:41.000Z</time>
      </trkpt>
      <trkpt lat="47.26305" lon="-2.32533">
        <ele>3</ele>
        <time>2022-08-04T07:18:45.000Z</time>
      </trkpt>
      <trkpt lat="47.26308" lon="-2.32528">
        <ele>3.4000000953674</ele>
        <time>2022-08-04T07:18:46.000Z</time>
      </trkpt>
      <trkpt lat="47.26311" lon="-2.32524">
        <ele>3.7999999523163</ele>
        <time>2022-08-04T07:18:47.000Z</time>
      </trkpt>
      <trkpt lat="47.26314" lon="-2.32519">
        <ele>4.1999998092651</ele>
        <time>2022-08-04T07:18:48.000Z</time>
      </trkpt>
      <trkpt lat="47.26318" lon="-2.32515">
        <ele>4.5999999046326</ele>
        <time>2022-08-04T07:18:49.000Z</time>
      </trkpt>
      <trkpt lat="47.26321" lon="-2.32511">
        <ele>5</ele>
        <time>2022-08-04T07:18:50.000Z</time>
      </trkpt>
      <trkpt lat="47.26343" lon="-2.32482">
        <ele>5</ele>
        <time>2022-08-04T07:18:56.000Z</time>
      </trkpt>
      <trkpt lat="47.26344" lon="-2.32475">
        <ele>5</ele>
        <time>2022-08-04T07:18:57.000Z</time>
      </trkpt>
      <trkpt lat="47.26339" lon="-2.32455">
        <ele>5</ele>
        <time>2022-08-04T07:19:00.000Z</time>
      </trkpt>
      <trkpt lat="47.26336" lon="-2.32449">
        <ele>5</ele>
        <time>2022-08-04T07:19:01.000Z</time>
      </trkpt>
      <trkpt lat="47.2633" lon="-2.32432">
        <ele>5</ele>
        <time>2022-08-04T07:19:04.000Z</time>
      </trkpt>
      <trkpt lat="47.26324" lon="-2.32414">
        <ele>5</ele>
        <time>2022-08-04T07:19:07.000Z</time>
      </trkpt>
      <trkpt lat="47.26311" lon="-2.3237">
        <ele>5</ele>
        <time>2022-08-04T07:19:14.000Z</time>
      </trkpt>
      <trkpt lat="47.26295" lon="-2.32319">
        <ele>5</ele>
        <time>2022-08-04T07:19:22.000Z</time>
      </trkpt>
      <trkpt lat="47.26285" lon="-2.32292">
        <ele>5.4000000953674</ele>
        <time>2022-08-04T07:19:26.000Z</time>
      </trkpt>
      <trkpt lat="47.26283" lon="-2.32286">
        <ele>5.8000001907349</ele>
        <time>2022-08-04T07:19:27.000Z</time>
      </trkpt>
      <trkpt lat="47.26281" lon="-2.32279">
        <ele>6.5999999046326</ele>
        <time>2022-08-04T07:19:28.000Z</time>
      </trkpt>
      <trkpt lat="47.26278" lon="-2.32272">
        <ele>7</ele>
        <time>2022-08-04T07:19:29.000Z</time>
      </trkpt>
      <trkpt lat="47.26276" lon="-2.32264">
        <ele>7</ele>
        <time>2022-08-04T07:19:30.000Z</time>
      </trkpt>
      <trkpt lat="47.2626" lon="-2.32217">
        <ele>6.5999999046326</ele>
        <time>2022-08-04T07:19:36.000Z</time>
      </trkpt>
      <trkpt lat="47.26257" lon="-2.32209">
        <ele>6.1999998092651</ele>
        <time>2022-08-04T07:19:37.000Z</time>
      </trkpt>
      <trkpt lat="47.26254" lon="-2.32201">
        <ele>5.8000001907349</ele>
        <time>2022-08-04T07:19:38.000Z</time>
      </trkpt>
      <trkpt lat="47.26251" lon="-2.32192">
        <ele>5.4000000953674</ele>
        <time>2022-08-04T07:19:39.000Z</time>
      </trkpt>
      <trkpt lat="47.26248" lon="-2.32184">
        <ele>4.8000001907349</ele>
        <time>2022-08-04T07:19:40.000Z</time>
      </trkpt>
      <trkpt lat="47.26234" lon="-2.32152">
        <ele>4.8000001907349</ele>
        <time>2022-08-04T07:19:44.000Z</time>
      </trkpt>
      <trkpt lat="47.26219" lon="-2.32124">
        <ele>4.4000000953674</ele>
        <time>2022-08-04T07:19:48.000Z</time>
      </trkpt>
      <trkpt lat="47.26215" lon="-2.32118">
        <ele>4</ele>
        <time>2022-08-04T07:19:49.000Z</time>
      </trkpt>
      <trkpt lat="47.26212" lon="-2.32112">
        <ele>3.5999999046326</ele>
        <time>2022-08-04T07:19:50.000Z</time>
      </trkpt>
      <trkpt lat="47.26209" lon="-2.32106">
        <ele>3.2000000476837</ele>
        <time>2022-08-04T07:19:51.000Z</time>
      </trkpt>
      <trkpt lat="47.26206" lon="-2.32099">
        <ele>2.7999999523163</ele>
        <time>2022-08-04T07:19:52.000Z</time>
      </trkpt>
      <trkpt lat="47.26195" lon="-2.32072">
        <ele>2.7999999523163</ele>
        <time>2022-08-04T07:19:56.000Z</time>
      </trkpt>
      <trkpt lat="47.26181" lon="-2.32038">
        <ele>2.7999999523163</ele>
        <time>2022-08-04T07:20:02.000Z</time>
      </trkpt>
      <trkpt lat="47.26179" lon="-2.32029">
        <ele>2.7999999523163</ele>
        <time>2022-08-04T07:20:06.000Z</time>
      </trkpt>
      <trkpt lat="47.26186" lon="-2.32023">
        <ele>2.7999999523163</ele>
        <time>2022-08-04T07:20:12.000Z</time>
      </trkpt>
      <trkpt lat="47.26191" lon="-2.32024">
        <ele>2.7999999523163</ele>
        <time>2022-08-04T07:20:15.000Z</time>
      </trkpt>
      <trkpt lat="47.26193" lon="-2.32024">
        <ele>2.7999999523163</ele>
        <time>2022-08-04T07:20:16.000Z</time>
      </trkpt>
      <trkpt lat="47.26194" lon="-2.32023">
        <ele>2.7999999523163</ele>
        <time>2022-08-04T07:20:17.000Z</time>
      </trkpt>
      <trkpt lat="47.26197" lon="-2.32009">
        <ele>2.7999999523163</ele>
        <time>2022-08-04T07:20:21.000Z</time>
      </trkpt>
      <trkpt lat="47.26207" lon="-2.31998">
        <ele>2.7999999523163</ele>
        <time>2022-08-04T07:20:26.000Z</time>
      </trkpt>
      <trkpt lat="47.26216" lon="-2.31985">
        <ele>2.7999999523163</ele>
        <time>2022-08-04T07:20:29.000Z</time>
      </trkpt>
      <trkpt lat="47.2622" lon="-2.31979">
        <ele>2.7999999523163</ele>
        <time>2022-08-04T07:20:30.000Z</time>
      </trkpt>
      <trkpt lat="47.26238" lon="-2.31964">
        <ele>2.7999999523163</ele>
        <time>2022-08-04T07:20:34.000Z</time>
      </trkpt>
      <trkpt lat="47.26245" lon="-2.31955">
        <ele>2.7999999523163</ele>
        <time>2022-08-04T07:20:37.000Z</time>
      </trkpt>
      <trkpt lat="47.26256" lon="-2.31937">
        <ele>2.7999999523163</ele>
        <time>2022-08-04T07:20:42.000Z</time>
      </trkpt>
      <trkpt lat="47.26271" lon="-2.31915">
        <ele>2.7999999523163</ele>
        <time>2022-08-04T07:20:47.000Z</time>
      </trkpt>
      <trkpt lat="47.26285" lon="-2.31902">
        <ele>2.7999999523163</ele>
        <time>2022-08-04T07:20:51.000Z</time>
      </trkpt>
      <trkpt lat="47.26287" lon="-2.319">
        <ele>2.7999999523163</ele>
        <time>2022-08-04T07:20:52.000Z</time>
      </trkpt>
      <trkpt lat="47.26294" lon="-2.31902">
        <ele>2.7999999523163</ele>
        <time>2022-08-04T07:20:55.000Z</time>
      </trkpt>
      <trkpt lat="47.26301" lon="-2.31917">
        <ele>2.7999999523163</ele>
        <time>2022-08-04T07:21:00.000Z</time>
      </trkpt>
      <trkpt lat="47.26308" lon="-2.31931">
        <ele>2.7999999523163</ele>
        <time>2022-08-04T07:21:04.000Z</time>
      </trkpt>
      <trkpt lat="47.26311" lon="-2.31933">
        <ele>2.7999999523163</ele>
        <time>2022-08-04T07:21:05.000Z</time>
      </trkpt>
      <trkpt lat="47.26314" lon="-2.31934">
        <ele>2.7999999523163</ele>
        <time>2022-08-04T07:21:06.000Z</time>
      </trkpt>
      <trkpt lat="47.26322" lon="-2.31934">
        <ele>2.7999999523163</ele>
        <time>2022-08-04T07:21:08.000Z</time>
      </trkpt>
      <trkpt lat="47.26338" lon="-2.31938">
        <ele>2.7999999523163</ele>
        <time>2022-08-04T07:21:12.000Z</time>
      </trkpt>
      <trkpt lat="47.26341" lon="-2.31941">
        <ele>2.7999999523163</ele>
        <time>2022-08-04T07:21:13.000Z</time>
      </trkpt>
      <trkpt lat="47.26353" lon="-2.31964">
        <ele>2.7999999523163</ele>
        <time>2022-08-04T07:21:18.000Z</time>
      </trkpt>
      <trkpt lat="47.26363" lon="-2.31981">
        <ele>2.7999999523163</ele>
        <time>2022-08-04T07:21:22.000Z</time>
      </trkpt>
      <trkpt lat="47.2637" lon="-2.31984">
        <ele>3.2000000476837</ele>
        <time>2022-08-04T07:21:24.000Z</time>
      </trkpt>
      <trkpt lat="47.26373" lon="-2.31985">
        <ele>3.5999999046326</ele>
        <time>2022-08-04T07:21:25.000Z</time>
      </trkpt>
      <trkpt lat="47.26375" lon="-2.31985">
        <ele>4</ele>
        <time>2022-08-04T07:21:26.000Z</time>
      </trkpt>
      <trkpt lat="47.26378" lon="-2.31986">
        <ele>4.4000000953674</ele>
        <time>2022-08-04T07:21:27.000Z</time>
      </trkpt>
      <trkpt lat="47.26381" lon="-2.31986">
        <ele>4.8000001907349</ele>
        <time>2022-08-04T07:21:28.000Z</time>
      </trkpt>
      <trkpt lat="47.26395" lon="-2.31991">
        <ele>5.1999998092651</ele>
        <time>2022-08-04T07:21:33.000Z</time>
      </trkpt>
      <trkpt lat="47.26398" lon="-2.31991">
        <ele>5.5999999046326</ele>
        <time>2022-08-04T07:21:34.000Z</time>
      </trkpt>
      <trkpt lat="47.26401" lon="-2.31993">
        <ele>6</ele>
        <time>2022-08-04T07:21:35.000Z</time>
      </trkpt>
      <trkpt lat="47.26404" lon="-2.31994">
        <ele>6.4000000953674</ele>
        <time>2022-08-04T07:21:36.000Z</time>
      </trkpt>
      <trkpt lat="47.26407" lon="-2.31996">
        <ele>6.8000001907349</ele>
        <time>2022-08-04T07:21:37.000Z</time>
      </trkpt>
      <trkpt lat="47.26423" lon="-2.31999">
        <ele>6.8000001907349</ele>
        <time>2022-08-04T07:21:41.000Z</time>
      </trkpt>
      <trkpt lat="47.26438" lon="-2.32">
        <ele>7.4000000953674</ele>
        <time>2022-08-04T07:21:45.000Z</time>
      </trkpt>
      <trkpt lat="47.26442" lon="-2.32">
        <ele>7.8000001907349</ele>
        <time>2022-08-04T07:21:46.000Z</time>
      </trkpt>
      <trkpt lat="47.26445" lon="-2.32">
        <ele>8.1999998092651</ele>
        <time>2022-08-04T07:21:47.000Z</time>
      </trkpt>
      <trkpt lat="47.26448" lon="-2.32">
        <ele>8.6000003814697</ele>
        <time>2022-08-04T07:21:48.000Z</time>
      </trkpt>
      <trkpt lat="47.26451" lon="-2.32">
        <ele>9</ele>
        <time>2022-08-04T07:21:49.000Z</time>
      </trkpt>
      <trkpt lat="47.26457" lon="-2.31999">
        <ele>9</ele>
        <time>2022-08-04T07:21:51.000Z</time>
      </trkpt>
      <trkpt lat="47.26475" lon="-2.31997">
        <ele>9.3999996185303</ele>
        <time>2022-08-04T07:21:56.000Z</time>
      </trkpt>
      <trkpt lat="47.26479" lon="-2.31998">
        <ele>10.199999809265</ele>
        <time>2022-08-04T07:21:57.000Z</time>
      </trkpt>
      <trkpt lat="47.26483" lon="-2.31998">
        <ele>10.60000038147</ele>
        <time>2022-08-04T07:21:58.000Z</time>
      </trkpt>
      <trkpt lat="47.26487" lon="-2.31998">
        <ele>11</ele>
        <time>2022-08-04T07:21:59.000Z</time>
      </trkpt>
      <trkpt lat="47.26501" lon="-2.31996">
        <ele>11</ele>
        <time>2022-08-04T07:22:03.000Z</time>
      </trkpt>
      <trkpt lat="47.26507" lon="-2.31995">
        <ele>11.60000038147</ele>
        <time>2022-08-04T07:22:05.000Z</time>
      </trkpt>
      <trkpt lat="47.26509" lon="-2.31994">
        <ele>12</ele>
        <time>2022-08-04T07:22:06.000Z</time>
      </trkpt>
      <trkpt lat="47.26511" lon="-2.31994">
        <ele>12.60000038147</ele>
        <time>2022-08-04T07:22:07.000Z</time>
      </trkpt>
      <trkpt lat="47.26513" lon="-2.31995">
        <ele>13</ele>
        <time>2022-08-04T07:22:08.000Z</time>
      </trkpt>
      <trkpt lat="47.26516" lon="-2.31996">
        <ele>13.39999961853</ele>
        <time>2022-08-04T07:22:09.000Z</time>
      </trkpt>
      <trkpt lat="47.26525" lon="-2.32002">
        <ele>13.39999961853</ele>
        <time>2022-08-04T07:22:12.000Z</time>
      </trkpt>
      <trkpt lat="47.26534" lon="-2.32012">
        <ele>13.800000190735</ele>
        <time>2022-08-04T07:22:16.000Z</time>
      </trkpt>
      <trkpt lat="47.26537" lon="-2.32014">
        <ele>14.39999961853</ele>
        <time>2022-08-04T07:22:17.000Z</time>
      </trkpt>
      <trkpt lat="47.26539" lon="-2.32017">
        <ele>14.800000190735</ele>
        <time>2022-08-04T07:22:18.000Z</time>
      </trkpt>
      <trkpt lat="47.26541" lon="-2.32021">
        <ele>15.199999809265</ele>
        <time>2022-08-04T07:22:19.000Z</time>
      </trkpt>
      <trkpt lat="47.26543" lon="-2.32026">
        <ele>15.60000038147</ele>
        <time>2022-08-04T07:22:20.000Z</time>
      </trkpt>
      <trkpt lat="47.26545" lon="-2.32033">
        <ele>15.60000038147</ele>
        <time>2022-08-04T07:22:22.000Z</time>
      </trkpt>
      <trkpt lat="47.26547" lon="-2.32035">
        <ele>15.60000038147</ele>
        <time>2022-08-04T07:22:23.000Z</time>
      </trkpt>
      <trkpt lat="47.2656" lon="-2.32035">
        <ele>15.60000038147</ele>
        <time>2022-08-04T07:22:27.000Z</time>
      </trkpt>
      <trkpt lat="47.26563" lon="-2.32035">
        <ele>15.60000038147</ele>
        <time>2022-08-04T07:22:28.000Z</time>
      </trkpt>
      <trkpt lat="47.26573" lon="-2.32032">
        <ele>16</ele>
        <time>2022-08-04T07:22:31.000Z</time>
      </trkpt>
      <trkpt lat="47.26577" lon="-2.32031">
        <ele>16.39999961853</ele>
        <time>2022-08-04T07:22:32.000Z</time>
      </trkpt>
      <trkpt lat="47.2658" lon="-2.3203">
        <ele>16.799999237061</ele>
        <time>2022-08-04T07:22:33.000Z</time>
      </trkpt>
      <trkpt lat="47.26584" lon="-2.32029">
        <ele>17.200000762939</ele>
        <time>2022-08-04T07:22:34.000Z</time>
      </trkpt>
      <trkpt lat="47.26588" lon="-2.32027">
        <ele>17.60000038147</ele>
        <time>2022-08-04T07:22:35.000Z</time>
      </trkpt>
      <trkpt lat="47.26609" lon="-2.32019">
        <ele>17.60000038147</ele>
        <time>2022-08-04T07:22:41.000Z</time>
      </trkpt>
      <trkpt lat="47.26632" lon="-2.32012">
        <ele>17.60000038147</ele>
        <time>2022-08-04T07:22:49.000Z</time>
      </trkpt>
      <trkpt lat="47.26634" lon="-2.32011">
        <ele>18.200000762939</ele>
        <time>2022-08-04T07:22:50.000Z</time>
      </trkpt>
      <trkpt lat="47.26637" lon="-2.3201">
        <ele>18.60000038147</ele>
        <time>2022-08-04T07:22:51.000Z</time>
      </trkpt>
      <trkpt lat="47.26639" lon="-2.32009">
        <ele>19</ele>
        <time>2022-08-04T07:22:52.000Z</time>
      </trkpt>
      <trkpt lat="47.26641" lon="-2.32009">
        <ele>19.39999961853</ele>
        <time>2022-08-04T07:22:53.000Z</time>
      </trkpt>
      <trkpt lat="47.26643" lon="-2.32009">
        <ele>19.799999237061</ele>
        <time>2022-08-04T07:22:54.000Z</time>
      </trkpt>
      <trkpt lat="47.26646" lon="-2.3201">
        <ele>19.799999237061</ele>
        <time>2022-08-04T07:22:56.000Z</time>
      </trkpt>
      <trkpt lat="47.26652" lon="-2.32025">
        <ele>19.799999237061</ele>
        <time>2022-08-04T07:23:01.000Z</time>
      </trkpt>
      <trkpt lat="47.26659" lon="-2.32056">
        <ele>19.799999237061</ele>
        <time>2022-08-04T07:23:08.000Z</time>
      </trkpt>
      <trkpt lat="47.26673" lon="-2.32108">
        <ele>19.799999237061</ele>
        <time>2022-08-04T07:23:18.000Z</time>
      </trkpt>
      <trkpt lat="47.26677" lon="-2.32124">
        <ele>19.799999237061</ele>
        <time>2022-08-04T07:23:22.000Z</time>
      </trkpt>
      <trkpt lat="47.26679" lon="-2.32124">
        <ele>19.799999237061</ele>
        <time>2022-08-04T07:23:23.000Z</time>
      </trkpt>
      <trkpt lat="47.26682" lon="-2.32115">
        <ele>19.799999237061</ele>
        <time>2022-08-04T07:23:26.000Z</time>
      </trkpt>
      <trkpt lat="47.26683" lon="-2.32101">
        <ele>19.799999237061</ele>
        <time>2022-08-04T07:23:29.000Z</time>
      </trkpt>
      <trkpt lat="47.26683" lon="-2.3209">
        <ele>19.799999237061</ele>
        <time>2022-08-04T07:23:31.000Z</time>
      </trkpt>
      <trkpt lat="47.26684" lon="-2.32064">
        <ele>19.799999237061</ele>
        <time>2022-08-04T07:23:36.000Z</time>
      </trkpt>
      <trkpt lat="47.26687" lon="-2.3204">
        <ele>19.799999237061</ele>
        <time>2022-08-04T07:23:41.000Z</time>
      </trkpt>
      <trkpt lat="47.26693" lon="-2.32022">
        <ele>19.799999237061</ele>
        <time>2022-08-04T07:23:45.000Z</time>
      </trkpt>
      <trkpt lat="47.26703" lon="-2.32006">
        <ele>19.799999237061</ele>
        <time>2022-08-04T07:23:49.000Z</time>
      </trkpt>
      <trkpt lat="47.26708" lon="-2.32002">
        <ele>19.799999237061</ele>
        <time>2022-08-04T07:23:50.000Z</time>
      </trkpt>
      <trkpt lat="47.26726" lon="-2.31991">
        <ele>19.799999237061</ele>
        <time>2022-08-04T07:23:54.000Z</time>
      </trkpt>
      <trkpt lat="47.2673" lon="-2.31987">
        <ele>19.39999961853</ele>
        <time>2022-08-04T07:23:55.000Z</time>
      </trkpt>
      <trkpt lat="47.26735" lon="-2.31983">
        <ele>18.799999237061</ele>
        <time>2022-08-04T07:23:56.000Z</time>
      </trkpt>
      <trkpt lat="47.2674" lon="-2.31979">
        <ele>18.39999961853</ele>
        <time>2022-08-04T07:23:57.000Z</time>
      </trkpt>
      <trkpt lat="47.26745" lon="-2.31974">
        <ele>18</ele>
        <time>2022-08-04T07:23:58.000Z</time>
      </trkpt>
      <trkpt lat="47.26748" lon="-2.31969">
        <ele>17.39999961853</ele>
        <time>2022-08-04T07:23:59.000Z</time>
      </trkpt>
      <trkpt lat="47.26755" lon="-2.31956">
        <ele>17.39999961853</ele>
        <time>2022-08-04T07:24:01.000Z</time>
      </trkpt>
      <trkpt lat="47.26762" lon="-2.31948">
        <ele>17.39999961853</ele>
        <time>2022-08-04T07:24:03.000Z</time>
      </trkpt>
      <trkpt lat="47.2677" lon="-2.31953">
        <ele>17.39999961853</ele>
        <time>2022-08-04T07:24:05.000Z</time>
      </trkpt>
      <trkpt lat="47.26778" lon="-2.31971">
        <ele>17</ele>
        <time>2022-08-04T07:24:08.000Z</time>
      </trkpt>
      <trkpt lat="47.26782" lon="-2.31977">
        <ele>16.60000038147</ele>
        <time>2022-08-04T07:24:09.000Z</time>
      </trkpt>
      <trkpt lat="47.26786" lon="-2.31984">
        <ele>16.200000762939</ele>
        <time>2022-08-04T07:24:10.000Z</time>
      </trkpt>
      <trkpt lat="47.2679" lon="-2.31991">
        <ele>15.800000190735</ele>
        <time>2022-08-04T07:24:11.000Z</time>
      </trkpt>
      <trkpt lat="47.26794" lon="-2.31998">
        <ele>15.39999961853</ele>
        <time>2022-08-04T07:24:12.000Z</time>
      </trkpt>
      <trkpt lat="47.26806" lon="-2.32021">
        <ele>15.39999961853</ele>
        <time>2022-08-04T07:24:15.000Z</time>
      </trkpt>
      <trkpt lat="47.26809" lon="-2.32029">
        <ele>15.39999961853</ele>
        <time>2022-08-04T07:24:16.000Z</time>
      </trkpt>
      <trkpt lat="47.26812" lon="-2.32039">
        <ele>15</ele>
        <time>2022-08-04T07:24:17.000Z</time>
      </trkpt>
      <trkpt lat="47.26814" lon="-2.32048">
        <ele>14.39999961853</ele>
        <time>2022-08-04T07:24:18.000Z</time>
      </trkpt>
      <trkpt lat="47.26817" lon="-2.32057">
        <ele>14</ele>
        <time>2022-08-04T07:24:19.000Z</time>
      </trkpt>
      <trkpt lat="47.26819" lon="-2.32066">
        <ele>13.60000038147</ele>
        <time>2022-08-04T07:24:20.000Z</time>
      </trkpt>
      <trkpt lat="47.26822" lon="-2.32076">
        <ele>13.199999809265</ele>
        <time>2022-08-04T07:24:21.000Z</time>
      </trkpt>
      <trkpt lat="47.26834" lon="-2.32119">
        <ele>13.199999809265</ele>
        <time>2022-08-04T07:24:26.000Z</time>
      </trkpt>
      <trkpt lat="47.26843" lon="-2.32154">
        <ele>12.800000190735</ele>
        <time>2022-08-04T07:24:30.000Z</time>
      </trkpt>
      <trkpt lat="47.26846" lon="-2.32162">
        <ele>12.39999961853</ele>
        <time>2022-08-04T07:24:31.000Z</time>
      </trkpt>
      <trkpt lat="47.26848" lon="-2.32169">
        <ele>11.800000190735</ele>
        <time>2022-08-04T07:24:32.000Z</time>
      </trkpt>
      <trkpt lat="47.26851" lon="-2.32177">
        <ele>11.39999961853</ele>
        <time>2022-08-04T07:24:33.000Z</time>
      </trkpt>
      <trkpt lat="47.26854" lon="-2.32185">
        <ele>11</ele>
        <time>2022-08-04T07:24:34.000Z</time>
      </trkpt>
      <trkpt lat="47.26869" lon="-2.32215">
        <ele>11</ele>
        <time>2022-08-04T07:24:38.000Z</time>
      </trkpt>
      <trkpt lat="47.26886" lon="-2.32245">
        <ele>10.60000038147</ele>
        <time>2022-08-04T07:24:42.000Z</time>
      </trkpt>
      <trkpt lat="47.2689" lon="-2.32253">
        <ele>10</ele>
        <time>2022-08-04T07:24:43.000Z</time>
      </trkpt>
      <trkpt lat="47.26894" lon="-2.3226">
        <ele>9.6000003814697</ele>
        <time>2022-08-04T07:24:44.000Z</time>
      </trkpt>
      <trkpt lat="47.26898" lon="-2.32267">
        <ele>9.1999998092651</ele>
        <time>2022-08-04T07:24:45.000Z</time>
      </trkpt>
      <trkpt lat="47.26903" lon="-2.32275">
        <ele>8.6000003814697</ele>
        <time>2022-08-04T07:24:46.000Z</time>
      </trkpt>
      <trkpt lat="47.26907" lon="-2.32283">
        <ele>8.6000003814697</ele>
        <time>2022-08-04T07:24:47.000Z</time>
      </trkpt>
      <trkpt lat="47.2691" lon="-2.32293">
        <ele>8.6000003814697</ele>
        <time>2022-08-04T07:24:48.000Z</time>
      </trkpt>
      <trkpt lat="47.26914" lon="-2.32302">
        <ele>8.1999998092651</ele>
        <time>2022-08-04T07:24:49.000Z</time>
      </trkpt>
      <trkpt lat="47.26916" lon="-2.32312">
        <ele>7.4000000953674</ele>
        <time>2022-08-04T07:24:50.000Z</time>
      </trkpt>
      <trkpt lat="47.26919" lon="-2.32321">
        <ele>7</ele>
        <time>2022-08-04T07:24:51.000Z</time>
      </trkpt>
      <trkpt lat="47.26921" lon="-2.32329">
        <ele>6.5999999046326</ele>
        <time>2022-08-04T07:24:52.000Z</time>
      </trkpt>
      <trkpt lat="47.26933" lon="-2.32351">
        <ele>6.5999999046326</ele>
        <time>2022-08-04T07:24:55.000Z</time>
      </trkpt>
      <trkpt lat="47.26936" lon="-2.32357">
        <ele>6.5999999046326</ele>
        <time>2022-08-04T07:24:56.000Z</time>
      </trkpt>
      <trkpt lat="47.26939" lon="-2.32364">
        <ele>6.5999999046326</ele>
        <time>2022-08-04T07:24:57.000Z</time>
      </trkpt>
      <trkpt lat="47.26945" lon="-2.32379">
        <ele>6.5999999046326</ele>
        <time>2022-08-04T07:24:59.000Z</time>
      </trkpt>
      <trkpt lat="47.26963" lon="-2.32427">
        <ele>6.5999999046326</ele>
        <time>2022-08-04T07:25:05.000Z</time>
      </trkpt>
      <trkpt lat="47.26968" lon="-2.32434">
        <ele>6.5999999046326</ele>
        <time>2022-08-04T07:25:06.000Z</time>
      </trkpt>
      <trkpt lat="47.26973" lon="-2.32441">
        <ele>6.1999998092651</ele>
        <time>2022-08-04T07:25:07.000Z</time>
      </trkpt>
      <trkpt lat="47.26977" lon="-2.32448">
        <ele>5.8000001907349</ele>
        <time>2022-08-04T07:25:08.000Z</time>
      </trkpt>
      <trkpt lat="47.26981" lon="-2.32454">
        <ele>5.4000000953674</ele>
        <time>2022-08-04T07:25:09.000Z</time>
      </trkpt>
      <trkpt lat="47.26985" lon="-2.32461">
        <ele>4.8000001907349</ele>
        <time>2022-08-04T07:25:10.000Z</time>
      </trkpt>
      <trkpt lat="47.26988" lon="-2.32468">
        <ele>4.4000000953674</ele>
        <time>2022-08-04T07:25:11.000Z</time>
      </trkpt>
      <trkpt lat="47.26999" lon="-2.3249">
        <ele>4.4000000953674</ele>
        <time>2022-08-04T07:25:14.000Z</time>
      </trkpt>
      <trkpt lat="47.27006" lon="-2.32502">
        <ele>4.4000000953674</ele>
        <time>2022-08-04T07:25:16.000Z</time>
      </trkpt>
      <trkpt lat="47.27015" lon="-2.32503">
        <ele>4.4000000953674</ele>
        <time>2022-08-04T07:25:18.000Z</time>
      </trkpt>
      <trkpt lat="47.2702" lon="-2.32501">
        <ele>4</ele>
        <time>2022-08-04T07:25:19.000Z</time>
      </trkpt>
      <trkpt lat="47.27025" lon="-2.32499">
        <ele>3.5999999046326</ele>
        <time>2022-08-04T07:25:20.000Z</time>
      </trkpt>
      <trkpt lat="47.27028" lon="-2.32493">
        <ele>3.2000000476837</ele>
        <time>2022-08-04T07:25:21.000Z</time>
      </trkpt>
      <trkpt lat="47.2703" lon="-2.32485">
        <ele>2.5999999046326</ele>
        <time>2022-08-04T07:25:22.000Z</time>
      </trkpt>
      <trkpt lat="47.2703" lon="-2.32478">
        <ele>2.2000000476837</ele>
        <time>2022-08-04T07:25:23.000Z</time>
      </trkpt>
      <trkpt lat="47.2703" lon="-2.32463">
        <ele>2.2000000476837</ele>
        <time>2022-08-04T07:25:25.000Z</time>
      </trkpt>
      <trkpt lat="47.2703" lon="-2.32455">
        <ele>2.2000000476837</ele>
        <time>2022-08-04T07:25:26.000Z</time>
      </trkpt>
      <trkpt lat="47.2703" lon="-2.32436">
        <ele>2.2000000476837</ele>
        <time>2022-08-04T07:25:28.000Z</time>
      </trkpt>
      <trkpt lat="47.27029" lon="-2.32427">
        <ele>2.2000000476837</ele>
        <time>2022-08-04T07:25:29.000Z</time>
      </trkpt>
      <trkpt lat="47.27026" lon="-2.32402">
        <ele>2.2000000476837</ele>
        <time>2022-08-04T07:25:32.000Z</time>
      </trkpt>
      <trkpt lat="47.27022" lon="-2.32369">
        <ele>2.2000000476837</ele>
        <time>2022-08-04T07:25:36.000Z</time>
      </trkpt>
      <trkpt lat="47.27018" lon="-2.32335">
        <ele>2.2000000476837</ele>
        <time>2022-08-04T07:25:40.000Z</time>
      </trkpt>
      <trkpt lat="47.27017" lon="-2.32318">
        <ele>2.2000000476837</ele>
        <time>2022-08-04T07:25:42.000Z</time>
      </trkpt>
      <trkpt lat="47.27017" lon="-2.32277">
        <ele>2.2000000476837</ele>
        <time>2022-08-04T07:25:47.000Z</time>
      </trkpt>
      <trkpt lat="47.27018" lon="-2.32234">
        <ele>2.2000000476837</ele>
        <time>2022-08-04T07:25:52.000Z</time>
      </trkpt>
      <trkpt lat="47.27017" lon="-2.32226">
        <ele>2.2000000476837</ele>
        <time>2022-08-04T07:25:53.000Z</time>
      </trkpt>
      <trkpt lat="47.27012" lon="-2.32202">
        <ele>2.2000000476837</ele>
        <time>2022-08-04T07:25:56.000Z</time>
      </trkpt>
      <trkpt lat="47.27007" lon="-2.32187">
        <ele>2.2000000476837</ele>
        <time>2022-08-04T07:25:58.000Z</time>
      </trkpt>
      <trkpt lat="47.26989" lon="-2.32156">
        <ele>2.2000000476837</ele>
        <time>2022-08-04T07:26:03.000Z</time>
      </trkpt>
      <trkpt lat="47.26991" lon="-2.32137">
        <ele>2.2000000476837</ele>
        <time>2022-08-04T07:26:06.000Z</time>
      </trkpt>
      <trkpt lat="47.26998" lon="-2.3213">
        <ele>2.2000000476837</ele>
        <time>2022-08-04T07:26:08.000Z</time>
      </trkpt>
      <trkpt lat="47.27004" lon="-2.32123">
        <ele>2.2000000476837</ele>
        <time>2022-08-04T07:26:10.000Z</time>
      </trkpt>
      <trkpt lat="47.27007" lon="-2.32118">
        <ele>2.2000000476837</ele>
        <time>2022-08-04T07:26:11.000Z</time>
      </trkpt>
      <trkpt lat="47.27012" lon="-2.32099">
        <ele>2.2000000476837</ele>
        <time>2022-08-04T07:26:14.000Z</time>
      </trkpt>
      <trkpt lat="47.27015" lon="-2.32067">
        <ele>2.2000000476837</ele>
        <time>2022-08-04T07:26:19.000Z</time>
      </trkpt>
      <trkpt lat="47.27015" lon="-2.32042">
        <ele>2.5999999046326</ele>
        <time>2022-08-04T07:26:23.000Z</time>
      </trkpt>
      <trkpt lat="47.27014" lon="-2.32037">
        <ele>3</ele>
        <time>2022-08-04T07:26:24.000Z</time>
      </trkpt>
      <trkpt lat="47.27013" lon="-2.32031">
        <ele>3.5999999046326</ele>
        <time>2022-08-04T07:26:25.000Z</time>
      </trkpt>
      <trkpt lat="47.27011" lon="-2.32025">
        <ele>4</ele>
        <time>2022-08-04T07:26:26.000Z</time>
      </trkpt>
      <trkpt lat="47.2701" lon="-2.32019">
        <ele>4.4000000953674</ele>
        <time>2022-08-04T07:26:27.000Z</time>
      </trkpt>
      <trkpt lat="47.27006" lon="-2.31996">
        <ele>4.4000000953674</ele>
        <time>2022-08-04T07:26:31.000Z</time>
      </trkpt>
      <trkpt lat="47.27007" lon="-2.31989">
        <ele>4.4000000953674</ele>
        <time>2022-08-04T07:26:32.000Z</time>
      </trkpt>
      <trkpt lat="47.27014" lon="-2.31981">
        <ele>4.8000001907349</ele>
        <time>2022-08-04T07:26:34.000Z</time>
      </trkpt>
      <trkpt lat="47.27017" lon="-2.31979">
        <ele>5.1999998092651</ele>
        <time>2022-08-04T07:26:35.000Z</time>
      </trkpt>
      <trkpt lat="47.2702" lon="-2.31977">
        <ele>5.5999999046326</ele>
        <time>2022-08-04T07:26:36.000Z</time>
      </trkpt>
      <trkpt lat="47.27024" lon="-2.31975">
        <ele>6</ele>
        <time>2022-08-04T07:26:37.000Z</time>
      </trkpt>
      <trkpt lat="47.27026" lon="-2.31973">
        <ele>6.4000000953674</ele>
        <time>2022-08-04T07:26:38.000Z</time>
      </trkpt>
      <trkpt lat="47.27029" lon="-2.31971">
        <ele>6.4000000953674</ele>
        <time>2022-08-04T07:26:39.000Z</time>
      </trkpt>
      <trkpt lat="47.27043" lon="-2.31961">
        <ele>6.4000000953674</ele>
        <time>2022-08-04T07:26:44.000Z</time>
      </trkpt>
      <trkpt lat="47.27056" lon="-2.31962">
        <ele>6.4000000953674</ele>
        <time>2022-08-04T07:26:48.000Z</time>
      </trkpt>
      <trkpt lat="47.2706" lon="-2.3196">
        <ele>6.4000000953674</ele>
        <time>2022-08-04T07:26:52.000Z</time>
      </trkpt>
      <trkpt lat="47.2707" lon="-2.31959">
        <ele>6.4000000953674</ele>
        <time>2022-08-04T07:26:57.000Z</time>
      </trkpt>
      <trkpt lat="47.27071" lon="-2.31957">
        <ele>6.4000000953674</ele>
        <time>2022-08-04T07:26:58.000Z</time>
      </trkpt>
      <trkpt lat="47.27072" lon="-2.31951">
        <ele>6.4000000953674</ele>
        <time>2022-08-04T07:27:00.000Z</time>
      </trkpt>
      <trkpt lat="47.27072" lon="-2.31933">
        <ele>6.4000000953674</ele>
        <time>2022-08-04T07:27:05.000Z</time>
      </trkpt>
      <trkpt lat="47.27072" lon="-2.31912">
        <ele>6.4000000953674</ele>
        <time>2022-08-04T07:27:10.000Z</time>
      </trkpt>
      <trkpt lat="47.27072" lon="-2.3189">
        <ele>6.4000000953674</ele>
        <time>2022-08-04T07:27:16.000Z</time>
      </trkpt>
      <trkpt lat="47.27076" lon="-2.31877">
        <ele>6.4000000953674</ele>
        <time>2022-08-04T07:27:21.000Z</time>
      </trkpt>
      <trkpt lat="47.27078" lon="-2.31866">
        <ele>6.4000000953674</ele>
        <time>2022-08-04T07:27:25.000Z</time>
      </trkpt>
      <trkpt lat="47.27076" lon="-2.31859">
        <ele>6.4000000953674</ele>
        <time>2022-08-04T07:27:27.000Z</time>
      </trkpt>
      <trkpt lat="47.27065" lon="-2.31852">
        <ele>6.4000000953674</ele>
        <time>2022-08-04T07:27:31.000Z</time>
      </trkpt>
      <trkpt lat="47.27061" lon="-2.31837">
        <ele>6.4000000953674</ele>
        <time>2022-08-04T07:27:35.000Z</time>
      </trkpt>
      <trkpt lat="47.27059" lon="-2.31821">
        <ele>6.8000001907349</ele>
        <time>2022-08-04T07:27:40.000Z</time>
      </trkpt>
      <trkpt lat="47.27059" lon="-2.31818">
        <ele>7.1999998092651</ele>
        <time>2022-08-04T07:27:41.000Z</time>
      </trkpt>
      <trkpt lat="47.27059" lon="-2.31814">
        <ele>7.5999999046326</ele>
        <time>2022-08-04T07:27:42.000Z</time>
      </trkpt>
      <trkpt lat="47.27058" lon="-2.31811">
        <ele>8.3999996185303</ele>
        <time>2022-08-04T07:27:43.000Z</time>
      </trkpt>
      <trkpt lat="47.27057" lon="-2.31796">
        <ele>8.3999996185303</ele>
        <time>2022-08-04T07:27:48.000Z</time>
      </trkpt>
      <trkpt lat="47.27055" lon="-2.31776">
        <ele>8.3999996185303</ele>
        <time>2022-08-04T07:27:54.000Z</time>
      </trkpt>
      <trkpt lat="47.27051" lon="-2.3176">
        <ele>8.3999996185303</ele>
        <time>2022-08-04T07:28:00.000Z</time>
      </trkpt>
      <trkpt lat="47.27052" lon="-2.31745">
        <ele>8.3999996185303</ele>
        <time>2022-08-04T07:28:05.000Z</time>
      </trkpt>
      <trkpt lat="47.27052" lon="-2.31738">
        <ele>8.3999996185303</ele>
        <time>2022-08-04T07:28:07.000Z</time>
      </trkpt>
      <trkpt lat="47.27049" lon="-2.31732">
        <ele>8.3999996185303</ele>
        <time>2022-08-04T07:28:09.000Z</time>
      </trkpt>
      <trkpt lat="47.27044" lon="-2.31727">
        <ele>8.8000001907349</ele>
        <time>2022-08-04T07:28:11.000Z</time>
      </trkpt>
      <trkpt lat="47.2704" lon="-2.31725">
        <ele>9.1999998092651</ele>
        <time>2022-08-04T07:28:12.000Z</time>
      </trkpt>
      <trkpt lat="47.27038" lon="-2.31723">
        <ele>9.6000003814697</ele>
        <time>2022-08-04T07:28:13.000Z</time>
      </trkpt>
      <trkpt lat="47.27034" lon="-2.31721">
        <ele>10</ele>
        <time>2022-08-04T07:28:14.000Z</time>
      </trkpt>
      <trkpt lat="47.27031" lon="-2.31719">
        <ele>10.39999961853</ele>
        <time>2022-08-04T07:28:15.000Z</time>
      </trkpt>
      <trkpt lat="47.27027" lon="-2.31714">
        <ele>10.39999961853</ele>
        <time>2022-08-04T07:28:17.000Z</time>
      </trkpt>
      <trkpt lat="47.27026" lon="-2.31711">
        <ele>10.39999961853</ele>
        <time>2022-08-04T07:28:18.000Z</time>
      </trkpt>
      <trkpt lat="47.27029" lon="-2.31692">
        <ele>10.39999961853</ele>
        <time>2022-08-04T07:28:22.000Z</time>
      </trkpt>
      <trkpt lat="47.27031" lon="-2.31672">
        <ele>10.39999961853</ele>
        <time>2022-08-04T07:28:26.000Z</time>
      </trkpt>
      <trkpt lat="47.27031" lon="-2.31666">
        <ele>11</ele>
        <time>2022-08-04T07:28:27.000Z</time>
      </trkpt>
      <trkpt lat="47.27031" lon="-2.3166">
        <ele>11.39999961853</ele>
        <time>2022-08-04T07:28:28.000Z</time>
      </trkpt>
      <trkpt lat="47.2703" lon="-2.31653">
        <ele>11.800000190735</ele>
        <time>2022-08-04T07:28:29.000Z</time>
      </trkpt>
      <trkpt lat="47.2703" lon="-2.31648">
        <ele>12.199999809265</ele>
        <time>2022-08-04T07:28:30.000Z</time>
      </trkpt>
      <trkpt lat="47.2703" lon="-2.31641">
        <ele>12.60000038147</ele>
        <time>2022-08-04T07:28:31.000Z</time>
      </trkpt>
      <trkpt lat="47.2703" lon="-2.31618">
        <ele>12.60000038147</ele>
        <time>2022-08-04T07:28:35.000Z</time>
      </trkpt>
      <trkpt lat="47.27029" lon="-2.3161">
        <ele>13</ele>
        <time>2022-08-04T07:28:37.000Z</time>
      </trkpt>
      <trkpt lat="47.27029" lon="-2.31606">
        <ele>13.39999961853</ele>
        <time>2022-08-04T07:28:38.000Z</time>
      </trkpt>
      <trkpt lat="47.27028" lon="-2.31603">
        <ele>14</ele>
        <time>2022-08-04T07:28:39.000Z</time>
      </trkpt>
      <trkpt lat="47.27028" lon="-2.316">
        <ele>14.39999961853</ele>
        <time>2022-08-04T07:28:40.000Z</time>
      </trkpt>
      <trkpt lat="47.27026" lon="-2.31597">
        <ele>14.800000190735</ele>
        <time>2022-08-04T07:28:41.000Z</time>
      </trkpt>
      <trkpt lat="47.27023" lon="-2.3159">
        <ele>14.800000190735</ele>
        <time>2022-08-04T07:28:44.000Z</time>
      </trkpt>
      <trkpt lat="47.27016" lon="-2.31577">
        <ele>15.199999809265</ele>
        <time>2022-08-04T07:28:48.000Z</time>
      </trkpt>
      <trkpt lat="47.27014" lon="-2.31571">
        <ele>15.60000038147</ele>
        <time>2022-08-04T07:28:49.000Z</time>
      </trkpt>
      <trkpt lat="47.27013" lon="-2.31567">
        <ele>16</ele>
        <time>2022-08-04T07:28:50.000Z</time>
      </trkpt>
      <trkpt lat="47.27011" lon="-2.31562">
        <ele>16.39999961853</ele>
        <time>2022-08-04T07:28:51.000Z</time>
      </trkpt>
      <trkpt lat="47.2701" lon="-2.31557">
        <ele>16.799999237061</ele>
        <time>2022-08-04T07:28:52.000Z</time>
      </trkpt>
      <trkpt lat="47.27008" lon="-2.31551">
        <ele>16.799999237061</ele>
        <time>2022-08-04T07:28:53.000Z</time>
      </trkpt>
      <trkpt lat="47.27002" lon="-2.3153">
        <ele>17.200000762939</ele>
        <time>2022-08-04T07:28:57.000Z</time>
      </trkpt>
      <trkpt lat="47.27001" lon="-2.31524">
        <ele>17.60000038147</ele>
        <time>2022-08-04T07:28:58.000Z</time>
      </trkpt>
      <trkpt lat="47.27" lon="-2.31517">
        <ele>18</ele>
        <time>2022-08-04T07:28:59.000Z</time>
      </trkpt>
      <trkpt lat="47.26998" lon="-2.31512">
        <ele>18.60000038147</ele>
        <time>2022-08-04T07:29:00.000Z</time>
      </trkpt>
      <trkpt lat="47.26997" lon="-2.31507">
        <ele>19</ele>
        <time>2022-08-04T07:29:01.000Z</time>
      </trkpt>
      <trkpt lat="47.26995" lon="-2.31498">
        <ele>19</ele>
        <time>2022-08-04T07:29:03.000Z</time>
      </trkpt>
      <trkpt lat="47.26991" lon="-2.31473">
        <ele>19</ele>
        <time>2022-08-04T07:29:08.000Z</time>
      </trkpt>
      <trkpt lat="47.2699" lon="-2.31469">
        <ele>19.39999961853</ele>
        <time>2022-08-04T07:29:09.000Z</time>
      </trkpt>
      <trkpt lat="47.26989" lon="-2.31464">
        <ele>19.799999237061</ele>
        <time>2022-08-04T07:29:10.000Z</time>
      </trkpt>
      <trkpt lat="47.26988" lon="-2.3146">
        <ele>20.200000762939</ele>
        <time>2022-08-04T07:29:11.000Z</time>
      </trkpt>
      <trkpt lat="47.26988" lon="-2.31456">
        <ele>20.60000038147</ele>
        <time>2022-08-04T07:29:12.000Z</time>
      </trkpt>
      <trkpt lat="47.26987" lon="-2.31451">
        <ele>21</ele>
        <time>2022-08-04T07:29:13.000Z</time>
      </trkpt>
      <trkpt lat="47.26987" lon="-2.31425">
        <ele>21</ele>
        <time>2022-08-04T07:29:18.000Z</time>
      </trkpt>
      <trkpt lat="47.26985" lon="-2.31401">
        <ele>21</ele>
        <time>2022-08-04T07:29:23.000Z</time>
      </trkpt>
      <trkpt lat="47.26986" lon="-2.31397">
        <ele>21</ele>
        <time>2022-08-04T07:29:24.000Z</time>
      </trkpt>
      <trkpt lat="47.26986" lon="-2.31391">
        <ele>21.39999961853</ele>
        <time>2022-08-04T07:29:25.000Z</time>
      </trkpt>
      <trkpt lat="47.26986" lon="-2.31386">
        <ele>21.799999237061</ele>
        <time>2022-08-04T07:29:26.000Z</time>
      </trkpt>
      <trkpt lat="47.26986" lon="-2.31381">
        <ele>22.200000762939</ele>
        <time>2022-08-04T07:29:27.000Z</time>
      </trkpt>
      <trkpt lat="47.26986" lon="-2.31377">
        <ele>22.60000038147</ele>
        <time>2022-08-04T07:29:28.000Z</time>
      </trkpt>
      <trkpt lat="47.26986" lon="-2.31373">
        <ele>23</ele>
        <time>2022-08-04T07:29:29.000Z</time>
      </trkpt>
      <trkpt lat="47.26985" lon="-2.31354">
        <ele>23</ele>
        <time>2022-08-04T07:29:33.000Z</time>
      </trkpt>
      <trkpt lat="47.2698" lon="-2.31337">
        <ele>23</ele>
        <time>2022-08-04T07:29:37.000Z</time>
      </trkpt>
      <trkpt lat="47.26978" lon="-2.31312">
        <ele>23.39999961853</ele>
        <time>2022-08-04T07:29:41.000Z</time>
      </trkpt>
      <trkpt lat="47.26977" lon="-2.31306">
        <ele>24</ele>
        <time>2022-08-04T07:29:42.000Z</time>
      </trkpt>
      <trkpt lat="47.26977" lon="-2.313">
        <ele>24.39999961853</ele>
        <time>2022-08-04T07:29:43.000Z</time>
      </trkpt>
      <trkpt lat="47.26976" lon="-2.31294">
        <ele>24.799999237061</ele>
        <time>2022-08-04T07:29:44.000Z</time>
      </trkpt>
      <trkpt lat="47.26976" lon="-2.31288">
        <ele>25.200000762939</ele>
        <time>2022-08-04T07:29:45.000Z</time>
      </trkpt>
      <trkpt lat="47.26975" lon="-2.3127">
        <ele>25.200000762939</ele>
        <time>2022-08-04T07:29:48.000Z</time>
      </trkpt>
      <trkpt lat="47.26976" lon="-2.31236">
        <ele>25.200000762939</ele>
        <time>2022-08-04T07:29:53.000Z</time>
      </trkpt>
      <trkpt lat="47.26982" lon="-2.31194">
        <ele>25.200000762939</ele>
        <time>2022-08-04T07:29:59.000Z</time>
      </trkpt>
      <trkpt lat="47.26987" lon="-2.31154">
        <ele>24.60000038147</ele>
        <time>2022-08-04T07:30:04.000Z</time>
      </trkpt>
      <trkpt lat="47.26989" lon="-2.31146">
        <ele>24.200000762939</ele>
        <time>2022-08-04T07:30:05.000Z</time>
      </trkpt>
      <trkpt lat="47.26989" lon="-2.31137">
        <ele>23.799999237061</ele>
        <time>2022-08-04T07:30:06.000Z</time>
      </trkpt>
      <trkpt lat="47.2699" lon="-2.31127">
        <ele>23.39999961853</ele>
        <time>2022-08-04T07:30:07.000Z</time>
      </trkpt>
      <trkpt lat="47.26991" lon="-2.31119">
        <ele>23</ele>
        <time>2022-08-04T07:30:08.000Z</time>
      </trkpt>
      <trkpt lat="47.2699" lon="-2.31111">
        <ele>23</ele>
        <time>2022-08-04T07:30:09.000Z</time>
      </trkpt>
      <trkpt lat="47.2699" lon="-2.31104">
        <ele>23</ele>
        <time>2022-08-04T07:30:10.000Z</time>
      </trkpt>
      <trkpt lat="47.26988" lon="-2.31087">
        <ele>22.60000038147</ele>
        <time>2022-08-04T07:30:12.000Z</time>
      </trkpt>
      <trkpt lat="47.26988" lon="-2.31081">
        <ele>22.200000762939</ele>
        <time>2022-08-04T07:30:13.000Z</time>
      </trkpt>
      <trkpt lat="47.26988" lon="-2.31076">
        <ele>21.799999237061</ele>
        <time>2022-08-04T07:30:14.000Z</time>
      </trkpt>
      <trkpt lat="47.26989" lon="-2.31072">
        <ele>21.39999961853</ele>
        <time>2022-08-04T07:30:15.000Z</time>
      </trkpt>
      <trkpt lat="47.26991" lon="-2.31068">
        <ele>21</ele>
        <time>2022-08-04T07:30:16.000Z</time>
      </trkpt>
      <trkpt lat="47.26995" lon="-2.31062">
        <ele>21</ele>
        <time>2022-08-04T07:30:18.000Z</time>
      </trkpt>
      <trkpt lat="47.2701" lon="-2.31048">
        <ele>21</ele>
        <time>2022-08-04T07:30:22.000Z</time>
      </trkpt>
      <trkpt lat="47.27015" lon="-2.31045">
        <ele>20.39999961853</ele>
        <time>2022-08-04T07:30:23.000Z</time>
      </trkpt>
      <trkpt lat="47.2702" lon="-2.31041">
        <ele>20</ele>
        <time>2022-08-04T07:30:24.000Z</time>
      </trkpt>
      <trkpt lat="47.27025" lon="-2.31036">
        <ele>19.60000038147</ele>
        <time>2022-08-04T07:30:25.000Z</time>
      </trkpt>
      <trkpt lat="47.2703" lon="-2.31031">
        <ele>19.200000762939</ele>
        <time>2022-08-04T07:30:26.000Z</time>
      </trkpt>
      <trkpt lat="47.27035" lon="-2.31027">
        <ele>18.799999237061</ele>
        <time>2022-08-04T07:30:27.000Z</time>
      </trkpt>
      <trkpt lat="47.27053" lon="-2.31008">
        <ele>18.799999237061</ele>
        <time>2022-08-04T07:30:31.000Z</time>
      </trkpt>
      <trkpt lat="47.27056" lon="-2.30997">
        <ele>18.799999237061</ele>
        <time>2022-08-04T07:30:33.000Z</time>
      </trkpt>
      <trkpt lat="47.27054" lon="-2.30979">
        <ele>17.799999237061</ele>
        <time>2022-08-04T07:30:36.000Z</time>
      </trkpt>
      <trkpt lat="47.27053" lon="-2.30972">
        <ele>17.39999961853</ele>
        <time>2022-08-04T07:30:37.000Z</time>
      </trkpt>
      <trkpt lat="47.27054" lon="-2.30967">
        <ele>17</ele>
        <time>2022-08-04T07:30:38.000Z</time>
      </trkpt>
      <trkpt lat="47.27054" lon="-2.30961">
        <ele>16.60000038147</ele>
        <time>2022-08-04T07:30:39.000Z</time>
      </trkpt>
      <trkpt lat="47.27054" lon="-2.30956">
        <ele>16.60000038147</ele>
        <time>2022-08-04T07:30:40.000Z</time>
      </trkpt>
      <trkpt lat="47.27049" lon="-2.30939">
        <ele>16.60000038147</ele>
        <time>2022-08-04T07:30:44.000Z</time>
      </trkpt>
      <trkpt lat="47.27046" lon="-2.3093">
        <ele>16.60000038147</ele>
        <time>2022-08-04T07:30:49.000Z</time>
      </trkpt>
      <trkpt lat="47.27048" lon="-2.30921">
        <ele>16.60000038147</ele>
        <time>2022-08-04T07:31:16.000Z</time>
      </trkpt>
      <trkpt lat="47.27046" lon="-2.30915">
        <ele>16.60000038147</ele>
        <time>2022-08-04T07:31:18.000Z</time>
      </trkpt>
      <trkpt lat="47.27043" lon="-2.30895">
        <ele>16.60000038147</ele>
        <time>2022-08-04T07:31:23.000Z</time>
      </trkpt>
      <trkpt lat="47.27033" lon="-2.3088">
        <ele>16.60000038147</ele>
        <time>2022-08-04T07:31:27.000Z</time>
      </trkpt>
      <trkpt lat="47.2703" lon="-2.30875">
        <ele>16.60000038147</ele>
        <time>2022-08-04T07:31:28.000Z</time>
      </trkpt>
      <trkpt lat="47.27018" lon="-2.30854">
        <ele>16.60000038147</ele>
        <time>2022-08-04T07:31:33.000Z</time>
      </trkpt>
      <trkpt lat="47.2701" lon="-2.30839">
        <ele>16.60000038147</ele>
        <time>2022-08-04T07:31:36.000Z</time>
      </trkpt>
      <trkpt lat="47.27007" lon="-2.30834">
        <ele>17</ele>
        <time>2022-08-04T07:31:37.000Z</time>
      </trkpt>
      <trkpt lat="47.27004" lon="-2.30828">
        <ele>17.60000038147</ele>
        <time>2022-08-04T07:31:38.000Z</time>
      </trkpt>
      <trkpt lat="47.27" lon="-2.30823">
        <ele>18</ele>
        <time>2022-08-04T07:31:39.000Z</time>
      </trkpt>
      <trkpt lat="47.26996" lon="-2.30818">
        <ele>18.39999961853</ele>
        <time>2022-08-04T07:31:40.000Z</time>
      </trkpt>
      <trkpt lat="47.26993" lon="-2.30814">
        <ele>18.799999237061</ele>
        <time>2022-08-04T07:31:41.000Z</time>
      </trkpt>
      <trkpt lat="47.26991" lon="-2.30809">
        <ele>18.799999237061</ele>
        <time>2022-08-04T07:31:42.000Z</time>
      </trkpt>
      <trkpt lat="47.26985" lon="-2.308">
        <ele>18.799999237061</ele>
        <time>2022-08-04T07:31:44.000Z</time>
      </trkpt>
      <trkpt lat="47.26971" lon="-2.30782">
        <ele>18.799999237061</ele>
        <time>2022-08-04T07:31:48.000Z</time>
      </trkpt>
      <trkpt lat="47.26968" lon="-2.30777">
        <ele>18.799999237061</ele>
        <time>2022-08-04T07:31:49.000Z</time>
      </trkpt>
      <trkpt lat="47.26955" lon="-2.30758">
        <ele>18.799999237061</ele>
        <time>2022-08-04T07:31:53.000Z</time>
      </trkpt>
      <trkpt lat="47.26952" lon="-2.30754">
        <ele>19.39999961853</ele>
        <time>2022-08-04T07:31:54.000Z</time>
      </trkpt>
      <trkpt lat="47.26949" lon="-2.30749">
        <ele>19.799999237061</ele>
        <time>2022-08-04T07:31:55.000Z</time>
      </trkpt>
      <trkpt lat="47.26946" lon="-2.30746">
        <ele>20.200000762939</ele>
        <time>2022-08-04T07:31:56.000Z</time>
      </trkpt>
      <trkpt lat="47.26944" lon="-2.30741">
        <ele>20.60000038147</ele>
        <time>2022-08-04T07:31:57.000Z</time>
      </trkpt>
      <trkpt lat="47.26941" lon="-2.30736">
        <ele>21.200000762939</ele>
        <time>2022-08-04T07:31:58.000Z</time>
      </trkpt>
      <trkpt lat="47.26935" lon="-2.30726">
        <ele>21.200000762939</ele>
        <time>2022-08-04T07:32:00.000Z</time>
      </trkpt>
      <trkpt lat="47.26928" lon="-2.30712">
        <ele>21.60000038147</ele>
        <time>2022-08-04T07:32:03.000Z</time>
      </trkpt>
      <trkpt lat="47.26925" lon="-2.30708">
        <ele>22</ele>
        <time>2022-08-04T07:32:04.000Z</time>
      </trkpt>
      <trkpt lat="47.26922" lon="-2.30703">
        <ele>22.39999961853</ele>
        <time>2022-08-04T07:32:05.000Z</time>
      </trkpt>
      <trkpt lat="47.26919" lon="-2.30699">
        <ele>22.799999237061</ele>
        <time>2022-08-04T07:32:06.000Z</time>
      </trkpt>
      <trkpt lat="47.26916" lon="-2.30695">
        <ele>23.39999961853</ele>
        <time>2022-08-04T07:32:07.000Z</time>
      </trkpt>
      <trkpt lat="47.269" lon="-2.30667">
        <ele>23.39999961853</ele>
        <time>2022-08-04T07:32:14.000Z</time>
      </trkpt>
      <trkpt lat="47.26901" lon="-2.30658">
        <ele>23.39999961853</ele>
        <time>2022-08-04T07:32:16.000Z</time>
      </trkpt>
      <trkpt lat="47.26906" lon="-2.30652">
        <ele>23.39999961853</ele>
        <time>2022-08-04T07:32:18.000Z</time>
      </trkpt>
      <trkpt lat="47.26925" lon="-2.30636">
        <ele>23.39999961853</ele>
        <time>2022-08-04T07:32:23.000Z</time>
      </trkpt>
      <trkpt lat="47.26947" lon="-2.30629">
        <ele>23.39999961853</ele>
        <time>2022-08-04T07:32:27.000Z</time>
      </trkpt>
      <trkpt lat="47.26979" lon="-2.30616">
        <ele>23.39999961853</ele>
        <time>2022-08-04T07:32:33.000Z</time>
      </trkpt>
      <trkpt lat="47.27003" lon="-2.306">
        <ele>23.39999961853</ele>
        <time>2022-08-04T07:32:38.000Z</time>
      </trkpt>
      <trkpt lat="47.27006" lon="-2.30594">
        <ele>23.39999961853</ele>
        <time>2022-08-04T07:32:39.000Z</time>
      </trkpt>
      <trkpt lat="47.27012" lon="-2.30574">
        <ele>23.39999961853</ele>
        <time>2022-08-04T07:32:42.000Z</time>
      </trkpt>
      <trkpt lat="47.27014" lon="-2.30568">
        <ele>23.39999961853</ele>
        <time>2022-08-04T07:32:43.000Z</time>
      </trkpt>
      <trkpt lat="47.2702" lon="-2.3055">
        <ele>23.39999961853</ele>
        <time>2022-08-04T07:32:46.000Z</time>
      </trkpt>
      <trkpt lat="47.27021" lon="-2.30544">
        <ele>23.39999961853</ele>
        <time>2022-08-04T07:32:47.000Z</time>
      </trkpt>
      <trkpt lat="47.2703" lon="-2.30511">
        <ele>23.39999961853</ele>
        <time>2022-08-04T07:32:52.000Z</time>
      </trkpt>
      <trkpt lat="47.27037" lon="-2.3048">
        <ele>23.39999961853</ele>
        <time>2022-08-04T07:32:57.000Z</time>
      </trkpt>
      <trkpt lat="47.27044" lon="-2.30473">
        <ele>23.39999961853</ele>
        <time>2022-08-04T07:33:01.000Z</time>
      </trkpt>
      <trkpt lat="47.27048" lon="-2.30477">
        <ele>23</ele>
        <time>2022-08-04T07:33:03.000Z</time>
      </trkpt>
      <trkpt lat="47.27049" lon="-2.30479">
        <ele>22.39999961853</ele>
        <time>2022-08-04T07:33:04.000Z</time>
      </trkpt>
      <trkpt lat="47.27053" lon="-2.30481">
        <ele>21.60000038147</ele>
        <time>2022-08-04T07:33:05.000Z</time>
      </trkpt>
      <trkpt lat="47.27057" lon="-2.30481">
        <ele>21.200000762939</ele>
        <time>2022-08-04T07:33:06.000Z</time>
      </trkpt>
      <trkpt lat="47.2707" lon="-2.30483">
        <ele>21.200000762939</ele>
        <time>2022-08-04T07:33:09.000Z</time>
      </trkpt>
      <trkpt lat="47.27096" lon="-2.30489">
        <ele>21.200000762939</ele>
        <time>2022-08-04T07:33:15.000Z</time>
      </trkpt>
      <trkpt lat="47.271" lon="-2.3049">
        <ele>20.799999237061</ele>
        <time>2022-08-04T07:33:16.000Z</time>
      </trkpt>
      <trkpt lat="47.27104" lon="-2.30493">
        <ele>20.39999961853</ele>
        <time>2022-08-04T07:33:17.000Z</time>
      </trkpt>
      <trkpt lat="47.27108" lon="-2.30496">
        <ele>20</ele>
        <time>2022-08-04T07:33:18.000Z</time>
      </trkpt>
      <trkpt lat="47.27113" lon="-2.30499">
        <ele>19.60000038147</ele>
        <time>2022-08-04T07:33:19.000Z</time>
      </trkpt>
      <trkpt lat="47.2712" lon="-2.305">
        <ele>19.200000762939</ele>
        <time>2022-08-04T07:33:20.000Z</time>
      </trkpt>
      <trkpt lat="47.27135" lon="-2.30506">
        <ele>19.200000762939</ele>
        <time>2022-08-04T07:33:23.000Z</time>
      </trkpt>
      <trkpt lat="47.27139" lon="-2.30509">
        <ele>19.200000762939</ele>
        <time>2022-08-04T07:33:24.000Z</time>
      </trkpt>
      <trkpt lat="47.27151" lon="-2.30519">
        <ele>18.799999237061</ele>
        <time>2022-08-04T07:33:27.000Z</time>
      </trkpt>
      <trkpt lat="47.27155" lon="-2.30522">
        <ele>18.39999961853</ele>
        <time>2022-08-04T07:33:28.000Z</time>
      </trkpt>
      <trkpt lat="47.2716" lon="-2.30525">
        <ele>17.39999961853</ele>
        <time>2022-08-04T07:33:29.000Z</time>
      </trkpt>
      <trkpt lat="47.27165" lon="-2.30526">
        <ele>17</ele>
        <time>2022-08-04T07:33:30.000Z</time>
      </trkpt>
      <trkpt lat="47.27169" lon="-2.30528">
        <ele>17</ele>
        <time>2022-08-04T07:33:31.000Z</time>
      </trkpt>
      <trkpt lat="47.27181" lon="-2.30532">
        <ele>17</ele>
        <time>2022-08-04T07:33:35.000Z</time>
      </trkpt>
      <trkpt lat="47.272" lon="-2.30539">
        <ele>17</ele>
        <time>2022-08-04T07:33:41.000Z</time>
      </trkpt>
      <trkpt lat="47.27202" lon="-2.30539">
        <ele>16.60000038147</ele>
        <time>2022-08-04T07:33:42.000Z</time>
      </trkpt>
      <trkpt lat="47.27205" lon="-2.30538">
        <ele>16.200000762939</ele>
        <time>2022-08-04T07:33:43.000Z</time>
      </trkpt>
      <trkpt lat="47.27209" lon="-2.30538">
        <ele>15.800000190735</ele>
        <time>2022-08-04T07:33:44.000Z</time>
      </trkpt>
      <trkpt lat="47.27211" lon="-2.30538">
        <ele>15.39999961853</ele>
        <time>2022-08-04T07:33:45.000Z</time>
      </trkpt>
      <trkpt lat="47.27215" lon="-2.30537">
        <ele>15</ele>
        <time>2022-08-04T07:33:46.000Z</time>
      </trkpt>
      <trkpt lat="47.2722" lon="-2.30539">
        <ele>15</ele>
        <time>2022-08-04T07:33:48.000Z</time>
      </trkpt>
      <trkpt lat="47.27223" lon="-2.30539">
        <ele>15</ele>
        <time>2022-08-04T07:33:49.000Z</time>
      </trkpt>
      <trkpt lat="47.27236" lon="-2.3054">
        <ele>15</ele>
        <time>2022-08-04T07:33:54.000Z</time>
      </trkpt>
      <trkpt lat="47.27257" lon="-2.3054">
        <ele>15</ele>
        <time>2022-08-04T07:34:00.000Z</time>
      </trkpt>
      <trkpt lat="47.27264" lon="-2.30539">
        <ele>15</ele>
        <time>2022-08-04T07:34:02.000Z</time>
      </trkpt>
      <trkpt lat="47.27274" lon="-2.30535">
        <ele>15</ele>
        <time>2022-08-04T07:34:04.000Z</time>
      </trkpt>
      <trkpt lat="47.27292" lon="-2.30524">
        <ele>15</ele>
        <time>2022-08-04T07:34:09.000Z</time>
      </trkpt>
      <trkpt lat="47.27296" lon="-2.30523">
        <ele>14.60000038147</ele>
        <time>2022-08-04T07:34:10.000Z</time>
      </trkpt>
      <trkpt lat="47.273" lon="-2.30522">
        <ele>14.199999809265</ele>
        <time>2022-08-04T07:34:11.000Z</time>
      </trkpt>
      <trkpt lat="47.27304" lon="-2.30521">
        <ele>13.800000190735</ele>
        <time>2022-08-04T07:34:12.000Z</time>
      </trkpt>
      <trkpt lat="47.27308" lon="-2.3052">
        <ele>13.39999961853</ele>
        <time>2022-08-04T07:34:13.000Z</time>
      </trkpt>
      <trkpt lat="47.27311" lon="-2.30518">
        <ele>13</ele>
        <time>2022-08-04T07:34:14.000Z</time>
      </trkpt>
      <trkpt lat="47.27316" lon="-2.30517">
        <ele>13</ele>
        <time>2022-08-04T07:34:15.000Z</time>
      </trkpt>
      <trkpt lat="47.27333" lon="-2.30514">
        <ele>13</ele>
        <time>2022-08-04T07:34:20.000Z</time>
      </trkpt>
      <trkpt lat="47.27351" lon="-2.30506">
        <ele>13</ele>
        <time>2022-08-04T07:34:25.000Z</time>
      </trkpt>
      <trkpt lat="47.27373" lon="-2.30494">
        <ele>13</ele>
        <time>2022-08-04T07:34:30.000Z</time>
      </trkpt>
      <trkpt lat="47.27393" lon="-2.30478">
        <ele>13</ele>
        <time>2022-08-04T07:34:35.000Z</time>
      </trkpt>
      <trkpt lat="47.27404" lon="-2.30468">
        <ele>13</ele>
        <time>2022-08-04T07:34:40.000Z</time>
      </trkpt>
      <trkpt lat="47.27414" lon="-2.30462">
        <ele>13</ele>
        <time>2022-08-04T07:34:46.000Z</time>
      </trkpt>
      <trkpt lat="47.27422" lon="-2.30452">
        <ele>13</ele>
        <time>2022-08-04T07:34:50.000Z</time>
      </trkpt>
      <trkpt lat="47.27437" lon="-2.30449">
        <ele>13</ele>
        <time>2022-08-04T07:34:54.000Z</time>
      </trkpt>
      <trkpt lat="47.2746" lon="-2.30447">
        <ele>13</ele>
        <time>2022-08-04T07:34:59.000Z</time>
      </trkpt>
      <trkpt lat="47.27494" lon="-2.30437">
        <ele>13</ele>
        <time>2022-08-04T07:35:08.000Z</time>
      </trkpt>
      <trkpt lat="47.27496" lon="-2.30436">
        <ele>13</ele>
        <time>2022-08-04T07:35:12.000Z</time>
      </trkpt>
      <trkpt lat="47.275" lon="-2.30433">
        <ele>13</ele>
        <time>2022-08-04T07:35:48.000Z</time>
      </trkpt>
      <trkpt lat="47.27503" lon="-2.30426">
        <ele>13</ele>
        <time>2022-08-04T07:35:50.000Z</time>
      </trkpt>
      <trkpt lat="47.27502" lon="-2.30404">
        <ele>13</ele>
        <time>2022-08-04T07:35:54.000Z</time>
      </trkpt>
      <trkpt lat="47.27497" lon="-2.30379">
        <ele>13.800000190735</ele>
        <time>2022-08-04T07:35:58.000Z</time>
      </trkpt>
      <trkpt lat="47.27496" lon="-2.30372">
        <ele>14.199999809265</ele>
        <time>2022-08-04T07:35:59.000Z</time>
      </trkpt>
      <trkpt lat="47.27494" lon="-2.30365">
        <ele>14.60000038147</ele>
        <time>2022-08-04T07:36:00.000Z</time>
      </trkpt>
      <trkpt lat="47.27492" lon="-2.30358">
        <ele>15</ele>
        <time>2022-08-04T07:36:01.000Z</time>
      </trkpt>
      <trkpt lat="47.27486" lon="-2.30333">
        <ele>15</ele>
        <time>2022-08-04T07:36:05.000Z</time>
      </trkpt>
      <trkpt lat="47.27485" lon="-2.30328">
        <ele>15</ele>
        <time>2022-08-04T07:36:06.000Z</time>
      </trkpt>
      <trkpt lat="47.27479" lon="-2.30296">
        <ele>15.60000038147</ele>
        <time>2022-08-04T07:36:12.000Z</time>
      </trkpt>
      <trkpt lat="47.27478" lon="-2.30291">
        <ele>16</ele>
        <time>2022-08-04T07:36:13.000Z</time>
      </trkpt>
      <trkpt lat="47.27477" lon="-2.30286">
        <ele>16.39999961853</ele>
        <time>2022-08-04T07:36:14.000Z</time>
      </trkpt>
      <trkpt lat="47.27475" lon="-2.30281">
        <ele>16.799999237061</ele>
        <time>2022-08-04T07:36:15.000Z</time>
      </trkpt>
      <trkpt lat="47.27474" lon="-2.30275">
        <ele>17.200000762939</ele>
        <time>2022-08-04T07:36:16.000Z</time>
      </trkpt>
      <trkpt lat="47.2747" lon="-2.30259">
        <ele>17.200000762939</ele>
        <time>2022-08-04T07:36:19.000Z</time>
      </trkpt>
      <trkpt lat="47.27463" lon="-2.30235">
        <ele>17.60000038147</ele>
        <time>2022-08-04T07:36:24.000Z</time>
      </trkpt>
      <trkpt lat="47.27462" lon="-2.3023">
        <ele>18</ele>
        <time>2022-08-04T07:36:25.000Z</time>
      </trkpt>
      <trkpt lat="47.27461" lon="-2.30227">
        <ele>18.39999961853</ele>
        <time>2022-08-04T07:36:26.000Z</time>
      </trkpt>
      <trkpt lat="47.27461" lon="-2.30224">
        <ele>19</ele>
        <time>2022-08-04T07:36:27.000Z</time>
      </trkpt>
      <trkpt lat="47.2746" lon="-2.30223">
        <ele>19.39999961853</ele>
        <time>2022-08-04T07:36:28.000Z</time>
      </trkpt>
      <trkpt lat="47.27459" lon="-2.30222">
        <ele>19.39999961853</ele>
        <time>2022-08-04T07:36:29.000Z</time>
      </trkpt>
      <trkpt lat="47.27454" lon="-2.3022">
        <ele>19.39999961853</ele>
        <time>2022-08-04T07:36:33.000Z</time>
      </trkpt>
      <trkpt lat="47.27453" lon="-2.3022">
        <ele>19.39999961853</ele>
        <time>2022-08-04T07:36:34.000Z</time>
      </trkpt>
      <trkpt lat="47.27444" lon="-2.30224">
        <ele>19.39999961853</ele>
        <time>2022-08-04T07:36:39.000Z</time>
      </trkpt>
      <trkpt lat="47.27429" lon="-2.3023">
        <ele>19.39999961853</ele>
        <time>2022-08-04T07:36:45.000Z</time>
      </trkpt>
      <trkpt lat="47.27408" lon="-2.30239">
        <ele>19.39999961853</ele>
        <time>2022-08-04T07:36:50.000Z</time>
      </trkpt>
      <trkpt lat="47.27393" lon="-2.30247">
        <ele>19.39999961853</ele>
        <time>2022-08-04T07:36:53.000Z</time>
      </trkpt>
      <trkpt lat="47.27383" lon="-2.3025">
        <ele>19.39999961853</ele>
        <time>2022-08-04T07:36:55.000Z</time>
      </trkpt>
      <trkpt lat="47.27366" lon="-2.30254">
        <ele>19.39999961853</ele>
        <time>2022-08-04T07:36:58.000Z</time>
      </trkpt>
      <trkpt lat="47.2736" lon="-2.30254">
        <ele>19.39999961853</ele>
        <time>2022-08-04T07:36:59.000Z</time>
      </trkpt>
      <trkpt lat="47.27323" lon="-2.30259">
        <ele>19.39999961853</ele>
        <time>2022-08-04T07:37:05.000Z</time>
      </trkpt>
      <trkpt lat="47.27282" lon="-2.30259">
        <ele>19.39999961853</ele>
        <time>2022-08-04T07:37:12.000Z</time>
      </trkpt>
      <trkpt lat="47.27269" lon="-2.30262">
        <ele>19.39999961853</ele>
        <time>2022-08-04T07:37:14.000Z</time>
      </trkpt>
      <trkpt lat="47.27252" lon="-2.30265">
        <ele>19.39999961853</ele>
        <time>2022-08-04T07:37:17.000Z</time>
      </trkpt>
      <trkpt lat="47.27243" lon="-2.30264">
        <ele>18.799999237061</ele>
        <time>2022-08-04T07:37:19.000Z</time>
      </trkpt>
      <trkpt lat="47.2724" lon="-2.30261">
        <ele>18.39999961853</ele>
        <time>2022-08-04T07:37:20.000Z</time>
      </trkpt>
      <trkpt lat="47.27236" lon="-2.3026">
        <ele>18</ele>
        <time>2022-08-04T07:37:21.000Z</time>
      </trkpt>
      <trkpt lat="47.27232" lon="-2.3026">
        <ele>17.60000038147</ele>
        <time>2022-08-04T07:37:22.000Z</time>
      </trkpt>
      <trkpt lat="47.27229" lon="-2.30261">
        <ele>17.200000762939</ele>
        <time>2022-08-04T07:37:23.000Z</time>
      </trkpt>
      <trkpt lat="47.27221" lon="-2.30256">
        <ele>17.200000762939</ele>
        <time>2022-08-04T07:37:25.000Z</time>
      </trkpt>
      <trkpt lat="47.27204" lon="-2.30257">
        <ele>17.200000762939</ele>
        <time>2022-08-04T07:37:29.000Z</time>
      </trkpt>
      <trkpt lat="47.27189" lon="-2.30263">
        <ele>17.200000762939</ele>
        <time>2022-08-04T07:37:33.000Z</time>
      </trkpt>
      <trkpt lat="47.2718" lon="-2.30253">
        <ele>17.200000762939</ele>
        <time>2022-08-04T07:37:36.000Z</time>
      </trkpt>
      <trkpt lat="47.27177" lon="-2.3025">
        <ele>18</ele>
        <time>2022-08-04T07:37:37.000Z</time>
      </trkpt>
      <trkpt lat="47.27174" lon="-2.3025">
        <ele>18.39999961853</ele>
        <time>2022-08-04T07:37:38.000Z</time>
      </trkpt>
      <trkpt lat="47.27171" lon="-2.30248">
        <ele>18.799999237061</ele>
        <time>2022-08-04T07:37:39.000Z</time>
      </trkpt>
      <trkpt lat="47.27168" lon="-2.30245">
        <ele>19.200000762939</ele>
        <time>2022-08-04T07:37:40.000Z</time>
      </trkpt>
      <trkpt lat="47.27167" lon="-2.30228">
        <ele>19.200000762939</ele>
        <time>2022-08-04T07:37:43.000Z</time>
      </trkpt>
      <trkpt lat="47.27163" lon="-2.30198">
        <ele>19.200000762939</ele>
        <time>2022-08-04T07:37:47.000Z</time>
      </trkpt>
      <trkpt lat="47.27162" lon="-2.3019">
        <ele>19.200000762939</ele>
        <time>2022-08-04T07:37:48.000Z</time>
      </trkpt>
      <trkpt lat="47.2716" lon="-2.30169">
        <ele>19.200000762939</ele>
        <time>2022-08-04T07:37:51.000Z</time>
      </trkpt>
      <trkpt lat="47.27159" lon="-2.30164">
        <ele>19.200000762939</ele>
        <time>2022-08-04T07:37:52.000Z</time>
      </trkpt>
      <trkpt lat="47.27157" lon="-2.30139">
        <ele>19.60000038147</ele>
        <time>2022-08-04T07:37:56.000Z</time>
      </trkpt>
      <trkpt lat="47.27156" lon="-2.30133">
        <ele>20.200000762939</ele>
        <time>2022-08-04T07:37:57.000Z</time>
      </trkpt>
      <trkpt lat="47.27155" lon="-2.30127">
        <ele>20.60000038147</ele>
        <time>2022-08-04T07:37:58.000Z</time>
      </trkpt>
      <trkpt lat="47.27152" lon="-2.30124">
        <ele>21</ele>
        <time>2022-08-04T07:37:59.000Z</time>
      </trkpt>
      <trkpt lat="47.2715" lon="-2.30122">
        <ele>21.39999961853</ele>
        <time>2022-08-04T07:38:00.000Z</time>
      </trkpt>
      <trkpt lat="47.27134" lon="-2.30115">
        <ele>21.39999961853</ele>
        <time>2022-08-04T07:38:04.000Z</time>
      </trkpt>
      <trkpt lat="47.27121" lon="-2.30109">
        <ele>21.39999961853</ele>
        <time>2022-08-04T07:38:07.000Z</time>
      </trkpt>
      <trkpt lat="47.27108" lon="-2.30102">
        <ele>21.799999237061</ele>
        <time>2022-08-04T07:38:10.000Z</time>
      </trkpt>
      <trkpt lat="47.27104" lon="-2.30099">
        <ele>22.200000762939</ele>
        <time>2022-08-04T07:38:11.000Z</time>
      </trkpt>
      <trkpt lat="47.271" lon="-2.30096">
        <ele>22.799999237061</ele>
        <time>2022-08-04T07:38:12.000Z</time>
      </trkpt>
      <trkpt lat="47.27096" lon="-2.30092">
        <ele>23.200000762939</ele>
        <time>2022-08-04T07:38:13.000Z</time>
      </trkpt>
      <trkpt lat="47.27092" lon="-2.30089">
        <ele>23.60000038147</ele>
        <time>2022-08-04T07:38:14.000Z</time>
      </trkpt>
      <trkpt lat="47.27089" lon="-2.30086">
        <ele>23.60000038147</ele>
        <time>2022-08-04T07:38:15.000Z</time>
      </trkpt>
      <trkpt lat="47.27074" lon="-2.30075">
        <ele>23.60000038147</ele>
        <time>2022-08-04T07:38:19.000Z</time>
      </trkpt>
      <trkpt lat="47.27069" lon="-2.30072">
        <ele>23.60000038147</ele>
        <time>2022-08-04T07:38:20.000Z</time>
      </trkpt>
      <trkpt lat="47.27039" lon="-2.30065">
        <ele>23.60000038147</ele>
        <time>2022-08-04T07:38:26.000Z</time>
      </trkpt>
      <trkpt lat="47.27035" lon="-2.30065">
        <ele>23.60000038147</ele>
        <time>2022-08-04T07:38:27.000Z</time>
      </trkpt>
      <trkpt lat="47.27024" lon="-2.30065">
        <ele>24</ele>
        <time>2022-08-04T07:38:30.000Z</time>
      </trkpt>
      <trkpt lat="47.27021" lon="-2.30064">
        <ele>24.39999961853</ele>
        <time>2022-08-04T07:38:31.000Z</time>
      </trkpt>
      <trkpt lat="47.27018" lon="-2.30063">
        <ele>24.799999237061</ele>
        <time>2022-08-04T07:38:32.000Z</time>
      </trkpt>
      <trkpt lat="47.27016" lon="-2.3006">
        <ele>25.200000762939</ele>
        <time>2022-08-04T07:38:33.000Z</time>
      </trkpt>
      <trkpt lat="47.27014" lon="-2.30057">
        <ele>25.60000038147</ele>
        <time>2022-08-04T07:38:34.000Z</time>
      </trkpt>
      <trkpt lat="47.27015" lon="-2.30053">
        <ele>25.60000038147</ele>
        <time>2022-08-04T07:38:35.000Z</time>
      </trkpt>
      <trkpt lat="47.27016" lon="-2.30045">
        <ele>25.60000038147</ele>
        <time>2022-08-04T07:38:37.000Z</time>
      </trkpt>
      <trkpt lat="47.2702" lon="-2.30031">
        <ele>25.60000038147</ele>
        <time>2022-08-04T07:38:40.000Z</time>
      </trkpt>
      <trkpt lat="47.27028" lon="-2.30004">
        <ele>25.60000038147</ele>
        <time>2022-08-04T07:38:46.000Z</time>
      </trkpt>
      <trkpt lat="47.27042" lon="-2.29969">
        <ele>25.60000038147</ele>
        <time>2022-08-04T07:38:53.000Z</time>
      </trkpt>
      <trkpt lat="47.27055" lon="-2.29939">
        <ele>25.60000038147</ele>
        <time>2022-08-04T07:38:59.000Z</time>
      </trkpt>
      <trkpt lat="47.2707" lon="-2.29918">
        <ele>25.60000038147</ele>
        <time>2022-08-04T07:39:04.000Z</time>
      </trkpt>
      <trkpt lat="47.27088" lon="-2.299">
        <ele>25.60000038147</ele>
        <time>2022-08-04T07:39:09.000Z</time>
      </trkpt>
      <trkpt lat="47.27097" lon="-2.29874">
        <ele>25.60000038147</ele>
        <time>2022-08-04T07:39:14.000Z</time>
      </trkpt>
      <trkpt lat="47.27108" lon="-2.29841">
        <ele>25.60000038147</ele>
        <time>2022-08-04T07:39:21.000Z</time>
      </trkpt>
      <trkpt lat="47.2711" lon="-2.2982">
        <ele>25.60000038147</ele>
        <time>2022-08-04T07:39:25.000Z</time>
      </trkpt>
      <trkpt lat="47.2711" lon="-2.29784">
        <ele>25.60000038147</ele>
        <time>2022-08-04T07:39:31.000Z</time>
      </trkpt>
      <trkpt lat="47.27111" lon="-2.29741">
        <ele>25.60000038147</ele>
        <time>2022-08-04T07:39:38.000Z</time>
      </trkpt>
      <trkpt lat="47.27115" lon="-2.29703">
        <ele>25.60000038147</ele>
        <time>2022-08-04T07:39:44.000Z</time>
      </trkpt>
      <trkpt lat="47.27115" lon="-2.29669">
        <ele>25.60000038147</ele>
        <time>2022-08-04T07:39:51.000Z</time>
      </trkpt>
      <trkpt lat="47.27117" lon="-2.29649">
        <ele>25.60000038147</ele>
        <time>2022-08-04T07:39:56.000Z</time>
      </trkpt>
      <trkpt lat="47.2712" lon="-2.29646">
        <ele>25.60000038147</ele>
        <time>2022-08-04T07:39:57.000Z</time>
      </trkpt>
      <trkpt lat="47.27127" lon="-2.29644">
        <ele>25.60000038147</ele>
        <time>2022-08-04T07:39:59.000Z</time>
      </trkpt>
      <trkpt lat="47.27142" lon="-2.29642">
        <ele>25.60000038147</ele>
        <time>2022-08-04T07:40:02.000Z</time>
      </trkpt>
      <trkpt lat="47.27156" lon="-2.2964">
        <ele>25.60000038147</ele>
        <time>2022-08-04T07:40:05.000Z</time>
      </trkpt>
      <trkpt lat="47.27165" lon="-2.29634">
        <ele>25.60000038147</ele>
        <time>2022-08-04T07:40:07.000Z</time>
      </trkpt>
      <trkpt lat="47.27189" lon="-2.29614">
        <ele>25.60000038147</ele>
        <time>2022-08-04T07:40:13.000Z</time>
      </trkpt>
      <trkpt lat="47.27204" lon="-2.29601">
        <ele>25.60000038147</ele>
        <time>2022-08-04T07:40:17.000Z</time>
      </trkpt>
      <trkpt lat="47.27211" lon="-2.29594">
        <ele>25.60000038147</ele>
        <time>2022-08-04T07:40:19.000Z</time>
      </trkpt>
      <trkpt lat="47.2723" lon="-2.29582">
        <ele>25.60000038147</ele>
        <time>2022-08-04T07:40:24.000Z</time>
      </trkpt>
      <trkpt lat="47.27237" lon="-2.29573">
        <ele>25.60000038147</ele>
        <time>2022-08-04T07:40:26.000Z</time>
      </trkpt>
      <trkpt lat="47.27239" lon="-2.29568">
        <ele>25.60000038147</ele>
        <time>2022-08-04T07:40:27.000Z</time>
      </trkpt>
      <trkpt lat="47.27241" lon="-2.29557">
        <ele>25.60000038147</ele>
        <time>2022-08-04T07:40:29.000Z</time>
      </trkpt>
      <trkpt lat="47.27241" lon="-2.2955">
        <ele>25.60000038147</ele>
        <time>2022-08-04T07:40:30.000Z</time>
      </trkpt>
      <trkpt lat="47.27238" lon="-2.29526">
        <ele>25.60000038147</ele>
        <time>2022-08-04T07:40:33.000Z</time>
      </trkpt>
      <trkpt lat="47.27233" lon="-2.29513">
        <ele>25.60000038147</ele>
        <time>2022-08-04T07:40:35.000Z</time>
      </trkpt>
      <trkpt lat="47.2722" lon="-2.29475">
        <ele>25.60000038147</ele>
        <time>2022-08-04T07:40:40.000Z</time>
      </trkpt>
      <trkpt lat="47.27203" lon="-2.29414">
        <ele>25.60000038147</ele>
        <time>2022-08-04T07:40:48.000Z</time>
      </trkpt>
      <trkpt lat="47.27198" lon="-2.294">
        <ele>25.60000038147</ele>
        <time>2022-08-04T07:40:50.000Z</time>
      </trkpt>
      <trkpt lat="47.2719" lon="-2.29376">
        <ele>25.60000038147</ele>
        <time>2022-08-04T07:40:54.000Z</time>
      </trkpt>
      <trkpt lat="47.2718" lon="-2.29358">
        <ele>25.60000038147</ele>
        <time>2022-08-04T07:40:59.000Z</time>
      </trkpt>
      <trkpt lat="47.27162" lon="-2.29336">
        <ele>25.60000038147</ele>
        <time>2022-08-04T07:41:05.000Z</time>
      </trkpt>
      <trkpt lat="47.27151" lon="-2.29314">
        <ele>25.60000038147</ele>
        <time>2022-08-04T07:41:10.000Z</time>
      </trkpt>
      <trkpt lat="47.27152" lon="-2.29309">
        <ele>25.60000038147</ele>
        <time>2022-08-04T07:41:11.000Z</time>
      </trkpt>
      <trkpt lat="47.2716" lon="-2.29285">
        <ele>25.60000038147</ele>
        <time>2022-08-04T07:41:15.000Z</time>
      </trkpt>
      <trkpt lat="47.27163" lon="-2.29279">
        <ele>25.60000038147</ele>
        <time>2022-08-04T07:41:16.000Z</time>
      </trkpt>
      <trkpt lat="47.27169" lon="-2.29264">
        <ele>25.60000038147</ele>
        <time>2022-08-04T07:41:18.000Z</time>
      </trkpt>
      <trkpt lat="47.27171" lon="-2.29244">
        <ele>25.60000038147</ele>
        <time>2022-08-04T07:41:21.000Z</time>
      </trkpt>
      <trkpt lat="47.27166" lon="-2.29227">
        <ele>25.60000038147</ele>
        <time>2022-08-04T07:41:24.000Z</time>
      </trkpt>
      <trkpt lat="47.27164" lon="-2.29221">
        <ele>25.60000038147</ele>
        <time>2022-08-04T07:41:25.000Z</time>
      </trkpt>
      <trkpt lat="47.27153" lon="-2.29199">
        <ele>25.200000762939</ele>
        <time>2022-08-04T07:41:29.000Z</time>
      </trkpt>
      <trkpt lat="47.27151" lon="-2.29194">
        <ele>24.799999237061</ele>
        <time>2022-08-04T07:41:30.000Z</time>
      </trkpt>
      <trkpt lat="47.27149" lon="-2.2919">
        <ele>24.39999961853</ele>
        <time>2022-08-04T07:41:31.000Z</time>
      </trkpt>
      <trkpt lat="47.27148" lon="-2.29185">
        <ele>24</ele>
        <time>2022-08-04T07:41:32.000Z</time>
      </trkpt>
      <trkpt lat="47.27148" lon="-2.29181">
        <ele>23.60000038147</ele>
        <time>2022-08-04T07:41:33.000Z</time>
      </trkpt>
      <trkpt lat="47.27148" lon="-2.29177">
        <ele>23.60000038147</ele>
        <time>2022-08-04T07:41:34.000Z</time>
      </trkpt>
      <trkpt lat="47.27153" lon="-2.29162">
        <ele>23.60000038147</ele>
        <time>2022-08-04T07:41:38.000Z</time>
      </trkpt>
      <trkpt lat="47.27168" lon="-2.29142">
        <ele>23.60000038147</ele>
        <time>2022-08-04T07:41:43.000Z</time>
      </trkpt>
      <trkpt lat="47.27185" lon="-2.29122">
        <ele>23.60000038147</ele>
        <time>2022-08-04T07:41:47.000Z</time>
      </trkpt>
      <trkpt lat="47.27193" lon="-2.29111">
        <ele>23.60000038147</ele>
        <time>2022-08-04T07:41:49.000Z</time>
      </trkpt>
      <trkpt lat="47.27197" lon="-2.29107">
        <ele>23.60000038147</ele>
        <time>2022-08-04T07:41:50.000Z</time>
      </trkpt>
      <trkpt lat="47.27209" lon="-2.29094">
        <ele>23.60000038147</ele>
        <time>2022-08-04T07:41:53.000Z</time>
      </trkpt>
      <trkpt lat="47.27218" lon="-2.29085">
        <ele>23.60000038147</ele>
        <time>2022-08-04T07:41:55.000Z</time>
      </trkpt>
      <trkpt lat="47.27229" lon="-2.29072">
        <ele>23.60000038147</ele>
        <time>2022-08-04T07:41:58.000Z</time>
      </trkpt>
      <trkpt lat="47.27233" lon="-2.29069">
        <ele>23.60000038147</ele>
        <time>2022-08-04T07:41:59.000Z</time>
      </trkpt>
      <trkpt lat="47.27249" lon="-2.29055">
        <ele>23.60000038147</ele>
        <time>2022-08-04T07:42:03.000Z</time>
      </trkpt>
      <trkpt lat="47.27268" lon="-2.29027">
        <ele>23.60000038147</ele>
        <time>2022-08-04T07:42:09.000Z</time>
      </trkpt>
      <trkpt lat="47.27277" lon="-2.29004">
        <ele>23.60000038147</ele>
        <time>2022-08-04T07:42:13.000Z</time>
      </trkpt>
      <trkpt lat="47.27292" lon="-2.28982">
        <ele>23.60000038147</ele>
        <time>2022-08-04T07:42:18.000Z</time>
      </trkpt>
      <trkpt lat="47.27302" lon="-2.28963">
        <ele>23.60000038147</ele>
        <time>2022-08-04T07:42:22.000Z</time>
      </trkpt>
      <trkpt lat="47.27307" lon="-2.28953">
        <ele>23.200000762939</ele>
        <time>2022-08-04T07:42:24.000Z</time>
      </trkpt>
      <trkpt lat="47.2731" lon="-2.28951">
        <ele>22.799999237061</ele>
        <time>2022-08-04T07:42:25.000Z</time>
      </trkpt>
      <trkpt lat="47.27312" lon="-2.2895">
        <ele>22.39999961853</ele>
        <time>2022-08-04T07:42:26.000Z</time>
      </trkpt>
      <trkpt lat="47.27315" lon="-2.28952">
        <ele>22</ele>
        <time>2022-08-04T07:42:27.000Z</time>
      </trkpt>
      <trkpt lat="47.27318" lon="-2.28954">
        <ele>21.60000038147</ele>
        <time>2022-08-04T07:42:28.000Z</time>
      </trkpt>
      <trkpt lat="47.27328" lon="-2.28955">
        <ele>21.60000038147</ele>
        <time>2022-08-04T07:42:30.000Z</time>
      </trkpt>
      <trkpt lat="47.27337" lon="-2.28943">
        <ele>21.60000038147</ele>
        <time>2022-08-04T07:42:33.000Z</time>
      </trkpt>
      <trkpt lat="47.2734" lon="-2.2893">
        <ele>21.60000038147</ele>
        <time>2022-08-04T07:42:35.000Z</time>
      </trkpt>
      <trkpt lat="47.27345" lon="-2.28908">
        <ele>21.60000038147</ele>
        <time>2022-08-04T07:42:38.000Z</time>
      </trkpt>
      <trkpt lat="47.27346" lon="-2.28901">
        <ele>21.60000038147</ele>
        <time>2022-08-04T07:42:39.000Z</time>
      </trkpt>
      <trkpt lat="47.2735" lon="-2.2887">
        <ele>21.60000038147</ele>
        <time>2022-08-04T07:42:43.000Z</time>
      </trkpt>
      <trkpt lat="47.2736" lon="-2.28821">
        <ele>21.60000038147</ele>
        <time>2022-08-04T07:42:49.000Z</time>
      </trkpt>
      <trkpt lat="47.27366" lon="-2.28805">
        <ele>21.60000038147</ele>
        <time>2022-08-04T07:42:51.000Z</time>
      </trkpt>
      <trkpt lat="47.27373" lon="-2.2879">
        <ele>21.60000038147</ele>
        <time>2022-08-04T07:42:53.000Z</time>
      </trkpt>
      <trkpt lat="47.27394" lon="-2.28747">
        <ele>21.60000038147</ele>
        <time>2022-08-04T07:42:59.000Z</time>
      </trkpt>
      <trkpt lat="47.27418" lon="-2.28702">
        <ele>21.60000038147</ele>
        <time>2022-08-04T07:43:06.000Z</time>
      </trkpt>
      <trkpt lat="47.2744" lon="-2.28664">
        <ele>21.60000038147</ele>
        <time>2022-08-04T07:43:12.000Z</time>
      </trkpt>
      <trkpt lat="47.27444" lon="-2.28658">
        <ele>21.60000038147</ele>
        <time>2022-08-04T07:43:13.000Z</time>
      </trkpt>
      <trkpt lat="47.27459" lon="-2.28628">
        <ele>21.60000038147</ele>
        <time>2022-08-04T07:43:18.000Z</time>
      </trkpt>
      <trkpt lat="47.27471" lon="-2.28611">
        <ele>21.60000038147</ele>
        <time>2022-08-04T07:43:22.000Z</time>
      </trkpt>
      <trkpt lat="47.27475" lon="-2.28612">
        <ele>21.60000038147</ele>
        <time>2022-08-04T07:43:23.000Z</time>
      </trkpt>
      <trkpt lat="47.27484" lon="-2.28628">
        <ele>21.60000038147</ele>
        <time>2022-08-04T07:43:26.000Z</time>
      </trkpt>
      <trkpt lat="47.27499" lon="-2.28658">
        <ele>21.60000038147</ele>
        <time>2022-08-04T07:43:31.000Z</time>
      </trkpt>
      <trkpt lat="47.27503" lon="-2.28663">
        <ele>21.60000038147</ele>
        <time>2022-08-04T07:43:32.000Z</time>
      </trkpt>
      <trkpt lat="47.27519" lon="-2.28684">
        <ele>21.60000038147</ele>
        <time>2022-08-04T07:43:36.000Z</time>
      </trkpt>
      <trkpt lat="47.27528" lon="-2.28693">
        <ele>21.60000038147</ele>
        <time>2022-08-04T07:43:38.000Z</time>
      </trkpt>
      <trkpt lat="47.27549" lon="-2.28712">
        <ele>21.60000038147</ele>
        <time>2022-08-04T07:43:43.000Z</time>
      </trkpt>
      <trkpt lat="47.27579" lon="-2.28731">
        <ele>21.60000038147</ele>
        <time>2022-08-04T07:43:49.000Z</time>
      </trkpt>
      <trkpt lat="47.27594" lon="-2.28743">
        <ele>21.60000038147</ele>
        <time>2022-08-04T07:43:52.000Z</time>
      </trkpt>
      <trkpt lat="47.27605" lon="-2.28748">
        <ele>21.60000038147</ele>
        <time>2022-08-04T07:43:54.000Z</time>
      </trkpt>
      <trkpt lat="47.2761" lon="-2.28749">
        <ele>21.60000038147</ele>
        <time>2022-08-04T07:43:55.000Z</time>
      </trkpt>
      <trkpt lat="47.27633" lon="-2.28755">
        <ele>21.60000038147</ele>
        <time>2022-08-04T07:43:59.000Z</time>
      </trkpt>
      <trkpt lat="47.27662" lon="-2.28763">
        <ele>21.200000762939</ele>
        <time>2022-08-04T07:44:04.000Z</time>
      </trkpt>
      <trkpt lat="47.27667" lon="-2.28764">
        <ele>20.799999237061</ele>
        <time>2022-08-04T07:44:05.000Z</time>
      </trkpt>
      <trkpt lat="47.27672" lon="-2.28767">
        <ele>20.39999961853</ele>
        <time>2022-08-04T07:44:06.000Z</time>
      </trkpt>
      <trkpt lat="47.27676" lon="-2.2877">
        <ele>20</ele>
        <time>2022-08-04T07:44:07.000Z</time>
      </trkpt>
      <trkpt lat="47.27681" lon="-2.28773">
        <ele>19.60000038147</ele>
        <time>2022-08-04T07:44:08.000Z</time>
      </trkpt>
      <trkpt lat="47.27689" lon="-2.28783">
        <ele>19.60000038147</ele>
        <time>2022-08-04T07:44:10.000Z</time>
      </trkpt>
      <trkpt lat="47.27696" lon="-2.28796">
        <ele>19.60000038147</ele>
        <time>2022-08-04T07:44:12.000Z</time>
      </trkpt>
      <trkpt lat="47.277" lon="-2.28802">
        <ele>19.60000038147</ele>
        <time>2022-08-04T07:44:13.000Z</time>
      </trkpt>
      <trkpt lat="47.27705" lon="-2.28805">
        <ele>19.60000038147</ele>
        <time>2022-08-04T07:44:14.000Z</time>
      </trkpt>
      <trkpt lat="47.2772" lon="-2.28805">
        <ele>19.60000038147</ele>
        <time>2022-08-04T07:44:17.000Z</time>
      </trkpt>
      <trkpt lat="47.27726" lon="-2.28804">
        <ele>19.60000038147</ele>
        <time>2022-08-04T07:44:18.000Z</time>
      </trkpt>
      <trkpt lat="47.27754" lon="-2.28794">
        <ele>19.60000038147</ele>
        <time>2022-08-04T07:44:23.000Z</time>
      </trkpt>
      <trkpt lat="47.27766" lon="-2.2879">
        <ele>19.60000038147</ele>
        <time>2022-08-04T07:44:25.000Z</time>
      </trkpt>
      <trkpt lat="47.27783" lon="-2.28791">
        <ele>19.60000038147</ele>
        <time>2022-08-04T07:44:28.000Z</time>
      </trkpt>
      <trkpt lat="47.2782" lon="-2.28792">
        <ele>19.60000038147</ele>
        <time>2022-08-04T07:44:34.000Z</time>
      </trkpt>
      <trkpt lat="47.27835" lon="-2.28797">
        <ele>19.60000038147</ele>
        <time>2022-08-04T07:44:37.000Z</time>
      </trkpt>
      <trkpt lat="47.2784" lon="-2.28801">
        <ele>19.60000038147</ele>
        <time>2022-08-04T07:44:38.000Z</time>
      </trkpt>
      <trkpt lat="47.27862" lon="-2.28815">
        <ele>19.60000038147</ele>
        <time>2022-08-04T07:44:44.000Z</time>
      </trkpt>
      <trkpt lat="47.27867" lon="-2.28814">
        <ele>19.60000038147</ele>
        <time>2022-08-04T07:44:46.000Z</time>
      </trkpt>
      <trkpt lat="47.2787" lon="-2.28809">
        <ele>19.60000038147</ele>
        <time>2022-08-04T07:44:48.000Z</time>
      </trkpt>
      <trkpt lat="47.27873" lon="-2.28799">
        <ele>19.60000038147</ele>
        <time>2022-08-04T07:44:50.000Z</time>
      </trkpt>
      <trkpt lat="47.27875" lon="-2.28794">
        <ele>19.60000038147</ele>
        <time>2022-08-04T07:44:51.000Z</time>
      </trkpt>
      <trkpt lat="47.27877" lon="-2.28788">
        <ele>19.60000038147</ele>
        <time>2022-08-04T07:44:52.000Z</time>
      </trkpt>
      <trkpt lat="47.27886" lon="-2.28772">
        <ele>19.60000038147</ele>
        <time>2022-08-04T07:44:55.000Z</time>
      </trkpt>
      <trkpt lat="47.27906" lon="-2.28763">
        <ele>19.60000038147</ele>
        <time>2022-08-04T07:44:59.000Z</time>
      </trkpt>
      <trkpt lat="47.27943" lon="-2.2875">
        <ele>19.60000038147</ele>
        <time>2022-08-04T07:45:06.000Z</time>
      </trkpt>
      <trkpt lat="47.27977" lon="-2.28746">
        <ele>19.60000038147</ele>
        <time>2022-08-04T07:45:12.000Z</time>
      </trkpt>
      <trkpt lat="47.27983" lon="-2.28747">
        <ele>19.60000038147</ele>
        <time>2022-08-04T07:45:13.000Z</time>
      </trkpt>
      <trkpt lat="47.28" lon="-2.2875">
        <ele>19.60000038147</ele>
        <time>2022-08-04T07:45:16.000Z</time>
      </trkpt>
      <trkpt lat="47.28011" lon="-2.28752">
        <ele>19.60000038147</ele>
        <time>2022-08-04T07:45:18.000Z</time>
      </trkpt>
      <trkpt lat="47.2806" lon="-2.28765">
        <ele>19.60000038147</ele>
        <time>2022-08-04T07:45:27.000Z</time>
      </trkpt>
      <trkpt lat="47.28097" lon="-2.28781">
        <ele>19.60000038147</ele>
        <time>2022-08-04T07:45:34.000Z</time>
      </trkpt>
      <trkpt lat="47.28131" lon="-2.28803">
        <ele>19.60000038147</ele>
        <time>2022-08-04T07:45:41.000Z</time>
      </trkpt>
      <trkpt lat="47.28139" lon="-2.2881">
        <ele>20</ele>
        <time>2022-08-04T07:45:43.000Z</time>
      </trkpt>
      <trkpt lat="47.28143" lon="-2.28814">
        <ele>20.39999961853</ele>
        <time>2022-08-04T07:45:44.000Z</time>
      </trkpt>
      <trkpt lat="47.28148" lon="-2.28817">
        <ele>20.799999237061</ele>
        <time>2022-08-04T07:45:45.000Z</time>
      </trkpt>
      <trkpt lat="47.28152" lon="-2.28821">
        <ele>21.200000762939</ele>
        <time>2022-08-04T07:45:46.000Z</time>
      </trkpt>
      <trkpt lat="47.28157" lon="-2.28825">
        <ele>21.60000038147</ele>
        <time>2022-08-04T07:45:47.000Z</time>
      </trkpt>
      <trkpt lat="47.28161" lon="-2.2883">
        <ele>21.60000038147</ele>
        <time>2022-08-04T07:45:48.000Z</time>
      </trkpt>
      <trkpt lat="47.28191" lon="-2.28857">
        <ele>22</ele>
        <time>2022-08-04T07:45:55.000Z</time>
      </trkpt>
      <trkpt lat="47.28195" lon="-2.28861">
        <ele>22.39999961853</ele>
        <time>2022-08-04T07:45:56.000Z</time>
      </trkpt>
      <trkpt lat="47.282" lon="-2.28864">
        <ele>22.799999237061</ele>
        <time>2022-08-04T07:45:57.000Z</time>
      </trkpt>
      <trkpt lat="47.28205" lon="-2.28867">
        <ele>23.39999961853</ele>
        <time>2022-08-04T07:45:58.000Z</time>
      </trkpt>
      <trkpt lat="47.28209" lon="-2.2887">
        <ele>23.799999237061</ele>
        <time>2022-08-04T07:45:59.000Z</time>
      </trkpt>
      <trkpt lat="47.28215" lon="-2.2887">
        <ele>23.799999237061</ele>
        <time>2022-08-04T07:46:00.000Z</time>
      </trkpt>
      <trkpt lat="47.28227" lon="-2.28857">
        <ele>23.799999237061</ele>
        <time>2022-08-04T07:46:03.000Z</time>
      </trkpt>
      <trkpt lat="47.28234" lon="-2.28828">
        <ele>23.799999237061</ele>
        <time>2022-08-04T07:46:07.000Z</time>
      </trkpt>
      <trkpt lat="47.28246" lon="-2.28756">
        <ele>23.799999237061</ele>
        <time>2022-08-04T07:46:16.000Z</time>
      </trkpt>
      <trkpt lat="47.28258" lon="-2.28691">
        <ele>23.799999237061</ele>
        <time>2022-08-04T07:46:24.000Z</time>
      </trkpt>
      <trkpt lat="47.28269" lon="-2.28641">
        <ele>23.799999237061</ele>
        <time>2022-08-04T07:46:30.000Z</time>
      </trkpt>
      <trkpt lat="47.28281" lon="-2.28582">
        <ele>23.799999237061</ele>
        <time>2022-08-04T07:46:37.000Z</time>
      </trkpt>
      <trkpt lat="47.28291" lon="-2.28525">
        <ele>23.799999237061</ele>
        <time>2022-08-04T07:46:44.000Z</time>
      </trkpt>
      <trkpt lat="47.28301" lon="-2.28461">
        <ele>23.799999237061</ele>
        <time>2022-08-04T07:46:52.000Z</time>
      </trkpt>
      <trkpt lat="47.28305" lon="-2.28445">
        <ele>23.799999237061</ele>
        <time>2022-08-04T07:46:54.000Z</time>
      </trkpt>
      <trkpt lat="47.28307" lon="-2.28438">
        <ele>24.200000762939</ele>
        <time>2022-08-04T07:46:55.000Z</time>
      </trkpt>
      <trkpt lat="47.28309" lon="-2.2843">
        <ele>24.60000038147</ele>
        <time>2022-08-04T07:46:56.000Z</time>
      </trkpt>
      <trkpt lat="47.28311" lon="-2.28422">
        <ele>25</ele>
        <time>2022-08-04T07:46:57.000Z</time>
      </trkpt>
      <trkpt lat="47.28313" lon="-2.28415">
        <ele>25.39999961853</ele>
        <time>2022-08-04T07:46:58.000Z</time>
      </trkpt>
      <trkpt lat="47.28315" lon="-2.28408">
        <ele>25.799999237061</ele>
        <time>2022-08-04T07:46:59.000Z</time>
      </trkpt>
      <trkpt lat="47.28321" lon="-2.28385">
        <ele>25.799999237061</ele>
        <time>2022-08-04T07:47:02.000Z</time>
      </trkpt>
      <trkpt lat="47.28323" lon="-2.28369">
        <ele>25.799999237061</ele>
        <time>2022-08-04T07:47:04.000Z</time>
      </trkpt>
      <trkpt lat="47.28326" lon="-2.28309">
        <ele>25.799999237061</ele>
        <time>2022-08-04T07:47:12.000Z</time>
      </trkpt>
      <trkpt lat="47.28326" lon="-2.28253">
        <ele>25.799999237061</ele>
        <time>2022-08-04T07:47:19.000Z</time>
      </trkpt>
      <trkpt lat="47.28325" lon="-2.28226">
        <ele>25.39999961853</ele>
        <time>2022-08-04T07:47:22.000Z</time>
      </trkpt>
      <trkpt lat="47.28325" lon="-2.28216">
        <ele>24.799999237061</ele>
        <time>2022-08-04T07:47:23.000Z</time>
      </trkpt>
      <trkpt lat="47.28325" lon="-2.28206">
        <ele>24.39999961853</ele>
        <time>2022-08-04T07:47:24.000Z</time>
      </trkpt>
      <trkpt lat="47.28325" lon="-2.28196">
        <ele>24</ele>
        <time>2022-08-04T07:47:25.000Z</time>
      </trkpt>
      <trkpt lat="47.28325" lon="-2.28185">
        <ele>23.60000038147</ele>
        <time>2022-08-04T07:47:26.000Z</time>
      </trkpt>
      <trkpt lat="47.28326" lon="-2.28163">
        <ele>23.200000762939</ele>
        <time>2022-08-04T07:47:28.000Z</time>
      </trkpt>
      <trkpt lat="47.28325" lon="-2.28153">
        <ele>22.60000038147</ele>
        <time>2022-08-04T07:47:29.000Z</time>
      </trkpt>
      <trkpt lat="47.28325" lon="-2.28144">
        <ele>22.200000762939</ele>
        <time>2022-08-04T07:47:30.000Z</time>
      </trkpt>
      <trkpt lat="47.28325" lon="-2.28135">
        <ele>21.60000038147</ele>
        <time>2022-08-04T07:47:31.000Z</time>
      </trkpt>
      <trkpt lat="47.28325" lon="-2.28126">
        <ele>21</ele>
        <time>2022-08-04T07:47:32.000Z</time>
      </trkpt>
      <trkpt lat="47.28325" lon="-2.28119">
        <ele>20.60000038147</ele>
        <time>2022-08-04T07:47:33.000Z</time>
      </trkpt>
      <trkpt lat="47.28324" lon="-2.28112">
        <ele>20</ele>
        <time>2022-08-04T07:47:34.000Z</time>
      </trkpt>
      <trkpt lat="47.28324" lon="-2.28105">
        <ele>19.39999961853</ele>
        <time>2022-08-04T07:47:35.000Z</time>
      </trkpt>
      <trkpt lat="47.28325" lon="-2.281">
        <ele>18.799999237061</ele>
        <time>2022-08-04T07:47:36.000Z</time>
      </trkpt>
      <trkpt lat="47.28328" lon="-2.28092">
        <ele>18.799999237061</ele>
        <time>2022-08-04T07:47:38.000Z</time>
      </trkpt>
      <trkpt lat="47.28332" lon="-2.28088">
        <ele>18.39999961853</ele>
        <time>2022-08-04T07:47:40.000Z</time>
      </trkpt>
      <trkpt lat="47.28335" lon="-2.28086">
        <ele>18</ele>
        <time>2022-08-04T07:47:41.000Z</time>
      </trkpt>
      <trkpt lat="47.28337" lon="-2.28084">
        <ele>17.60000038147</ele>
        <time>2022-08-04T07:47:42.000Z</time>
      </trkpt>
      <trkpt lat="47.28339" lon="-2.28083">
        <ele>17.200000762939</ele>
        <time>2022-08-04T07:47:43.000Z</time>
      </trkpt>
      <trkpt lat="47.28357" lon="-2.28077">
        <ele>16.799999237061</ele>
        <time>2022-08-04T07:47:49.000Z</time>
      </trkpt>
      <trkpt lat="47.2836" lon="-2.28077">
        <ele>16.799999237061</ele>
        <time>2022-08-04T07:47:50.000Z</time>
      </trkpt>
      <trkpt lat="47.28366" lon="-2.28073">
        <ele>16.799999237061</ele>
        <time>2022-08-04T07:47:53.000Z</time>
      </trkpt>
      <trkpt lat="47.28367" lon="-2.28072">
        <ele>16.799999237061</ele>
        <time>2022-08-04T07:47:54.000Z</time>
      </trkpt>
      <trkpt lat="47.28369" lon="-2.28071">
        <ele>16.799999237061</ele>
        <time>2022-08-04T07:47:55.000Z</time>
      </trkpt>
      <trkpt lat="47.28376" lon="-2.28072">
        <ele>16.799999237061</ele>
        <time>2022-08-04T07:47:58.000Z</time>
      </trkpt>
      <trkpt lat="47.28383" lon="-2.28073">
        <ele>16.799999237061</ele>
        <time>2022-08-04T07:48:02.000Z</time>
      </trkpt>
      <trkpt lat="47.28385" lon="-2.28074">
        <ele>16.799999237061</ele>
        <time>2022-08-04T07:48:03.000Z</time>
      </trkpt>
      <trkpt lat="47.28398" lon="-2.28077">
        <ele>16.799999237061</ele>
        <time>2022-08-04T07:48:09.000Z</time>
      </trkpt>
      <trkpt lat="47.2841" lon="-2.28081">
        <ele>16.799999237061</ele>
        <time>2022-08-04T07:48:13.000Z</time>
      </trkpt>
      <trkpt lat="47.28413" lon="-2.28081">
        <ele>16.799999237061</ele>
        <time>2022-08-04T07:48:14.000Z</time>
      </trkpt>
      <trkpt lat="47.28426" lon="-2.28081">
        <ele>16.799999237061</ele>
        <time>2022-08-04T07:48:19.000Z</time>
      </trkpt>
      <trkpt lat="47.2843" lon="-2.2808">
        <ele>17.200000762939</ele>
        <time>2022-08-04T07:48:21.000Z</time>
      </trkpt>
      <trkpt lat="47.28432" lon="-2.28081">
        <ele>17.60000038147</ele>
        <time>2022-08-04T07:48:22.000Z</time>
      </trkpt>
      <trkpt lat="47.28434" lon="-2.28083">
        <ele>18</ele>
        <time>2022-08-04T07:48:23.000Z</time>
      </trkpt>
      <trkpt lat="47.28437" lon="-2.28085">
        <ele>18.39999961853</ele>
        <time>2022-08-04T07:48:24.000Z</time>
      </trkpt>
      <trkpt lat="47.28439" lon="-2.28086">
        <ele>18.799999237061</ele>
        <time>2022-08-04T07:48:25.000Z</time>
      </trkpt>
      <trkpt lat="47.28452" lon="-2.28093">
        <ele>18.799999237061</ele>
        <time>2022-08-04T07:48:30.000Z</time>
      </trkpt>
      <trkpt lat="47.2847" lon="-2.28085">
        <ele>18.799999237061</ele>
        <time>2022-08-04T07:48:36.000Z</time>
      </trkpt>
      <trkpt lat="47.28474" lon="-2.28082">
        <ele>18.799999237061</ele>
        <time>2022-08-04T07:48:37.000Z</time>
      </trkpt>
      <trkpt lat="47.28477" lon="-2.28076">
        <ele>18.799999237061</ele>
        <time>2022-08-04T07:48:39.000Z</time>
      </trkpt>
      <trkpt lat="47.28477" lon="-2.28065">
        <ele>18.799999237061</ele>
        <time>2022-08-04T07:48:43.000Z</time>
      </trkpt>
      <trkpt lat="47.28476" lon="-2.28061">
        <ele>19.39999961853</ele>
        <time>2022-08-04T07:48:44.000Z</time>
      </trkpt>
      <trkpt lat="47.28476" lon="-2.28056">
        <ele>19.799999237061</ele>
        <time>2022-08-04T07:48:45.000Z</time>
      </trkpt>
      <trkpt lat="47.28477" lon="-2.28053">
        <ele>20.200000762939</ele>
        <time>2022-08-04T07:48:46.000Z</time>
      </trkpt>
      <trkpt lat="47.28479" lon="-2.2805">
        <ele>20.60000038147</ele>
        <time>2022-08-04T07:48:47.000Z</time>
      </trkpt>
      <trkpt lat="47.28481" lon="-2.28048">
        <ele>21.200000762939</ele>
        <time>2022-08-04T07:48:48.000Z</time>
      </trkpt>
      <trkpt lat="47.28488" lon="-2.28039">
        <ele>21.200000762939</ele>
        <time>2022-08-04T07:48:51.000Z</time>
      </trkpt>
      <trkpt lat="47.28496" lon="-2.28039">
        <ele>21.200000762939</ele>
        <time>2022-08-04T07:48:54.000Z</time>
      </trkpt>
      <trkpt lat="47.28498" lon="-2.2804">
        <ele>21.200000762939</ele>
        <time>2022-08-04T07:48:55.000Z</time>
      </trkpt>
      <trkpt lat="47.28512" lon="-2.28047">
        <ele>21.200000762939</ele>
        <time>2022-08-04T07:48:59.000Z</time>
      </trkpt>
      <trkpt lat="47.2852" lon="-2.28047">
        <ele>20.60000038147</ele>
        <time>2022-08-04T07:49:01.000Z</time>
      </trkpt>
      <trkpt lat="47.28524" lon="-2.28048">
        <ele>20.200000762939</ele>
        <time>2022-08-04T07:49:02.000Z</time>
      </trkpt>
      <trkpt lat="47.28528" lon="-2.28049">
        <ele>19.799999237061</ele>
        <time>2022-08-04T07:49:03.000Z</time>
      </trkpt>
      <trkpt lat="47.28532" lon="-2.28049">
        <ele>19.39999961853</ele>
        <time>2022-08-04T07:49:04.000Z</time>
      </trkpt>
      <trkpt lat="47.28536" lon="-2.28049">
        <ele>18.799999237061</ele>
        <time>2022-08-04T07:49:05.000Z</time>
      </trkpt>
      <trkpt lat="47.2854" lon="-2.2805">
        <ele>17.60000038147</ele>
        <time>2022-08-04T07:49:06.000Z</time>
      </trkpt>
      <trkpt lat="47.28543" lon="-2.28052">
        <ele>17.200000762939</ele>
        <time>2022-08-04T07:49:07.000Z</time>
      </trkpt>
      <trkpt lat="47.28547" lon="-2.28053">
        <ele>16.60000038147</ele>
        <time>2022-08-04T07:49:08.000Z</time>
      </trkpt>
      <trkpt lat="47.28551" lon="-2.28053">
        <ele>16.60000038147</ele>
        <time>2022-08-04T07:49:09.000Z</time>
      </trkpt>
      <trkpt lat="47.28561" lon="-2.28049">
        <ele>16.60000038147</ele>
        <time>2022-08-04T07:49:11.000Z</time>
      </trkpt>
      <trkpt lat="47.28565" lon="-2.28048">
        <ele>16.200000762939</ele>
        <time>2022-08-04T07:49:12.000Z</time>
      </trkpt>
      <trkpt lat="47.2857" lon="-2.28046">
        <ele>15.800000190735</ele>
        <time>2022-08-04T07:49:13.000Z</time>
      </trkpt>
      <trkpt lat="47.28573" lon="-2.28043">
        <ele>15.39999961853</ele>
        <time>2022-08-04T07:49:14.000Z</time>
      </trkpt>
      <trkpt lat="47.28576" lon="-2.2804">
        <ele>15</ele>
        <time>2022-08-04T07:49:15.000Z</time>
      </trkpt>
      <trkpt lat="47.28579" lon="-2.28036">
        <ele>14.60000038147</ele>
        <time>2022-08-04T07:49:16.000Z</time>
      </trkpt>
      <trkpt lat="47.28594" lon="-2.28019">
        <ele>14.60000038147</ele>
        <time>2022-08-04T07:49:21.000Z</time>
      </trkpt>
      <trkpt lat="47.28602" lon="-2.27992">
        <ele>14.60000038147</ele>
        <time>2022-08-04T07:49:25.000Z</time>
      </trkpt>
      <trkpt lat="47.28605" lon="-2.2798">
        <ele>14.60000038147</ele>
        <time>2022-08-04T07:49:27.000Z</time>
      </trkpt>
      <trkpt lat="47.28608" lon="-2.27965">
        <ele>14.60000038147</ele>
        <time>2022-08-04T07:49:29.000Z</time>
      </trkpt>
      <trkpt lat="47.28616" lon="-2.27953">
        <ele>14.60000038147</ele>
        <time>2022-08-04T07:49:32.000Z</time>
      </trkpt>
      <trkpt lat="47.28618" lon="-2.27952">
        <ele>14.60000038147</ele>
        <time>2022-08-04T07:49:33.000Z</time>
      </trkpt>
      <trkpt lat="47.28619" lon="-2.27951">
        <ele>14.60000038147</ele>
        <time>2022-08-04T07:49:35.000Z</time>
      </trkpt>
      <trkpt lat="47.2862" lon="-2.2795">
        <ele>14.60000038147</ele>
        <time>2022-08-04T07:49:54.000Z</time>
      </trkpt>
      <trkpt lat="47.28621" lon="-2.27945">
        <ele>14.60000038147</ele>
        <time>2022-08-04T07:49:56.000Z</time>
      </trkpt>
      <trkpt lat="47.28622" lon="-2.27938">
        <ele>14.60000038147</ele>
        <time>2022-08-04T07:49:58.000Z</time>
      </trkpt>
      <trkpt lat="47.28625" lon="-2.27906">
        <ele>14.60000038147</ele>
        <time>2022-08-04T07:50:03.000Z</time>
      </trkpt>
      <trkpt lat="47.28628" lon="-2.27892">
        <ele>14.60000038147</ele>
        <time>2022-08-04T07:50:05.000Z</time>
      </trkpt>
      <trkpt lat="47.28632" lon="-2.27875">
        <ele>14.60000038147</ele>
        <time>2022-08-04T07:50:07.000Z</time>
      </trkpt>
      <trkpt lat="47.28635" lon="-2.27857">
        <ele>14.60000038147</ele>
        <time>2022-08-04T07:50:09.000Z</time>
      </trkpt>
      <trkpt lat="47.28638" lon="-2.27839">
        <ele>14</ele>
        <time>2022-08-04T07:50:11.000Z</time>
      </trkpt>
      <trkpt lat="47.2864" lon="-2.27831">
        <ele>13.60000038147</ele>
        <time>2022-08-04T07:50:12.000Z</time>
      </trkpt>
      <trkpt lat="47.28641" lon="-2.27822">
        <ele>13.199999809265</ele>
        <time>2022-08-04T07:50:13.000Z</time>
      </trkpt>
      <trkpt lat="47.28643" lon="-2.27813">
        <ele>12.800000190735</ele>
        <time>2022-08-04T07:50:14.000Z</time>
      </trkpt>
      <trkpt lat="47.28646" lon="-2.27804">
        <ele>12.199999809265</ele>
        <time>2022-08-04T07:50:15.000Z</time>
      </trkpt>
      <trkpt lat="47.28651" lon="-2.27787">
        <ele>12.199999809265</ele>
        <time>2022-08-04T07:50:17.000Z</time>
      </trkpt>
      <trkpt lat="47.28654" lon="-2.27779">
        <ele>12.199999809265</ele>
        <time>2022-08-04T07:50:18.000Z</time>
      </trkpt>
      <trkpt lat="47.28675" lon="-2.27732">
        <ele>12.199999809265</ele>
        <time>2022-08-04T07:50:24.000Z</time>
      </trkpt>
      <trkpt lat="47.28698" lon="-2.27692">
        <ele>12.199999809265</ele>
        <time>2022-08-04T07:50:30.000Z</time>
      </trkpt>
      <trkpt lat="47.28721" lon="-2.27651">
        <ele>12.199999809265</ele>
        <time>2022-08-04T07:50:36.000Z</time>
      </trkpt>
      <trkpt lat="47.28751" lon="-2.27604">
        <ele>12.199999809265</ele>
        <time>2022-08-04T07:50:43.000Z</time>
      </trkpt>
      <trkpt lat="47.28787" lon="-2.27564">
        <ele>11.800000190735</ele>
        <time>2022-08-04T07:50:50.000Z</time>
      </trkpt>
      <trkpt lat="47.28791" lon="-2.27557">
        <ele>11.39999961853</ele>
        <time>2022-08-04T07:50:51.000Z</time>
      </trkpt>
      <trkpt lat="47.28795" lon="-2.27551">
        <ele>11</ele>
        <time>2022-08-04T07:50:52.000Z</time>
      </trkpt>
      <trkpt lat="47.288" lon="-2.27546">
        <ele>10.60000038147</ele>
        <time>2022-08-04T07:50:53.000Z</time>
      </trkpt>
      <trkpt lat="47.28805" lon="-2.27542">
        <ele>10.199999809265</ele>
        <time>2022-08-04T07:50:54.000Z</time>
      </trkpt>
      <trkpt lat="47.28821" lon="-2.27537">
        <ele>10.199999809265</ele>
        <time>2022-08-04T07:50:57.000Z</time>
      </trkpt>
      <trkpt lat="47.28826" lon="-2.27536">
        <ele>10.199999809265</ele>
        <time>2022-08-04T07:50:58.000Z</time>
      </trkpt>
      <trkpt lat="47.28856" lon="-2.27533">
        <ele>10.199999809265</ele>
        <time>2022-08-04T07:51:03.000Z</time>
      </trkpt>
      <trkpt lat="47.28891" lon="-2.27525">
        <ele>10.199999809265</ele>
        <time>2022-08-04T07:51:09.000Z</time>
      </trkpt>
      <trkpt lat="47.28928" lon="-2.2752">
        <ele>10.199999809265</ele>
        <time>2022-08-04T07:51:15.000Z</time>
      </trkpt>
      <trkpt lat="47.28962" lon="-2.2752">
        <ele>10.199999809265</ele>
        <time>2022-08-04T07:51:21.000Z</time>
      </trkpt>
      <trkpt lat="47.29006" lon="-2.27519">
        <ele>10.199999809265</ele>
        <time>2022-08-04T07:51:29.000Z</time>
      </trkpt>
      <trkpt lat="47.29047" lon="-2.27521">
        <ele>10.199999809265</ele>
        <time>2022-08-04T07:51:36.000Z</time>
      </trkpt>
      <trkpt lat="47.2908" lon="-2.27526">
        <ele>10.199999809265</ele>
        <time>2022-08-04T07:51:42.000Z</time>
      </trkpt>
      <trkpt lat="47.29094" lon="-2.27529">
        <ele>10.199999809265</ele>
        <time>2022-08-04T07:51:45.000Z</time>
      </trkpt>
      <trkpt lat="47.29099" lon="-2.27529">
        <ele>10.199999809265</ele>
        <time>2022-08-04T07:51:46.000Z</time>
      </trkpt>
      <trkpt lat="47.29141" lon="-2.2753">
        <ele>10.199999809265</ele>
        <time>2022-08-04T07:51:53.000Z</time>
      </trkpt>
      <trkpt lat="47.29177" lon="-2.27529">
        <ele>10.199999809265</ele>
        <time>2022-08-04T07:51:59.000Z</time>
      </trkpt>
      <trkpt lat="47.29218" lon="-2.27528">
        <ele>10.199999809265</ele>
        <time>2022-08-04T07:52:06.000Z</time>
      </trkpt>
      <trkpt lat="47.29248" lon="-2.27527">
        <ele>10.199999809265</ele>
        <time>2022-08-04T07:52:12.000Z</time>
      </trkpt>
      <trkpt lat="47.29252" lon="-2.27526">
        <ele>10.199999809265</ele>
        <time>2022-08-04T07:52:13.000Z</time>
      </trkpt>
      <trkpt lat="47.2927" lon="-2.27517">
        <ele>10.199999809265</ele>
        <time>2022-08-04T07:52:17.000Z</time>
      </trkpt>
      <trkpt lat="47.29274" lon="-2.27518">
        <ele>10.199999809265</ele>
        <time>2022-08-04T07:52:18.000Z</time>
      </trkpt>
      <trkpt lat="47.29292" lon="-2.27528">
        <ele>10.199999809265</ele>
        <time>2022-08-04T07:52:22.000Z</time>
      </trkpt>
      <trkpt lat="47.29315" lon="-2.27534">
        <ele>10.199999809265</ele>
        <time>2022-08-04T07:52:26.000Z</time>
      </trkpt>
      <trkpt lat="47.29321" lon="-2.27534">
        <ele>10.199999809265</ele>
        <time>2022-08-04T07:52:27.000Z</time>
      </trkpt>
      <trkpt lat="47.2934" lon="-2.27532">
        <ele>10.199999809265</ele>
        <time>2022-08-04T07:52:30.000Z</time>
      </trkpt>
      <trkpt lat="47.29351" lon="-2.2753">
        <ele>10.199999809265</ele>
        <time>2022-08-04T07:52:32.000Z</time>
      </trkpt>
      <trkpt lat="47.29391" lon="-2.27519">
        <ele>10.199999809265</ele>
        <time>2022-08-04T07:52:39.000Z</time>
      </trkpt>
      <trkpt lat="47.29428" lon="-2.27512">
        <ele>10.199999809265</ele>
        <time>2022-08-04T07:52:45.000Z</time>
      </trkpt>
      <trkpt lat="47.29472" lon="-2.27517">
        <ele>10.199999809265</ele>
        <time>2022-08-04T07:52:52.000Z</time>
      </trkpt>
      <trkpt lat="47.29513" lon="-2.27526">
        <ele>10.199999809265</ele>
        <time>2022-08-04T07:52:59.000Z</time>
      </trkpt>
      <trkpt lat="47.29556" lon="-2.27542">
        <ele>10.199999809265</ele>
        <time>2022-08-04T07:53:06.000Z</time>
      </trkpt>
      <trkpt lat="47.29592" lon="-2.27561">
        <ele>10.199999809265</ele>
        <time>2022-08-04T07:53:12.000Z</time>
      </trkpt>
      <trkpt lat="47.29608" lon="-2.27572">
        <ele>9.8000001907349</ele>
        <time>2022-08-04T07:53:15.000Z</time>
      </trkpt>
      <trkpt lat="47.29614" lon="-2.27577">
        <ele>9.3999996185303</ele>
        <time>2022-08-04T07:53:16.000Z</time>
      </trkpt>
      <trkpt lat="47.29621" lon="-2.27581">
        <ele>9</ele>
        <time>2022-08-04T07:53:17.000Z</time>
      </trkpt>
      <trkpt lat="47.29627" lon="-2.27586">
        <ele>8.6000003814697</ele>
        <time>2022-08-04T07:53:18.000Z</time>
      </trkpt>
      <trkpt lat="47.29633" lon="-2.2759">
        <ele>8.1999998092651</ele>
        <time>2022-08-04T07:53:19.000Z</time>
      </trkpt>
      <trkpt lat="47.29661" lon="-2.27606">
        <ele>8.1999998092651</ele>
        <time>2022-08-04T07:53:23.000Z</time>
      </trkpt>
      <trkpt lat="47.29668" lon="-2.27609">
        <ele>7.8000001907349</ele>
        <time>2022-08-04T07:53:24.000Z</time>
      </trkpt>
      <trkpt lat="47.29674" lon="-2.27611">
        <ele>7.1999998092651</ele>
        <time>2022-08-04T07:53:25.000Z</time>
      </trkpt>
      <trkpt lat="47.29681" lon="-2.27612">
        <ele>6.8000001907349</ele>
        <time>2022-08-04T07:53:26.000Z</time>
      </trkpt>
      <trkpt lat="47.29689" lon="-2.27613">
        <ele>6.4000000953674</ele>
        <time>2022-08-04T07:53:27.000Z</time>
      </trkpt>
      <trkpt lat="47.29696" lon="-2.27614">
        <ele>6</ele>
        <time>2022-08-04T07:53:28.000Z</time>
      </trkpt>
      <trkpt lat="47.2971" lon="-2.27614">
        <ele>6</ele>
        <time>2022-08-04T07:53:30.000Z</time>
      </trkpt>
      <trkpt lat="47.29716" lon="-2.27612">
        <ele>6</ele>
        <time>2022-08-04T07:53:31.000Z</time>
      </trkpt>
      <trkpt lat="47.29734" lon="-2.27606">
        <ele>6</ele>
        <time>2022-08-04T07:53:34.000Z</time>
      </trkpt>
      <trkpt lat="47.2974" lon="-2.27603">
        <ele>6</ele>
        <time>2022-08-04T07:53:35.000Z</time>
      </trkpt>
      <trkpt lat="47.29778" lon="-2.27593">
        <ele>6</ele>
        <time>2022-08-04T07:53:41.000Z</time>
      </trkpt>
      <trkpt lat="47.29803" lon="-2.27597">
        <ele>6</ele>
        <time>2022-08-04T07:53:45.000Z</time>
      </trkpt>
      <trkpt lat="47.2982" lon="-2.27606">
        <ele>6</ele>
        <time>2022-08-04T07:53:48.000Z</time>
      </trkpt>
      <trkpt lat="47.29832" lon="-2.27613">
        <ele>6</ele>
        <time>2022-08-04T07:53:50.000Z</time>
      </trkpt>
      <trkpt lat="47.2985" lon="-2.2762">
        <ele>6</ele>
        <time>2022-08-04T07:53:53.000Z</time>
      </trkpt>
      <trkpt lat="47.29863" lon="-2.2762">
        <ele>6</ele>
        <time>2022-08-04T07:53:55.000Z</time>
      </trkpt>
      <trkpt lat="47.29881" lon="-2.27613">
        <ele>6</ele>
        <time>2022-08-04T07:53:58.000Z</time>
      </trkpt>
      <trkpt lat="47.29887" lon="-2.2761">
        <ele>6</ele>
        <time>2022-08-04T07:53:59.000Z</time>
      </trkpt>
      <trkpt lat="47.2992" lon="-2.27595">
        <ele>6</ele>
        <time>2022-08-04T07:54:05.000Z</time>
      </trkpt>
      <trkpt lat="47.29926" lon="-2.27595">
        <ele>6</ele>
        <time>2022-08-04T07:54:06.000Z</time>
      </trkpt>
      <trkpt lat="47.29931" lon="-2.27595">
        <ele>5.5999999046326</ele>
        <time>2022-08-04T07:54:07.000Z</time>
      </trkpt>
      <trkpt lat="47.29938" lon="-2.27595">
        <ele>5.1999998092651</ele>
        <time>2022-08-04T07:54:08.000Z</time>
      </trkpt>
      <trkpt lat="47.29943" lon="-2.27595">
        <ele>4.8000001907349</ele>
        <time>2022-08-04T07:54:09.000Z</time>
      </trkpt>
      <trkpt lat="47.29948" lon="-2.27596">
        <ele>4.4000000953674</ele>
        <time>2022-08-04T07:54:10.000Z</time>
      </trkpt>
      <trkpt lat="47.29953" lon="-2.276">
        <ele>4</ele>
        <time>2022-08-04T07:54:11.000Z</time>
      </trkpt>
      <trkpt lat="47.29961" lon="-2.27617">
        <ele>4</ele>
        <time>2022-08-04T07:54:14.000Z</time>
      </trkpt>
      <trkpt lat="47.29959" lon="-2.2765">
        <ele>4</ele>
        <time>2022-08-04T07:54:18.000Z</time>
      </trkpt>
      <trkpt lat="47.29955" lon="-2.27715">
        <ele>4</ele>
        <time>2022-08-04T07:54:26.000Z</time>
      </trkpt>
      <trkpt lat="47.29948" lon="-2.27791">
        <ele>4</ele>
        <time>2022-08-04T07:54:35.000Z</time>
      </trkpt>
      <trkpt lat="47.29947" lon="-2.27798">
        <ele>4</ele>
        <time>2022-08-04T07:54:36.000Z</time>
      </trkpt>
      <trkpt lat="47.29945" lon="-2.27831">
        <ele>4</ele>
        <time>2022-08-04T07:54:40.000Z</time>
      </trkpt>
      <trkpt lat="47.29941" lon="-2.27872">
        <ele>4.4000000953674</ele>
        <time>2022-08-04T07:54:45.000Z</time>
      </trkpt>
      <trkpt lat="47.2994" lon="-2.27882">
        <ele>4.8000001907349</ele>
        <time>2022-08-04T07:54:46.000Z</time>
      </trkpt>
      <trkpt lat="47.2994" lon="-2.2789">
        <ele>5.1999998092651</ele>
        <time>2022-08-04T07:54:47.000Z</time>
      </trkpt>
      <trkpt lat="47.29939" lon="-2.27898">
        <ele>5.5999999046326</ele>
        <time>2022-08-04T07:54:48.000Z</time>
      </trkpt>
      <trkpt lat="47.29938" lon="-2.27907">
        <ele>6</ele>
        <time>2022-08-04T07:54:49.000Z</time>
      </trkpt>
      <trkpt lat="47.29935" lon="-2.27941">
        <ele>6</ele>
        <time>2022-08-04T07:54:53.000Z</time>
      </trkpt>
      <trkpt lat="47.29933" lon="-2.27979">
        <ele>6</ele>
        <time>2022-08-04T07:54:58.000Z</time>
      </trkpt>
      <trkpt lat="47.29933" lon="-2.27988">
        <ele>6</ele>
        <time>2022-08-04T07:54:59.000Z</time>
      </trkpt>
      <trkpt lat="47.29935" lon="-2.28003">
        <ele>6</ele>
        <time>2022-08-04T07:55:01.000Z</time>
      </trkpt>
      <trkpt lat="47.29939" lon="-2.28026">
        <ele>6</ele>
        <time>2022-08-04T07:55:04.000Z</time>
      </trkpt>
      <trkpt lat="47.29941" lon="-2.28032">
        <ele>6</ele>
        <time>2022-08-04T07:55:05.000Z</time>
      </trkpt>
      <trkpt lat="47.29944" lon="-2.28038">
        <ele>6</ele>
        <time>2022-08-04T07:55:06.000Z</time>
      </trkpt>
      <trkpt lat="47.29951" lon="-2.28047">
        <ele>6</ele>
        <time>2022-08-04T07:55:08.000Z</time>
      </trkpt>
      <trkpt lat="47.29966" lon="-2.28046">
        <ele>6</ele>
        <time>2022-08-04T07:55:11.000Z</time>
      </trkpt>
      <trkpt lat="47.29971" lon="-2.28043">
        <ele>6</ele>
        <time>2022-08-04T07:55:12.000Z</time>
      </trkpt>
      <trkpt lat="47.29988" lon="-2.28035">
        <ele>6</ele>
        <time>2022-08-04T07:55:16.000Z</time>
      </trkpt>
      <trkpt lat="47.29991" lon="-2.28037">
        <ele>6</ele>
        <time>2022-08-04T07:55:17.000Z</time>
      </trkpt>
      <trkpt lat="47.29992" lon="-2.28045">
        <ele>6</ele>
        <time>2022-08-04T07:55:19.000Z</time>
      </trkpt>
      <trkpt lat="47.29988" lon="-2.28054">
        <ele>6</ele>
        <time>2022-08-04T07:55:21.000Z</time>
      </trkpt>
      <trkpt lat="47.29985" lon="-2.28066">
        <ele>6</ele>
        <time>2022-08-04T07:55:23.000Z</time>
      </trkpt>
      <trkpt lat="47.29976" lon="-2.281">
        <ele>6</ele>
        <time>2022-08-04T07:55:28.000Z</time>
      </trkpt>
      <trkpt lat="47.29964" lon="-2.28145">
        <ele>6</ele>
        <time>2022-08-04T07:55:34.000Z</time>
      </trkpt>
      <trkpt lat="47.2996" lon="-2.28159">
        <ele>6</ele>
        <time>2022-08-04T07:55:36.000Z</time>
      </trkpt>
      <trkpt lat="47.29956" lon="-2.28171">
        <ele>6</ele>
        <time>2022-08-04T07:55:38.000Z</time>
      </trkpt>
      <trkpt lat="47.29949" lon="-2.28203">
        <ele>6</ele>
        <time>2022-08-04T07:55:42.000Z</time>
      </trkpt>
      <trkpt lat="47.29951" lon="-2.28211">
        <ele>6</ele>
        <time>2022-08-04T07:55:44.000Z</time>
      </trkpt>
      <trkpt lat="47.29956" lon="-2.28243">
        <ele>6</ele>
        <time>2022-08-04T07:55:49.000Z</time>
      </trkpt>
      <trkpt lat="47.29957" lon="-2.28285">
        <ele>6</ele>
        <time>2022-08-04T07:55:54.000Z</time>
      </trkpt>
      <trkpt lat="47.29959" lon="-2.28306">
        <ele>6</ele>
        <time>2022-08-04T07:55:57.000Z</time>
      </trkpt>
      <trkpt lat="47.29956" lon="-2.28331">
        <ele>6</ele>
        <time>2022-08-04T07:56:00.000Z</time>
      </trkpt>
      <trkpt lat="47.29956" lon="-2.2834">
        <ele>6</ele>
        <time>2022-08-04T07:56:01.000Z</time>
      </trkpt>
      <trkpt lat="47.29955" lon="-2.2835">
        <ele>6</ele>
        <time>2022-08-04T07:56:02.000Z</time>
      </trkpt>
      <trkpt lat="47.29954" lon="-2.28369">
        <ele>6</ele>
        <time>2022-08-04T07:56:04.000Z</time>
      </trkpt>
      <trkpt lat="47.29954" lon="-2.28378">
        <ele>6</ele>
        <time>2022-08-04T07:56:05.000Z</time>
      </trkpt>
      <trkpt lat="47.29954" lon="-2.28396">
        <ele>6</ele>
        <time>2022-08-04T07:56:07.000Z</time>
      </trkpt>
      <trkpt lat="47.29948" lon="-2.28412">
        <ele>6</ele>
        <time>2022-08-04T07:56:09.000Z</time>
      </trkpt>
      <trkpt lat="47.29939" lon="-2.28433">
        <ele>6</ele>
        <time>2022-08-04T07:56:12.000Z</time>
      </trkpt>
      <trkpt lat="47.29937" lon="-2.28457">
        <ele>6</ele>
        <time>2022-08-04T07:56:15.000Z</time>
      </trkpt>
      <trkpt lat="47.29937" lon="-2.28465">
        <ele>6</ele>
        <time>2022-08-04T07:56:16.000Z</time>
      </trkpt>
      <trkpt lat="47.29939" lon="-2.28475">
        <ele>6</ele>
        <time>2022-08-04T07:56:18.000Z</time>
      </trkpt>
      <trkpt lat="47.2994" lon="-2.28476">
        <ele>6</ele>
        <time>2022-08-04T07:56:19.000Z</time>
      </trkpt>
      <trkpt lat="47.29944" lon="-2.28469">
        <ele>6</ele>
        <time>2022-08-04T07:56:22.000Z</time>
      </trkpt>
      <trkpt lat="47.29951" lon="-2.28459">
        <ele>6</ele>
        <time>2022-08-04T07:56:26.000Z</time>
      </trkpt>
      <trkpt lat="47.29957" lon="-2.28451">
        <ele>6</ele>
        <time>2022-08-04T07:56:28.000Z</time>
      </trkpt>
      <trkpt lat="47.2998" lon="-2.28438">
        <ele>6</ele>
        <time>2022-08-04T07:56:33.000Z</time>
      </trkpt>
      <trkpt lat="47.30008" lon="-2.28428">
        <ele>5.5999999046326</ele>
        <time>2022-08-04T07:56:39.000Z</time>
      </trkpt>
      <trkpt lat="47.30014" lon="-2.28426">
        <ele>5.1999998092651</ele>
        <time>2022-08-04T07:56:40.000Z</time>
      </trkpt>
      <trkpt lat="47.30018" lon="-2.28424">
        <ele>4.8000001907349</ele>
        <time>2022-08-04T07:56:41.000Z</time>
      </trkpt>
      <trkpt lat="47.30023" lon="-2.28423">
        <ele>4.4000000953674</ele>
        <time>2022-08-04T07:56:42.000Z</time>
      </trkpt>
      <trkpt lat="47.30027" lon="-2.28421">
        <ele>4</ele>
        <time>2022-08-04T07:56:43.000Z</time>
      </trkpt>
      <trkpt lat="47.30032" lon="-2.2842">
        <ele>4</ele>
        <time>2022-08-04T07:56:44.000Z</time>
      </trkpt>
      <trkpt lat="47.30041" lon="-2.28417">
        <ele>4</ele>
        <time>2022-08-04T07:56:46.000Z</time>
      </trkpt>
      <trkpt lat="47.30046" lon="-2.28415">
        <ele>4</ele>
        <time>2022-08-04T07:56:47.000Z</time>
      </trkpt>
      <trkpt lat="47.30068" lon="-2.28406">
        <ele>4</ele>
        <time>2022-08-04T07:56:51.000Z</time>
      </trkpt>
      <trkpt lat="47.30084" lon="-2.28413">
        <ele>4</ele>
        <time>2022-08-04T07:56:54.000Z</time>
      </trkpt>
      <trkpt lat="47.3009" lon="-2.28418">
        <ele>4</ele>
        <time>2022-08-04T07:56:55.000Z</time>
      </trkpt>
      <trkpt lat="47.30115" lon="-2.28443">
        <ele>4</ele>
        <time>2022-08-04T07:57:00.000Z</time>
      </trkpt>
      <trkpt lat="47.30131" lon="-2.28458">
        <ele>3.5999999046326</ele>
        <time>2022-08-04T07:57:03.000Z</time>
      </trkpt>
      <trkpt lat="47.30136" lon="-2.28463">
        <ele>3.2000000476837</ele>
        <time>2022-08-04T07:57:04.000Z</time>
      </trkpt>
      <trkpt lat="47.30142" lon="-2.28468">
        <ele>2.7999999523163</ele>
        <time>2022-08-04T07:57:05.000Z</time>
      </trkpt>
      <trkpt lat="47.30148" lon="-2.28473">
        <ele>2.4000000953674</ele>
        <time>2022-08-04T07:57:06.000Z</time>
      </trkpt>
      <trkpt lat="47.30154" lon="-2.28477">
        <ele>2</ele>
        <time>2022-08-04T07:57:07.000Z</time>
      </trkpt>
      <trkpt lat="47.30175" lon="-2.28488">
        <ele>2</ele>
        <time>2022-08-04T07:57:10.000Z</time>
      </trkpt>
      <trkpt lat="47.30219" lon="-2.28506">
        <ele>2</ele>
        <time>2022-08-04T07:57:17.000Z</time>
      </trkpt>
      <trkpt lat="47.30238" lon="-2.28511">
        <ele>2</ele>
        <time>2022-08-04T07:57:20.000Z</time>
      </trkpt>
      <trkpt lat="47.30249" lon="-2.28511">
        <ele>2</ele>
        <time>2022-08-04T07:57:22.000Z</time>
      </trkpt>
      <trkpt lat="47.30275" lon="-2.28507">
        <ele>1.6000000238419</ele>
        <time>2022-08-04T07:57:26.000Z</time>
      </trkpt>
      <trkpt lat="47.30281" lon="-2.28504">
        <ele>1.2000000476837</ele>
        <time>2022-08-04T07:57:27.000Z</time>
      </trkpt>
      <trkpt lat="47.30288" lon="-2.28501">
        <ele>0.80000001192093</ele>
        <time>2022-08-04T07:57:28.000Z</time>
      </trkpt>
      <trkpt lat="47.30294" lon="-2.28498">
        <ele>0.40000000596046</ele>
        <time>2022-08-04T07:57:29.000Z</time>
      </trkpt>
      <trkpt lat="47.30301" lon="-2.28495">
        <ele>5.2</ele>
        <time>2022-08-04T07:57:30.000Z</time>
      </trkpt>
      <trkpt lat="47.30317" lon="-2.28481">
        <ele>5.5</ele>
        <time>2022-08-04T07:57:33.000Z</time>
      </trkpt>
      <trkpt lat="47.30342" lon="-2.28454">
        <ele>5.6</ele>
        <time>2022-08-04T07:57:38.000Z</time>
      </trkpt>
      <trkpt lat="47.30367" lon="-2.28429">
        <ele>4.9</ele>
        <time>2022-08-04T07:57:43.000Z</time>
      </trkpt>
      <trkpt lat="47.30403" lon="-2.28401">
        <ele>4.5</ele>
        <time>2022-08-04T07:57:49.000Z</time>
      </trkpt>
      <trkpt lat="47.30434" lon="-2.2838">
        <ele>4.9</ele>
        <time>2022-08-04T07:57:54.000Z</time>
      </trkpt>
      <trkpt lat="47.30477" lon="-2.28352">
        <ele>4.4</ele>
        <time>2022-08-04T07:58:01.000Z</time>
      </trkpt>
      <trkpt lat="47.30501" lon="-2.28336">
        <ele>-0.40000000596046</ele>
        <time>2022-08-04T07:58:05.000Z</time>
      </trkpt>
      <trkpt lat="47.30506" lon="-2.28332">
        <ele>-0.80000001192093</ele>
        <time>2022-08-04T07:58:06.000Z</time>
      </trkpt>
      <trkpt lat="47.30512" lon="-2.28328">
        <ele>-1.2000000476837</ele>
        <time>2022-08-04T07:58:07.000Z</time>
      </trkpt>
      <trkpt lat="47.30518" lon="-2.28324">
        <ele>-1.6000000238419</ele>
        <time>2022-08-04T07:58:08.000Z</time>
      </trkpt>
      <trkpt lat="47.30525" lon="-2.28319">
        <ele>-2</ele>
        <time>2022-08-04T07:58:09.000Z</time>
      </trkpt>
      <trkpt lat="47.30536" lon="-2.2831">
        <ele>-2</ele>
        <time>2022-08-04T07:58:11.000Z</time>
      </trkpt>
      <trkpt lat="47.3057" lon="-2.28288">
        <ele>-2</ele>
        <time>2022-08-04T07:58:17.000Z</time>
      </trkpt>
      <trkpt lat="47.30607" lon="-2.2827">
        <ele>-2</ele>
        <time>2022-08-04T07:58:23.000Z</time>
      </trkpt>
      <trkpt lat="47.30641" lon="-2.28256">
        <ele>-2</ele>
        <time>2022-08-04T07:58:29.000Z</time>
      </trkpt>
      <trkpt lat="47.3066" lon="-2.28249">
        <ele>-2</ele>
        <time>2022-08-04T07:58:33.000Z</time>
      </trkpt>
      <trkpt lat="47.30664" lon="-2.28246">
        <ele>-2</ele>
        <time>2022-08-04T07:58:34.000Z</time>
      </trkpt>
      <trkpt lat="47.30672" lon="-2.28229">
        <ele>-2</ele>
        <time>2022-08-04T07:58:37.000Z</time>
      </trkpt>
      <trkpt lat="47.30676" lon="-2.28215">
        <ele>-2</ele>
        <time>2022-08-04T07:58:39.000Z</time>
      </trkpt>
      <trkpt lat="47.30682" lon="-2.28184">
        <ele>-2</ele>
        <time>2022-08-04T07:58:43.000Z</time>
      </trkpt>
      <trkpt lat="47.30687" lon="-2.2816">
        <ele>-2</ele>
        <time>2022-08-04T07:58:46.000Z</time>
      </trkpt>
      <trkpt lat="47.30694" lon="-2.28148">
        <ele>-2</ele>
        <time>2022-08-04T07:58:48.000Z</time>
      </trkpt>
      <trkpt lat="47.30707" lon="-2.28152">
        <ele>-2</ele>
        <time>2022-08-04T07:58:51.000Z</time>
      </trkpt>
      <trkpt lat="47.3072" lon="-2.28167">
        <ele>-2</ele>
        <time>2022-08-04T07:58:54.000Z</time>
      </trkpt>
      <trkpt lat="47.30729" lon="-2.28178">
        <ele>-2</ele>
        <time>2022-08-04T07:58:56.000Z</time>
      </trkpt>
      <trkpt lat="47.30755" lon="-2.28216">
        <ele>-2</ele>
        <time>2022-08-04T07:59:02.000Z</time>
      </trkpt>
      <trkpt lat="47.30775" lon="-2.28238">
        <ele>-2</ele>
        <time>2022-08-04T07:59:06.000Z</time>
      </trkpt>
      <trkpt lat="47.30787" lon="-2.28245">
        <ele>-2</ele>
        <time>2022-08-04T07:59:08.000Z</time>
      </trkpt>
      <trkpt lat="47.30798" lon="-2.28249">
        <ele>-2</ele>
        <time>2022-08-04T07:59:10.000Z</time>
      </trkpt>
      <trkpt lat="47.30809" lon="-2.2825">
        <ele>-2</ele>
        <time>2022-08-04T07:59:12.000Z</time>
      </trkpt>
      <trkpt lat="47.30815" lon="-2.2825">
        <ele>-2</ele>
        <time>2022-08-04T07:59:13.000Z</time>
      </trkpt>
      <trkpt lat="47.30831" lon="-2.28247">
        <ele>-2</ele>
        <time>2022-08-04T07:59:16.000Z</time>
      </trkpt>
      <trkpt lat="47.30848" lon="-2.28242">
        <ele>-2</ele>
        <time>2022-08-04T07:59:19.000Z</time>
      </trkpt>
      <trkpt lat="47.30857" lon="-2.28235">
        <ele>-2</ele>
        <time>2022-08-04T07:59:21.000Z</time>
      </trkpt>
      <trkpt lat="47.30867" lon="-2.28225">
        <ele>-2</ele>
        <time>2022-08-04T07:59:23.000Z</time>
      </trkpt>
      <trkpt lat="47.30871" lon="-2.28219">
        <ele>-2</ele>
        <time>2022-08-04T07:59:24.000Z</time>
      </trkpt>
      <trkpt lat="47.30879" lon="-2.28208">
        <ele>-2</ele>
        <time>2022-08-04T07:59:26.000Z</time>
      </trkpt>
      <trkpt lat="47.30888" lon="-2.28195">
        <ele>-2.4000000953674</ele>
        <time>2022-08-04T07:59:28.000Z</time>
      </trkpt>
      <trkpt lat="47.30892" lon="-2.28188">
        <ele>-2.7999999523163</ele>
        <time>2022-08-04T07:59:29.000Z</time>
      </trkpt>
      <trkpt lat="47.30897" lon="-2.28182">
        <ele>-3.2000000476837</ele>
        <time>2022-08-04T07:59:30.000Z</time>
      </trkpt>
      <trkpt lat="47.30901" lon="-2.28176">
        <ele>-3.5999999046326</ele>
        <time>2022-08-04T07:59:31.000Z</time>
      </trkpt>
      <trkpt lat="47.30906" lon="-2.28169">
        <ele>-4</ele>
        <time>2022-08-04T07:59:32.000Z</time>
      </trkpt>
      <trkpt lat="47.30936" lon="-2.28122">
        <ele>-4</ele>
        <time>2022-08-04T07:59:39.000Z</time>
      </trkpt>
      <trkpt lat="47.30969" lon="-2.28084">
        <ele>-4</ele>
        <time>2022-08-04T07:59:46.000Z</time>
      </trkpt>
      <trkpt lat="47.3099" lon="-2.28069">
        <ele>-4</ele>
        <time>2022-08-04T07:59:50.000Z</time>
      </trkpt>
      <trkpt lat="47.31021" lon="-2.28049">
        <ele>-4</ele>
        <time>2022-08-04T07:59:56.000Z</time>
      </trkpt>
      <trkpt lat="47.31039" lon="-2.28029">
        <ele>-4</ele>
        <time>2022-08-04T08:00:00.000Z</time>
      </trkpt>
      <trkpt lat="47.31044" lon="-2.28023">
        <ele>-4</ele>
        <time>2022-08-04T08:00:01.000Z</time>
      </trkpt>
      <trkpt lat="47.31048" lon="-2.28016">
        <ele>-4</ele>
        <time>2022-08-04T08:00:02.000Z</time>
      </trkpt>
      <trkpt lat="47.31069" lon="-2.27982">
        <ele>-4</ele>
        <time>2022-08-04T08:00:07.000Z</time>
      </trkpt>
      <trkpt lat="47.31095" lon="-2.27943">
        <ele>-4</ele>
        <time>2022-08-04T08:00:13.000Z</time>
      </trkpt>
      <trkpt lat="47.31121" lon="-2.27899">
        <ele>-4</ele>
        <time>2022-08-04T08:00:19.000Z</time>
      </trkpt>
      <trkpt lat="47.31137" lon="-2.27873">
        <ele>-4</ele>
        <time>2022-08-04T08:00:23.000Z</time>
      </trkpt>
      <trkpt lat="47.31141" lon="-2.27866">
        <ele>-4</ele>
        <time>2022-08-04T08:00:24.000Z</time>
      </trkpt>
      <trkpt lat="47.31146" lon="-2.2784">
        <ele>-4</ele>
        <time>2022-08-04T08:00:27.000Z</time>
      </trkpt>
      <trkpt lat="47.31146" lon="-2.27817">
        <ele>-4</ele>
        <time>2022-08-04T08:00:30.000Z</time>
      </trkpt>
      <trkpt lat="47.31145" lon="-2.27809">
        <ele>-4</ele>
        <time>2022-08-04T08:00:31.000Z</time>
      </trkpt>
      <trkpt lat="47.31138" lon="-2.27771">
        <ele>-4</ele>
        <time>2022-08-04T08:00:36.000Z</time>
      </trkpt>
      <trkpt lat="47.31137" lon="-2.27764">
        <ele>-4</ele>
        <time>2022-08-04T08:00:37.000Z</time>
      </trkpt>
      <trkpt lat="47.31138" lon="-2.27754">
        <ele>-4</ele>
        <time>2022-08-04T08:00:39.000Z</time>
      </trkpt>
      <trkpt lat="47.31141" lon="-2.27751">
        <ele>-4</ele>
        <time>2022-08-04T08:00:40.000Z</time>
      </trkpt>
      <trkpt lat="47.31154" lon="-2.27747">
        <ele>-4</ele>
        <time>2022-08-04T08:00:43.000Z</time>
      </trkpt>
      <trkpt lat="47.31159" lon="-2.27747">
        <ele>-4</ele>
        <time>2022-08-04T08:00:44.000Z</time>
      </trkpt>
      <trkpt lat="47.31174" lon="-2.2774">
        <ele>-4</ele>
        <time>2022-08-04T08:00:47.000Z</time>
      </trkpt>
      <trkpt lat="47.31196" lon="-2.27731">
        <ele>-4</ele>
        <time>2022-08-04T08:00:51.000Z</time>
      </trkpt>
      <trkpt lat="47.31201" lon="-2.27731">
        <ele>-4</ele>
        <time>2022-08-04T08:00:52.000Z</time>
      </trkpt>
      <trkpt lat="47.31214" lon="-2.27741">
        <ele>-4</ele>
        <time>2022-08-04T08:00:55.000Z</time>
      </trkpt>
      <trkpt lat="47.31216" lon="-2.27747">
        <ele>-4</ele>
        <time>2022-08-04T08:00:56.000Z</time>
      </trkpt>
      <trkpt lat="47.31221" lon="-2.27758">
        <ele>-4</ele>
        <time>2022-08-04T08:00:58.000Z</time>
      </trkpt>
      <trkpt lat="47.31236" lon="-2.27771">
        <ele>-4</ele>
        <time>2022-08-04T08:01:02.000Z</time>
      </trkpt>
      <trkpt lat="47.31245" lon="-2.2777">
        <ele>-4</ele>
        <time>2022-08-04T08:01:04.000Z</time>
      </trkpt>
      <trkpt lat="47.31255" lon="-2.27769">
        <ele>-4</ele>
        <time>2022-08-04T08:01:06.000Z</time>
      </trkpt>
      <trkpt lat="47.31289" lon="-2.27767">
        <ele>-4</ele>
        <time>2022-08-04T08:01:12.000Z</time>
      </trkpt>
      <trkpt lat="47.31335" lon="-2.2776">
        <ele>-4</ele>
        <time>2022-08-04T08:01:18.000Z</time>
      </trkpt>
      <trkpt lat="47.31382" lon="-2.27749">
        <ele>-4</ele>
        <time>2022-08-04T08:01:25.000Z</time>
      </trkpt>
      <trkpt lat="47.31417" lon="-2.27732">
        <ele>-4</ele>
        <time>2022-08-04T08:01:31.000Z</time>
      </trkpt>
      <trkpt lat="47.31453" lon="-2.27706">
        <ele>-4</ele>
        <time>2022-08-04T08:01:37.000Z</time>
      </trkpt>
      <trkpt lat="47.31469" lon="-2.2769">
        <ele>-4</ele>
        <time>2022-08-04T08:01:40.000Z</time>
      </trkpt>
      <trkpt lat="47.31482" lon="-2.27668">
        <ele>-4</ele>
        <time>2022-08-04T08:01:43.000Z</time>
      </trkpt>
      <trkpt lat="47.31495" lon="-2.27638">
        <ele>-4</ele>
        <time>2022-08-04T08:01:47.000Z</time>
      </trkpt>
      <trkpt lat="47.31498" lon="-2.2762">
        <ele>-4</ele>
        <time>2022-08-04T08:01:49.000Z</time>
      </trkpt>
      <trkpt lat="47.31499" lon="-2.27611">
        <ele>-4</ele>
        <time>2022-08-04T08:01:50.000Z</time>
      </trkpt>
      <trkpt lat="47.31499" lon="-2.27603">
        <ele>-4</ele>
        <time>2022-08-04T08:01:51.000Z</time>
      </trkpt>
      <trkpt lat="47.31492" lon="-2.27577">
        <ele>-4</ele>
        <time>2022-08-04T08:01:54.000Z</time>
      </trkpt>
      <trkpt lat="47.31476" lon="-2.27539">
        <ele>-4</ele>
        <time>2022-08-04T08:01:59.000Z</time>
      </trkpt>
      <trkpt lat="47.31464" lon="-2.2751">
        <ele>-4</ele>
        <time>2022-08-04T08:02:03.000Z</time>
      </trkpt>
      <trkpt lat="47.31462" lon="-2.27503">
        <ele>-4</ele>
        <time>2022-08-04T08:02:04.000Z</time>
      </trkpt>
      <trkpt lat="47.3145" lon="-2.27466">
        <ele>-4</ele>
        <time>2022-08-04T08:02:09.000Z</time>
      </trkpt>
      <trkpt lat="47.31446" lon="-2.27458">
        <ele>-4</ele>
        <time>2022-08-04T08:02:10.000Z</time>
      </trkpt>
      <trkpt lat="47.31437" lon="-2.27446">
        <ele>-4</ele>
        <time>2022-08-04T08:02:12.000Z</time>
      </trkpt>
      <trkpt lat="47.31426" lon="-2.27436">
        <ele>-4</ele>
        <time>2022-08-04T08:02:14.000Z</time>
      </trkpt>
      <trkpt lat="47.31403" lon="-2.27416">
        <ele>-4</ele>
        <time>2022-08-04T08:02:18.000Z</time>
      </trkpt>
      <trkpt lat="47.31368" lon="-2.27374">
        <ele>-4</ele>
        <time>2022-08-04T08:02:25.000Z</time>
      </trkpt>
      <trkpt lat="47.31342" lon="-2.27338">
        <ele>-4</ele>
        <time>2022-08-04T08:02:31.000Z</time>
      </trkpt>
      <trkpt lat="47.31317" lon="-2.273">
        <ele>-4</ele>
        <time>2022-08-04T08:02:37.000Z</time>
      </trkpt>
      <trkpt lat="47.31307" lon="-2.2728">
        <ele>-4</ele>
        <time>2022-08-04T08:02:40.000Z</time>
      </trkpt>
      <trkpt lat="47.31301" lon="-2.27258">
        <ele>-4</ele>
        <time>2022-08-04T08:02:43.000Z</time>
      </trkpt>
      <trkpt lat="47.31299" lon="-2.2725">
        <ele>-4</ele>
        <time>2022-08-04T08:02:44.000Z</time>
      </trkpt>
      <trkpt lat="47.31295" lon="-2.27234">
        <ele>-4</ele>
        <time>2022-08-04T08:02:46.000Z</time>
      </trkpt>
      <trkpt lat="47.31291" lon="-2.2721">
        <ele>-3.5999999046326</ele>
        <time>2022-08-04T08:02:49.000Z</time>
      </trkpt>
      <trkpt lat="47.31289" lon="-2.27201">
        <ele>-3.2000000476837</ele>
        <time>2022-08-04T08:02:50.000Z</time>
      </trkpt>
      <trkpt lat="47.31287" lon="-2.27192">
        <ele>-2.7999999523163</ele>
        <time>2022-08-04T08:02:51.000Z</time>
      </trkpt>
      <trkpt lat="47.31286" lon="-2.27184">
        <ele>-2.4000000953674</ele>
        <time>2022-08-04T08:02:52.000Z</time>
      </trkpt>
      <trkpt lat="47.31284" lon="-2.27176">
        <ele>-1.7999999523163</ele>
        <time>2022-08-04T08:02:53.000Z</time>
      </trkpt>
      <trkpt lat="47.31278" lon="-2.27146">
        <ele>-1.7999999523163</ele>
        <time>2022-08-04T08:02:57.000Z</time>
      </trkpt>
      <trkpt lat="47.31277" lon="-2.27111">
        <ele>-1.7999999523163</ele>
        <time>2022-08-04T08:03:03.000Z</time>
      </trkpt>
      <trkpt lat="47.31289" lon="-2.27096">
        <ele>-1.7999999523163</ele>
        <time>2022-08-04T08:03:07.000Z</time>
      </trkpt>
      <trkpt lat="47.31311" lon="-2.27083">
        <ele>-1.7999999523163</ele>
        <time>2022-08-04T08:03:11.000Z</time>
      </trkpt>
      <trkpt lat="47.31317" lon="-2.27081">
        <ele>-1.7999999523163</ele>
        <time>2022-08-04T08:03:12.000Z</time>
      </trkpt>
      <trkpt lat="47.31369" lon="-2.27063">
        <ele>-1.7999999523163</ele>
        <time>2022-08-04T08:03:21.000Z</time>
      </trkpt>
      <trkpt lat="47.31403" lon="-2.27044">
        <ele>-1.7999999523163</ele>
        <time>2022-08-04T08:03:27.000Z</time>
      </trkpt>
      <trkpt lat="47.31449" lon="-2.27011">
        <ele>-1.7999999523163</ele>
        <time>2022-08-04T08:03:35.000Z</time>
      </trkpt>
      <trkpt lat="47.31477" lon="-2.26991">
        <ele>-1.7999999523163</ele>
        <time>2022-08-04T08:03:40.000Z</time>
      </trkpt>
      <trkpt lat="47.31487" lon="-2.26985">
        <ele>-1.7999999523163</ele>
        <time>2022-08-04T08:03:42.000Z</time>
      </trkpt>
      <trkpt lat="47.31494" lon="-2.26965">
        <ele>-1.7999999523163</ele>
        <time>2022-08-04T08:03:45.000Z</time>
      </trkpt>
      <trkpt lat="47.31498" lon="-2.26949">
        <ele>-1.7999999523163</ele>
        <time>2022-08-04T08:03:47.000Z</time>
      </trkpt>
      <trkpt lat="47.31506" lon="-2.26922">
        <ele>-1.7999999523163</ele>
        <time>2022-08-04T08:03:50.000Z</time>
      </trkpt>
      <trkpt lat="47.31508" lon="-2.26914">
        <ele>-2.4000000953674</ele>
        <time>2022-08-04T08:03:51.000Z</time>
      </trkpt>
      <trkpt lat="47.31511" lon="-2.26905">
        <ele>-2.7999999523163</ele>
        <time>2022-08-04T08:03:52.000Z</time>
      </trkpt>
      <trkpt lat="47.31513" lon="-2.26897">
        <ele>-3.2000000476837</ele>
        <time>2022-08-04T08:03:53.000Z</time>
      </trkpt>
      <trkpt lat="47.31515" lon="-2.26887">
        <ele>-3.5999999046326</ele>
        <time>2022-08-04T08:03:54.000Z</time>
      </trkpt>
      <trkpt lat="47.31518" lon="-2.26879">
        <ele>-4</ele>
        <time>2022-08-04T08:03:55.000Z</time>
      </trkpt>
      <trkpt lat="47.3152" lon="-2.26871">
        <ele>-4</ele>
        <time>2022-08-04T08:03:56.000Z</time>
      </trkpt>
      <trkpt lat="47.31535" lon="-2.26833">
        <ele>-4</ele>
        <time>2022-08-04T08:04:01.000Z</time>
      </trkpt>
      <trkpt lat="47.31543" lon="-2.2681">
        <ele>-4</ele>
        <time>2022-08-04T08:04:04.000Z</time>
      </trkpt>
      <trkpt lat="47.3155" lon="-2.26793">
        <ele>-4</ele>
        <time>2022-08-04T08:04:06.000Z</time>
      </trkpt>
      <trkpt lat="47.31564" lon="-2.26764">
        <ele>-4</ele>
        <time>2022-08-04T08:04:10.000Z</time>
      </trkpt>
      <trkpt lat="47.31569" lon="-2.26761">
        <ele>-4</ele>
        <time>2022-08-04T08:04:11.000Z</time>
      </trkpt>
      <trkpt lat="47.31585" lon="-2.26761">
        <ele>-4</ele>
        <time>2022-08-04T08:04:14.000Z</time>
      </trkpt>
      <trkpt lat="47.31606" lon="-2.26759">
        <ele>-4</ele>
        <time>2022-08-04T08:04:17.000Z</time>
      </trkpt>
      <trkpt lat="47.31618" lon="-2.26757">
        <ele>-4</ele>
        <time>2022-08-04T08:04:19.000Z</time>
      </trkpt>
      <trkpt lat="47.31624" lon="-2.26753">
        <ele>-4</ele>
        <time>2022-08-04T08:04:20.000Z</time>
      </trkpt>
      <trkpt lat="47.31634" lon="-2.26745">
        <ele>-4</ele>
        <time>2022-08-04T08:04:22.000Z</time>
      </trkpt>
      <trkpt lat="47.31639" lon="-2.26743">
        <ele>-4</ele>
        <time>2022-08-04T08:04:23.000Z</time>
      </trkpt>
      <trkpt lat="47.31655" lon="-2.26734">
        <ele>-4</ele>
        <time>2022-08-04T08:04:26.000Z</time>
      </trkpt>
      <trkpt lat="47.3166" lon="-2.26733">
        <ele>-4</ele>
        <time>2022-08-04T08:04:27.000Z</time>
      </trkpt>
      <trkpt lat="47.31681" lon="-2.26728">
        <ele>-4</ele>
        <time>2022-08-04T08:04:31.000Z</time>
      </trkpt>
      <trkpt lat="47.31706" lon="-2.26722">
        <ele>-4</ele>
        <time>2022-08-04T08:04:35.000Z</time>
      </trkpt>
      <trkpt lat="47.31711" lon="-2.26721">
        <ele>-4</ele>
        <time>2022-08-04T08:04:36.000Z</time>
      </trkpt>
      <trkpt lat="47.31739" lon="-2.26714">
        <ele>-4</ele>
        <time>2022-08-04T08:04:41.000Z</time>
      </trkpt>
      <trkpt lat="47.31745" lon="-2.26711">
        <ele>-4</ele>
        <time>2022-08-04T08:04:42.000Z</time>
      </trkpt>
      <trkpt lat="47.31751" lon="-2.26709">
        <ele>-3.2000000476837</ele>
        <time>2022-08-04T08:04:43.000Z</time>
      </trkpt>
      <trkpt lat="47.31757" lon="-2.26708">
        <ele>-2.7999999523163</ele>
        <time>2022-08-04T08:04:44.000Z</time>
      </trkpt>
      <trkpt lat="47.31762" lon="-2.26706">
        <ele>-2.4000000953674</ele>
        <time>2022-08-04T08:04:45.000Z</time>
      </trkpt>
      <trkpt lat="47.31768" lon="-2.26704">
        <ele>-2</ele>
        <time>2022-08-04T08:04:46.000Z</time>
      </trkpt>
      <trkpt lat="47.31773" lon="-2.26703">
        <ele>-2</ele>
        <time>2022-08-04T08:04:47.000Z</time>
      </trkpt>
      <trkpt lat="47.31788" lon="-2.26697">
        <ele>-2</ele>
        <time>2022-08-04T08:04:50.000Z</time>
      </trkpt>
      <trkpt lat="47.31797" lon="-2.26697">
        <ele>-2</ele>
        <time>2022-08-04T08:04:52.000Z</time>
      </trkpt>
      <trkpt lat="47.31801" lon="-2.26698">
        <ele>-1.6000000238419</ele>
        <time>2022-08-04T08:04:53.000Z</time>
      </trkpt>
      <trkpt lat="47.31804" lon="-2.267">
        <ele>-1.2000000476837</ele>
        <time>2022-08-04T08:04:54.000Z</time>
      </trkpt>
      <trkpt lat="47.31807" lon="-2.26703">
        <ele>-0.80000001192093</ele>
        <time>2022-08-04T08:04:55.000Z</time>
      </trkpt>
      <trkpt lat="47.31809" lon="-2.26707">
        <ele>-0.40000000596046</ele>
        <time>2022-08-04T08:04:56.000Z</time>
      </trkpt>
      <trkpt lat="47.31812" lon="-2.26711">
        <ele>8.2</ele>
        <time>2022-08-04T08:04:57.000Z</time>
      </trkpt>
      <trkpt lat="47.31824" lon="-2.26731">
        <ele>8.3</ele>
        <time>2022-08-04T08:05:01.000Z</time>
      </trkpt>
      <trkpt lat="47.31828" lon="-2.26735">
        <ele>8.3</ele>
        <time>2022-08-04T08:05:02.000Z</time>
      </trkpt>
      <trkpt lat="47.31841" lon="-2.26739">
        <ele>8.4</ele>
        <time>2022-08-04T08:05:05.000Z</time>
      </trkpt>
      <trkpt lat="47.31849" lon="-2.26738">
        <ele>8.4</ele>
        <time>2022-08-04T08:05:07.000Z</time>
      </trkpt>
      <trkpt lat="47.31852" lon="-2.26737">
        <ele>8.5</ele>
        <time>2022-08-04T08:05:08.000Z</time>
      </trkpt>
      <trkpt lat="47.31869" lon="-2.26724">
        <ele>8.9</ele>
        <time>2022-08-04T08:05:13.000Z</time>
      </trkpt>
      <trkpt lat="47.31893" lon="-2.26708">
        <ele>9</ele>
        <time>2022-08-04T08:05:19.000Z</time>
      </trkpt>
      <trkpt lat="47.3191" lon="-2.26694">
        <ele>9</ele>
        <time>2022-08-04T08:05:24.000Z</time>
      </trkpt>
      <trkpt lat="47.31933" lon="-2.26674">
        <ele>8.4</ele>
        <time>2022-08-04T08:05:30.000Z</time>
      </trkpt>
      <trkpt lat="47.31965" lon="-2.26649">
        <ele>7.5</ele>
        <time>2022-08-04T08:05:36.000Z</time>
      </trkpt>
      <trkpt lat="47.31971" lon="-2.26645">
        <ele>7.3</ele>
        <time>2022-08-04T08:05:37.000Z</time>
      </trkpt>
      <trkpt lat="47.31996" lon="-2.26628">
        <ele>7</ele>
        <time>2022-08-04T08:05:41.000Z</time>
      </trkpt>
      <trkpt lat="47.32038" lon="-2.26602">
        <ele>6</ele>
        <time>2022-08-04T08:05:48.000Z</time>
      </trkpt>
      <trkpt lat="47.32056" lon="-2.26593">
        <ele>6</ele>
        <time>2022-08-04T08:05:52.000Z</time>
      </trkpt>
      <trkpt lat="47.32059" lon="-2.26593">
        <ele>6</ele>
        <time>2022-08-04T08:05:53.000Z</time>
      </trkpt>
      <trkpt lat="47.32076" lon="-2.26586">
        <ele>6</ele>
        <time>2022-08-04T08:05:58.000Z</time>
      </trkpt>
      <trkpt lat="47.32086" lon="-2.26582">
        <ele>6</ele>
        <time>2022-08-04T08:06:03.000Z</time>
      </trkpt>
      <trkpt lat="47.32087" lon="-2.26582">
        <ele>6</ele>
        <time>2022-08-04T08:06:05.000Z</time>
      </trkpt>
      <trkpt lat="47.32096" lon="-2.26585">
        <ele>6</ele>
        <time>2022-08-04T08:06:23.000Z</time>
      </trkpt>
      <trkpt lat="47.32099" lon="-2.26584">
        <ele>6</ele>
        <time>2022-08-04T08:06:24.000Z</time>
      </trkpt>
      <trkpt lat="47.32115" lon="-2.2659">
        <ele>6</ele>
        <time>2022-08-04T08:06:29.000Z</time>
      </trkpt>
      <trkpt lat="47.32124" lon="-2.26594">
        <ele>6</ele>
        <time>2022-08-04T08:06:34.000Z</time>
      </trkpt>
      <trkpt lat="47.32133" lon="-2.26597">
        <ele>6</ele>
        <time>2022-08-04T08:06:41.000Z</time>
      </trkpt>
      <trkpt lat="47.32146" lon="-2.26601">
        <ele>5.8</ele>
        <time>2022-08-04T08:06:47.000Z</time>
      </trkpt>
      <trkpt lat="47.32162" lon="-2.26605">
        <ele>5.3</ele>
        <time>2022-08-04T08:06:52.000Z</time>
      </trkpt>
      <trkpt lat="47.32187" lon="-2.26608">
        <ele>5.1</ele>
        <time>2022-08-04T08:06:59.000Z</time>
      </trkpt>
      <trkpt lat="47.32196" lon="-2.26608">
        <ele>-0.40000000596046</ele>
        <time>2022-08-04T08:07:01.000Z</time>
      </trkpt>
      <trkpt lat="47.32201" lon="-2.26608">
        <ele>-0.80000001192093</ele>
        <time>2022-08-04T08:07:02.000Z</time>
      </trkpt>
      <trkpt lat="47.32206" lon="-2.26608">
        <ele>-1.2000000476837</ele>
        <time>2022-08-04T08:07:03.000Z</time>
      </trkpt>
      <trkpt lat="47.3221" lon="-2.26608">
        <ele>-1.6000000238419</ele>
        <time>2022-08-04T08:07:04.000Z</time>
      </trkpt>
      <trkpt lat="47.32215" lon="-2.26607">
        <ele>-2</ele>
        <time>2022-08-04T08:07:05.000Z</time>
      </trkpt>
      <trkpt lat="47.32251" lon="-2.26609">
        <ele>-2</ele>
        <time>2022-08-04T08:07:13.000Z</time>
      </trkpt>
      <trkpt lat="47.32261" lon="-2.26608">
        <ele>-2</ele>
        <time>2022-08-04T08:07:15.000Z</time>
      </trkpt>
      <trkpt lat="47.32279" lon="-2.26603">
        <ele>-2</ele>
        <time>2022-08-04T08:07:18.000Z</time>
      </trkpt>
      <trkpt lat="47.32292" lon="-2.26592">
        <ele>-2.4000000953674</ele>
        <time>2022-08-04T08:07:20.000Z</time>
      </trkpt>
      <trkpt lat="47.32297" lon="-2.26585">
        <ele>-2.7999999523163</ele>
        <time>2022-08-04T08:07:21.000Z</time>
      </trkpt>
      <trkpt lat="47.32302" lon="-2.26579">
        <ele>-3.2000000476837</ele>
        <time>2022-08-04T08:07:22.000Z</time>
      </trkpt>
      <trkpt lat="47.32307" lon="-2.26573">
        <ele>-3.5999999046326</ele>
        <time>2022-08-04T08:07:23.000Z</time>
      </trkpt>
      <trkpt lat="47.32312" lon="-2.26567">
        <ele>-4</ele>
        <time>2022-08-04T08:07:24.000Z</time>
      </trkpt>
      <trkpt lat="47.32341" lon="-2.26542">
        <ele>-4</ele>
        <time>2022-08-04T08:07:29.000Z</time>
      </trkpt>
      <trkpt lat="47.32371" lon="-2.26528">
        <ele>-4</ele>
        <time>2022-08-04T08:07:35.000Z</time>
      </trkpt>
      <trkpt lat="47.32377" lon="-2.26529">
        <ele>-4</ele>
        <time>2022-08-04T08:07:38.000Z</time>
      </trkpt>
      <trkpt lat="47.32378" lon="-2.26529">
        <ele>-4</ele>
        <time>2022-08-04T08:07:40.000Z</time>
      </trkpt>
      <trkpt lat="47.32381" lon="-2.2653">
        <ele>-4</ele>
        <time>2022-08-04T08:08:16.000Z</time>
      </trkpt>
      <trkpt lat="47.32383" lon="-2.2653">
        <ele>-4</ele>
        <time>2022-08-04T08:08:17.000Z</time>
      </trkpt>
      <trkpt lat="47.32398" lon="-2.26526">
        <ele>-4</ele>
        <time>2022-08-04T08:08:21.000Z</time>
      </trkpt>
      <trkpt lat="47.32406" lon="-2.26522">
        <ele>-4</ele>
        <time>2022-08-04T08:08:23.000Z</time>
      </trkpt>
      <trkpt lat="47.32416" lon="-2.26518">
        <ele>-4</ele>
        <time>2022-08-04T08:08:26.000Z</time>
      </trkpt>
      <trkpt lat="47.32439" lon="-2.26508">
        <ele>-4</ele>
        <time>2022-08-04T08:08:31.000Z</time>
      </trkpt>
      <trkpt lat="47.32444" lon="-2.26506">
        <ele>-4</ele>
        <time>2022-08-04T08:08:32.000Z</time>
      </trkpt>
      <trkpt lat="47.32468" lon="-2.26495">
        <ele>-4</ele>
        <time>2022-08-04T08:08:37.000Z</time>
      </trkpt>
      <trkpt lat="47.32503" lon="-2.2648">
        <ele>-4</ele>
        <time>2022-08-04T08:08:44.000Z</time>
      </trkpt>
      <trkpt lat="47.32507" lon="-2.26478">
        <ele>-4</ele>
        <time>2022-08-04T08:08:45.000Z</time>
      </trkpt>
      <trkpt lat="47.32527" lon="-2.26469">
        <ele>-4</ele>
        <time>2022-08-04T08:08:49.000Z</time>
      </trkpt>
      <trkpt lat="47.32554" lon="-2.26455">
        <ele>-4</ele>
        <time>2022-08-04T08:08:55.000Z</time>
      </trkpt>
      <trkpt lat="47.32586" lon="-2.26445">
        <ele>-4</ele>
        <time>2022-08-04T08:09:02.000Z</time>
      </trkpt>
      <trkpt lat="47.32612" lon="-2.26437">
        <ele>-4</ele>
        <time>2022-08-04T08:09:08.000Z</time>
      </trkpt>
      <trkpt lat="47.32619" lon="-2.26436">
        <ele>-4</ele>
        <time>2022-08-04T08:09:12.000Z</time>
      </trkpt>
      <trkpt lat="47.32623" lon="-2.26436">
        <ele>-4.4000000953674</ele>
        <time>2022-08-04T08:09:15.000Z</time>
      </trkpt>
      <trkpt lat="47.32625" lon="-2.26437">
        <ele>-4.8000001907349</ele>
        <time>2022-08-04T08:09:16.000Z</time>
      </trkpt>
      <trkpt lat="47.32626" lon="-2.26438">
        <ele>-5.1999998092651</ele>
        <time>2022-08-04T08:09:17.000Z</time>
      </trkpt>
      <trkpt lat="47.32628" lon="-2.26439">
        <ele>-5.5999999046326</ele>
        <time>2022-08-04T08:09:18.000Z</time>
      </trkpt>
      <trkpt lat="47.32629" lon="-2.26441">
        <ele>-6.1999998092651</ele>
        <time>2022-08-04T08:09:19.000Z</time>
      </trkpt>
      <trkpt lat="47.32628" lon="-2.2645">
        <ele>-6.1999998092651</ele>
        <time>2022-08-04T08:09:22.000Z</time>
      </trkpt>
      <trkpt lat="47.32619" lon="-2.26466">
        <ele>-6.1999998092651</ele>
        <time>2022-08-04T08:09:27.000Z</time>
      </trkpt>
      <trkpt lat="47.3261" lon="-2.26489">
        <ele>-6.1999998092651</ele>
        <time>2022-08-04T08:09:32.000Z</time>
      </trkpt>
      <trkpt lat="47.32608" lon="-2.26494">
        <ele>-6.1999998092651</ele>
        <time>2022-08-04T08:09:33.000Z</time>
      </trkpt>
      <trkpt lat="47.32596" lon="-2.2653">
        <ele>-6.1999998092651</ele>
        <time>2022-08-04T08:09:39.000Z</time>
      </trkpt>
      <trkpt lat="47.32589" lon="-2.26551">
        <ele>-6.1999998092651</ele>
        <time>2022-08-04T08:09:43.000Z</time>
      </trkpt>
      <trkpt lat="47.32587" lon="-2.26557">
        <ele>-6.1999998092651</ele>
        <time>2022-08-04T08:09:44.000Z</time>
      </trkpt>
      <trkpt lat="47.3258" lon="-2.26575">
        <ele>-6.1999998092651</ele>
        <time>2022-08-04T08:09:47.000Z</time>
      </trkpt>
      <trkpt lat="47.32577" lon="-2.2658">
        <ele>-6.1999998092651</ele>
        <time>2022-08-04T08:09:48.000Z</time>
      </trkpt>
      <trkpt lat="47.32569" lon="-2.266">
        <ele>-6.1999998092651</ele>
        <time>2022-08-04T08:09:51.000Z</time>
      </trkpt>
      <trkpt lat="47.32567" lon="-2.26608">
        <ele>-6.1999998092651</ele>
        <time>2022-08-04T08:09:52.000Z</time>
      </trkpt>
      <trkpt lat="47.32558" lon="-2.26632">
        <ele>-6.1999998092651</ele>
        <time>2022-08-04T08:09:55.000Z</time>
      </trkpt>
      <trkpt lat="47.32556" lon="-2.26639">
        <ele>-6.1999998092651</ele>
        <time>2022-08-04T08:09:56.000Z</time>
      </trkpt>
      <trkpt lat="47.32543" lon="-2.26674">
        <ele>-6.1999998092651</ele>
        <time>2022-08-04T08:10:01.000Z</time>
      </trkpt>
      <trkpt lat="47.32541" lon="-2.26681">
        <ele>-6.1999998092651</ele>
        <time>2022-08-04T08:10:02.000Z</time>
      </trkpt>
      <trkpt lat="47.32537" lon="-2.26703">
        <ele>-6.1999998092651</ele>
        <time>2022-08-04T08:10:05.000Z</time>
      </trkpt>
      <trkpt lat="47.32533" lon="-2.26722">
        <ele>-6.1999998092651</ele>
        <time>2022-08-04T08:10:08.000Z</time>
      </trkpt>
      <trkpt lat="47.32525" lon="-2.26762">
        <ele>-6.1999998092651</ele>
        <time>2022-08-04T08:10:13.000Z</time>
      </trkpt>
      <trkpt lat="47.32522" lon="-2.26783">
        <ele>-6.1999998092651</ele>
        <time>2022-08-04T08:10:16.000Z</time>
      </trkpt>
      <trkpt lat="47.3252" lon="-2.26799">
        <ele>-6.1999998092651</ele>
        <time>2022-08-04T08:10:18.000Z</time>
      </trkpt>
      <trkpt lat="47.32518" lon="-2.2683">
        <ele>-6.1999998092651</ele>
        <time>2022-08-04T08:10:22.000Z</time>
      </trkpt>
      <trkpt lat="47.32519" lon="-2.26837">
        <ele>-6.1999998092651</ele>
        <time>2022-08-04T08:10:23.000Z</time>
      </trkpt>
      <trkpt lat="47.32523" lon="-2.26861">
        <ele>-6.1999998092651</ele>
        <time>2022-08-04T08:10:26.000Z</time>
      </trkpt>
      <trkpt lat="47.32527" lon="-2.26875">
        <ele>-6.1999998092651</ele>
        <time>2022-08-04T08:10:28.000Z</time>
      </trkpt>
      <trkpt lat="47.32532" lon="-2.26889">
        <ele>-6.1999998092651</ele>
        <time>2022-08-04T08:10:30.000Z</time>
      </trkpt>
      <trkpt lat="47.32535" lon="-2.26896">
        <ele>-6.1999998092651</ele>
        <time>2022-08-04T08:10:31.000Z</time>
      </trkpt>
      <trkpt lat="47.32549" lon="-2.26924">
        <ele>-6.1999998092651</ele>
        <time>2022-08-04T08:10:35.000Z</time>
      </trkpt>
      <trkpt lat="47.32567" lon="-2.26958">
        <ele>-6.1999998092651</ele>
        <time>2022-08-04T08:10:41.000Z</time>
      </trkpt>
      <trkpt lat="47.32585" lon="-2.26991">
        <ele>-6.1999998092651</ele>
        <time>2022-08-04T08:10:47.000Z</time>
      </trkpt>
      <trkpt lat="47.32606" lon="-2.27022">
        <ele>-6.1999998092651</ele>
        <time>2022-08-04T08:10:53.000Z</time>
      </trkpt>
      <trkpt lat="47.32619" lon="-2.27045">
        <ele>-6.1999998092651</ele>
        <time>2022-08-04T08:10:57.000Z</time>
      </trkpt>
      <trkpt lat="47.32622" lon="-2.2706">
        <ele>-6.1999998092651</ele>
        <time>2022-08-04T08:10:59.000Z</time>
      </trkpt>
      <trkpt lat="47.32616" lon="-2.27079">
        <ele>-6.1999998092651</ele>
        <time>2022-08-04T08:11:02.000Z</time>
      </trkpt>
      <trkpt lat="47.32613" lon="-2.27085">
        <ele>-6.1999998092651</ele>
        <time>2022-08-04T08:11:03.000Z</time>
      </trkpt>
      <trkpt lat="47.32611" lon="-2.27091">
        <ele>-6.1999998092651</ele>
        <time>2022-08-04T08:11:04.000Z</time>
      </trkpt>
      <trkpt lat="47.32607" lon="-2.27103">
        <ele>-6.1999998092651</ele>
        <time>2022-08-04T08:11:06.000Z</time>
      </trkpt>
      <trkpt lat="47.32606" lon="-2.2711">
        <ele>-6.1999998092651</ele>
        <time>2022-08-04T08:11:07.000Z</time>
      </trkpt>
      <trkpt lat="47.326" lon="-2.27137">
        <ele>-6.1999998092651</ele>
        <time>2022-08-04T08:11:11.000Z</time>
      </trkpt>
      <trkpt lat="47.32599" lon="-2.27143">
        <ele>-6.1999998092651</ele>
        <time>2022-08-04T08:11:12.000Z</time>
      </trkpt>
      <trkpt lat="47.32597" lon="-2.27156">
        <ele>-6.1999998092651</ele>
        <time>2022-08-04T08:11:14.000Z</time>
      </trkpt>
      <trkpt lat="47.32601" lon="-2.27177">
        <ele>-6.1999998092651</ele>
        <time>2022-08-04T08:11:17.000Z</time>
      </trkpt>
      <trkpt lat="47.32604" lon="-2.272">
        <ele>-6.1999998092651</ele>
        <time>2022-08-04T08:11:21.000Z</time>
      </trkpt>
      <trkpt lat="47.32601" lon="-2.27221">
        <ele>-6.1999998092651</ele>
        <time>2022-08-04T08:11:24.000Z</time>
      </trkpt>
      <trkpt lat="47.32601" lon="-2.27227">
        <ele>-6.1999998092651</ele>
        <time>2022-08-04T08:11:25.000Z</time>
      </trkpt>
      <trkpt lat="47.32598" lon="-2.27256">
        <ele>-6.1999998092651</ele>
        <time>2022-08-04T08:11:30.000Z</time>
      </trkpt>
      <trkpt lat="47.32598" lon="-2.27265">
        <ele>-6.1999998092651</ele>
        <time>2022-08-04T08:11:31.000Z</time>
      </trkpt>
      <trkpt lat="47.32595" lon="-2.27289">
        <ele>-6.1999998092651</ele>
        <time>2022-08-04T08:11:34.000Z</time>
      </trkpt>
      <trkpt lat="47.32594" lon="-2.27306">
        <ele>-6.1999998092651</ele>
        <time>2022-08-04T08:11:36.000Z</time>
      </trkpt>
      <trkpt lat="47.32594" lon="-2.27324">
        <ele>-6.1999998092651</ele>
        <time>2022-08-04T08:11:38.000Z</time>
      </trkpt>
      <trkpt lat="47.32588" lon="-2.27356">
        <ele>-6.1999998092651</ele>
        <time>2022-08-04T08:11:42.000Z</time>
      </trkpt>
      <trkpt lat="47.32587" lon="-2.27365">
        <ele>-6.1999998092651</ele>
        <time>2022-08-04T08:11:43.000Z</time>
      </trkpt>
      <trkpt lat="47.32586" lon="-2.2739">
        <ele>-6.1999998092651</ele>
        <time>2022-08-04T08:11:46.000Z</time>
      </trkpt>
      <trkpt lat="47.32585" lon="-2.27406">
        <ele>-6.1999998092651</ele>
        <time>2022-08-04T08:11:48.000Z</time>
      </trkpt>
      <trkpt lat="47.32582" lon="-2.27444">
        <ele>-6.1999998092651</ele>
        <time>2022-08-04T08:11:53.000Z</time>
      </trkpt>
      <trkpt lat="47.32582" lon="-2.27452">
        <ele>-6.1999998092651</ele>
        <time>2022-08-04T08:11:54.000Z</time>
      </trkpt>
      <trkpt lat="47.32578" lon="-2.2748">
        <ele>-6.1999998092651</ele>
        <time>2022-08-04T08:11:58.000Z</time>
      </trkpt>
      <trkpt lat="47.32572" lon="-2.275">
        <ele>-6.1999998092651</ele>
        <time>2022-08-04T08:12:01.000Z</time>
      </trkpt>
      <trkpt lat="47.32569" lon="-2.27505">
        <ele>-6.1999998092651</ele>
        <time>2022-08-04T08:12:02.000Z</time>
      </trkpt>
      <trkpt lat="47.32554" lon="-2.2752">
        <ele>-6.1999998092651</ele>
        <time>2022-08-04T08:12:06.000Z</time>
      </trkpt>
      <trkpt lat="47.3255" lon="-2.27524">
        <ele>-6.1999998092651</ele>
        <time>2022-08-04T08:12:07.000Z</time>
      </trkpt>
      <trkpt lat="47.32532" lon="-2.27541">
        <ele>-6.1999998092651</ele>
        <time>2022-08-04T08:12:11.000Z</time>
      </trkpt>
      <trkpt lat="47.32499" lon="-2.27572">
        <ele>-6.1999998092651</ele>
        <time>2022-08-04T08:12:18.000Z</time>
      </trkpt>
      <trkpt lat="47.32494" lon="-2.27574">
        <ele>-6.1999998092651</ele>
        <time>2022-08-04T08:12:19.000Z</time>
      </trkpt>
      <trkpt lat="47.32478" lon="-2.27576">
        <ele>-6.1999998092651</ele>
        <time>2022-08-04T08:12:22.000Z</time>
      </trkpt>
      <trkpt lat="47.32467" lon="-2.27573">
        <ele>-6.1999998092651</ele>
        <time>2022-08-04T08:12:24.000Z</time>
      </trkpt>
      <trkpt lat="47.32462" lon="-2.2757">
        <ele>-6.1999998092651</ele>
        <time>2022-08-04T08:12:25.000Z</time>
      </trkpt>
      <trkpt lat="47.32458" lon="-2.27568">
        <ele>-6.1999998092651</ele>
        <time>2022-08-04T08:12:26.000Z</time>
      </trkpt>
      <trkpt lat="47.3243" lon="-2.27548">
        <ele>-6.1999998092651</ele>
        <time>2022-08-04T08:12:32.000Z</time>
      </trkpt>
      <trkpt lat="47.32426" lon="-2.27547">
        <ele>-6.1999998092651</ele>
        <time>2022-08-04T08:12:33.000Z</time>
      </trkpt>
      <trkpt lat="47.32417" lon="-2.27549">
        <ele>-6.1999998092651</ele>
        <time>2022-08-04T08:12:35.000Z</time>
      </trkpt>
      <trkpt lat="47.32409" lon="-2.27562">
        <ele>-6.1999998092651</ele>
        <time>2022-08-04T08:12:38.000Z</time>
      </trkpt>
      <trkpt lat="47.32409" lon="-2.2758">
        <ele>-6.1999998092651</ele>
        <time>2022-08-04T08:12:41.000Z</time>
      </trkpt>
      <trkpt lat="47.32412" lon="-2.27591">
        <ele>-6.1999998092651</ele>
        <time>2022-08-04T08:12:43.000Z</time>
      </trkpt>
      <trkpt lat="47.32414" lon="-2.27597">
        <ele>-6.1999998092651</ele>
        <time>2022-08-04T08:12:44.000Z</time>
      </trkpt>
      <trkpt lat="47.32418" lon="-2.27609">
        <ele>-6.1999998092651</ele>
        <time>2022-08-04T08:12:46.000Z</time>
      </trkpt>
      <trkpt lat="47.3242" lon="-2.27614">
        <ele>-6.1999998092651</ele>
        <time>2022-08-04T08:12:47.000Z</time>
      </trkpt>
      <trkpt lat="47.32424" lon="-2.27627">
        <ele>-6.1999998092651</ele>
        <time>2022-08-04T08:12:49.000Z</time>
      </trkpt>
      <trkpt lat="47.32431" lon="-2.27654">
        <ele>-6.1999998092651</ele>
        <time>2022-08-04T08:12:53.000Z</time>
      </trkpt>
      <trkpt lat="47.32433" lon="-2.27676">
        <ele>-6.1999998092651</ele>
        <time>2022-08-04T08:12:56.000Z</time>
      </trkpt>
      <trkpt lat="47.32434" lon="-2.27724">
        <ele>-6.1999998092651</ele>
        <time>2022-08-04T08:13:03.000Z</time>
      </trkpt>
      <trkpt lat="47.32435" lon="-2.27731">
        <ele>-6.1999998092651</ele>
        <time>2022-08-04T08:13:04.000Z</time>
      </trkpt>
      <trkpt lat="47.32436" lon="-2.27745">
        <ele>-6.1999998092651</ele>
        <time>2022-08-04T08:13:06.000Z</time>
      </trkpt>
      <trkpt lat="47.32435" lon="-2.27758">
        <ele>-6.1999998092651</ele>
        <time>2022-08-04T08:13:08.000Z</time>
      </trkpt>
      <trkpt lat="47.32436" lon="-2.27771">
        <ele>-6.1999998092651</ele>
        <time>2022-08-04T08:13:11.000Z</time>
      </trkpt>
      <trkpt lat="47.32439" lon="-2.2777">
        <ele>-6.1999998092651</ele>
        <time>2022-08-04T08:13:12.000Z</time>
      </trkpt>
      <trkpt lat="47.32459" lon="-2.27766">
        <ele>-6.1999998092651</ele>
        <time>2022-08-04T08:13:18.000Z</time>
      </trkpt>
      <trkpt lat="47.3247" lon="-2.27758">
        <ele>-6.1999998092651</ele>
        <time>2022-08-04T08:13:21.000Z</time>
      </trkpt>
      <trkpt lat="47.32483" lon="-2.27761">
        <ele>-6.1999998092651</ele>
        <time>2022-08-04T08:13:24.000Z</time>
      </trkpt>
      <trkpt lat="47.32486" lon="-2.27765">
        <ele>-6.1999998092651</ele>
        <time>2022-08-04T08:13:25.000Z</time>
      </trkpt>
      <trkpt lat="47.32496" lon="-2.27779">
        <ele>-6.1999998092651</ele>
        <time>2022-08-04T08:13:28.000Z</time>
      </trkpt>
      <trkpt lat="47.32514" lon="-2.27803">
        <ele>-6.1999998092651</ele>
        <time>2022-08-04T08:13:33.000Z</time>
      </trkpt>
      <trkpt lat="47.32521" lon="-2.27815">
        <ele>-6.1999998092651</ele>
        <time>2022-08-04T08:13:35.000Z</time>
      </trkpt>
      <trkpt lat="47.32539" lon="-2.27856">
        <ele>-6.1999998092651</ele>
        <time>2022-08-04T08:13:41.000Z</time>
      </trkpt>
      <trkpt lat="47.32541" lon="-2.27864">
        <ele>-6.1999998092651</ele>
        <time>2022-08-04T08:13:42.000Z</time>
      </trkpt>
      <trkpt lat="47.32548" lon="-2.27895">
        <ele>-6.1999998092651</ele>
        <time>2022-08-04T08:13:46.000Z</time>
      </trkpt>
      <trkpt lat="47.32549" lon="-2.27902">
        <ele>-6.1999998092651</ele>
        <time>2022-08-04T08:13:47.000Z</time>
      </trkpt>
      <trkpt lat="47.32554" lon="-2.2794">
        <ele>-6.1999998092651</ele>
        <time>2022-08-04T08:13:52.000Z</time>
      </trkpt>
      <trkpt lat="47.32558" lon="-2.27953">
        <ele>-6.1999998092651</ele>
        <time>2022-08-04T08:13:54.000Z</time>
      </trkpt>
      <trkpt lat="47.32565" lon="-2.27972">
        <ele>-6.1999998092651</ele>
        <time>2022-08-04T08:13:57.000Z</time>
      </trkpt>
      <trkpt lat="47.32565" lon="-2.27979">
        <ele>-6.1999998092651</ele>
        <time>2022-08-04T08:13:58.000Z</time>
      </trkpt>
      <trkpt lat="47.32569" lon="-2.28008">
        <ele>-6.1999998092651</ele>
        <time>2022-08-04T08:14:02.000Z</time>
      </trkpt>
      <trkpt lat="47.3257" lon="-2.28016">
        <ele>-6.1999998092651</ele>
        <time>2022-08-04T08:14:03.000Z</time>
      </trkpt>
      <trkpt lat="47.32579" lon="-2.28052">
        <ele>-6.1999998092651</ele>
        <time>2022-08-04T08:14:08.000Z</time>
      </trkpt>
      <trkpt lat="47.32581" lon="-2.28066">
        <ele>-6.1999998092651</ele>
        <time>2022-08-04T08:14:10.000Z</time>
      </trkpt>
      <trkpt lat="47.32587" lon="-2.28094">
        <ele>-6.1999998092651</ele>
        <time>2022-08-04T08:14:14.000Z</time>
      </trkpt>
      <trkpt lat="47.32597" lon="-2.28134">
        <ele>-6.1999998092651</ele>
        <time>2022-08-04T08:14:20.000Z</time>
      </trkpt>
      <trkpt lat="47.32604" lon="-2.2816">
        <ele>-6.1999998092651</ele>
        <time>2022-08-04T08:14:24.000Z</time>
      </trkpt>
      <trkpt lat="47.32605" lon="-2.28166">
        <ele>-6.1999998092651</ele>
        <time>2022-08-04T08:14:25.000Z</time>
      </trkpt>
      <trkpt lat="47.3261" lon="-2.28185">
        <ele>-6.1999998092651</ele>
        <time>2022-08-04T08:14:28.000Z</time>
      </trkpt>
      <trkpt lat="47.32612" lon="-2.28198">
        <ele>-6.1999998092651</ele>
        <time>2022-08-04T08:14:30.000Z</time>
      </trkpt>
      <trkpt lat="47.32614" lon="-2.28211">
        <ele>-6.1999998092651</ele>
        <time>2022-08-04T08:14:32.000Z</time>
      </trkpt>
      <trkpt lat="47.32617" lon="-2.28231">
        <ele>-6.1999998092651</ele>
        <time>2022-08-04T08:14:35.000Z</time>
      </trkpt>
      <trkpt lat="47.3262" lon="-2.28245">
        <ele>-6.1999998092651</ele>
        <time>2022-08-04T08:14:37.000Z</time>
      </trkpt>
      <trkpt lat="47.32623" lon="-2.28258">
        <ele>-6.1999998092651</ele>
        <time>2022-08-04T08:14:39.000Z</time>
      </trkpt>
      <trkpt lat="47.32627" lon="-2.28268">
        <ele>-6.1999998092651</ele>
        <time>2022-08-04T08:14:41.000Z</time>
      </trkpt>
      <trkpt lat="47.32636" lon="-2.28268">
        <ele>-6.1999998092651</ele>
        <time>2022-08-04T08:14:44.000Z</time>
      </trkpt>
      <trkpt lat="47.32643" lon="-2.28255">
        <ele>-6.1999998092651</ele>
        <time>2022-08-04T08:14:48.000Z</time>
      </trkpt>
      <trkpt lat="47.32647" lon="-2.28244">
        <ele>-6.1999998092651</ele>
        <time>2022-08-04T08:14:53.000Z</time>
      </trkpt>
      <trkpt lat="47.32652" lon="-2.28239">
        <ele>-6.1999998092651</ele>
        <time>2022-08-04T08:16:50.000Z</time>
      </trkpt>
      <trkpt lat="47.32653" lon="-2.2824">
        <ele>-6.1999998092651</ele>
        <time>2022-08-04T08:16:52.000Z</time>
      </trkpt>
      <trkpt lat="47.32664" lon="-2.28252">
        <ele>-3.7999999523163</ele>
        <time>2022-08-04T08:20:02.000Z</time>
      </trkpt>
      <trkpt lat="47.32666" lon="-2.28254">
        <ele>-3.7999999523163</ele>
        <time>2022-08-04T08:20:04.000Z</time>
      </trkpt>
      <trkpt lat="47.32669" lon="-2.28258">
        <ele>-3.7999999523163</ele>
        <time>2022-08-04T08:20:06.000Z</time>
      </trkpt>
      <trkpt lat="47.32681" lon="-2.28277">
        <ele>-3.7999999523163</ele>
        <time>2022-08-04T08:20:12.000Z</time>
      </trkpt>
      <trkpt lat="47.32697" lon="-2.28295">
        <ele>-3.7999999523163</ele>
        <time>2022-08-04T08:20:19.000Z</time>
      </trkpt>
      <trkpt lat="47.32704" lon="-2.28301">
        <ele>-3.7999999523163</ele>
        <time>2022-08-04T08:20:22.000Z</time>
      </trkpt>
      <trkpt lat="47.32708" lon="-2.28298">
        <ele>-3.7999999523163</ele>
        <time>2022-08-04T08:20:24.000Z</time>
      </trkpt>
      <trkpt lat="47.32716" lon="-2.28288">
        <ele>-3.7999999523163</ele>
        <time>2022-08-04T08:20:27.000Z</time>
      </trkpt>
      <trkpt lat="47.32722" lon="-2.2828">
        <ele>-3.7999999523163</ele>
        <time>2022-08-04T08:20:29.000Z</time>
      </trkpt>
      <trkpt lat="47.32739" lon="-2.28257">
        <ele>-3.7999999523163</ele>
        <time>2022-08-04T08:20:35.000Z</time>
      </trkpt>
      <trkpt lat="47.32755" lon="-2.28235">
        <ele>-3.7999999523163</ele>
        <time>2022-08-04T08:20:41.000Z</time>
      </trkpt>
      <trkpt lat="47.32758" lon="-2.28227">
        <ele>-3.7999999523163</ele>
        <time>2022-08-04T08:20:45.000Z</time>
      </trkpt>
      <trkpt lat="47.3276" lon="-2.28224">
        <ele>-3.7999999523163</ele>
        <time>2022-08-04T08:20:48.000Z</time>
      </trkpt>
      <trkpt lat="47.32761" lon="-2.28223">
        <ele>-3.7999999523163</ele>
        <time>2022-08-04T08:21:54.000Z</time>
      </trkpt>
      <trkpt lat="47.32761" lon="-2.28221">
        <ele>-3.7999999523163</ele>
        <time>2022-08-04T08:21:55.000Z</time>
      </trkpt>
      <trkpt lat="47.32758" lon="-2.28202">
        <ele>-3.7999999523163</ele>
        <time>2022-08-04T08:22:02.000Z</time>
      </trkpt>
      <trkpt lat="47.32756" lon="-2.28192">
        <ele>-3.7999999523163</ele>
        <time>2022-08-04T08:22:06.000Z</time>
      </trkpt>
      <trkpt lat="47.32757" lon="-2.2819">
        <ele>-3.7999999523163</ele>
        <time>2022-08-04T08:22:07.000Z</time>
      </trkpt>
      <trkpt lat="47.32768" lon="-2.28173">
        <ele>-3.7999999523163</ele>
        <time>2022-08-04T08:22:12.000Z</time>
      </trkpt>
      <trkpt lat="47.32784" lon="-2.28161">
        <ele>-3.7999999523163</ele>
        <time>2022-08-04T08:22:17.000Z</time>
      </trkpt>
      <trkpt lat="47.32793" lon="-2.28156">
        <ele>-3.7999999523163</ele>
        <time>2022-08-04T08:22:20.000Z</time>
      </trkpt>
      <trkpt lat="47.32807" lon="-2.28149">
        <ele>-3.7999999523163</ele>
        <time>2022-08-04T08:22:24.000Z</time>
      </trkpt>
      <trkpt lat="47.32832" lon="-2.28137">
        <ele>-3.7999999523163</ele>
        <time>2022-08-04T08:22:31.000Z</time>
      </trkpt>
      <trkpt lat="47.3285" lon="-2.28127">
        <ele>-3.7999999523163</ele>
        <time>2022-08-04T08:22:36.000Z</time>
      </trkpt>
      <trkpt lat="47.32854" lon="-2.28125">
        <ele>-3.7999999523163</ele>
        <time>2022-08-04T08:22:37.000Z</time>
      </trkpt>
      <trkpt lat="47.32885" lon="-2.28112">
        <ele>-3.7999999523163</ele>
        <time>2022-08-04T08:22:44.000Z</time>
      </trkpt>
      <trkpt lat="47.32911" lon="-2.28099">
        <ele>-3.7999999523163</ele>
        <time>2022-08-04T08:22:50.000Z</time>
      </trkpt>
      <trkpt lat="47.32937" lon="-2.28087">
        <ele>-3.7999999523163</ele>
        <time>2022-08-04T08:22:56.000Z</time>
      </trkpt>
      <trkpt lat="47.32958" lon="-2.28078">
        <ele>-3.7999999523163</ele>
        <time>2022-08-04T08:23:01.000Z</time>
      </trkpt>
      <trkpt lat="47.32967" lon="-2.28073">
        <ele>-3.7999999523163</ele>
        <time>2022-08-04T08:23:03.000Z</time>
      </trkpt>
      <trkpt lat="47.3298" lon="-2.28075">
        <ele>-3.7999999523163</ele>
        <time>2022-08-04T08:23:06.000Z</time>
      </trkpt>
      <trkpt lat="47.32988" lon="-2.28077">
        <ele>-3.7999999523163</ele>
        <time>2022-08-04T08:23:08.000Z</time>
      </trkpt>
      <trkpt lat="47.32997" lon="-2.28075">
        <ele>-3.7999999523163</ele>
        <time>2022-08-04T08:23:10.000Z</time>
      </trkpt>
      <trkpt lat="47.33" lon="-2.28073">
        <ele>-3.7999999523163</ele>
        <time>2022-08-04T08:23:11.000Z</time>
      </trkpt>
      <trkpt lat="47.33013" lon="-2.28056">
        <ele>-3.7999999523163</ele>
        <time>2022-08-04T08:23:15.000Z</time>
      </trkpt>
      <trkpt lat="47.33016" lon="-2.28051">
        <ele>-3.7999999523163</ele>
        <time>2022-08-04T08:23:16.000Z</time>
      </trkpt>
      <trkpt lat="47.33021" lon="-2.2804">
        <ele>-3.7999999523163</ele>
        <time>2022-08-04T08:23:18.000Z</time>
      </trkpt>
      <trkpt lat="47.33025" lon="-2.2803">
        <ele>-3.7999999523163</ele>
        <time>2022-08-04T08:23:20.000Z</time>
      </trkpt>
      <trkpt lat="47.33036" lon="-2.28013">
        <ele>-3.7999999523163</ele>
        <time>2022-08-04T08:23:24.000Z</time>
      </trkpt>
      <trkpt lat="47.33039" lon="-2.28009">
        <ele>-3.7999999523163</ele>
        <time>2022-08-04T08:23:25.000Z</time>
      </trkpt>
      <trkpt lat="47.3305" lon="-2.27995">
        <ele>-3.7999999523163</ele>
        <time>2022-08-04T08:23:28.000Z</time>
      </trkpt>
      <trkpt lat="47.33052" lon="-2.27989">
        <ele>-3.7999999523163</ele>
        <time>2022-08-04T08:23:29.000Z</time>
      </trkpt>
      <trkpt lat="47.3306" lon="-2.27975">
        <ele>-3.7999999523163</ele>
        <time>2022-08-04T08:23:32.000Z</time>
      </trkpt>
      <trkpt lat="47.33063" lon="-2.2797">
        <ele>-3.7999999523163</ele>
        <time>2022-08-04T08:23:33.000Z</time>
      </trkpt>
      <trkpt lat="47.33067" lon="-2.27966">
        <ele>-3.7999999523163</ele>
        <time>2022-08-04T08:23:34.000Z</time>
      </trkpt>
      <trkpt lat="47.33071" lon="-2.27961">
        <ele>-3.7999999523163</ele>
        <time>2022-08-04T08:23:35.000Z</time>
      </trkpt>
      <trkpt lat="47.33081" lon="-2.27946">
        <ele>-3.7999999523163</ele>
        <time>2022-08-04T08:23:38.000Z</time>
      </trkpt>
      <trkpt lat="47.33084" lon="-2.27941">
        <ele>-3.7999999523163</ele>
        <time>2022-08-04T08:23:39.000Z</time>
      </trkpt>
      <trkpt lat="47.33087" lon="-2.27936">
        <ele>-3.7999999523163</ele>
        <time>2022-08-04T08:23:40.000Z</time>
      </trkpt>
      <trkpt lat="47.33098" lon="-2.27921">
        <ele>-3.7999999523163</ele>
        <time>2022-08-04T08:23:43.000Z</time>
      </trkpt>
      <trkpt lat="47.33102" lon="-2.27917">
        <ele>-3.7999999523163</ele>
        <time>2022-08-04T08:23:44.000Z</time>
      </trkpt>
      <trkpt lat="47.33107" lon="-2.27893">
        <ele>-3.7999999523163</ele>
        <time>2022-08-04T08:23:48.000Z</time>
      </trkpt>
      <trkpt lat="47.33097" lon="-2.27879">
        <ele>-3.7999999523163</ele>
        <time>2022-08-04T08:23:51.000Z</time>
      </trkpt>
      <trkpt lat="47.33078" lon="-2.27866">
        <ele>-3.7999999523163</ele>
        <time>2022-08-04T08:23:55.000Z</time>
      </trkpt>
      <trkpt lat="47.33074" lon="-2.27863">
        <ele>-3.7999999523163</ele>
        <time>2022-08-04T08:23:56.000Z</time>
      </trkpt>
      <trkpt lat="47.33043" lon="-2.27846">
        <ele>-3.7999999523163</ele>
        <time>2022-08-04T08:24:02.000Z</time>
      </trkpt>
      <trkpt lat="47.33033" lon="-2.27839">
        <ele>-3.7999999523163</ele>
        <time>2022-08-04T08:24:04.000Z</time>
      </trkpt>
      <trkpt lat="47.33015" lon="-2.2782">
        <ele>-3.7999999523163</ele>
        <time>2022-08-04T08:24:08.000Z</time>
      </trkpt>
      <trkpt lat="47.33" lon="-2.27799">
        <ele>-3.7999999523163</ele>
        <time>2022-08-04T08:24:12.000Z</time>
      </trkpt>
      <trkpt lat="47.32993" lon="-2.27788">
        <ele>-3.7999999523163</ele>
        <time>2022-08-04T08:24:14.000Z</time>
      </trkpt>
      <trkpt lat="47.3299" lon="-2.27781">
        <ele>-3.7999999523163</ele>
        <time>2022-08-04T08:24:15.000Z</time>
      </trkpt>
      <trkpt lat="47.32978" lon="-2.27757">
        <ele>-3.7999999523163</ele>
        <time>2022-08-04T08:24:19.000Z</time>
      </trkpt>
      <trkpt lat="47.32975" lon="-2.27751">
        <ele>-3.7999999523163</ele>
        <time>2022-08-04T08:24:20.000Z</time>
      </trkpt>
      <trkpt lat="47.32969" lon="-2.27736">
        <ele>-3.7999999523163</ele>
        <time>2022-08-04T08:24:22.000Z</time>
      </trkpt>
      <trkpt lat="47.32966" lon="-2.27719">
        <ele>-3.7999999523163</ele>
        <time>2022-08-04T08:24:24.000Z</time>
      </trkpt>
      <trkpt lat="47.3296" lon="-2.27693">
        <ele>-3.7999999523163</ele>
        <time>2022-08-04T08:24:27.000Z</time>
      </trkpt>
      <trkpt lat="47.32959" lon="-2.27676">
        <ele>-3.7999999523163</ele>
        <time>2022-08-04T08:24:29.000Z</time>
      </trkpt>
      <trkpt lat="47.32958" lon="-2.27633">
        <ele>-3.7999999523163</ele>
        <time>2022-08-04T08:24:34.000Z</time>
      </trkpt>
      <trkpt lat="47.32964" lon="-2.27602">
        <ele>-3.7999999523163</ele>
        <time>2022-08-04T08:24:38.000Z</time>
      </trkpt>
      <trkpt lat="47.32973" lon="-2.27561">
        <ele>-3.7999999523163</ele>
        <time>2022-08-04T08:24:43.000Z</time>
      </trkpt>
      <trkpt lat="47.32975" lon="-2.27554">
        <ele>-3.7999999523163</ele>
        <time>2022-08-04T08:24:44.000Z</time>
      </trkpt>
      <trkpt lat="47.32991" lon="-2.27509">
        <ele>-3.7999999523163</ele>
        <time>2022-08-04T08:24:50.000Z</time>
      </trkpt>
      <trkpt lat="47.33004" lon="-2.27473">
        <ele>-3.7999999523163</ele>
        <time>2022-08-04T08:24:55.000Z</time>
      </trkpt>
      <trkpt lat="47.33018" lon="-2.27427">
        <ele>-3.7999999523163</ele>
        <time>2022-08-04T08:25:01.000Z</time>
      </trkpt>
      <trkpt lat="47.33036" lon="-2.27379">
        <ele>-3.7999999523163</ele>
        <time>2022-08-04T08:25:07.000Z</time>
      </trkpt>
      <trkpt lat="47.33052" lon="-2.27341">
        <ele>-3.7999999523163</ele>
        <time>2022-08-04T08:25:12.000Z</time>
      </trkpt>
      <trkpt lat="47.3306" lon="-2.27327">
        <ele>-3.7999999523163</ele>
        <time>2022-08-04T08:25:14.000Z</time>
      </trkpt>
      <trkpt lat="47.33063" lon="-2.27319">
        <ele>-3.7999999523163</ele>
        <time>2022-08-04T08:25:15.000Z</time>
      </trkpt>
      <trkpt lat="47.33077" lon="-2.27289">
        <ele>-3.7999999523163</ele>
        <time>2022-08-04T08:25:19.000Z</time>
      </trkpt>
      <trkpt lat="47.33095" lon="-2.27254">
        <ele>-3.7999999523163</ele>
        <time>2022-08-04T08:25:24.000Z</time>
      </trkpt>
      <trkpt lat="47.33098" lon="-2.27246">
        <ele>-3.7999999523163</ele>
        <time>2022-08-04T08:25:25.000Z</time>
      </trkpt>
      <trkpt lat="47.33104" lon="-2.27231">
        <ele>-3.7999999523163</ele>
        <time>2022-08-04T08:25:27.000Z</time>
      </trkpt>
      <trkpt lat="47.33108" lon="-2.27225">
        <ele>-3.7999999523163</ele>
        <time>2022-08-04T08:25:28.000Z</time>
      </trkpt>
      <trkpt lat="47.33125" lon="-2.27191">
        <ele>-3.7999999523163</ele>
        <time>2022-08-04T08:25:33.000Z</time>
      </trkpt>
      <trkpt lat="47.33138" lon="-2.27164">
        <ele>-3.7999999523163</ele>
        <time>2022-08-04T08:25:37.000Z</time>
      </trkpt>
      <trkpt lat="47.33143" lon="-2.2715">
        <ele>-3.7999999523163</ele>
        <time>2022-08-04T08:25:39.000Z</time>
      </trkpt>
      <trkpt lat="47.33145" lon="-2.27144">
        <ele>-3.7999999523163</ele>
        <time>2022-08-04T08:25:40.000Z</time>
      </trkpt>
      <trkpt lat="47.3315" lon="-2.27118">
        <ele>-3.7999999523163</ele>
        <time>2022-08-04T08:25:44.000Z</time>
      </trkpt>
      <trkpt lat="47.33152" lon="-2.27111">
        <ele>-3.7999999523163</ele>
        <time>2022-08-04T08:25:45.000Z</time>
      </trkpt>
      <trkpt lat="47.33166" lon="-2.27076">
        <ele>-3.7999999523163</ele>
        <time>2022-08-04T08:25:50.000Z</time>
      </trkpt>
      <trkpt lat="47.33176" lon="-2.27049">
        <ele>-3.7999999523163</ele>
        <time>2022-08-04T08:25:54.000Z</time>
      </trkpt>
      <trkpt lat="47.33181" lon="-2.27043">
        <ele>-3.7999999523163</ele>
        <time>2022-08-04T08:25:55.000Z</time>
      </trkpt>
      <trkpt lat="47.33205" lon="-2.2701">
        <ele>-3.7999999523163</ele>
        <time>2022-08-04T08:26:01.000Z</time>
      </trkpt>
      <trkpt lat="47.33214" lon="-2.27002">
        <ele>-3.7999999523163</ele>
        <time>2022-08-04T08:26:03.000Z</time>
      </trkpt>
      <trkpt lat="47.33223" lon="-2.26993">
        <ele>-3.7999999523163</ele>
        <time>2022-08-04T08:26:05.000Z</time>
      </trkpt>
      <trkpt lat="47.33244" lon="-2.2699">
        <ele>-3.7999999523163</ele>
        <time>2022-08-04T08:26:09.000Z</time>
      </trkpt>
      <trkpt lat="47.33249" lon="-2.26991">
        <ele>-3.7999999523163</ele>
        <time>2022-08-04T08:26:10.000Z</time>
      </trkpt>
      <trkpt lat="47.33255" lon="-2.26991">
        <ele>-3.7999999523163</ele>
        <time>2022-08-04T08:26:11.000Z</time>
      </trkpt>
      <trkpt lat="47.3327" lon="-2.26993">
        <ele>-3.7999999523163</ele>
        <time>2022-08-04T08:26:14.000Z</time>
      </trkpt>
      <trkpt lat="47.33293" lon="-2.27">
        <ele>-3.7999999523163</ele>
        <time>2022-08-04T08:26:19.000Z</time>
      </trkpt>
      <trkpt lat="47.33297" lon="-2.27002">
        <ele>-3.7999999523163</ele>
        <time>2022-08-04T08:26:20.000Z</time>
      </trkpt>
      <trkpt lat="47.33307" lon="-2.27008">
        <ele>-3.7999999523163</ele>
        <time>2022-08-04T08:26:22.000Z</time>
      </trkpt>
      <trkpt lat="47.33317" lon="-2.27011">
        <ele>-3.7999999523163</ele>
        <time>2022-08-04T08:26:24.000Z</time>
      </trkpt>
      <trkpt lat="47.33328" lon="-2.27012">
        <ele>-3.7999999523163</ele>
        <time>2022-08-04T08:26:26.000Z</time>
      </trkpt>
      <trkpt lat="47.33344" lon="-2.27006">
        <ele>-3.7999999523163</ele>
        <time>2022-08-04T08:26:29.000Z</time>
      </trkpt>
      <trkpt lat="47.3335" lon="-2.27004">
        <ele>-3.7999999523163</ele>
        <time>2022-08-04T08:26:30.000Z</time>
      </trkpt>
      <trkpt lat="47.33361" lon="-2.27001">
        <ele>-3.7999999523163</ele>
        <time>2022-08-04T08:26:33.000Z</time>
      </trkpt>
      <trkpt lat="47.33367" lon="-2.27007">
        <ele>-3.7999999523163</ele>
        <time>2022-08-04T08:26:36.000Z</time>
      </trkpt>
      <trkpt lat="47.33372" lon="-2.27013">
        <ele>-3.7999999523163</ele>
        <time>2022-08-04T08:26:40.000Z</time>
      </trkpt>
      <trkpt lat="47.33373" lon="-2.27014">
        <ele>-3.7999999523163</ele>
        <time>2022-08-04T08:26:41.000Z</time>
      </trkpt>
      <trkpt lat="47.33376" lon="-2.27024">
        <ele>-3.7999999523163</ele>
        <time>2022-08-04T08:26:46.000Z</time>
      </trkpt>
      <trkpt lat="47.33377" lon="-2.27025">
        <ele>-3.7999999523163</ele>
        <time>2022-08-04T08:26:48.000Z</time>
      </trkpt>
      <trkpt lat="47.33378" lon="-2.27027">
        <ele>-3.7999999523163</ele>
        <time>2022-08-04T08:26:55.000Z</time>
      </trkpt>
      <trkpt lat="47.33379" lon="-2.27034">
        <ele>-3.7999999523163</ele>
        <time>2022-08-04T08:26:57.000Z</time>
      </trkpt>
      <trkpt lat="47.33388" lon="-2.27055">
        <ele>-3.7999999523163</ele>
        <time>2022-08-04T08:27:02.000Z</time>
      </trkpt>
      <trkpt lat="47.33397" lon="-2.27074">
        <ele>-3.7999999523163</ele>
        <time>2022-08-04T08:27:06.000Z</time>
      </trkpt>
      <trkpt lat="47.33408" lon="-2.27105">
        <ele>-3.7999999523163</ele>
        <time>2022-08-04T08:27:11.000Z</time>
      </trkpt>
      <trkpt lat="47.33411" lon="-2.27111">
        <ele>-3.7999999523163</ele>
        <time>2022-08-04T08:27:12.000Z</time>
      </trkpt>
      <trkpt lat="47.33425" lon="-2.27163">
        <ele>-3.7999999523163</ele>
        <time>2022-08-04T08:27:19.000Z</time>
      </trkpt>
      <trkpt lat="47.33435" lon="-2.27219">
        <ele>-3.7999999523163</ele>
        <time>2022-08-04T08:27:26.000Z</time>
      </trkpt>
      <trkpt lat="47.33437" lon="-2.27227">
        <ele>-3.7999999523163</ele>
        <time>2022-08-04T08:27:27.000Z</time>
      </trkpt>
      <trkpt lat="47.33441" lon="-2.2725">
        <ele>-3.7999999523163</ele>
        <time>2022-08-04T08:27:30.000Z</time>
      </trkpt>
      <trkpt lat="47.33443" lon="-2.27258">
        <ele>-3.7999999523163</ele>
        <time>2022-08-04T08:27:31.000Z</time>
      </trkpt>
      <trkpt lat="47.33455" lon="-2.2732">
        <ele>-3.7999999523163</ele>
        <time>2022-08-04T08:27:39.000Z</time>
      </trkpt>
      <trkpt lat="47.3346" lon="-2.27342">
        <ele>-3.7999999523163</ele>
        <time>2022-08-04T08:27:42.000Z</time>
      </trkpt>
      <trkpt lat="47.33463" lon="-2.27358">
        <ele>-3.7999999523163</ele>
        <time>2022-08-04T08:27:44.000Z</time>
      </trkpt>
      <trkpt lat="47.3347" lon="-2.27406">
        <ele>-3.7999999523163</ele>
        <time>2022-08-04T08:27:50.000Z</time>
      </trkpt>
      <trkpt lat="47.33476" lon="-2.27438">
        <ele>-3.7999999523163</ele>
        <time>2022-08-04T08:27:54.000Z</time>
      </trkpt>
      <trkpt lat="47.3348" lon="-2.27463">
        <ele>-3.7999999523163</ele>
        <time>2022-08-04T08:27:57.000Z</time>
      </trkpt>
      <trkpt lat="47.33485" lon="-2.27485">
        <ele>-3.7999999523163</ele>
        <time>2022-08-04T08:28:00.000Z</time>
      </trkpt>
      <trkpt lat="47.33493" lon="-2.27524">
        <ele>-3.7999999523163</ele>
        <time>2022-08-04T08:28:06.000Z</time>
      </trkpt>
      <trkpt lat="47.33495" lon="-2.27546">
        <ele>-3.7999999523163</ele>
        <time>2022-08-04T08:28:11.000Z</time>
      </trkpt>
      <trkpt lat="47.33484" lon="-2.27557">
        <ele>-3.7999999523163</ele>
        <time>2022-08-04T08:28:16.000Z</time>
      </trkpt>
      <trkpt lat="47.3347" lon="-2.27571">
        <ele>-3.7999999523163</ele>
        <time>2022-08-04T08:28:23.000Z</time>
      </trkpt>
      <trkpt lat="47.33465" lon="-2.27575">
        <ele>-3.7999999523163</ele>
        <time>2022-08-04T08:28:25.000Z</time>
      </trkpt>
      <trkpt lat="47.33458" lon="-2.27582">
        <ele>-3.7999999523163</ele>
        <time>2022-08-04T08:28:28.000Z</time>
      </trkpt>
      <trkpt lat="47.3345" lon="-2.27591">
        <ele>-3.7999999523163</ele>
        <time>2022-08-04T08:28:32.000Z</time>
      </trkpt>
      <trkpt lat="47.33438" lon="-2.27603">
        <ele>-3.7999999523163</ele>
        <time>2022-08-04T08:28:36.000Z</time>
      </trkpt>
      <trkpt lat="47.3342" lon="-2.27625">
        <ele>-3.7999999523163</ele>
        <time>2022-08-04T08:28:42.000Z</time>
      </trkpt>
      <trkpt lat="47.33414" lon="-2.27635">
        <ele>-3.7999999523163</ele>
        <time>2022-08-04T08:28:44.000Z</time>
      </trkpt>
      <trkpt lat="47.33411" lon="-2.27648">
        <ele>-3.7999999523163</ele>
        <time>2022-08-04T08:28:46.000Z</time>
      </trkpt>
      <trkpt lat="47.33408" lon="-2.27668">
        <ele>-3.7999999523163</ele>
        <time>2022-08-04T08:28:49.000Z</time>
      </trkpt>
      <trkpt lat="47.33408" lon="-2.27676">
        <ele>-3.7999999523163</ele>
        <time>2022-08-04T08:28:50.000Z</time>
      </trkpt>
      <trkpt lat="47.3341" lon="-2.27716">
        <ele>-3.7999999523163</ele>
        <time>2022-08-04T08:28:55.000Z</time>
      </trkpt>
      <trkpt lat="47.33416" lon="-2.27763">
        <ele>-3.7999999523163</ele>
        <time>2022-08-04T08:29:02.000Z</time>
      </trkpt>
      <trkpt lat="47.33419" lon="-2.27787">
        <ele>-3.7999999523163</ele>
        <time>2022-08-04T08:29:05.000Z</time>
      </trkpt>
      <trkpt lat="47.33421" lon="-2.27799">
        <ele>-3.7999999523163</ele>
        <time>2022-08-04T08:29:07.000Z</time>
      </trkpt>
      <trkpt lat="47.33423" lon="-2.27814">
        <ele>-3.7999999523163</ele>
        <time>2022-08-04T08:29:09.000Z</time>
      </trkpt>
      <trkpt lat="47.33425" lon="-2.27836">
        <ele>-3.7999999523163</ele>
        <time>2022-08-04T08:29:12.000Z</time>
      </trkpt>
      <trkpt lat="47.33427" lon="-2.2786">
        <ele>-3.7999999523163</ele>
        <time>2022-08-04T08:29:16.000Z</time>
      </trkpt>
      <trkpt lat="47.33428" lon="-2.27867">
        <ele>-3.7999999523163</ele>
        <time>2022-08-04T08:29:17.000Z</time>
      </trkpt>
      <trkpt lat="47.33428" lon="-2.27887">
        <ele>-3.7999999523163</ele>
        <time>2022-08-04T08:29:20.000Z</time>
      </trkpt>
      <trkpt lat="47.33429" lon="-2.27898">
        <ele>-3.7999999523163</ele>
        <time>2022-08-04T08:29:22.000Z</time>
      </trkpt>
      <trkpt lat="47.3343" lon="-2.27909">
        <ele>-3.7999999523163</ele>
        <time>2022-08-04T08:29:24.000Z</time>
      </trkpt>
      <trkpt lat="47.33431" lon="-2.27928">
        <ele>-3.7999999523163</ele>
        <time>2022-08-04T08:29:27.000Z</time>
      </trkpt>
      <trkpt lat="47.33432" lon="-2.27935">
        <ele>-3.7999999523163</ele>
        <time>2022-08-04T08:29:28.000Z</time>
      </trkpt>
      <trkpt lat="47.33434" lon="-2.27949">
        <ele>-3.7999999523163</ele>
        <time>2022-08-04T08:29:30.000Z</time>
      </trkpt>
      <trkpt lat="47.33436" lon="-2.27972">
        <ele>-3.7999999523163</ele>
        <time>2022-08-04T08:29:33.000Z</time>
      </trkpt>
      <trkpt lat="47.33441" lon="-2.28017">
        <ele>-3.7999999523163</ele>
        <time>2022-08-04T08:29:39.000Z</time>
      </trkpt>
      <trkpt lat="47.33446" lon="-2.28054">
        <ele>-3.7999999523163</ele>
        <time>2022-08-04T08:29:44.000Z</time>
      </trkpt>
      <trkpt lat="47.33446" lon="-2.28062">
        <ele>-3.7999999523163</ele>
        <time>2022-08-04T08:29:45.000Z</time>
      </trkpt>
      <trkpt lat="47.33451" lon="-2.28095">
        <ele>-3.7999999523163</ele>
        <time>2022-08-04T08:29:49.000Z</time>
      </trkpt>
      <trkpt lat="47.33452" lon="-2.28111">
        <ele>-3.7999999523163</ele>
        <time>2022-08-04T08:29:51.000Z</time>
      </trkpt>
      <trkpt lat="47.33454" lon="-2.28134">
        <ele>-3.7999999523163</ele>
        <time>2022-08-04T08:29:54.000Z</time>
      </trkpt>
      <trkpt lat="47.33459" lon="-2.28169">
        <ele>-3.7999999523163</ele>
        <time>2022-08-04T08:29:59.000Z</time>
      </trkpt>
      <trkpt lat="47.33463" lon="-2.28211">
        <ele>-3.7999999523163</ele>
        <time>2022-08-04T08:30:05.000Z</time>
      </trkpt>
      <trkpt lat="47.33464" lon="-2.28217">
        <ele>-3.7999999523163</ele>
        <time>2022-08-04T08:30:06.000Z</time>
      </trkpt>
      <trkpt lat="47.33469" lon="-2.28242">
        <ele>-3.7999999523163</ele>
        <time>2022-08-04T08:30:11.000Z</time>
      </trkpt>
      <trkpt lat="47.33472" lon="-2.28244">
        <ele>-3.7999999523163</ele>
        <time>2022-08-04T08:30:12.000Z</time>
      </trkpt>
      <trkpt lat="47.33479" lon="-2.28247">
        <ele>-3.7999999523163</ele>
        <time>2022-08-04T08:30:14.000Z</time>
      </trkpt>
      <trkpt lat="47.33493" lon="-2.2825">
        <ele>-3.7999999523163</ele>
        <time>2022-08-04T08:30:17.000Z</time>
      </trkpt>
      <trkpt lat="47.335" lon="-2.28247">
        <ele>-3.7999999523163</ele>
        <time>2022-08-04T08:30:19.000Z</time>
      </trkpt>
      <trkpt lat="47.33509" lon="-2.28239">
        <ele>-3.7999999523163</ele>
        <time>2022-08-04T08:30:21.000Z</time>
      </trkpt>
      <trkpt lat="47.33514" lon="-2.28236">
        <ele>-3.7999999523163</ele>
        <time>2022-08-04T08:30:22.000Z</time>
      </trkpt>
      <trkpt lat="47.33518" lon="-2.28234">
        <ele>-3.7999999523163</ele>
        <time>2022-08-04T08:30:23.000Z</time>
      </trkpt>
      <trkpt lat="47.33522" lon="-2.28233">
        <ele>-3.7999999523163</ele>
        <time>2022-08-04T08:30:24.000Z</time>
      </trkpt>
      <trkpt lat="47.33531" lon="-2.28236">
        <ele>-3.7999999523163</ele>
        <time>2022-08-04T08:30:26.000Z</time>
      </trkpt>
      <trkpt lat="47.33547" lon="-2.28253">
        <ele>-3.7999999523163</ele>
        <time>2022-08-04T08:30:30.000Z</time>
      </trkpt>
      <trkpt lat="47.33551" lon="-2.28258">
        <ele>-3.7999999523163</ele>
        <time>2022-08-04T08:30:31.000Z</time>
      </trkpt>
      <trkpt lat="47.33554" lon="-2.28264">
        <ele>-3.7999999523163</ele>
        <time>2022-08-04T08:30:32.000Z</time>
      </trkpt>
      <trkpt lat="47.33566" lon="-2.28287">
        <ele>-3.7999999523163</ele>
        <time>2022-08-04T08:30:36.000Z</time>
      </trkpt>
      <trkpt lat="47.33591" lon="-2.28329">
        <ele>-3.7999999523163</ele>
        <time>2022-08-04T08:30:44.000Z</time>
      </trkpt>
      <trkpt lat="47.33608" lon="-2.28349">
        <ele>-3.7999999523163</ele>
        <time>2022-08-04T08:30:49.000Z</time>
      </trkpt>
      <trkpt lat="47.33611" lon="-2.28353">
        <ele>-3.7999999523163</ele>
        <time>2022-08-04T08:30:50.000Z</time>
      </trkpt>
      <trkpt lat="47.33628" lon="-2.28377">
        <ele>-3.7999999523163</ele>
        <time>2022-08-04T08:30:55.000Z</time>
      </trkpt>
      <trkpt lat="47.33648" lon="-2.28408">
        <ele>-3.7999999523163</ele>
        <time>2022-08-04T08:31:01.000Z</time>
      </trkpt>
      <trkpt lat="47.33652" lon="-2.28414">
        <ele>-3.7999999523163</ele>
        <time>2022-08-04T08:31:02.000Z</time>
      </trkpt>
      <trkpt lat="47.33667" lon="-2.28437">
        <ele>-3.7999999523163</ele>
        <time>2022-08-04T08:31:06.000Z</time>
      </trkpt>
      <trkpt lat="47.33671" lon="-2.28444">
        <ele>-3.7999999523163</ele>
        <time>2022-08-04T08:31:07.000Z</time>
      </trkpt>
      <trkpt lat="47.33676" lon="-2.28456">
        <ele>-4.1999998092651</ele>
        <time>2022-08-04T08:31:09.000Z</time>
      </trkpt>
      <trkpt lat="47.33678" lon="-2.28462">
        <ele>-4.5999999046326</ele>
        <time>2022-08-04T08:31:10.000Z</time>
      </trkpt>
      <trkpt lat="47.3368" lon="-2.28467">
        <ele>-5.1999998092651</ele>
        <time>2022-08-04T08:31:11.000Z</time>
      </trkpt>
      <trkpt lat="47.33681" lon="-2.2847">
        <ele>-5.5999999046326</ele>
        <time>2022-08-04T08:31:12.000Z</time>
      </trkpt>
      <trkpt lat="47.33682" lon="-2.28474">
        <ele>-6</ele>
        <time>2022-08-04T08:31:13.000Z</time>
      </trkpt>
      <trkpt lat="47.33684" lon="-2.28479">
        <ele>-6</ele>
        <time>2022-08-04T08:31:15.000Z</time>
      </trkpt>
      <trkpt lat="47.33684" lon="-2.2848">
        <ele>-6</ele>
        <time>2022-08-04T08:31:17.000Z</time>
      </trkpt>
      <trkpt lat="47.33688" lon="-2.28491">
        <ele>-6</ele>
        <time>2022-08-04T08:32:03.000Z</time>
      </trkpt>
      <trkpt lat="47.33688" lon="-2.28493">
        <ele>-6</ele>
        <time>2022-08-04T08:32:04.000Z</time>
      </trkpt>
      <trkpt lat="47.33693" lon="-2.2851">
        <ele>-6</ele>
        <time>2022-08-04T08:32:09.000Z</time>
      </trkpt>
      <trkpt lat="47.33703" lon="-2.28531">
        <ele>-6</ele>
        <time>2022-08-04T08:32:15.000Z</time>
      </trkpt>
      <trkpt lat="47.33712" lon="-2.28534">
        <ele>-6</ele>
        <time>2022-08-04T08:32:18.000Z</time>
      </trkpt>
      <trkpt lat="47.33715" lon="-2.28533">
        <ele>-6</ele>
        <time>2022-08-04T08:32:19.000Z</time>
      </trkpt>
      <trkpt lat="47.33719" lon="-2.28532">
        <ele>-5.5999999046326</ele>
        <time>2022-08-04T08:32:20.000Z</time>
      </trkpt>
      <trkpt lat="47.33722" lon="-2.2853">
        <ele>-5.1999998092651</ele>
        <time>2022-08-04T08:32:21.000Z</time>
      </trkpt>
      <trkpt lat="47.33726" lon="-2.28528">
        <ele>-4.8000001907349</ele>
        <time>2022-08-04T08:32:22.000Z</time>
      </trkpt>
      <trkpt lat="47.3373" lon="-2.28526">
        <ele>-4.1999998092651</ele>
        <time>2022-08-04T08:32:23.000Z</time>
      </trkpt>
      <trkpt lat="47.33733" lon="-2.28524">
        <ele>-3.7999999523163</ele>
        <time>2022-08-04T08:32:24.000Z</time>
      </trkpt>
      <trkpt lat="47.33736" lon="-2.2852">
        <ele>-3.7999999523163</ele>
        <time>2022-08-04T08:32:25.000Z</time>
      </trkpt>
      <trkpt lat="47.33758" lon="-2.28501">
        <ele>-3.7999999523163</ele>
        <time>2022-08-04T08:32:31.000Z</time>
      </trkpt>
      <trkpt lat="47.33782" lon="-2.28485">
        <ele>-3.7999999523163</ele>
        <time>2022-08-04T08:32:38.000Z</time>
      </trkpt>
      <trkpt lat="47.33798" lon="-2.28469">
        <ele>-3.7999999523163</ele>
        <time>2022-08-04T08:32:44.000Z</time>
      </trkpt>
      <trkpt lat="47.33798" lon="-2.28448">
        <ele>-3.7999999523163</ele>
        <time>2022-08-04T08:32:48.000Z</time>
      </trkpt>
      <trkpt lat="47.33795" lon="-2.28438">
        <ele>-3.7999999523163</ele>
        <time>2022-08-04T08:32:52.000Z</time>
      </trkpt>
      <trkpt lat="47.33795" lon="-2.28438">
        <ele>-3.7999999523163</ele>
        <time>2022-08-04T08:32:53.000Z</time>
      </trkpt>
      <trkpt lat="47.33804" lon="-2.28439">
        <ele>-3.7999999523163</ele>
        <time>2022-08-04T08:47:46.000Z</time>
      </trkpt>
      <trkpt lat="47.33806" lon="-2.28439">
        <ele>-3.7999999523163</ele>
        <time>2022-08-04T08:47:47.000Z</time>
      </trkpt>
      <trkpt lat="47.3382" lon="-2.28442">
        <ele>-3.7999999523163</ele>
        <time>2022-08-04T08:47:52.000Z</time>
      </trkpt>
      <trkpt lat="47.33822" lon="-2.28444">
        <ele>-3.7999999523163</ele>
        <time>2022-08-04T08:47:53.000Z</time>
      </trkpt>
      <trkpt lat="47.3383" lon="-2.28454">
        <ele>-3.7999999523163</ele>
        <time>2022-08-04T08:47:57.000Z</time>
      </trkpt>
      <trkpt lat="47.33844" lon="-2.28469">
        <ele>-3.7999999523163</ele>
        <time>2022-08-04T08:48:03.000Z</time>
      </trkpt>
      <trkpt lat="47.33861" lon="-2.28485">
        <ele>-3.7999999523163</ele>
        <time>2022-08-04T08:48:09.000Z</time>
      </trkpt>
      <trkpt lat="47.33876" lon="-2.28507">
        <ele>-3.7999999523163</ele>
        <time>2022-08-04T08:48:15.000Z</time>
      </trkpt>
      <trkpt lat="47.33891" lon="-2.28525">
        <ele>-3.7999999523163</ele>
        <time>2022-08-04T08:48:20.000Z</time>
      </trkpt>
      <trkpt lat="47.33903" lon="-2.2854">
        <ele>-3.7999999523163</ele>
        <time>2022-08-04T08:48:25.000Z</time>
      </trkpt>
      <trkpt lat="47.33921" lon="-2.28564">
        <ele>-3.7999999523163</ele>
        <time>2022-08-04T08:48:32.000Z</time>
      </trkpt>
      <trkpt lat="47.33942" lon="-2.28592">
        <ele>-3.7999999523163</ele>
        <time>2022-08-04T08:48:40.000Z</time>
      </trkpt>
      <trkpt lat="47.33959" lon="-2.2861">
        <ele>-3.7999999523163</ele>
        <time>2022-08-04T08:48:47.000Z</time>
      </trkpt>
      <trkpt lat="47.33971" lon="-2.28628">
        <ele>-3.7999999523163</ele>
        <time>2022-08-04T08:48:54.000Z</time>
      </trkpt>
      <trkpt lat="47.3398" lon="-2.28642">
        <ele>-3.7999999523163</ele>
        <time>2022-08-04T08:49:00.000Z</time>
      </trkpt>
      <trkpt lat="47.3399" lon="-2.28661">
        <ele>-3.7999999523163</ele>
        <time>2022-08-04T08:49:07.000Z</time>
      </trkpt>
      <trkpt lat="47.33992" lon="-2.28669">
        <ele>-3.7999999523163</ele>
        <time>2022-08-04T08:49:11.000Z</time>
      </trkpt>
      <trkpt lat="47.33991" lon="-2.28681">
        <ele>-3.7999999523163</ele>
        <time>2022-08-04T08:49:16.000Z</time>
      </trkpt>
      <trkpt lat="47.33992" lon="-2.28686">
        <ele>-3.7999999523163</ele>
        <time>2022-08-04T08:49:18.000Z</time>
      </trkpt>
      <trkpt lat="47.33994" lon="-2.28691">
        <ele>-3.7999999523163</ele>
        <time>2022-08-04T08:49:20.000Z</time>
      </trkpt>
      <trkpt lat="47.34" lon="-2.28695">
        <ele>-3.7999999523163</ele>
        <time>2022-08-04T08:49:23.000Z</time>
      </trkpt>
      <trkpt lat="47.34012" lon="-2.28701">
        <ele>-3.7999999523163</ele>
        <time>2022-08-04T08:49:29.000Z</time>
      </trkpt>
      <trkpt lat="47.34028" lon="-2.28708">
        <ele>-3.7999999523163</ele>
        <time>2022-08-04T08:49:34.000Z</time>
      </trkpt>
      <trkpt lat="47.34035" lon="-2.28712">
        <ele>-3.7999999523163</ele>
        <time>2022-08-04T08:49:36.000Z</time>
      </trkpt>
      <trkpt lat="47.34051" lon="-2.28719">
        <ele>-3.7999999523163</ele>
        <time>2022-08-04T08:49:40.000Z</time>
      </trkpt>
      <trkpt lat="47.34055" lon="-2.2872">
        <ele>-3.7999999523163</ele>
        <time>2022-08-04T08:49:41.000Z</time>
      </trkpt>
      <trkpt lat="47.34072" lon="-2.28727">
        <ele>-3.7999999523163</ele>
        <time>2022-08-04T08:49:45.000Z</time>
      </trkpt>
      <trkpt lat="47.34088" lon="-2.28732">
        <ele>-3.7999999523163</ele>
        <time>2022-08-04T08:49:49.000Z</time>
      </trkpt>
      <trkpt lat="47.34096" lon="-2.2873">
        <ele>-3.7999999523163</ele>
        <time>2022-08-04T08:49:51.000Z</time>
      </trkpt>
      <trkpt lat="47.34105" lon="-2.28715">
        <ele>-3.7999999523163</ele>
        <time>2022-08-04T08:49:54.000Z</time>
      </trkpt>
      <trkpt lat="47.34107" lon="-2.2871">
        <ele>-3.7999999523163</ele>
        <time>2022-08-04T08:49:55.000Z</time>
      </trkpt>
      <trkpt lat="47.34109" lon="-2.28704">
        <ele>-3.7999999523163</ele>
        <time>2022-08-04T08:49:56.000Z</time>
      </trkpt>
      <trkpt lat="47.34117" lon="-2.28696">
        <ele>-3.7999999523163</ele>
        <time>2022-08-04T08:49:58.000Z</time>
      </trkpt>
      <trkpt lat="47.34126" lon="-2.28693">
        <ele>-3.7999999523163</ele>
        <time>2022-08-04T08:50:00.000Z</time>
      </trkpt>
      <trkpt lat="47.34132" lon="-2.28692">
        <ele>-3.7999999523163</ele>
        <time>2022-08-04T08:50:01.000Z</time>
      </trkpt>
      <trkpt lat="47.34136" lon="-2.28692">
        <ele>-3.7999999523163</ele>
        <time>2022-08-04T08:50:02.000Z</time>
      </trkpt>
      <trkpt lat="47.34145" lon="-2.28692">
        <ele>-3.7999999523163</ele>
        <time>2022-08-04T08:50:04.000Z</time>
      </trkpt>
      <trkpt lat="47.34153" lon="-2.28694">
        <ele>-3.7999999523163</ele>
        <time>2022-08-04T08:50:06.000Z</time>
      </trkpt>
      <trkpt lat="47.34168" lon="-2.28703">
        <ele>-3.7999999523163</ele>
        <time>2022-08-04T08:50:11.000Z</time>
      </trkpt>
      <trkpt lat="47.34174" lon="-2.2873">
        <ele>-3.7999999523163</ele>
        <time>2022-08-04T08:50:15.000Z</time>
      </trkpt>
      <trkpt lat="47.34176" lon="-2.28768">
        <ele>-3.7999999523163</ele>
        <time>2022-08-04T08:50:20.000Z</time>
      </trkpt>
      <trkpt lat="47.34175" lon="-2.28776">
        <ele>-3.7999999523163</ele>
        <time>2022-08-04T08:50:21.000Z</time>
      </trkpt>
      <trkpt lat="47.34176" lon="-2.28839">
        <ele>-3.7999999523163</ele>
        <time>2022-08-04T08:50:29.000Z</time>
      </trkpt>
      <trkpt lat="47.34176" lon="-2.2886">
        <ele>-3.7999999523163</ele>
        <time>2022-08-04T08:50:32.000Z</time>
      </trkpt>
      <trkpt lat="47.3418" lon="-2.28877">
        <ele>-3.7999999523163</ele>
        <time>2022-08-04T08:50:35.000Z</time>
      </trkpt>
      <trkpt lat="47.3419" lon="-2.28875">
        <ele>-3.7999999523163</ele>
        <time>2022-08-04T08:50:38.000Z</time>
      </trkpt>
      <trkpt lat="47.34194" lon="-2.28871">
        <ele>-3.7999999523163</ele>
        <time>2022-08-04T08:50:39.000Z</time>
      </trkpt>
      <trkpt lat="47.34204" lon="-2.28865">
        <ele>-3.7999999523163</ele>
        <time>2022-08-04T08:50:41.000Z</time>
      </trkpt>
      <trkpt lat="47.34218" lon="-2.28855">
        <ele>-3.7999999523163</ele>
        <time>2022-08-04T08:50:44.000Z</time>
      </trkpt>
      <trkpt lat="47.3425" lon="-2.28834">
        <ele>-3.7999999523163</ele>
        <time>2022-08-04T08:50:51.000Z</time>
      </trkpt>
      <trkpt lat="47.34259" lon="-2.28844">
        <ele>-3.7999999523163</ele>
        <time>2022-08-04T08:50:54.000Z</time>
      </trkpt>
      <trkpt lat="47.34262" lon="-2.28852">
        <ele>-3.7999999523163</ele>
        <time>2022-08-04T08:50:56.000Z</time>
      </trkpt>
      <trkpt lat="47.34264" lon="-2.28857">
        <ele>-3.7999999523163</ele>
        <time>2022-08-04T08:50:57.000Z</time>
      </trkpt>
      <trkpt lat="47.34266" lon="-2.28863">
        <ele>-3.7999999523163</ele>
        <time>2022-08-04T08:50:58.000Z</time>
      </trkpt>
      <trkpt lat="47.34275" lon="-2.28886">
        <ele>-3.7999999523163</ele>
        <time>2022-08-04T08:51:02.000Z</time>
      </trkpt>
      <trkpt lat="47.3428" lon="-2.289">
        <ele>-3.7999999523163</ele>
        <time>2022-08-04T08:51:04.000Z</time>
      </trkpt>
      <trkpt lat="47.34286" lon="-2.28921">
        <ele>-3.7999999523163</ele>
        <time>2022-08-04T08:51:07.000Z</time>
      </trkpt>
      <trkpt lat="47.34296" lon="-2.28966">
        <ele>-3.7999999523163</ele>
        <time>2022-08-04T08:51:13.000Z</time>
      </trkpt>
      <trkpt lat="47.34304" lon="-2.29011">
        <ele>-3.7999999523163</ele>
        <time>2022-08-04T08:51:19.000Z</time>
      </trkpt>
      <trkpt lat="47.34307" lon="-2.29023">
        <ele>-3.7999999523163</ele>
        <time>2022-08-04T08:51:21.000Z</time>
      </trkpt>
      <trkpt lat="47.34312" lon="-2.29044">
        <ele>-3.4000000953674</ele>
        <time>2022-08-04T08:51:25.000Z</time>
      </trkpt>
      <trkpt lat="47.34313" lon="-2.2905">
        <ele>-3</ele>
        <time>2022-08-04T08:51:26.000Z</time>
      </trkpt>
      <trkpt lat="47.34312" lon="-2.29055">
        <ele>-2.5999999046326</ele>
        <time>2022-08-04T08:51:27.000Z</time>
      </trkpt>
      <trkpt lat="47.3431" lon="-2.29059">
        <ele>-2.2000000476837</ele>
        <time>2022-08-04T08:51:28.000Z</time>
      </trkpt>
      <trkpt lat="47.34307" lon="-2.29061">
        <ele>-1.7999999523163</ele>
        <time>2022-08-04T08:51:29.000Z</time>
      </trkpt>
      <trkpt lat="47.34297" lon="-2.29064">
        <ele>-1.7999999523163</ele>
        <time>2022-08-04T08:51:31.000Z</time>
      </trkpt>
      <trkpt lat="47.34291" lon="-2.29065">
        <ele>-1.7999999523163</ele>
        <time>2022-08-04T08:51:32.000Z</time>
      </trkpt>
      <trkpt lat="47.34268" lon="-2.2907">
        <ele>-1.7999999523163</ele>
        <time>2022-08-04T08:51:36.000Z</time>
      </trkpt>
      <trkpt lat="47.34226" lon="-2.29076">
        <ele>-1.7999999523163</ele>
        <time>2022-08-04T08:51:43.000Z</time>
      </trkpt>
      <trkpt lat="47.3422" lon="-2.2908">
        <ele>-1.7999999523163</ele>
        <time>2022-08-04T08:51:44.000Z</time>
      </trkpt>
      <trkpt lat="47.34194" lon="-2.2909">
        <ele>-1.7999999523163</ele>
        <time>2022-08-04T08:51:48.000Z</time>
      </trkpt>
      <trkpt lat="47.34155" lon="-2.2911">
        <ele>-1.7999999523163</ele>
        <time>2022-08-04T08:51:54.000Z</time>
      </trkpt>
      <trkpt lat="47.34111" lon="-2.2914">
        <ele>-1.7999999523163</ele>
        <time>2022-08-04T08:52:01.000Z</time>
      </trkpt>
      <trkpt lat="47.34071" lon="-2.29175">
        <ele>-1.7999999523163</ele>
        <time>2022-08-04T08:52:08.000Z</time>
      </trkpt>
      <trkpt lat="47.34043" lon="-2.29198">
        <ele>-1.7999999523163</ele>
        <time>2022-08-04T08:52:13.000Z</time>
      </trkpt>
      <trkpt lat="47.34036" lon="-2.29201">
        <ele>-1.7999999523163</ele>
        <time>2022-08-04T08:52:14.000Z</time>
      </trkpt>
      <trkpt lat="47.34009" lon="-2.29213">
        <ele>-1.7999999523163</ele>
        <time>2022-08-04T08:52:18.000Z</time>
      </trkpt>
      <trkpt lat="47.33996" lon="-2.29218">
        <ele>-1.7999999523163</ele>
        <time>2022-08-04T08:52:20.000Z</time>
      </trkpt>
      <trkpt lat="47.3399" lon="-2.29219">
        <ele>-1.7999999523163</ele>
        <time>2022-08-04T08:52:21.000Z</time>
      </trkpt>
      <trkpt lat="47.33963" lon="-2.29225">
        <ele>-1.7999999523163</ele>
        <time>2022-08-04T08:52:25.000Z</time>
      </trkpt>
      <trkpt lat="47.3391" lon="-2.29234">
        <ele>-1.7999999523163</ele>
        <time>2022-08-04T08:52:33.000Z</time>
      </trkpt>
      <trkpt lat="47.33871" lon="-2.29245">
        <ele>-1.7999999523163</ele>
        <time>2022-08-04T08:52:39.000Z</time>
      </trkpt>
      <trkpt lat="47.33833" lon="-2.2926">
        <ele>-1.7999999523163</ele>
        <time>2022-08-04T08:52:45.000Z</time>
      </trkpt>
      <trkpt lat="47.33812" lon="-2.29274">
        <ele>-1.7999999523163</ele>
        <time>2022-08-04T08:52:49.000Z</time>
      </trkpt>
      <trkpt lat="47.33807" lon="-2.29279">
        <ele>-1.7999999523163</ele>
        <time>2022-08-04T08:52:50.000Z</time>
      </trkpt>
      <trkpt lat="47.33803" lon="-2.29292">
        <ele>-1.7999999523163</ele>
        <time>2022-08-04T08:52:52.000Z</time>
      </trkpt>
      <trkpt lat="47.3381" lon="-2.29304">
        <ele>-1.7999999523163</ele>
        <time>2022-08-04T08:52:55.000Z</time>
      </trkpt>
      <trkpt lat="47.3382" lon="-2.29312">
        <ele>-1.7999999523163</ele>
        <time>2022-08-04T08:52:58.000Z</time>
      </trkpt>
      <trkpt lat="47.33828" lon="-2.29319">
        <ele>-1.7999999523163</ele>
        <time>2022-08-04T08:53:00.000Z</time>
      </trkpt>
      <trkpt lat="47.33852" lon="-2.29339">
        <ele>-1.7999999523163</ele>
        <time>2022-08-04T08:53:06.000Z</time>
      </trkpt>
      <trkpt lat="47.33864" lon="-2.29349">
        <ele>-1.7999999523163</ele>
        <time>2022-08-04T08:53:09.000Z</time>
      </trkpt>
      <trkpt lat="47.33876" lon="-2.29361">
        <ele>-1.7999999523163</ele>
        <time>2022-08-04T08:53:12.000Z</time>
      </trkpt>
      <trkpt lat="47.33902" lon="-2.29387">
        <ele>-1.7999999523163</ele>
        <time>2022-08-04T08:53:18.000Z</time>
      </trkpt>
      <trkpt lat="47.33929" lon="-2.29414">
        <ele>-1.7999999523163</ele>
        <time>2022-08-04T08:53:24.000Z</time>
      </trkpt>
      <trkpt lat="47.33942" lon="-2.29428">
        <ele>-1.7999999523163</ele>
        <time>2022-08-04T08:53:27.000Z</time>
      </trkpt>
      <trkpt lat="47.33946" lon="-2.29442">
        <ele>-1.7999999523163</ele>
        <time>2022-08-04T08:53:29.000Z</time>
      </trkpt>
      <trkpt lat="47.33941" lon="-2.29463">
        <ele>-1.7999999523163</ele>
        <time>2022-08-04T08:53:33.000Z</time>
      </trkpt>
      <trkpt lat="47.33931" lon="-2.29478">
        <ele>-1.7999999523163</ele>
        <time>2022-08-04T08:53:36.000Z</time>
      </trkpt>
      <trkpt lat="47.33927" lon="-2.29483">
        <ele>-1.7999999523163</ele>
        <time>2022-08-04T08:53:37.000Z</time>
      </trkpt>
      <trkpt lat="47.3392" lon="-2.29493">
        <ele>-1.7999999523163</ele>
        <time>2022-08-04T08:53:39.000Z</time>
      </trkpt>
      <trkpt lat="47.33919" lon="-2.29508">
        <ele>-1.7999999523163</ele>
        <time>2022-08-04T08:53:41.000Z</time>
      </trkpt>
      <trkpt lat="47.33918" lon="-2.29521">
        <ele>-1.7999999523163</ele>
        <time>2022-08-04T08:53:43.000Z</time>
      </trkpt>
      <trkpt lat="47.33917" lon="-2.2953">
        <ele>-1.7999999523163</ele>
        <time>2022-08-04T08:53:45.000Z</time>
      </trkpt>
      <trkpt lat="47.33916" lon="-2.29538">
        <ele>-1.7999999523163</ele>
        <time>2022-08-04T08:53:50.000Z</time>
      </trkpt>
      <trkpt lat="47.33916" lon="-2.29539">
        <ele>-1.7999999523163</ele>
        <time>2022-08-04T08:53:52.000Z</time>
      </trkpt>
      <trkpt lat="47.33917" lon="-2.29546">
        <ele>-1.7999999523163</ele>
        <time>2022-08-04T08:54:02.000Z</time>
      </trkpt>
      <trkpt lat="47.33917" lon="-2.29549">
        <ele>-1.7999999523163</ele>
        <time>2022-08-04T08:54:03.000Z</time>
      </trkpt>
      <trkpt lat="47.33917" lon="-2.29573">
        <ele>-1.7999999523163</ele>
        <time>2022-08-04T08:54:08.000Z</time>
      </trkpt>
      <trkpt lat="47.33917" lon="-2.29579">
        <ele>-1.7999999523163</ele>
        <time>2022-08-04T08:54:09.000Z</time>
      </trkpt>
      <trkpt lat="47.33915" lon="-2.2961">
        <ele>-1.7999999523163</ele>
        <time>2022-08-04T08:54:14.000Z</time>
      </trkpt>
      <trkpt lat="47.3391" lon="-2.29651">
        <ele>-1.7999999523163</ele>
        <time>2022-08-04T08:54:20.000Z</time>
      </trkpt>
      <trkpt lat="47.33899" lon="-2.29691">
        <ele>-1.7999999523163</ele>
        <time>2022-08-04T08:54:25.000Z</time>
      </trkpt>
      <trkpt lat="47.33881" lon="-2.29744">
        <ele>-1.7999999523163</ele>
        <time>2022-08-04T08:54:32.000Z</time>
      </trkpt>
      <trkpt lat="47.33867" lon="-2.29781">
        <ele>-1.7999999523163</ele>
        <time>2022-08-04T08:54:37.000Z</time>
      </trkpt>
      <trkpt lat="47.33863" lon="-2.29786">
        <ele>-1.7999999523163</ele>
        <time>2022-08-04T08:54:38.000Z</time>
      </trkpt>
      <trkpt lat="47.33847" lon="-2.29797">
        <ele>-1.7999999523163</ele>
        <time>2022-08-04T08:54:41.000Z</time>
      </trkpt>
      <trkpt lat="47.33842" lon="-2.29801">
        <ele>-1.7999999523163</ele>
        <time>2022-08-04T08:54:42.000Z</time>
      </trkpt>
      <trkpt lat="47.33837" lon="-2.29804">
        <ele>-1.7999999523163</ele>
        <time>2022-08-04T08:54:43.000Z</time>
      </trkpt>
      <trkpt lat="47.33815" lon="-2.29813">
        <ele>-1.7999999523163</ele>
        <time>2022-08-04T08:54:47.000Z</time>
      </trkpt>
      <trkpt lat="47.33793" lon="-2.29817">
        <ele>-1.7999999523163</ele>
        <time>2022-08-04T08:54:51.000Z</time>
      </trkpt>
      <trkpt lat="47.33781" lon="-2.29816">
        <ele>-1.7999999523163</ele>
        <time>2022-08-04T08:54:53.000Z</time>
      </trkpt>
      <trkpt lat="47.33742" lon="-2.29806">
        <ele>-1.7999999523163</ele>
        <time>2022-08-04T08:55:01.000Z</time>
      </trkpt>
      <trkpt lat="47.33711" lon="-2.29797">
        <ele>-1.7999999523163</ele>
        <time>2022-08-04T08:55:07.000Z</time>
      </trkpt>
      <trkpt lat="47.33706" lon="-2.29796">
        <ele>-1.7999999523163</ele>
        <time>2022-08-04T08:55:08.000Z</time>
      </trkpt>
      <trkpt lat="47.33688" lon="-2.29794">
        <ele>-1.7999999523163</ele>
        <time>2022-08-04T08:55:11.000Z</time>
      </trkpt>
      <trkpt lat="47.33682" lon="-2.29794">
        <ele>-1.7999999523163</ele>
        <time>2022-08-04T08:55:12.000Z</time>
      </trkpt>
      <trkpt lat="47.3367" lon="-2.29799">
        <ele>-2.2000000476837</ele>
        <time>2022-08-04T08:55:14.000Z</time>
      </trkpt>
      <trkpt lat="47.33664" lon="-2.29802">
        <ele>-2.5999999046326</ele>
        <time>2022-08-04T08:55:15.000Z</time>
      </trkpt>
      <trkpt lat="47.33659" lon="-2.29806">
        <ele>-3.5999999046326</ele>
        <time>2022-08-04T08:55:16.000Z</time>
      </trkpt>
      <trkpt lat="47.33653" lon="-2.29809">
        <ele>-4</ele>
        <time>2022-08-04T08:55:17.000Z</time>
      </trkpt>
      <trkpt lat="47.33638" lon="-2.29819">
        <ele>-4</ele>
        <time>2022-08-04T08:55:20.000Z</time>
      </trkpt>
      <trkpt lat="47.33635" lon="-2.29825">
        <ele>-4</ele>
        <time>2022-08-04T08:55:21.000Z</time>
      </trkpt>
      <trkpt lat="47.33636" lon="-2.2985">
        <ele>-4</ele>
        <time>2022-08-04T08:55:24.000Z</time>
      </trkpt>
      <trkpt lat="47.33643" lon="-2.29865">
        <ele>-4</ele>
        <time>2022-08-04T08:55:26.000Z</time>
      </trkpt>
      <trkpt lat="47.33646" lon="-2.29873">
        <ele>-4</ele>
        <time>2022-08-04T08:55:27.000Z</time>
      </trkpt>
      <trkpt lat="47.33647" lon="-2.29883">
        <ele>-4</ele>
        <time>2022-08-04T08:55:28.000Z</time>
      </trkpt>
      <trkpt lat="47.33644" lon="-2.29909">
        <ele>-4</ele>
        <time>2022-08-04T08:55:31.000Z</time>
      </trkpt>
      <trkpt lat="47.33631" lon="-2.29927">
        <ele>-4</ele>
        <time>2022-08-04T08:55:34.000Z</time>
      </trkpt>
      <trkpt lat="47.33599" lon="-2.29969">
        <ele>-4</ele>
        <time>2022-08-04T08:55:41.000Z</time>
      </trkpt>
      <trkpt lat="47.33566" lon="-2.30004">
        <ele>-4</ele>
        <time>2022-08-04T08:55:48.000Z</time>
      </trkpt>
      <trkpt lat="47.33548" lon="-2.30008">
        <ele>-4</ele>
        <time>2022-08-04T08:55:51.000Z</time>
      </trkpt>
      <trkpt lat="47.33536" lon="-2.30007">
        <ele>-4</ele>
        <time>2022-08-04T08:55:53.000Z</time>
      </trkpt>
      <trkpt lat="47.33513" lon="-2.30003">
        <ele>-4</ele>
        <time>2022-08-04T08:55:57.000Z</time>
      </trkpt>
      <trkpt lat="47.33491" lon="-2.30004">
        <ele>-4</ele>
        <time>2022-08-04T08:56:01.000Z</time>
      </trkpt>
      <trkpt lat="47.33486" lon="-2.30006">
        <ele>-4</ele>
        <time>2022-08-04T08:56:02.000Z</time>
      </trkpt>
      <trkpt lat="47.33477" lon="-2.30021">
        <ele>-4</ele>
        <time>2022-08-04T08:56:05.000Z</time>
      </trkpt>
      <trkpt lat="47.33476" lon="-2.30026">
        <ele>-4</ele>
        <time>2022-08-04T08:56:06.000Z</time>
      </trkpt>
      <trkpt lat="47.33473" lon="-2.30032">
        <ele>-4</ele>
        <time>2022-08-04T08:56:07.000Z</time>
      </trkpt>
      <trkpt lat="47.33467" lon="-2.3005">
        <ele>-4</ele>
        <time>2022-08-04T08:56:10.000Z</time>
      </trkpt>
      <trkpt lat="47.33466" lon="-2.30057">
        <ele>-4</ele>
        <time>2022-08-04T08:56:11.000Z</time>
      </trkpt>
      <trkpt lat="47.33459" lon="-2.30082">
        <ele>-4</ele>
        <time>2022-08-04T08:56:15.000Z</time>
      </trkpt>
      <trkpt lat="47.33453" lon="-2.301">
        <ele>-4</ele>
        <time>2022-08-04T08:56:18.000Z</time>
      </trkpt>
      <trkpt lat="47.33449" lon="-2.30113">
        <ele>-4</ele>
        <time>2022-08-04T08:56:20.000Z</time>
      </trkpt>
      <trkpt lat="47.33447" lon="-2.30119">
        <ele>-4</ele>
        <time>2022-08-04T08:56:21.000Z</time>
      </trkpt>
      <trkpt lat="47.33438" lon="-2.30146">
        <ele>-4</ele>
        <time>2022-08-04T08:56:25.000Z</time>
      </trkpt>
      <trkpt lat="47.33431" lon="-2.30158">
        <ele>-4</ele>
        <time>2022-08-04T08:56:27.000Z</time>
      </trkpt>
      <trkpt lat="47.33428" lon="-2.30163">
        <ele>-4</ele>
        <time>2022-08-04T08:56:28.000Z</time>
      </trkpt>
      <trkpt lat="47.33416" lon="-2.30185">
        <ele>-4</ele>
        <time>2022-08-04T08:56:32.000Z</time>
      </trkpt>
      <trkpt lat="47.33404" lon="-2.30217">
        <ele>-4</ele>
        <time>2022-08-04T08:56:37.000Z</time>
      </trkpt>
      <trkpt lat="47.334" lon="-2.3023">
        <ele>-4</ele>
        <time>2022-08-04T08:56:39.000Z</time>
      </trkpt>
      <trkpt lat="47.33398" lon="-2.30237">
        <ele>-4</ele>
        <time>2022-08-04T08:56:40.000Z</time>
      </trkpt>
      <trkpt lat="47.33392" lon="-2.30264">
        <ele>-4</ele>
        <time>2022-08-04T08:56:44.000Z</time>
      </trkpt>
      <trkpt lat="47.33391" lon="-2.30272">
        <ele>-4</ele>
        <time>2022-08-04T08:56:45.000Z</time>
      </trkpt>
      <trkpt lat="47.33393" lon="-2.30295">
        <ele>-4</ele>
        <time>2022-08-04T08:56:48.000Z</time>
      </trkpt>
      <trkpt lat="47.33393" lon="-2.30342">
        <ele>-4</ele>
        <time>2022-08-04T08:56:54.000Z</time>
      </trkpt>
      <trkpt lat="47.33388" lon="-2.3037">
        <ele>-4</ele>
        <time>2022-08-04T08:56:58.000Z</time>
      </trkpt>
      <trkpt lat="47.33386" lon="-2.30376">
        <ele>-4</ele>
        <time>2022-08-04T08:56:59.000Z</time>
      </trkpt>
      <trkpt lat="47.33381" lon="-2.30388">
        <ele>-4</ele>
        <time>2022-08-04T08:57:01.000Z</time>
      </trkpt>
      <trkpt lat="47.33369" lon="-2.30397">
        <ele>-4</ele>
        <time>2022-08-04T08:57:04.000Z</time>
      </trkpt>
      <trkpt lat="47.33365" lon="-2.30399">
        <ele>-4</ele>
        <time>2022-08-04T08:57:05.000Z</time>
      </trkpt>
      <trkpt lat="47.33353" lon="-2.30409">
        <ele>-4</ele>
        <time>2022-08-04T08:57:08.000Z</time>
      </trkpt>
      <trkpt lat="47.33348" lon="-2.30421">
        <ele>-4</ele>
        <time>2022-08-04T08:57:10.000Z</time>
      </trkpt>
      <trkpt lat="47.33346" lon="-2.30439">
        <ele>-4</ele>
        <time>2022-08-04T08:57:13.000Z</time>
      </trkpt>
      <trkpt lat="47.33346" lon="-2.30451">
        <ele>-4</ele>
        <time>2022-08-04T08:57:15.000Z</time>
      </trkpt>
      <trkpt lat="47.33347" lon="-2.30485">
        <ele>-4</ele>
        <time>2022-08-04T08:57:21.000Z</time>
      </trkpt>
      <trkpt lat="47.33342" lon="-2.30496">
        <ele>-4</ele>
        <time>2022-08-04T08:57:24.000Z</time>
      </trkpt>
      <trkpt lat="47.33341" lon="-2.30498">
        <ele>-4</ele>
        <time>2022-08-04T08:57:25.000Z</time>
      </trkpt>
      <trkpt lat="47.33334" lon="-2.30501">
        <ele>-4</ele>
        <time>2022-08-04T08:57:30.000Z</time>
      </trkpt>
      <trkpt lat="47.33333" lon="-2.30503">
        <ele>-4</ele>
        <time>2022-08-04T08:57:31.000Z</time>
      </trkpt>
      <trkpt lat="47.33333" lon="-2.30502">
        <ele>-4</ele>
        <time>2022-08-04T08:57:32.000Z</time>
      </trkpt>
      <trkpt lat="47.3333" lon="-2.30503">
        <ele>-4</ele>
        <time>2022-08-04T08:58:09.000Z</time>
      </trkpt>
      <trkpt lat="47.33328" lon="-2.30503">
        <ele>-4</ele>
        <time>2022-08-04T08:58:10.000Z</time>
      </trkpt>
      <trkpt lat="47.33311" lon="-2.30502">
        <ele>-4</ele>
        <time>2022-08-04T08:58:17.000Z</time>
      </trkpt>
      <trkpt lat="47.33291" lon="-2.30507">
        <ele>-4</ele>
        <time>2022-08-04T08:58:23.000Z</time>
      </trkpt>
      <trkpt lat="47.33276" lon="-2.3051">
        <ele>-4</ele>
        <time>2022-08-04T08:58:27.000Z</time>
      </trkpt>
      <trkpt lat="47.3325" lon="-2.30516">
        <ele>-4</ele>
        <time>2022-08-04T08:58:33.000Z</time>
      </trkpt>
      <trkpt lat="47.33224" lon="-2.30523">
        <ele>-4</ele>
        <time>2022-08-04T08:58:39.000Z</time>
      </trkpt>
      <trkpt lat="47.3322" lon="-2.30525">
        <ele>-4</ele>
        <time>2022-08-04T08:58:40.000Z</time>
      </trkpt>
      <trkpt lat="47.3319" lon="-2.30536">
        <ele>-4</ele>
        <time>2022-08-04T08:58:46.000Z</time>
      </trkpt>
      <trkpt lat="47.33185" lon="-2.30539">
        <ele>-4</ele>
        <time>2022-08-04T08:58:47.000Z</time>
      </trkpt>
      <trkpt lat="47.3317" lon="-2.30546">
        <ele>-4</ele>
        <time>2022-08-04T08:58:50.000Z</time>
      </trkpt>
      <trkpt lat="47.33165" lon="-2.30548">
        <ele>-4</ele>
        <time>2022-08-04T08:58:51.000Z</time>
      </trkpt>
      <trkpt lat="47.33146" lon="-2.30556">
        <ele>-4</ele>
        <time>2022-08-04T08:58:55.000Z</time>
      </trkpt>
      <trkpt lat="47.33141" lon="-2.30558">
        <ele>-4</ele>
        <time>2022-08-04T08:58:56.000Z</time>
      </trkpt>
      <trkpt lat="47.33113" lon="-2.30572">
        <ele>-4</ele>
        <time>2022-08-04T08:59:02.000Z</time>
      </trkpt>
      <trkpt lat="47.33109" lon="-2.30575">
        <ele>-4</ele>
        <time>2022-08-04T08:59:03.000Z</time>
      </trkpt>
      <trkpt lat="47.33103" lon="-2.30585">
        <ele>-4</ele>
        <time>2022-08-04T08:59:05.000Z</time>
      </trkpt>
      <trkpt lat="47.33099" lon="-2.30599">
        <ele>-4</ele>
        <time>2022-08-04T08:59:07.000Z</time>
      </trkpt>
      <trkpt lat="47.33097" lon="-2.30606">
        <ele>-4</ele>
        <time>2022-08-04T08:59:08.000Z</time>
      </trkpt>
      <trkpt lat="47.33095" lon="-2.30614">
        <ele>-4</ele>
        <time>2022-08-04T08:59:09.000Z</time>
      </trkpt>
      <trkpt lat="47.33094" lon="-2.30621">
        <ele>-4</ele>
        <time>2022-08-04T08:59:10.000Z</time>
      </trkpt>
      <trkpt lat="47.33087" lon="-2.30657">
        <ele>-4</ele>
        <time>2022-08-04T08:59:15.000Z</time>
      </trkpt>
      <trkpt lat="47.33078" lon="-2.307">
        <ele>-4</ele>
        <time>2022-08-04T08:59:21.000Z</time>
      </trkpt>
      <trkpt lat="47.33068" lon="-2.30735">
        <ele>-4</ele>
        <time>2022-08-04T08:59:26.000Z</time>
      </trkpt>
      <trkpt lat="47.33067" lon="-2.30743">
        <ele>-4</ele>
        <time>2022-08-04T08:59:27.000Z</time>
      </trkpt>
      <trkpt lat="47.3306" lon="-2.30784">
        <ele>-4</ele>
        <time>2022-08-04T08:59:32.000Z</time>
      </trkpt>
      <trkpt lat="47.33055" lon="-2.30799">
        <ele>-4</ele>
        <time>2022-08-04T08:59:34.000Z</time>
      </trkpt>
      <trkpt lat="47.33052" lon="-2.30805">
        <ele>-4</ele>
        <time>2022-08-04T08:59:35.000Z</time>
      </trkpt>
      <trkpt lat="47.33041" lon="-2.30809">
        <ele>-4</ele>
        <time>2022-08-04T08:59:37.000Z</time>
      </trkpt>
      <trkpt lat="47.3303" lon="-2.30809">
        <ele>-4</ele>
        <time>2022-08-04T08:59:39.000Z</time>
      </trkpt>
      <trkpt lat="47.33019" lon="-2.30809">
        <ele>-4</ele>
        <time>2022-08-04T08:59:41.000Z</time>
      </trkpt>
      <trkpt lat="47.33009" lon="-2.30808">
        <ele>-3.5999999046326</ele>
        <time>2022-08-04T08:59:43.000Z</time>
      </trkpt>
      <trkpt lat="47.33003" lon="-2.30808">
        <ele>-3.2000000476837</ele>
        <time>2022-08-04T08:59:44.000Z</time>
      </trkpt>
      <trkpt lat="47.32998" lon="-2.30808">
        <ele>-2.7999999523163</ele>
        <time>2022-08-04T08:59:45.000Z</time>
      </trkpt>
      <trkpt lat="47.32993" lon="-2.30808">
        <ele>-2.4000000953674</ele>
        <time>2022-08-04T08:59:46.000Z</time>
      </trkpt>
      <trkpt lat="47.32987" lon="-2.30808">
        <ele>-1.7999999523163</ele>
        <time>2022-08-04T08:59:47.000Z</time>
      </trkpt>
      <trkpt lat="47.32952" lon="-2.30809">
        <ele>-1.7999999523163</ele>
        <time>2022-08-04T08:59:54.000Z</time>
      </trkpt>
      <trkpt lat="47.32937" lon="-2.3081">
        <ele>-1.7999999523163</ele>
        <time>2022-08-04T08:59:57.000Z</time>
      </trkpt>
      <trkpt lat="47.32928" lon="-2.3081">
        <ele>-1.7999999523163</ele>
        <time>2022-08-04T08:59:59.000Z</time>
      </trkpt>
      <trkpt lat="47.32923" lon="-2.30811">
        <ele>-1.7999999523163</ele>
        <time>2022-08-04T09:00:00.000Z</time>
      </trkpt>
      <trkpt lat="47.32919" lon="-2.30813">
        <ele>-1.3999999761581</ele>
        <time>2022-08-04T09:00:01.000Z</time>
      </trkpt>
      <trkpt lat="47.32915" lon="-2.30816">
        <ele>-1</ele>
        <time>2022-08-04T09:00:02.000Z</time>
      </trkpt>
      <trkpt lat="47.32913" lon="-2.30822">
        <ele>-0.60000002384186</ele>
        <time>2022-08-04T09:00:03.000Z</time>
      </trkpt>
      <trkpt lat="47.32911" lon="-2.30829">
        <ele>-0.20000000298023</ele>
        <time>2022-08-04T09:00:04.000Z</time>
      </trkpt>
      <trkpt lat="47.32911" lon="-2.30835">
        <ele>0.20000000298023</ele>
        <time>2022-08-04T09:00:05.000Z</time>
      </trkpt>
      <trkpt lat="47.3291" lon="-2.30843">
        <ele>0.20000000298023</ele>
        <time>2022-08-04T09:00:06.000Z</time>
      </trkpt>
      <trkpt lat="47.32909" lon="-2.3085">
        <ele>0.20000000298023</ele>
        <time>2022-08-04T09:00:07.000Z</time>
      </trkpt>
      <trkpt lat="47.32907" lon="-2.30887">
        <ele>0.20000000298023</ele>
        <time>2022-08-04T09:00:12.000Z</time>
      </trkpt>
      <trkpt lat="47.32903" lon="-2.30928">
        <ele>0.20000000298023</ele>
        <time>2022-08-04T09:00:18.000Z</time>
      </trkpt>
      <trkpt lat="47.32898" lon="-2.30971">
        <ele>0.20000000298023</ele>
        <time>2022-08-04T09:00:23.000Z</time>
      </trkpt>
      <trkpt lat="47.32894" lon="-2.31052">
        <ele>0.20000000298023</ele>
        <time>2022-08-04T09:00:32.000Z</time>
      </trkpt>
      <trkpt lat="47.32897" lon="-2.31088">
        <ele>0.20000000298023</ele>
        <time>2022-08-04T09:00:36.000Z</time>
      </trkpt>
      <trkpt lat="47.329" lon="-2.31107">
        <ele>0.20000000298023</ele>
        <time>2022-08-04T09:00:38.000Z</time>
      </trkpt>
      <trkpt lat="47.32915" lon="-2.31169">
        <ele>0.20000000298023</ele>
        <time>2022-08-04T09:00:45.000Z</time>
      </trkpt>
      <trkpt lat="47.32932" lon="-2.31234">
        <ele>0.20000000298023</ele>
        <time>2022-08-04T09:00:53.000Z</time>
      </trkpt>
      <trkpt lat="47.32937" lon="-2.31255">
        <ele>0.20000000298023</ele>
        <time>2022-08-04T09:00:56.000Z</time>
      </trkpt>
      <trkpt lat="47.32937" lon="-2.31268">
        <ele>0.20000000298023</ele>
        <time>2022-08-04T09:00:58.000Z</time>
      </trkpt>
      <trkpt lat="47.32927" lon="-2.31283">
        <ele>0.20000000298023</ele>
        <time>2022-08-04T09:01:01.000Z</time>
      </trkpt>
      <trkpt lat="47.32913" lon="-2.31295">
        <ele>0.20000000298023</ele>
        <time>2022-08-04T09:01:04.000Z</time>
      </trkpt>
      <trkpt lat="47.32908" lon="-2.31297">
        <ele>0.20000000298023</ele>
        <time>2022-08-04T09:01:05.000Z</time>
      </trkpt>
      <trkpt lat="47.32902" lon="-2.31299">
        <ele>0.20000000298023</ele>
        <time>2022-08-04T09:01:06.000Z</time>
      </trkpt>
      <trkpt lat="47.32868" lon="-2.31309">
        <ele>0.20000000298023</ele>
        <time>2022-08-04T09:01:12.000Z</time>
      </trkpt>
      <trkpt lat="47.32863" lon="-2.31312">
        <ele>0.20000000298023</ele>
        <time>2022-08-04T09:01:13.000Z</time>
      </trkpt>
      <trkpt lat="47.32849" lon="-2.31319">
        <ele>0.20000000298023</ele>
        <time>2022-08-04T09:01:16.000Z</time>
      </trkpt>
      <trkpt lat="47.32843" lon="-2.3133">
        <ele>0.20000000298023</ele>
        <time>2022-08-04T09:01:18.000Z</time>
      </trkpt>
      <trkpt lat="47.32839" lon="-2.31354">
        <ele>0.20000000298023</ele>
        <time>2022-08-04T09:01:21.000Z</time>
      </trkpt>
      <trkpt lat="47.32829" lon="-2.31373">
        <ele>0.20000000298023</ele>
        <time>2022-08-04T09:01:24.000Z</time>
      </trkpt>
      <trkpt lat="47.32815" lon="-2.31387">
        <ele>0.20000000298023</ele>
        <time>2022-08-04T09:01:27.000Z</time>
      </trkpt>
      <trkpt lat="47.32805" lon="-2.31395">
        <ele>0.20000000298023</ele>
        <time>2022-08-04T09:01:29.000Z</time>
      </trkpt>
      <trkpt lat="47.32772" lon="-2.31419">
        <ele>0.20000000298023</ele>
        <time>2022-08-04T09:01:36.000Z</time>
      </trkpt>
      <trkpt lat="47.32768" lon="-2.31423">
        <ele>0.60000002384186</ele>
        <time>2022-08-04T09:01:37.000Z</time>
      </trkpt>
      <trkpt lat="47.32764" lon="-2.31428">
        <ele>1</ele>
        <time>2022-08-04T09:01:38.000Z</time>
      </trkpt>
      <trkpt lat="47.32761" lon="-2.31433">
        <ele>1.3999999761581</ele>
        <time>2022-08-04T09:01:39.000Z</time>
      </trkpt>
      <trkpt lat="47.32757" lon="-2.3144">
        <ele>1.7999999523163</ele>
        <time>2022-08-04T09:01:40.000Z</time>
      </trkpt>
      <trkpt lat="47.32753" lon="-2.31446">
        <ele>2.4000000953674</ele>
        <time>2022-08-04T09:01:41.000Z</time>
      </trkpt>
      <trkpt lat="47.32729" lon="-2.31488">
        <ele>2.4000000953674</ele>
        <time>2022-08-04T09:01:48.000Z</time>
      </trkpt>
      <trkpt lat="47.32706" lon="-2.31511">
        <ele>2.4000000953674</ele>
        <time>2022-08-04T09:01:53.000Z</time>
      </trkpt>
      <trkpt lat="47.32676" lon="-2.31535">
        <ele>2.4000000953674</ele>
        <time>2022-08-04T09:01:59.000Z</time>
      </trkpt>
      <trkpt lat="47.32671" lon="-2.31537">
        <ele>2.4000000953674</ele>
        <time>2022-08-04T09:02:00.000Z</time>
      </trkpt>
      <trkpt lat="47.32661" lon="-2.31543">
        <ele>2.4000000953674</ele>
        <time>2022-08-04T09:02:02.000Z</time>
      </trkpt>
      <trkpt lat="47.32656" lon="-2.31545">
        <ele>2.7999999523163</ele>
        <time>2022-08-04T09:02:03.000Z</time>
      </trkpt>
      <trkpt lat="47.32651" lon="-2.31547">
        <ele>3.2000000476837</ele>
        <time>2022-08-04T09:02:04.000Z</time>
      </trkpt>
      <trkpt lat="47.32645" lon="-2.31549">
        <ele>3.5999999046326</ele>
        <time>2022-08-04T09:02:05.000Z</time>
      </trkpt>
      <trkpt lat="47.3264" lon="-2.31551">
        <ele>4</ele>
        <time>2022-08-04T09:02:06.000Z</time>
      </trkpt>
      <trkpt lat="47.32635" lon="-2.31554">
        <ele>4.4000000953674</ele>
        <time>2022-08-04T09:02:07.000Z</time>
      </trkpt>
      <trkpt lat="47.3263" lon="-2.31556">
        <ele>4.4000000953674</ele>
        <time>2022-08-04T09:02:08.000Z</time>
      </trkpt>
      <trkpt lat="47.32606" lon="-2.31568">
        <ele>4.4000000953674</ele>
        <time>2022-08-04T09:02:13.000Z</time>
      </trkpt>
      <trkpt lat="47.32601" lon="-2.3157">
        <ele>4.4000000953674</ele>
        <time>2022-08-04T09:02:14.000Z</time>
      </trkpt>
      <trkpt lat="47.32587" lon="-2.31576">
        <ele>4.4000000953674</ele>
        <time>2022-08-04T09:02:17.000Z</time>
      </trkpt>
      <trkpt lat="47.32577" lon="-2.3158">
        <ele>4.4000000953674</ele>
        <time>2022-08-04T09:02:19.000Z</time>
      </trkpt>
      <trkpt lat="47.32567" lon="-2.31583">
        <ele>4.4000000953674</ele>
        <time>2022-08-04T09:02:21.000Z</time>
      </trkpt>
      <trkpt lat="47.32558" lon="-2.31587">
        <ele>4.4000000953674</ele>
        <time>2022-08-04T09:02:23.000Z</time>
      </trkpt>
      <trkpt lat="47.32555" lon="-2.31592">
        <ele>4.4000000953674</ele>
        <time>2022-08-04T09:02:24.000Z</time>
      </trkpt>
      <trkpt lat="47.32544" lon="-2.31606">
        <ele>4.4000000953674</ele>
        <time>2022-08-04T09:02:27.000Z</time>
      </trkpt>
      <trkpt lat="47.32533" lon="-2.3162">
        <ele>4.4000000953674</ele>
        <time>2022-08-04T09:02:30.000Z</time>
      </trkpt>
      <trkpt lat="47.32522" lon="-2.31634">
        <ele>4.8000001907349</ele>
        <time>2022-08-04T09:02:33.000Z</time>
      </trkpt>
      <trkpt lat="47.32519" lon="-2.31638">
        <ele>5.1999998092651</ele>
        <time>2022-08-04T09:02:34.000Z</time>
      </trkpt>
      <trkpt lat="47.32515" lon="-2.31642">
        <ele>5.5999999046326</ele>
        <time>2022-08-04T09:02:35.000Z</time>
      </trkpt>
      <trkpt lat="47.32512" lon="-2.31647">
        <ele>6</ele>
        <time>2022-08-04T09:02:36.000Z</time>
      </trkpt>
      <trkpt lat="47.3251" lon="-2.31652">
        <ele>6.4000000953674</ele>
        <time>2022-08-04T09:02:37.000Z</time>
      </trkpt>
      <trkpt lat="47.32506" lon="-2.31672">
        <ele>6.4000000953674</ele>
        <time>2022-08-04T09:02:40.000Z</time>
      </trkpt>
      <trkpt lat="47.32506" lon="-2.31679">
        <ele>6.4000000953674</ele>
        <time>2022-08-04T09:02:41.000Z</time>
      </trkpt>
      <trkpt lat="47.32508" lon="-2.31709">
        <ele>6.4000000953674</ele>
        <time>2022-08-04T09:02:45.000Z</time>
      </trkpt>
      <trkpt lat="47.32509" lon="-2.31717">
        <ele>6.4000000953674</ele>
        <time>2022-08-04T09:02:46.000Z</time>
      </trkpt>
      <trkpt lat="47.32512" lon="-2.31747">
        <ele>6.4000000953674</ele>
        <time>2022-08-04T09:02:50.000Z</time>
      </trkpt>
      <trkpt lat="47.32515" lon="-2.31786">
        <ele>6.4000000953674</ele>
        <time>2022-08-04T09:02:55.000Z</time>
      </trkpt>
      <trkpt lat="47.32516" lon="-2.31795">
        <ele>6.4000000953674</ele>
        <time>2022-08-04T09:02:56.000Z</time>
      </trkpt>
      <trkpt lat="47.3252" lon="-2.31846">
        <ele>6.4000000953674</ele>
        <time>2022-08-04T09:03:02.000Z</time>
      </trkpt>
      <trkpt lat="47.32519" lon="-2.31855">
        <ele>6.4000000953674</ele>
        <time>2022-08-04T09:03:03.000Z</time>
      </trkpt>
      <trkpt lat="47.32517" lon="-2.31874">
        <ele>6.4000000953674</ele>
        <time>2022-08-04T09:03:05.000Z</time>
      </trkpt>
      <trkpt lat="47.32515" lon="-2.31893">
        <ele>6.4000000953674</ele>
        <time>2022-08-04T09:03:07.000Z</time>
      </trkpt>
      <trkpt lat="47.32508" lon="-2.31944">
        <ele>6.4000000953674</ele>
        <time>2022-08-04T09:03:13.000Z</time>
      </trkpt>
      <trkpt lat="47.32504" lon="-2.31986">
        <ele>6.4000000953674</ele>
        <time>2022-08-04T09:03:18.000Z</time>
      </trkpt>
      <trkpt lat="47.32504" lon="-2.31994">
        <ele>6.4000000953674</ele>
        <time>2022-08-04T09:03:19.000Z</time>
      </trkpt>
      <trkpt lat="47.32502" lon="-2.32041">
        <ele>6.4000000953674</ele>
        <time>2022-08-04T09:03:25.000Z</time>
      </trkpt>
      <trkpt lat="47.32502" lon="-2.32056">
        <ele>6.4000000953674</ele>
        <time>2022-08-04T09:03:27.000Z</time>
      </trkpt>
      <trkpt lat="47.32496" lon="-2.32086">
        <ele>6.4000000953674</ele>
        <time>2022-08-04T09:03:32.000Z</time>
      </trkpt>
      <trkpt lat="47.32489" lon="-2.32094">
        <ele>6.4000000953674</ele>
        <time>2022-08-04T09:03:34.000Z</time>
      </trkpt>
      <trkpt lat="47.32484" lon="-2.32097">
        <ele>6.4000000953674</ele>
        <time>2022-08-04T09:03:35.000Z</time>
      </trkpt>
      <trkpt lat="47.32456" lon="-2.321">
        <ele>6.4000000953674</ele>
        <time>2022-08-04T09:03:40.000Z</time>
      </trkpt>
      <trkpt lat="47.32438" lon="-2.32099">
        <ele>6</ele>
        <time>2022-08-04T09:03:43.000Z</time>
      </trkpt>
      <trkpt lat="47.32433" lon="-2.32099">
        <ele>5.5999999046326</ele>
        <time>2022-08-04T09:03:44.000Z</time>
      </trkpt>
      <trkpt lat="47.32428" lon="-2.32099">
        <ele>5.1999998092651</ele>
        <time>2022-08-04T09:03:45.000Z</time>
      </trkpt>
      <trkpt lat="47.32423" lon="-2.321">
        <ele>4.8000001907349</ele>
        <time>2022-08-04T09:03:46.000Z</time>
      </trkpt>
      <trkpt lat="47.32417" lon="-2.321">
        <ele>4.4000000953674</ele>
        <time>2022-08-04T09:03:47.000Z</time>
      </trkpt>
      <trkpt lat="47.3239" lon="-2.32103">
        <ele>4.4000000953674</ele>
        <time>2022-08-04T09:03:52.000Z</time>
      </trkpt>
      <trkpt lat="47.32354" lon="-2.32106">
        <ele>4.4000000953674</ele>
        <time>2022-08-04T09:03:59.000Z</time>
      </trkpt>
      <trkpt lat="47.32345" lon="-2.32104">
        <ele>4.4000000953674</ele>
        <time>2022-08-04T09:04:01.000Z</time>
      </trkpt>
      <trkpt lat="47.32325" lon="-2.32101">
        <ele>4.4000000953674</ele>
        <time>2022-08-04T09:04:05.000Z</time>
      </trkpt>
      <trkpt lat="47.32316" lon="-2.321">
        <ele>4.4000000953674</ele>
        <time>2022-08-04T09:04:07.000Z</time>
      </trkpt>
      <trkpt lat="47.323" lon="-2.321">
        <ele>4.4000000953674</ele>
        <time>2022-08-04T09:04:10.000Z</time>
      </trkpt>
      <trkpt lat="47.32268" lon="-2.32103">
        <ele>4.4000000953674</ele>
        <time>2022-08-04T09:04:16.000Z</time>
      </trkpt>
      <trkpt lat="47.32231" lon="-2.32108">
        <ele>4.4000000953674</ele>
        <time>2022-08-04T09:04:23.000Z</time>
      </trkpt>
      <trkpt lat="47.32203" lon="-2.32117">
        <ele>4.4000000953674</ele>
        <time>2022-08-04T09:04:29.000Z</time>
      </trkpt>
      <trkpt lat="47.32194" lon="-2.32121">
        <ele>4.4000000953674</ele>
        <time>2022-08-04T09:04:31.000Z</time>
      </trkpt>
      <trkpt lat="47.3218" lon="-2.32132">
        <ele>4.4000000953674</ele>
        <time>2022-08-04T09:04:34.000Z</time>
      </trkpt>
      <trkpt lat="47.32175" lon="-2.32136">
        <ele>4.4000000953674</ele>
        <time>2022-08-04T09:04:35.000Z</time>
      </trkpt>
      <trkpt lat="47.3215" lon="-2.32158">
        <ele>4.4000000953674</ele>
        <time>2022-08-04T09:04:40.000Z</time>
      </trkpt>
      <trkpt lat="47.3213" lon="-2.32175">
        <ele>4.4000000953674</ele>
        <time>2022-08-04T09:04:44.000Z</time>
      </trkpt>
      <trkpt lat="47.32124" lon="-2.32177">
        <ele>4.4000000953674</ele>
        <time>2022-08-04T09:04:45.000Z</time>
      </trkpt>
      <trkpt lat="47.32106" lon="-2.32181">
        <ele>4.4000000953674</ele>
        <time>2022-08-04T09:04:48.000Z</time>
      </trkpt>
      <trkpt lat="47.32095" lon="-2.32183">
        <ele>4.4000000953674</ele>
        <time>2022-08-04T09:04:50.000Z</time>
      </trkpt>
      <trkpt lat="47.32062" lon="-2.32187">
        <ele>4.4000000953674</ele>
        <time>2022-08-04T09:04:56.000Z</time>
      </trkpt>
      <trkpt lat="47.32021" lon="-2.32192">
        <ele>4.4000000953674</ele>
        <time>2022-08-04T09:05:04.000Z</time>
      </trkpt>
      <trkpt lat="47.32016" lon="-2.32194">
        <ele>4.4000000953674</ele>
        <time>2022-08-04T09:05:05.000Z</time>
      </trkpt>
      <trkpt lat="47.32003" lon="-2.32204">
        <ele>4.4000000953674</ele>
        <time>2022-08-04T09:05:08.000Z</time>
      </trkpt>
      <trkpt lat="47.31999" lon="-2.32206">
        <ele>4.4000000953674</ele>
        <time>2022-08-04T09:05:09.000Z</time>
      </trkpt>
      <trkpt lat="47.31973" lon="-2.32227">
        <ele>4.4000000953674</ele>
        <time>2022-08-04T09:05:15.000Z</time>
      </trkpt>
      <trkpt lat="47.31971" lon="-2.32233">
        <ele>4.8000001907349</ele>
        <time>2022-08-04T09:05:16.000Z</time>
      </trkpt>
      <trkpt lat="47.31969" lon="-2.32237">
        <ele>5.1999998092651</ele>
        <time>2022-08-04T09:05:17.000Z</time>
      </trkpt>
      <trkpt lat="47.31966" lon="-2.32241">
        <ele>5.5999999046326</ele>
        <time>2022-08-04T09:05:18.000Z</time>
      </trkpt>
      <trkpt lat="47.31965" lon="-2.32245">
        <ele>6</ele>
        <time>2022-08-04T09:05:19.000Z</time>
      </trkpt>
      <trkpt lat="47.31963" lon="-2.32249">
        <ele>6.4000000953674</ele>
        <time>2022-08-04T09:05:20.000Z</time>
      </trkpt>
      <trkpt lat="47.31959" lon="-2.32257">
        <ele>7</ele>
        <time>2022-08-04T09:05:22.000Z</time>
      </trkpt>
      <trkpt lat="47.31957" lon="-2.32261">
        <ele>7.4000000953674</ele>
        <time>2022-08-04T09:05:23.000Z</time>
      </trkpt>
      <trkpt lat="47.31953" lon="-2.32263">
        <ele>7.8000001907349</ele>
        <time>2022-08-04T09:05:24.000Z</time>
      </trkpt>
      <trkpt lat="47.3195" lon="-2.32262">
        <ele>8.1999998092651</ele>
        <time>2022-08-04T09:05:25.000Z</time>
      </trkpt>
      <trkpt lat="47.31948" lon="-2.32259">
        <ele>8.6000003814697</ele>
        <time>2022-08-04T09:05:26.000Z</time>
      </trkpt>
      <trkpt lat="47.31949" lon="-2.32249">
        <ele>9</ele>
        <time>2022-08-04T09:05:28.000Z</time>
      </trkpt>
      <trkpt lat="47.31951" lon="-2.32244">
        <ele>9.6000003814697</ele>
        <time>2022-08-04T09:05:29.000Z</time>
      </trkpt>
      <trkpt lat="47.31952" lon="-2.32239">
        <ele>10</ele>
        <time>2022-08-04T09:05:30.000Z</time>
      </trkpt>
      <trkpt lat="47.31954" lon="-2.32234">
        <ele>10.60000038147</ele>
        <time>2022-08-04T09:05:31.000Z</time>
      </trkpt>
      <trkpt lat="47.31956" lon="-2.3223">
        <ele>11</ele>
        <time>2022-08-04T09:05:32.000Z</time>
      </trkpt>
      <trkpt lat="47.31957" lon="-2.32219">
        <ele>11</ele>
        <time>2022-08-04T09:05:34.000Z</time>
      </trkpt>
      <trkpt lat="47.31946" lon="-2.32212">
        <ele>11</ele>
        <time>2022-08-04T09:05:37.000Z</time>
      </trkpt>
      <trkpt lat="47.31942" lon="-2.32211">
        <ele>11</ele>
        <time>2022-08-04T09:05:38.000Z</time>
      </trkpt>
      <trkpt lat="47.31931" lon="-2.32208">
        <ele>11.39999961853</ele>
        <time>2022-08-04T09:05:41.000Z</time>
      </trkpt>
      <trkpt lat="47.31927" lon="-2.32207">
        <ele>11.800000190735</ele>
        <time>2022-08-04T09:05:42.000Z</time>
      </trkpt>
      <trkpt lat="47.31923" lon="-2.32206">
        <ele>12.39999961853</ele>
        <time>2022-08-04T09:05:43.000Z</time>
      </trkpt>
      <trkpt lat="47.31919" lon="-2.32205">
        <ele>12.800000190735</ele>
        <time>2022-08-04T09:05:44.000Z</time>
      </trkpt>
      <trkpt lat="47.31915" lon="-2.32204">
        <ele>13.199999809265</ele>
        <time>2022-08-04T09:05:45.000Z</time>
      </trkpt>
      <trkpt lat="47.31906" lon="-2.32204">
        <ele>13.199999809265</ele>
        <time>2022-08-04T09:05:47.000Z</time>
      </trkpt>
      <trkpt lat="47.31903" lon="-2.32205">
        <ele>13.60000038147</ele>
        <time>2022-08-04T09:05:48.000Z</time>
      </trkpt>
      <trkpt lat="47.31899" lon="-2.32206">
        <ele>14.199999809265</ele>
        <time>2022-08-04T09:05:49.000Z</time>
      </trkpt>
      <trkpt lat="47.31896" lon="-2.32208">
        <ele>14.60000038147</ele>
        <time>2022-08-04T09:05:50.000Z</time>
      </trkpt>
      <trkpt lat="47.31893" lon="-2.32209">
        <ele>15</ele>
        <time>2022-08-04T09:05:51.000Z</time>
      </trkpt>
      <trkpt lat="47.3189" lon="-2.3221">
        <ele>15.60000038147</ele>
        <time>2022-08-04T09:05:52.000Z</time>
      </trkpt>
      <trkpt lat="47.31881" lon="-2.32211">
        <ele>15.60000038147</ele>
        <time>2022-08-04T09:05:54.000Z</time>
      </trkpt>
      <trkpt lat="47.3187" lon="-2.32214">
        <ele>16</ele>
        <time>2022-08-04T09:05:57.000Z</time>
      </trkpt>
      <trkpt lat="47.31867" lon="-2.32215">
        <ele>16.39999961853</ele>
        <time>2022-08-04T09:05:58.000Z</time>
      </trkpt>
      <trkpt lat="47.31863" lon="-2.32216">
        <ele>17.200000762939</ele>
        <time>2022-08-04T09:05:59.000Z</time>
      </trkpt>
      <trkpt lat="47.3186" lon="-2.32218">
        <ele>17.60000038147</ele>
        <time>2022-08-04T09:06:00.000Z</time>
      </trkpt>
      <trkpt lat="47.31847" lon="-2.32224">
        <ele>18</ele>
        <time>2022-08-04T09:06:04.000Z</time>
      </trkpt>
      <trkpt lat="47.31844" lon="-2.32225">
        <ele>18.39999961853</ele>
        <time>2022-08-04T09:06:05.000Z</time>
      </trkpt>
      <trkpt lat="47.3184" lon="-2.32225">
        <ele>18.799999237061</ele>
        <time>2022-08-04T09:06:06.000Z</time>
      </trkpt>
      <trkpt lat="47.31836" lon="-2.32226">
        <ele>19.39999961853</ele>
        <time>2022-08-04T09:06:07.000Z</time>
      </trkpt>
      <trkpt lat="47.31834" lon="-2.32227">
        <ele>19.799999237061</ele>
        <time>2022-08-04T09:06:08.000Z</time>
      </trkpt>
      <trkpt lat="47.31824" lon="-2.32228">
        <ele>19.799999237061</ele>
        <time>2022-08-04T09:06:11.000Z</time>
      </trkpt>
      <trkpt lat="47.31817" lon="-2.32229">
        <ele>20.200000762939</ele>
        <time>2022-08-04T09:06:13.000Z</time>
      </trkpt>
      <trkpt lat="47.31814" lon="-2.3223">
        <ele>20.60000038147</ele>
        <time>2022-08-04T09:06:14.000Z</time>
      </trkpt>
      <trkpt lat="47.31811" lon="-2.3223">
        <ele>21</ele>
        <time>2022-08-04T09:06:15.000Z</time>
      </trkpt>
      <trkpt lat="47.31807" lon="-2.32231">
        <ele>21.39999961853</ele>
        <time>2022-08-04T09:06:16.000Z</time>
      </trkpt>
      <trkpt lat="47.31803" lon="-2.32231">
        <ele>21.799999237061</ele>
        <time>2022-08-04T09:06:17.000Z</time>
      </trkpt>
      <trkpt lat="47.31792" lon="-2.32233">
        <ele>21.799999237061</ele>
        <time>2022-08-04T09:06:20.000Z</time>
      </trkpt>
      <trkpt lat="47.31771" lon="-2.32234">
        <ele>21.799999237061</ele>
        <time>2022-08-04T09:06:26.000Z</time>
      </trkpt>
      <trkpt lat="47.31757" lon="-2.32235">
        <ele>22.200000762939</ele>
        <time>2022-08-04T09:06:32.000Z</time>
      </trkpt>
      <trkpt lat="47.31756" lon="-2.32236">
        <ele>22.60000038147</ele>
        <time>2022-08-04T09:06:33.000Z</time>
      </trkpt>
      <trkpt lat="47.31755" lon="-2.32237">
        <ele>23</ele>
        <time>2022-08-04T09:06:34.000Z</time>
      </trkpt>
      <trkpt lat="47.31754" lon="-2.3224">
        <ele>23.39999961853</ele>
        <time>2022-08-04T09:06:35.000Z</time>
      </trkpt>
      <trkpt lat="47.31754" lon="-2.32244">
        <ele>23.799999237061</ele>
        <time>2022-08-04T09:06:36.000Z</time>
      </trkpt>
      <trkpt lat="47.31754" lon="-2.32248">
        <ele>23.799999237061</ele>
        <time>2022-08-04T09:06:37.000Z</time>
      </trkpt>
      <trkpt lat="47.31758" lon="-2.3226">
        <ele>23.799999237061</ele>
        <time>2022-08-04T09:06:41.000Z</time>
      </trkpt>
      <trkpt lat="47.31758" lon="-2.32263">
        <ele>23.799999237061</ele>
        <time>2022-08-04T09:06:42.000Z</time>
      </trkpt>
      <trkpt lat="47.31762" lon="-2.32285">
        <ele>23.799999237061</ele>
        <time>2022-08-04T09:06:49.000Z</time>
      </trkpt>
      <trkpt lat="47.31768" lon="-2.32312">
        <ele>23.799999237061</ele>
        <time>2022-08-04T09:06:56.000Z</time>
      </trkpt>
      <trkpt lat="47.31774" lon="-2.32342">
        <ele>23.799999237061</ele>
        <time>2022-08-04T09:07:01.000Z</time>
      </trkpt>
      <trkpt lat="47.31778" lon="-2.32373">
        <ele>23.39999961853</ele>
        <time>2022-08-04T09:07:05.000Z</time>
      </trkpt>
      <trkpt lat="47.31779" lon="-2.32381">
        <ele>23</ele>
        <time>2022-08-04T09:07:06.000Z</time>
      </trkpt>
      <trkpt lat="47.3178" lon="-2.32389">
        <ele>22.60000038147</ele>
        <time>2022-08-04T09:07:07.000Z</time>
      </trkpt>
      <trkpt lat="47.31782" lon="-2.32398">
        <ele>22.200000762939</ele>
        <time>2022-08-04T09:07:08.000Z</time>
      </trkpt>
      <trkpt lat="47.31784" lon="-2.32406">
        <ele>21.799999237061</ele>
        <time>2022-08-04T09:07:09.000Z</time>
      </trkpt>
      <trkpt lat="47.31785" lon="-2.32415">
        <ele>21.799999237061</ele>
        <time>2022-08-04T09:07:10.000Z</time>
      </trkpt>
      <trkpt lat="47.31787" lon="-2.32424">
        <ele>21.799999237061</ele>
        <time>2022-08-04T09:07:11.000Z</time>
      </trkpt>
      <trkpt lat="47.3179" lon="-2.32451">
        <ele>21.799999237061</ele>
        <time>2022-08-04T09:07:14.000Z</time>
      </trkpt>
      <trkpt lat="47.31792" lon="-2.32459">
        <ele>21.39999961853</ele>
        <time>2022-08-04T09:07:15.000Z</time>
      </trkpt>
      <trkpt lat="47.31795" lon="-2.32465">
        <ele>21</ele>
        <time>2022-08-04T09:07:16.000Z</time>
      </trkpt>
      <trkpt lat="47.31798" lon="-2.32474">
        <ele>20.39999961853</ele>
        <time>2022-08-04T09:07:17.000Z</time>
      </trkpt>
      <trkpt lat="47.31801" lon="-2.32484">
        <ele>20</ele>
        <time>2022-08-04T09:07:18.000Z</time>
      </trkpt>
      <trkpt lat="47.31804" lon="-2.32493">
        <ele>19.39999961853</ele>
        <time>2022-08-04T09:07:19.000Z</time>
      </trkpt>
      <trkpt lat="47.31806" lon="-2.32503">
        <ele>18.799999237061</ele>
        <time>2022-08-04T09:07:20.000Z</time>
      </trkpt>
      <trkpt lat="47.31809" lon="-2.32514">
        <ele>18.200000762939</ele>
        <time>2022-08-04T09:07:21.000Z</time>
      </trkpt>
      <trkpt lat="47.3181" lon="-2.32524">
        <ele>17.60000038147</ele>
        <time>2022-08-04T09:07:22.000Z</time>
      </trkpt>
      <trkpt lat="47.31812" lon="-2.32532">
        <ele>17.200000762939</ele>
        <time>2022-08-04T09:07:23.000Z</time>
      </trkpt>
      <trkpt lat="47.31817" lon="-2.32554">
        <ele>17.200000762939</ele>
        <time>2022-08-04T09:07:25.000Z</time>
      </trkpt>
      <trkpt lat="47.3182" lon="-2.32565">
        <ele>16.799999237061</ele>
        <time>2022-08-04T09:07:26.000Z</time>
      </trkpt>
      <trkpt lat="47.31822" lon="-2.32577">
        <ele>16.200000762939</ele>
        <time>2022-08-04T09:07:27.000Z</time>
      </trkpt>
      <trkpt lat="47.31824" lon="-2.32588">
        <ele>15.800000190735</ele>
        <time>2022-08-04T09:07:28.000Z</time>
      </trkpt>
      <trkpt lat="47.31827" lon="-2.32599">
        <ele>15.39999961853</ele>
        <time>2022-08-04T09:07:29.000Z</time>
      </trkpt>
      <trkpt lat="47.31829" lon="-2.3261">
        <ele>15</ele>
        <time>2022-08-04T09:07:30.000Z</time>
      </trkpt>
      <trkpt lat="47.31843" lon="-2.3266">
        <ele>14.60000038147</ele>
        <time>2022-08-04T09:07:35.000Z</time>
      </trkpt>
      <trkpt lat="47.31847" lon="-2.3267">
        <ele>14.199999809265</ele>
        <time>2022-08-04T09:07:36.000Z</time>
      </trkpt>
      <trkpt lat="47.31851" lon="-2.32678">
        <ele>13.800000190735</ele>
        <time>2022-08-04T09:07:37.000Z</time>
      </trkpt>
      <trkpt lat="47.31854" lon="-2.32688">
        <ele>12.800000190735</ele>
        <time>2022-08-04T09:07:38.000Z</time>
      </trkpt>
      <trkpt lat="47.31864" lon="-2.32713">
        <ele>12.800000190735</ele>
        <time>2022-08-04T09:07:41.000Z</time>
      </trkpt>
      <trkpt lat="47.31875" lon="-2.3275">
        <ele>12.800000190735</ele>
        <time>2022-08-04T09:07:45.000Z</time>
      </trkpt>
      <trkpt lat="47.31877" lon="-2.32761">
        <ele>12.800000190735</ele>
        <time>2022-08-04T09:07:46.000Z</time>
      </trkpt>
      <trkpt lat="47.31878" lon="-2.32769">
        <ele>12.39999961853</ele>
        <time>2022-08-04T09:07:47.000Z</time>
      </trkpt>
      <trkpt lat="47.31879" lon="-2.32778">
        <ele>12</ele>
        <time>2022-08-04T09:07:48.000Z</time>
      </trkpt>
      <trkpt lat="47.31879" lon="-2.32787">
        <ele>11.60000038147</ele>
        <time>2022-08-04T09:07:49.000Z</time>
      </trkpt>
      <trkpt lat="47.31881" lon="-2.32799">
        <ele>11.199999809265</ele>
        <time>2022-08-04T09:07:50.000Z</time>
      </trkpt>
      <trkpt lat="47.31881" lon="-2.32811">
        <ele>10.800000190735</ele>
        <time>2022-08-04T09:07:51.000Z</time>
      </trkpt>
      <trkpt lat="47.31883" lon="-2.32848">
        <ele>10.800000190735</ele>
        <time>2022-08-04T09:07:54.000Z</time>
      </trkpt>
      <trkpt lat="47.31883" lon="-2.32903">
        <ele>10.800000190735</ele>
        <time>2022-08-04T09:07:59.000Z</time>
      </trkpt>
      <trkpt lat="47.31881" lon="-2.32966">
        <ele>10.800000190735</ele>
        <time>2022-08-04T09:08:05.000Z</time>
      </trkpt>
      <trkpt lat="47.31877" lon="-2.33009">
        <ele>10.800000190735</ele>
        <time>2022-08-04T09:08:09.000Z</time>
      </trkpt>
      <trkpt lat="47.31878" lon="-2.33019">
        <ele>10.800000190735</ele>
        <time>2022-08-04T09:08:10.000Z</time>
      </trkpt>
      <trkpt lat="47.31878" lon="-2.3303">
        <ele>10.800000190735</ele>
        <time>2022-08-04T09:08:11.000Z</time>
      </trkpt>
      <trkpt lat="47.31876" lon="-2.33069">
        <ele>10.800000190735</ele>
        <time>2022-08-04T09:08:15.000Z</time>
      </trkpt>
      <trkpt lat="47.31875" lon="-2.33087">
        <ele>10.800000190735</ele>
        <time>2022-08-04T09:08:17.000Z</time>
      </trkpt>
      <trkpt lat="47.31876" lon="-2.3311">
        <ele>10.800000190735</ele>
        <time>2022-08-04T09:08:20.000Z</time>
      </trkpt>
      <trkpt lat="47.31875" lon="-2.33122">
        <ele>10.800000190735</ele>
        <time>2022-08-04T09:08:22.000Z</time>
      </trkpt>
      <trkpt lat="47.31874" lon="-2.3313">
        <ele>10.800000190735</ele>
        <time>2022-08-04T09:08:23.000Z</time>
      </trkpt>
      <trkpt lat="47.31874" lon="-2.33142">
        <ele>10.800000190735</ele>
        <time>2022-08-04T09:08:25.000Z</time>
      </trkpt>
      <trkpt lat="47.31873" lon="-2.33156">
        <ele>10.800000190735</ele>
        <time>2022-08-04T09:08:27.000Z</time>
      </trkpt>
      <trkpt lat="47.31871" lon="-2.33176">
        <ele>11.199999809265</ele>
        <time>2022-08-04T09:08:30.000Z</time>
      </trkpt>
      <trkpt lat="47.31871" lon="-2.33184">
        <ele>11.60000038147</ele>
        <time>2022-08-04T09:08:31.000Z</time>
      </trkpt>
      <trkpt lat="47.3187" lon="-2.33191">
        <ele>12</ele>
        <time>2022-08-04T09:08:32.000Z</time>
      </trkpt>
      <trkpt lat="47.31869" lon="-2.33198">
        <ele>12.39999961853</ele>
        <time>2022-08-04T09:08:33.000Z</time>
      </trkpt>
      <trkpt lat="47.31868" lon="-2.33205">
        <ele>12.800000190735</ele>
        <time>2022-08-04T09:08:34.000Z</time>
      </trkpt>
      <trkpt lat="47.31859" lon="-2.33245">
        <ele>12.800000190735</ele>
        <time>2022-08-04T09:08:40.000Z</time>
      </trkpt>
      <trkpt lat="47.31843" lon="-2.33275">
        <ele>12.800000190735</ele>
        <time>2022-08-04T09:08:45.000Z</time>
      </trkpt>
      <trkpt lat="47.31839" lon="-2.3328">
        <ele>13.199999809265</ele>
        <time>2022-08-04T09:08:46.000Z</time>
      </trkpt>
      <trkpt lat="47.31836" lon="-2.33283">
        <ele>13.800000190735</ele>
        <time>2022-08-04T09:08:47.000Z</time>
      </trkpt>
      <trkpt lat="47.31833" lon="-2.33287">
        <ele>14.199999809265</ele>
        <time>2022-08-04T09:08:48.000Z</time>
      </trkpt>
      <trkpt lat="47.31831" lon="-2.33291">
        <ele>14.60000038147</ele>
        <time>2022-08-04T09:08:49.000Z</time>
      </trkpt>
      <trkpt lat="47.31826" lon="-2.33295">
        <ele>15</ele>
        <time>2022-08-04T09:08:50.000Z</time>
      </trkpt>
      <trkpt lat="47.31821" lon="-2.33302">
        <ele>15</ele>
        <time>2022-08-04T09:08:52.000Z</time>
      </trkpt>
      <trkpt lat="47.31818" lon="-2.33306">
        <ele>15.39999961853</ele>
        <time>2022-08-04T09:08:53.000Z</time>
      </trkpt>
      <trkpt lat="47.31815" lon="-2.33309">
        <ele>15.800000190735</ele>
        <time>2022-08-04T09:08:54.000Z</time>
      </trkpt>
      <trkpt lat="47.31811" lon="-2.33311">
        <ele>16.200000762939</ele>
        <time>2022-08-04T09:08:55.000Z</time>
      </trkpt>
      <trkpt lat="47.31808" lon="-2.33314">
        <ele>16.799999237061</ele>
        <time>2022-08-04T09:08:56.000Z</time>
      </trkpt>
      <trkpt lat="47.31806" lon="-2.33317">
        <ele>17.200000762939</ele>
        <time>2022-08-04T09:08:57.000Z</time>
      </trkpt>
      <trkpt lat="47.31794" lon="-2.33328">
        <ele>17.60000038147</ele>
        <time>2022-08-04T09:09:01.000Z</time>
      </trkpt>
      <trkpt lat="47.3179" lon="-2.33329">
        <ele>18</ele>
        <time>2022-08-04T09:09:02.000Z</time>
      </trkpt>
      <trkpt lat="47.31785" lon="-2.3333">
        <ele>18.39999961853</ele>
        <time>2022-08-04T09:09:03.000Z</time>
      </trkpt>
      <trkpt lat="47.31779" lon="-2.33327">
        <ele>18.799999237061</ele>
        <time>2022-08-04T09:09:04.000Z</time>
      </trkpt>
      <trkpt lat="47.31776" lon="-2.33326">
        <ele>19.200000762939</ele>
        <time>2022-08-04T09:09:05.000Z</time>
      </trkpt>
      <trkpt lat="47.31761" lon="-2.33306">
        <ele>19.799999237061</ele>
        <time>2022-08-04T09:09:11.000Z</time>
      </trkpt>
      <trkpt lat="47.31759" lon="-2.333">
        <ele>20.200000762939</ele>
        <time>2022-08-04T09:09:12.000Z</time>
      </trkpt>
      <trkpt lat="47.31756" lon="-2.33294">
        <ele>20.60000038147</ele>
        <time>2022-08-04T09:09:13.000Z</time>
      </trkpt>
      <trkpt lat="47.31754" lon="-2.33289">
        <ele>21</ele>
        <time>2022-08-04T09:09:14.000Z</time>
      </trkpt>
      <trkpt lat="47.31754" lon="-2.33283">
        <ele>21.39999961853</ele>
        <time>2022-08-04T09:09:15.000Z</time>
      </trkpt>
      <trkpt lat="47.31753" lon="-2.33278">
        <ele>21.39999961853</ele>
        <time>2022-08-04T09:09:16.000Z</time>
      </trkpt>
      <trkpt lat="47.31748" lon="-2.33265">
        <ele>21.39999961853</ele>
        <time>2022-08-04T09:09:19.000Z</time>
      </trkpt>
      <trkpt lat="47.31744" lon="-2.33263">
        <ele>21.39999961853</ele>
        <time>2022-08-04T09:09:20.000Z</time>
      </trkpt>
      <trkpt lat="47.31734" lon="-2.33264">
        <ele>21.39999961853</ele>
        <time>2022-08-04T09:09:23.000Z</time>
      </trkpt>
      <trkpt lat="47.31708" lon="-2.33265">
        <ele>21.799999237061</ele>
        <time>2022-08-04T09:09:29.000Z</time>
      </trkpt>
      <trkpt lat="47.31706" lon="-2.33266">
        <ele>22.200000762939</ele>
        <time>2022-08-04T09:09:30.000Z</time>
      </trkpt>
      <trkpt lat="47.31704" lon="-2.33266">
        <ele>22.60000038147</ele>
        <time>2022-08-04T09:09:31.000Z</time>
      </trkpt>
      <trkpt lat="47.317" lon="-2.33268">
        <ele>23</ele>
        <time>2022-08-04T09:09:32.000Z</time>
      </trkpt>
      <trkpt lat="47.31695" lon="-2.33268">
        <ele>23.60000038147</ele>
        <time>2022-08-04T09:09:33.000Z</time>
      </trkpt>
      <trkpt lat="47.31691" lon="-2.33269">
        <ele>23.60000038147</ele>
        <time>2022-08-04T09:09:34.000Z</time>
      </trkpt>
      <trkpt lat="47.31665" lon="-2.3328">
        <ele>24</ele>
        <time>2022-08-04T09:09:40.000Z</time>
      </trkpt>
      <trkpt lat="47.31661" lon="-2.33282">
        <ele>24.799999237061</ele>
        <time>2022-08-04T09:09:41.000Z</time>
      </trkpt>
      <trkpt lat="47.31655" lon="-2.33284">
        <ele>25.200000762939</ele>
        <time>2022-08-04T09:09:42.000Z</time>
      </trkpt>
      <trkpt lat="47.31651" lon="-2.33286">
        <ele>25.60000038147</ele>
        <time>2022-08-04T09:09:43.000Z</time>
      </trkpt>
      <trkpt lat="47.31637" lon="-2.33293">
        <ele>25.60000038147</ele>
        <time>2022-08-04T09:09:47.000Z</time>
      </trkpt>
      <trkpt lat="47.31611" lon="-2.33309">
        <ele>25.60000038147</ele>
        <time>2022-08-04T09:09:53.000Z</time>
      </trkpt>
      <trkpt lat="47.3158" lon="-2.33324">
        <ele>25.60000038147</ele>
        <time>2022-08-04T09:09:59.000Z</time>
      </trkpt>
      <trkpt lat="47.31566" lon="-2.33332">
        <ele>25.60000038147</ele>
        <time>2022-08-04T09:10:02.000Z</time>
      </trkpt>
      <trkpt lat="47.31531" lon="-2.3335">
        <ele>25.60000038147</ele>
        <time>2022-08-04T09:10:09.000Z</time>
      </trkpt>
      <trkpt lat="47.31507" lon="-2.33364">
        <ele>25.60000038147</ele>
        <time>2022-08-04T09:10:15.000Z</time>
      </trkpt>
      <trkpt lat="47.31499" lon="-2.33369">
        <ele>25.60000038147</ele>
        <time>2022-08-04T09:10:17.000Z</time>
      </trkpt>
      <trkpt lat="47.31488" lon="-2.33375">
        <ele>25.60000038147</ele>
        <time>2022-08-04T09:10:20.000Z</time>
      </trkpt>
      <trkpt lat="47.31485" lon="-2.33373">
        <ele>25.60000038147</ele>
        <time>2022-08-04T09:10:23.000Z</time>
      </trkpt>
      <trkpt lat="47.31485" lon="-2.33372">
        <ele>25.60000038147</ele>
        <time>2022-08-04T09:10:25.000Z</time>
      </trkpt>
      <trkpt lat="47.31482" lon="-2.3337">
        <ele>25.60000038147</ele>
        <time>2022-08-04T09:10:42.000Z</time>
      </trkpt>
      <trkpt lat="47.31479" lon="-2.33364">
        <ele>25.60000038147</ele>
        <time>2022-08-04T09:10:44.000Z</time>
      </trkpt>
      <trkpt lat="47.31469" lon="-2.33344">
        <ele>25.60000038147</ele>
        <time>2022-08-04T09:10:49.000Z</time>
      </trkpt>
      <trkpt lat="47.31459" lon="-2.33323">
        <ele>25.60000038147</ele>
        <time>2022-08-04T09:10:53.000Z</time>
      </trkpt>
      <trkpt lat="47.31456" lon="-2.33319">
        <ele>25.60000038147</ele>
        <time>2022-08-04T09:10:54.000Z</time>
      </trkpt>
      <trkpt lat="47.31447" lon="-2.33304">
        <ele>25.60000038147</ele>
        <time>2022-08-04T09:10:57.000Z</time>
      </trkpt>
      <trkpt lat="47.31443" lon="-2.33299">
        <ele>25.60000038147</ele>
        <time>2022-08-04T09:10:58.000Z</time>
      </trkpt>
      <trkpt lat="47.31432" lon="-2.33286">
        <ele>25.60000038147</ele>
        <time>2022-08-04T09:11:01.000Z</time>
      </trkpt>
      <trkpt lat="47.31422" lon="-2.33279">
        <ele>25.60000038147</ele>
        <time>2022-08-04T09:11:03.000Z</time>
      </trkpt>
      <trkpt lat="47.31389" lon="-2.33251">
        <ele>25.60000038147</ele>
        <time>2022-08-04T09:11:10.000Z</time>
      </trkpt>
      <trkpt lat="47.31351" lon="-2.33225">
        <ele>25.60000038147</ele>
        <time>2022-08-04T09:11:18.000Z</time>
      </trkpt>
      <trkpt lat="47.31318" lon="-2.33194">
        <ele>25.60000038147</ele>
        <time>2022-08-04T09:11:25.000Z</time>
      </trkpt>
      <trkpt lat="47.31301" lon="-2.33177">
        <ele>25.200000762939</ele>
        <time>2022-08-04T09:11:29.000Z</time>
      </trkpt>
      <trkpt lat="47.31298" lon="-2.33174">
        <ele>24.799999237061</ele>
        <time>2022-08-04T09:11:30.000Z</time>
      </trkpt>
      <trkpt lat="47.31294" lon="-2.33173">
        <ele>24.39999961853</ele>
        <time>2022-08-04T09:11:31.000Z</time>
      </trkpt>
      <trkpt lat="47.31291" lon="-2.33171">
        <ele>23.799999237061</ele>
        <time>2022-08-04T09:11:32.000Z</time>
      </trkpt>
      <trkpt lat="47.31288" lon="-2.3317">
        <ele>23.39999961853</ele>
        <time>2022-08-04T09:11:33.000Z</time>
      </trkpt>
      <trkpt lat="47.31284" lon="-2.33168">
        <ele>23.39999961853</ele>
        <time>2022-08-04T09:11:34.000Z</time>
      </trkpt>
      <trkpt lat="47.3126" lon="-2.33156">
        <ele>23.39999961853</ele>
        <time>2022-08-04T09:11:40.000Z</time>
      </trkpt>
      <trkpt lat="47.31247" lon="-2.33152">
        <ele>23.39999961853</ele>
        <time>2022-08-04T09:11:43.000Z</time>
      </trkpt>
      <trkpt lat="47.31238" lon="-2.3315">
        <ele>23.39999961853</ele>
        <time>2022-08-04T09:11:45.000Z</time>
      </trkpt>
      <trkpt lat="47.31234" lon="-2.33147">
        <ele>23.39999961853</ele>
        <time>2022-08-04T09:11:46.000Z</time>
      </trkpt>
      <trkpt lat="47.3123" lon="-2.33132">
        <ele>23.39999961853</ele>
        <time>2022-08-04T09:11:49.000Z</time>
      </trkpt>
      <trkpt lat="47.31235" lon="-2.33122">
        <ele>23.39999961853</ele>
        <time>2022-08-04T09:11:51.000Z</time>
      </trkpt>
      <trkpt lat="47.31237" lon="-2.33115">
        <ele>23.39999961853</ele>
        <time>2022-08-04T09:11:52.000Z</time>
      </trkpt>
      <trkpt lat="47.31254" lon="-2.33077">
        <ele>23.39999961853</ele>
        <time>2022-08-04T09:11:58.000Z</time>
      </trkpt>
      <trkpt lat="47.31268" lon="-2.3305">
        <ele>23.39999961853</ele>
        <time>2022-08-04T09:12:03.000Z</time>
      </trkpt>
      <trkpt lat="47.31285" lon="-2.33024">
        <ele>23.39999961853</ele>
        <time>2022-08-04T09:12:07.000Z</time>
      </trkpt>
      <trkpt lat="47.31302" lon="-2.32996">
        <ele>23.39999961853</ele>
        <time>2022-08-04T09:12:11.000Z</time>
      </trkpt>
      <trkpt lat="47.3131" lon="-2.32981">
        <ele>23.39999961853</ele>
        <time>2022-08-04T09:12:13.000Z</time>
      </trkpt>
      <trkpt lat="47.31336" lon="-2.32932">
        <ele>23.39999961853</ele>
        <time>2022-08-04T09:12:20.000Z</time>
      </trkpt>
      <trkpt lat="47.31346" lon="-2.32905">
        <ele>23.39999961853</ele>
        <time>2022-08-04T09:12:24.000Z</time>
      </trkpt>
      <trkpt lat="47.31341" lon="-2.32885">
        <ele>23.39999961853</ele>
        <time>2022-08-04T09:12:27.000Z</time>
      </trkpt>
      <trkpt lat="47.31337" lon="-2.32879">
        <ele>23.39999961853</ele>
        <time>2022-08-04T09:12:28.000Z</time>
      </trkpt>
      <trkpt lat="47.31333" lon="-2.32873">
        <ele>23.39999961853</ele>
        <time>2022-08-04T09:12:29.000Z</time>
      </trkpt>
      <trkpt lat="47.3132" lon="-2.32856">
        <ele>23.39999961853</ele>
        <time>2022-08-04T09:12:32.000Z</time>
      </trkpt>
      <trkpt lat="47.31302" lon="-2.32824">
        <ele>23.39999961853</ele>
        <time>2022-08-04T09:12:37.000Z</time>
      </trkpt>
      <trkpt lat="47.31295" lon="-2.32813">
        <ele>23.39999961853</ele>
        <time>2022-08-04T09:12:39.000Z</time>
      </trkpt>
      <trkpt lat="47.31288" lon="-2.328">
        <ele>23.39999961853</ele>
        <time>2022-08-04T09:12:41.000Z</time>
      </trkpt>
      <trkpt lat="47.31271" lon="-2.32778">
        <ele>23.39999961853</ele>
        <time>2022-08-04T09:12:45.000Z</time>
      </trkpt>
      <trkpt lat="47.31266" lon="-2.32774">
        <ele>23.39999961853</ele>
        <time>2022-08-04T09:12:46.000Z</time>
      </trkpt>
      <trkpt lat="47.31249" lon="-2.32764">
        <ele>23.39999961853</ele>
        <time>2022-08-04T09:12:49.000Z</time>
      </trkpt>
      <trkpt lat="47.31244" lon="-2.32761">
        <ele>23.39999961853</ele>
        <time>2022-08-04T09:12:50.000Z</time>
      </trkpt>
      <trkpt lat="47.31222" lon="-2.32744">
        <ele>23.39999961853</ele>
        <time>2022-08-04T09:12:55.000Z</time>
      </trkpt>
      <trkpt lat="47.31213" lon="-2.32736">
        <ele>23.39999961853</ele>
        <time>2022-08-04T09:12:57.000Z</time>
      </trkpt>
      <trkpt lat="47.31208" lon="-2.32726">
        <ele>23.39999961853</ele>
        <time>2022-08-04T09:12:59.000Z</time>
      </trkpt>
      <trkpt lat="47.312" lon="-2.32697">
        <ele>23.39999961853</ele>
        <time>2022-08-04T09:13:03.000Z</time>
      </trkpt>
      <trkpt lat="47.31186" lon="-2.32656">
        <ele>23.39999961853</ele>
        <time>2022-08-04T09:13:08.000Z</time>
      </trkpt>
      <trkpt lat="47.31177" lon="-2.32619">
        <ele>23.39999961853</ele>
        <time>2022-08-04T09:13:12.000Z</time>
      </trkpt>
      <trkpt lat="47.31177" lon="-2.32608">
        <ele>23.39999961853</ele>
        <time>2022-08-04T09:13:13.000Z</time>
      </trkpt>
      <trkpt lat="47.31175" lon="-2.32538">
        <ele>23.39999961853</ele>
        <time>2022-08-04T09:13:20.000Z</time>
      </trkpt>
      <trkpt lat="47.31175" lon="-2.32517">
        <ele>23</ele>
        <time>2022-08-04T09:13:22.000Z</time>
      </trkpt>
      <trkpt lat="47.31175" lon="-2.32507">
        <ele>22.200000762939</ele>
        <time>2022-08-04T09:13:23.000Z</time>
      </trkpt>
      <trkpt lat="47.31175" lon="-2.32497">
        <ele>21.799999237061</ele>
        <time>2022-08-04T09:13:24.000Z</time>
      </trkpt>
      <trkpt lat="47.31176" lon="-2.32487">
        <ele>21.39999961853</ele>
        <time>2022-08-04T09:13:25.000Z</time>
      </trkpt>
      <trkpt lat="47.31176" lon="-2.32468">
        <ele>21.39999961853</ele>
        <time>2022-08-04T09:13:27.000Z</time>
      </trkpt>
      <trkpt lat="47.31176" lon="-2.32445">
        <ele>21.39999961853</ele>
        <time>2022-08-04T09:13:30.000Z</time>
      </trkpt>
      <trkpt lat="47.31173" lon="-2.32438">
        <ele>21.39999961853</ele>
        <time>2022-08-04T09:13:31.000Z</time>
      </trkpt>
      <trkpt lat="47.31163" lon="-2.32427">
        <ele>21.39999961853</ele>
        <time>2022-08-04T09:13:34.000Z</time>
      </trkpt>
      <trkpt lat="47.31152" lon="-2.32423">
        <ele>21.39999961853</ele>
        <time>2022-08-04T09:13:37.000Z</time>
      </trkpt>
      <trkpt lat="47.31148" lon="-2.32409">
        <ele>21.39999961853</ele>
        <time>2022-08-04T09:13:40.000Z</time>
      </trkpt>
      <trkpt lat="47.31147" lon="-2.32388">
        <ele>21.39999961853</ele>
        <time>2022-08-04T09:13:43.000Z</time>
      </trkpt>
      <trkpt lat="47.31146" lon="-2.3238">
        <ele>21.39999961853</ele>
        <time>2022-08-04T09:13:44.000Z</time>
      </trkpt>
      <trkpt lat="47.31144" lon="-2.32352">
        <ele>21.39999961853</ele>
        <time>2022-08-04T09:13:47.000Z</time>
      </trkpt>
      <trkpt lat="47.31142" lon="-2.32342">
        <ele>21</ele>
        <time>2022-08-04T09:13:48.000Z</time>
      </trkpt>
      <trkpt lat="47.3114" lon="-2.32333">
        <ele>20.60000038147</ele>
        <time>2022-08-04T09:13:49.000Z</time>
      </trkpt>
      <trkpt lat="47.31138" lon="-2.32324">
        <ele>20</ele>
        <time>2022-08-04T09:13:50.000Z</time>
      </trkpt>
      <trkpt lat="47.31135" lon="-2.32315">
        <ele>19.60000038147</ele>
        <time>2022-08-04T09:13:51.000Z</time>
      </trkpt>
      <trkpt lat="47.31132" lon="-2.32306">
        <ele>19.200000762939</ele>
        <time>2022-08-04T09:13:52.000Z</time>
      </trkpt>
      <trkpt lat="47.31129" lon="-2.32298">
        <ele>19.200000762939</ele>
        <time>2022-08-04T09:13:53.000Z</time>
      </trkpt>
      <trkpt lat="47.31125" lon="-2.32291">
        <ele>19.200000762939</ele>
        <time>2022-08-04T09:13:54.000Z</time>
      </trkpt>
      <trkpt lat="47.31117" lon="-2.32274">
        <ele>18.60000038147</ele>
        <time>2022-08-04T09:13:56.000Z</time>
      </trkpt>
      <trkpt lat="47.31113" lon="-2.32266">
        <ele>18.200000762939</ele>
        <time>2022-08-04T09:13:57.000Z</time>
      </trkpt>
      <trkpt lat="47.31108" lon="-2.32257">
        <ele>17.799999237061</ele>
        <time>2022-08-04T09:13:58.000Z</time>
      </trkpt>
      <trkpt lat="47.31104" lon="-2.32247">
        <ele>17.39999961853</ele>
        <time>2022-08-04T09:13:59.000Z</time>
      </trkpt>
      <trkpt lat="47.31101" lon="-2.32238">
        <ele>17</ele>
        <time>2022-08-04T09:14:00.000Z</time>
      </trkpt>
      <trkpt lat="47.31086" lon="-2.32198">
        <ele>16.39999961853</ele>
        <time>2022-08-04T09:14:04.000Z</time>
      </trkpt>
      <trkpt lat="47.31082" lon="-2.32189">
        <ele>16</ele>
        <time>2022-08-04T09:14:05.000Z</time>
      </trkpt>
      <trkpt lat="47.31077" lon="-2.3218">
        <ele>15.39999961853</ele>
        <time>2022-08-04T09:14:06.000Z</time>
      </trkpt>
      <trkpt lat="47.31072" lon="-2.32172">
        <ele>15</ele>
        <time>2022-08-04T09:14:07.000Z</time>
      </trkpt>
      <trkpt lat="47.31068" lon="-2.32164">
        <ele>14.60000038147</ele>
        <time>2022-08-04T09:14:08.000Z</time>
      </trkpt>
      <trkpt lat="47.31053" lon="-2.32141">
        <ele>14.60000038147</ele>
        <time>2022-08-04T09:14:11.000Z</time>
      </trkpt>
      <trkpt lat="47.31044" lon="-2.32126">
        <ele>14</ele>
        <time>2022-08-04T09:14:13.000Z</time>
      </trkpt>
      <trkpt lat="47.31039" lon="-2.32119">
        <ele>13.60000038147</ele>
        <time>2022-08-04T09:14:14.000Z</time>
      </trkpt>
      <trkpt lat="47.31034" lon="-2.32112">
        <ele>13.199999809265</ele>
        <time>2022-08-04T09:14:15.000Z</time>
      </trkpt>
      <trkpt lat="47.31029" lon="-2.32105">
        <ele>12.800000190735</ele>
        <time>2022-08-04T09:14:16.000Z</time>
      </trkpt>
      <trkpt lat="47.31024" lon="-2.32097">
        <ele>12.39999961853</ele>
        <time>2022-08-04T09:14:17.000Z</time>
      </trkpt>
      <trkpt lat="47.31015" lon="-2.32082">
        <ele>12.39999961853</ele>
        <time>2022-08-04T09:14:19.000Z</time>
      </trkpt>
      <trkpt lat="47.31006" lon="-2.32067">
        <ele>12.39999961853</ele>
        <time>2022-08-04T09:14:21.000Z</time>
      </trkpt>
      <trkpt lat="47.30997" lon="-2.32053">
        <ele>12</ele>
        <time>2022-08-04T09:14:23.000Z</time>
      </trkpt>
      <trkpt lat="47.30993" lon="-2.32045">
        <ele>11.60000038147</ele>
        <time>2022-08-04T09:14:24.000Z</time>
      </trkpt>
      <trkpt lat="47.3099" lon="-2.32037">
        <ele>11.199999809265</ele>
        <time>2022-08-04T09:14:25.000Z</time>
      </trkpt>
      <trkpt lat="47.30987" lon="-2.3203">
        <ele>10.800000190735</ele>
        <time>2022-08-04T09:14:26.000Z</time>
      </trkpt>
      <trkpt lat="47.30983" lon="-2.32022">
        <ele>10.39999961853</ele>
        <time>2022-08-04T09:14:27.000Z</time>
      </trkpt>
      <trkpt lat="47.30974" lon="-2.31999">
        <ele>10.39999961853</ele>
        <time>2022-08-04T09:14:30.000Z</time>
      </trkpt>
      <trkpt lat="47.30965" lon="-2.31974">
        <ele>10.39999961853</ele>
        <time>2022-08-04T09:14:33.000Z</time>
      </trkpt>
      <trkpt lat="47.30963" lon="-2.31955">
        <ele>10.39999961853</ele>
        <time>2022-08-04T09:14:35.000Z</time>
      </trkpt>
      <trkpt lat="47.3097" lon="-2.3193">
        <ele>10.39999961853</ele>
        <time>2022-08-04T09:14:38.000Z</time>
      </trkpt>
      <trkpt lat="47.30973" lon="-2.31923">
        <ele>10.39999961853</ele>
        <time>2022-08-04T09:14:39.000Z</time>
      </trkpt>
      <trkpt lat="47.30976" lon="-2.31915">
        <ele>10.39999961853</ele>
        <time>2022-08-04T09:14:40.000Z</time>
      </trkpt>
      <trkpt lat="47.30981" lon="-2.31892">
        <ele>10.39999961853</ele>
        <time>2022-08-04T09:14:43.000Z</time>
      </trkpt>
      <trkpt lat="47.30985" lon="-2.31866">
        <ele>10.39999961853</ele>
        <time>2022-08-04T09:14:46.000Z</time>
      </trkpt>
      <trkpt lat="47.30991" lon="-2.31851">
        <ele>10.39999961853</ele>
        <time>2022-08-04T09:14:48.000Z</time>
      </trkpt>
      <trkpt lat="47.30993" lon="-2.31843">
        <ele>10.39999961853</ele>
        <time>2022-08-04T09:14:49.000Z</time>
      </trkpt>
      <trkpt lat="47.30994" lon="-2.31835">
        <ele>10.39999961853</ele>
        <time>2022-08-04T09:14:50.000Z</time>
      </trkpt>
      <trkpt lat="47.30987" lon="-2.31816">
        <ele>10.39999961853</ele>
        <time>2022-08-04T09:14:53.000Z</time>
      </trkpt>
      <trkpt lat="47.30983" lon="-2.31812">
        <ele>10.39999961853</ele>
        <time>2022-08-04T09:14:54.000Z</time>
      </trkpt>
      <trkpt lat="47.30978" lon="-2.31806">
        <ele>10.39999961853</ele>
        <time>2022-08-04T09:14:55.000Z</time>
      </trkpt>
      <trkpt lat="47.30969" lon="-2.31794">
        <ele>10.39999961853</ele>
        <time>2022-08-04T09:14:57.000Z</time>
      </trkpt>
      <trkpt lat="47.30937" lon="-2.31757">
        <ele>10.39999961853</ele>
        <time>2022-08-04T09:15:03.000Z</time>
      </trkpt>
      <trkpt lat="47.30904" lon="-2.31716">
        <ele>10.39999961853</ele>
        <time>2022-08-04T09:15:09.000Z</time>
      </trkpt>
      <trkpt lat="47.30869" lon="-2.31675">
        <ele>10.39999961853</ele>
        <time>2022-08-04T09:15:15.000Z</time>
      </trkpt>
      <trkpt lat="47.30844" lon="-2.31647">
        <ele>10.39999961853</ele>
        <time>2022-08-04T09:15:20.000Z</time>
      </trkpt>
      <trkpt lat="47.30834" lon="-2.31652">
        <ele>10.39999961853</ele>
        <time>2022-08-04T09:15:22.000Z</time>
      </trkpt>
      <trkpt lat="47.30824" lon="-2.31664">
        <ele>10.39999961853</ele>
        <time>2022-08-04T09:15:24.000Z</time>
      </trkpt>
      <trkpt lat="47.30813" lon="-2.31678">
        <ele>10.39999961853</ele>
        <time>2022-08-04T09:15:26.000Z</time>
      </trkpt>
      <trkpt lat="47.30789" lon="-2.31707">
        <ele>10</ele>
        <time>2022-08-04T09:15:30.000Z</time>
      </trkpt>
      <trkpt lat="47.30783" lon="-2.31714">
        <ele>9.3999996185303</ele>
        <time>2022-08-04T09:15:31.000Z</time>
      </trkpt>
      <trkpt lat="47.30777" lon="-2.31721">
        <ele>9</ele>
        <time>2022-08-04T09:15:32.000Z</time>
      </trkpt>
      <trkpt lat="47.30772" lon="-2.31727">
        <ele>8.3999996185303</ele>
        <time>2022-08-04T09:15:33.000Z</time>
      </trkpt>
      <trkpt lat="47.30768" lon="-2.31732">
        <ele>8</ele>
        <time>2022-08-04T09:15:34.000Z</time>
      </trkpt>
      <trkpt lat="47.30758" lon="-2.31745">
        <ele>8</ele>
        <time>2022-08-04T09:15:37.000Z</time>
      </trkpt>
      <trkpt lat="47.30743" lon="-2.31751">
        <ele>8</ele>
        <time>2022-08-04T09:15:42.000Z</time>
      </trkpt>
      <trkpt lat="47.30727" lon="-2.31746">
        <ele>7.5999999046326</ele>
        <time>2022-08-04T09:15:46.000Z</time>
      </trkpt>
      <trkpt lat="47.30724" lon="-2.31742">
        <ele>7.1999998092651</ele>
        <time>2022-08-04T09:15:47.000Z</time>
      </trkpt>
      <trkpt lat="47.30721" lon="-2.31737">
        <ele>6.8000001907349</ele>
        <time>2022-08-04T09:15:48.000Z</time>
      </trkpt>
      <trkpt lat="47.30719" lon="-2.31731">
        <ele>6.4000000953674</ele>
        <time>2022-08-04T09:15:49.000Z</time>
      </trkpt>
      <trkpt lat="47.30716" lon="-2.31725">
        <ele>5.8000001907349</ele>
        <time>2022-08-04T09:15:50.000Z</time>
      </trkpt>
      <trkpt lat="47.3071" lon="-2.31708">
        <ele>5.8000001907349</ele>
        <time>2022-08-04T09:15:53.000Z</time>
      </trkpt>
      <trkpt lat="47.30702" lon="-2.31691">
        <ele>5.8000001907349</ele>
        <time>2022-08-04T09:15:58.000Z</time>
      </trkpt>
      <trkpt lat="47.30694" lon="-2.31673">
        <ele>5.8000001907349</ele>
        <time>2022-08-04T09:16:04.000Z</time>
      </trkpt>
      <trkpt lat="47.30686" lon="-2.31661">
        <ele>5.8000001907349</ele>
        <time>2022-08-04T09:16:10.000Z</time>
      </trkpt>
      <trkpt lat="47.30684" lon="-2.31655">
        <ele>5.8000001907349</ele>
        <time>2022-08-04T09:16:13.000Z</time>
      </trkpt>
      <trkpt lat="47.30684" lon="-2.31653">
        <ele>5.8000001907349</ele>
        <time>2022-08-04T09:16:14.000Z</time>
      </trkpt>
      <trkpt lat="47.30687" lon="-2.31656">
        <ele>5.8000001907349</ele>
        <time>2022-08-04T09:16:17.000Z</time>
      </trkpt>
      <trkpt lat="47.30687" lon="-2.31658">
        <ele>5.8000001907349</ele>
        <time>2022-08-04T09:16:18.000Z</time>
      </trkpt>
      <trkpt lat="47.30687" lon="-2.31663">
        <ele>5.8000001907349</ele>
        <time>2022-08-04T09:16:21.000Z</time>
      </trkpt>
      <trkpt lat="47.30685" lon="-2.31664">
        <ele>5.8000001907349</ele>
        <time>2022-08-04T09:16:23.000Z</time>
      </trkpt>
      <trkpt lat="47.30683" lon="-2.31656">
        <ele>5.8000001907349</ele>
        <time>2022-08-04T09:16:26.000Z</time>
      </trkpt>
      <trkpt lat="47.30677" lon="-2.31634">
        <ele>5.8000001907349</ele>
        <time>2022-08-04T09:16:31.000Z</time>
      </trkpt>
      <trkpt lat="47.30672" lon="-2.31618">
        <ele>5.8000001907349</ele>
        <time>2022-08-04T09:16:34.000Z</time>
      </trkpt>
      <trkpt lat="47.30668" lon="-2.31608">
        <ele>5.8000001907349</ele>
        <time>2022-08-04T09:16:36.000Z</time>
      </trkpt>
      <trkpt lat="47.30656" lon="-2.31585">
        <ele>5.8000001907349</ele>
        <time>2022-08-04T09:16:41.000Z</time>
      </trkpt>
      <trkpt lat="47.30638" lon="-2.31545">
        <ele>5.8000001907349</ele>
        <time>2022-08-04T09:16:49.000Z</time>
      </trkpt>
      <trkpt lat="47.30633" lon="-2.31533">
        <ele>5.8000001907349</ele>
        <time>2022-08-04T09:16:51.000Z</time>
      </trkpt>
      <trkpt lat="47.30627" lon="-2.31514">
        <ele>5.8000001907349</ele>
        <time>2022-08-04T09:16:54.000Z</time>
      </trkpt>
      <trkpt lat="47.30612" lon="-2.31479">
        <ele>6.4000000953674</ele>
        <time>2022-08-04T09:16:59.000Z</time>
      </trkpt>
      <trkpt lat="47.30609" lon="-2.31472">
        <ele>6.8000001907349</ele>
        <time>2022-08-04T09:17:00.000Z</time>
      </trkpt>
      <trkpt lat="47.30606" lon="-2.31465">
        <ele>7.1999998092651</ele>
        <time>2022-08-04T09:17:01.000Z</time>
      </trkpt>
      <trkpt lat="47.30603" lon="-2.31459">
        <ele>7.5999999046326</ele>
        <time>2022-08-04T09:17:02.000Z</time>
      </trkpt>
      <trkpt lat="47.30601" lon="-2.31452">
        <ele>8</ele>
        <time>2022-08-04T09:17:03.000Z</time>
      </trkpt>
      <trkpt lat="47.30586" lon="-2.31415">
        <ele>8</ele>
        <time>2022-08-04T09:17:08.000Z</time>
      </trkpt>
      <trkpt lat="47.30564" lon="-2.31372">
        <ele>8</ele>
        <time>2022-08-04T09:17:14.000Z</time>
      </trkpt>
      <trkpt lat="47.30556" lon="-2.31359">
        <ele>8</ele>
        <time>2022-08-04T09:17:16.000Z</time>
      </trkpt>
      <trkpt lat="47.30543" lon="-2.31339">
        <ele>8</ele>
        <time>2022-08-04T09:17:19.000Z</time>
      </trkpt>
      <trkpt lat="47.3052" lon="-2.31305">
        <ele>8</ele>
        <time>2022-08-04T09:17:24.000Z</time>
      </trkpt>
      <trkpt lat="47.30512" lon="-2.31293">
        <ele>8</ele>
        <time>2022-08-04T09:17:26.000Z</time>
      </trkpt>
      <trkpt lat="47.30477" lon="-2.31233">
        <ele>8</ele>
        <time>2022-08-04T09:17:35.000Z</time>
      </trkpt>
      <trkpt lat="47.30474" lon="-2.31225">
        <ele>8</ele>
        <time>2022-08-04T09:17:36.000Z</time>
      </trkpt>
      <trkpt lat="47.30466" lon="-2.31202">
        <ele>8</ele>
        <time>2022-08-04T09:17:39.000Z</time>
      </trkpt>
      <trkpt lat="47.30463" lon="-2.31194">
        <ele>8</ele>
        <time>2022-08-04T09:17:40.000Z</time>
      </trkpt>
      <trkpt lat="47.30452" lon="-2.31161">
        <ele>8</ele>
        <time>2022-08-04T09:17:44.000Z</time>
      </trkpt>
      <trkpt lat="47.30443" lon="-2.31137">
        <ele>8</ele>
        <time>2022-08-04T09:17:47.000Z</time>
      </trkpt>
      <trkpt lat="47.30434" lon="-2.31124">
        <ele>8</ele>
        <time>2022-08-04T09:17:49.000Z</time>
      </trkpt>
      <trkpt lat="47.30423" lon="-2.31114">
        <ele>8</ele>
        <time>2022-08-04T09:17:51.000Z</time>
      </trkpt>
      <trkpt lat="47.30411" lon="-2.31103">
        <ele>8</ele>
        <time>2022-08-04T09:17:53.000Z</time>
      </trkpt>
      <trkpt lat="47.30388" lon="-2.31083">
        <ele>8</ele>
        <time>2022-08-04T09:17:57.000Z</time>
      </trkpt>
      <trkpt lat="47.30383" lon="-2.31076">
        <ele>8</ele>
        <time>2022-08-04T09:17:58.000Z</time>
      </trkpt>
      <trkpt lat="47.30367" lon="-2.31052">
        <ele>8</ele>
        <time>2022-08-04T09:18:01.000Z</time>
      </trkpt>
      <trkpt lat="47.30341" lon="-2.31017">
        <ele>8</ele>
        <time>2022-08-04T09:18:06.000Z</time>
      </trkpt>
      <trkpt lat="47.30325" lon="-2.30997">
        <ele>7.5999999046326</ele>
        <time>2022-08-04T09:18:09.000Z</time>
      </trkpt>
      <trkpt lat="47.3032" lon="-2.3099">
        <ele>7.1999998092651</ele>
        <time>2022-08-04T09:18:10.000Z</time>
      </trkpt>
      <trkpt lat="47.30314" lon="-2.30981">
        <ele>6.8000001907349</ele>
        <time>2022-08-04T09:18:11.000Z</time>
      </trkpt>
      <trkpt lat="47.30308" lon="-2.30972">
        <ele>6.4000000953674</ele>
        <time>2022-08-04T09:18:12.000Z</time>
      </trkpt>
      <trkpt lat="47.30302" lon="-2.30963">
        <ele>6</ele>
        <time>2022-08-04T09:18:13.000Z</time>
      </trkpt>
      <trkpt lat="47.30296" lon="-2.30954">
        <ele>5.5999999046326</ele>
        <time>2022-08-04T09:18:14.000Z</time>
      </trkpt>
      <trkpt lat="47.3029" lon="-2.30944">
        <ele>5.1999998092651</ele>
        <time>2022-08-04T09:18:15.000Z</time>
      </trkpt>
      <trkpt lat="47.30285" lon="-2.30936">
        <ele>4.8000001907349</ele>
        <time>2022-08-04T09:18:16.000Z</time>
      </trkpt>
      <trkpt lat="47.30279" lon="-2.30928">
        <ele>4.4000000953674</ele>
        <time>2022-08-04T09:18:17.000Z</time>
      </trkpt>
      <trkpt lat="47.30272" lon="-2.3092">
        <ele>4</ele>
        <time>2022-08-04T09:18:18.000Z</time>
      </trkpt>
      <trkpt lat="47.30259" lon="-2.30902">
        <ele>3.5999999046326</ele>
        <time>2022-08-04T09:18:20.000Z</time>
      </trkpt>
      <trkpt lat="47.30253" lon="-2.30893">
        <ele>3</ele>
        <time>2022-08-04T09:18:21.000Z</time>
      </trkpt>
      <trkpt lat="47.30247" lon="-2.30885">
        <ele>2.5999999046326</ele>
        <time>2022-08-04T09:18:22.000Z</time>
      </trkpt>
      <trkpt lat="47.3024" lon="-2.30877">
        <ele>2.2000000476837</ele>
        <time>2022-08-04T09:18:23.000Z</time>
      </trkpt>
      <trkpt lat="47.30233" lon="-2.3087">
        <ele>1.7999999523163</ele>
        <time>2022-08-04T09:18:24.000Z</time>
      </trkpt>
      <trkpt lat="47.30214" lon="-2.3085">
        <ele>1.3999999761581</ele>
        <time>2022-08-04T09:18:27.000Z</time>
      </trkpt>
      <trkpt lat="47.30208" lon="-2.30843">
        <ele>1</ele>
        <time>2022-08-04T09:18:28.000Z</time>
      </trkpt>
      <trkpt lat="47.30202" lon="-2.30837">
        <ele>0.60000002384186</ele>
        <time>2022-08-04T09:18:29.000Z</time>
      </trkpt>
      <trkpt lat="47.30196" lon="-2.3083">
        <ele>0.20000000298023</ele>
        <time>2022-08-04T09:18:30.000Z</time>
      </trkpt>
      <trkpt lat="47.3019" lon="-2.30824">
        <ele>-0.20000000298023</ele>
        <time>2022-08-04T09:18:31.000Z</time>
      </trkpt>
      <trkpt lat="47.30185" lon="-2.30817">
        <ele>-0.20000000298023</ele>
        <time>2022-08-04T09:18:32.000Z</time>
      </trkpt>
      <trkpt lat="47.3018" lon="-2.3081">
        <ele>-0.20000000298023</ele>
        <time>2022-08-04T09:18:33.000Z</time>
      </trkpt>
      <trkpt lat="47.30176" lon="-2.30784">
        <ele>-0.20000000298023</ele>
        <time>2022-08-04T09:18:36.000Z</time>
      </trkpt>
      <trkpt lat="47.30177" lon="-2.30767">
        <ele>-0.60000002384186</ele>
        <time>2022-08-04T09:18:38.000Z</time>
      </trkpt>
      <trkpt lat="47.30178" lon="-2.3076">
        <ele>-1.2000000476837</ele>
        <time>2022-08-04T09:18:39.000Z</time>
      </trkpt>
      <trkpt lat="47.30177" lon="-2.30753">
        <ele>-1.6000000238419</ele>
        <time>2022-08-04T09:18:40.000Z</time>
      </trkpt>
      <trkpt lat="47.30174" lon="-2.30748">
        <ele>-2</ele>
        <time>2022-08-04T09:18:41.000Z</time>
      </trkpt>
      <trkpt lat="47.30172" lon="-2.30743">
        <ele>-2.4000000953674</ele>
        <time>2022-08-04T09:18:42.000Z</time>
      </trkpt>
      <trkpt lat="47.30169" lon="-2.30737">
        <ele>-2.4000000953674</ele>
        <time>2022-08-04T09:18:43.000Z</time>
      </trkpt>
      <trkpt lat="47.30165" lon="-2.30714">
        <ele>-2.4000000953674</ele>
        <time>2022-08-04T09:18:46.000Z</time>
      </trkpt>
      <trkpt lat="47.30164" lon="-2.30707">
        <ele>-2.4000000953674</ele>
        <time>2022-08-04T09:18:47.000Z</time>
      </trkpt>
      <trkpt lat="47.30162" lon="-2.30681">
        <ele>-2.4000000953674</ele>
        <time>2022-08-04T09:18:52.000Z</time>
      </trkpt>
      <trkpt lat="47.30159" lon="-2.30657">
        <ele>-2.4000000953674</ele>
        <time>2022-08-04T09:18:57.000Z</time>
      </trkpt>
      <trkpt lat="47.3016" lon="-2.30636">
        <ele>-2.4000000953674</ele>
        <time>2022-08-04T09:19:03.000Z</time>
      </trkpt>
      <trkpt lat="47.30166" lon="-2.30618">
        <ele>-2.4000000953674</ele>
        <time>2022-08-04T09:19:09.000Z</time>
      </trkpt>
      <trkpt lat="47.30169" lon="-2.30603">
        <ele>-2</ele>
        <time>2022-08-04T09:19:12.000Z</time>
      </trkpt>
      <trkpt lat="47.30171" lon="-2.30597">
        <ele>-1.6000000238419</ele>
        <time>2022-08-04T09:19:13.000Z</time>
      </trkpt>
      <trkpt lat="47.30174" lon="-2.30592">
        <ele>-1.2000000476837</ele>
        <time>2022-08-04T09:19:14.000Z</time>
      </trkpt>
      <trkpt lat="47.30178" lon="-2.30588">
        <ele>-0.80000001192093</ele>
        <time>2022-08-04T09:19:15.000Z</time>
      </trkpt>
      <trkpt lat="47.30183" lon="-2.30586">
        <ele>-0.40000000596046</ele>
        <time>2022-08-04T09:19:16.000Z</time>
      </trkpt>
      <trkpt lat="47.30193" lon="-2.30585">
        <ele>-0.40000000596046</ele>
        <time>2022-08-04T09:19:18.000Z</time>
      </trkpt>
      <trkpt lat="47.30198" lon="-2.30584">
        <ele>-0.40000000596046</ele>
        <time>2022-08-04T09:19:19.000Z</time>
      </trkpt>
      <trkpt lat="47.30203" lon="-2.30583">
        <ele>-0.40000000596046</ele>
        <time>2022-08-04T09:19:20.000Z</time>
      </trkpt>
      <trkpt lat="47.30219" lon="-2.30578">
        <ele>-0.40000000596046</ele>
        <time>2022-08-04T09:19:23.000Z</time>
      </trkpt>
      <trkpt lat="47.30226" lon="-2.30568">
        <ele>-0.40000000596046</ele>
        <time>2022-08-04T09:19:25.000Z</time>
      </trkpt>
      <trkpt lat="47.30226" lon="-2.30548">
        <ele>-0.40000000596046</ele>
        <time>2022-08-04T09:19:28.000Z</time>
      </trkpt>
      <trkpt lat="47.30216" lon="-2.3053">
        <ele>-0.40000000596046</ele>
        <time>2022-08-04T09:19:32.000Z</time>
      </trkpt>
      <trkpt lat="47.30213" lon="-2.30527">
        <ele>-0.40000000596046</ele>
        <time>2022-08-04T09:19:33.000Z</time>
      </trkpt>
      <trkpt lat="47.30196" lon="-2.30513">
        <ele>-0.40000000596046</ele>
        <time>2022-08-04T09:19:39.000Z</time>
      </trkpt>
      <trkpt lat="47.30181" lon="-2.30498">
        <ele>-0.40000000596046</ele>
        <time>2022-08-04T09:19:44.000Z</time>
      </trkpt>
      <trkpt lat="47.30159" lon="-2.30469">
        <ele>-0.40000000596046</ele>
        <time>2022-08-04T09:19:50.000Z</time>
      </trkpt>
      <trkpt lat="47.30137" lon="-2.30422">
        <ele>-0.40000000596046</ele>
        <time>2022-08-04T09:19:57.000Z</time>
      </trkpt>
      <trkpt lat="47.30124" lon="-2.30372">
        <ele>-0.40000000596046</ele>
        <time>2022-08-04T09:20:03.000Z</time>
      </trkpt>
      <trkpt lat="47.30105" lon="-2.30302">
        <ele>-0.40000000596046</ele>
        <time>2022-08-04T09:20:12.000Z</time>
      </trkpt>
      <trkpt lat="47.30103" lon="-2.30294">
        <ele>-0.40000000596046</ele>
        <time>2022-08-04T09:20:13.000Z</time>
      </trkpt>
      <trkpt lat="47.30107" lon="-2.3027">
        <ele>-0.40000000596046</ele>
        <time>2022-08-04T09:20:16.000Z</time>
      </trkpt>
      <trkpt lat="47.30123" lon="-2.30259">
        <ele>-0.40000000596046</ele>
        <time>2022-08-04T09:20:19.000Z</time>
      </trkpt>
      <trkpt lat="47.30129" lon="-2.30258">
        <ele>-0.40000000596046</ele>
        <time>2022-08-04T09:20:20.000Z</time>
      </trkpt>
      <trkpt lat="47.30169" lon="-2.30245">
        <ele>-0.40000000596046</ele>
        <time>2022-08-04T09:20:26.000Z</time>
      </trkpt>
      <trkpt lat="47.30191" lon="-2.30234">
        <ele>-0.40000000596046</ele>
        <time>2022-08-04T09:20:30.000Z</time>
      </trkpt>
      <trkpt lat="47.30196" lon="-2.30229">
        <ele>-0.40000000596046</ele>
        <time>2022-08-04T09:20:31.000Z</time>
      </trkpt>
      <trkpt lat="47.302" lon="-2.30207">
        <ele>-0.40000000596046</ele>
        <time>2022-08-04T09:20:34.000Z</time>
      </trkpt>
      <trkpt lat="47.30194" lon="-2.30188">
        <ele>-0.40000000596046</ele>
        <time>2022-08-04T09:20:37.000Z</time>
      </trkpt>
      <trkpt lat="47.30192" lon="-2.30181">
        <ele>-0.40000000596046</ele>
        <time>2022-08-04T09:20:38.000Z</time>
      </trkpt>
      <trkpt lat="47.30187" lon="-2.30168">
        <ele>-0.40000000596046</ele>
        <time>2022-08-04T09:20:40.000Z</time>
      </trkpt>
      <trkpt lat="47.30173" lon="-2.30134">
        <ele>-0.40000000596046</ele>
        <time>2022-08-04T09:20:45.000Z</time>
      </trkpt>
      <trkpt lat="47.30161" lon="-2.30103">
        <ele>-0.40000000596046</ele>
        <time>2022-08-04T09:20:49.000Z</time>
      </trkpt>
      <trkpt lat="47.30158" lon="-2.30095">
        <ele>-0.40000000596046</ele>
        <time>2022-08-04T09:20:50.000Z</time>
      </trkpt>
      <trkpt lat="47.30152" lon="-2.30079">
        <ele>-0.40000000596046</ele>
        <time>2022-08-04T09:20:52.000Z</time>
      </trkpt>
      <trkpt lat="47.30142" lon="-2.30064">
        <ele>-0.40000000596046</ele>
        <time>2022-08-04T09:20:54.000Z</time>
      </trkpt>
      <trkpt lat="47.30135" lon="-2.30048">
        <ele>-0.80000001192093</ele>
        <time>2022-08-04T09:20:56.000Z</time>
      </trkpt>
      <trkpt lat="47.30132" lon="-2.3004">
        <ele>-1.2000000476837</ele>
        <time>2022-08-04T09:20:57.000Z</time>
      </trkpt>
      <trkpt lat="47.30129" lon="-2.30032">
        <ele>-1.6000000238419</ele>
        <time>2022-08-04T09:20:58.000Z</time>
      </trkpt>
      <trkpt lat="47.30126" lon="-2.30025">
        <ele>-2</ele>
        <time>2022-08-04T09:20:59.000Z</time>
      </trkpt>
      <trkpt lat="47.30123" lon="-2.30021">
        <ele>-2.4000000953674</ele>
        <time>2022-08-04T09:21:00.000Z</time>
      </trkpt>
      <trkpt lat="47.30119" lon="-2.30015">
        <ele>-2.4000000953674</ele>
        <time>2022-08-04T09:21:01.000Z</time>
      </trkpt>
      <trkpt lat="47.30116" lon="-2.3001">
        <ele>-2.4000000953674</ele>
        <time>2022-08-04T09:21:02.000Z</time>
      </trkpt>
      <trkpt lat="47.30113" lon="-2.30006">
        <ele>-2.4000000953674</ele>
        <time>2022-08-04T09:21:03.000Z</time>
      </trkpt>
      <trkpt lat="47.30106" lon="-2.30002">
        <ele>-2.4000000953674</ele>
        <time>2022-08-04T09:21:05.000Z</time>
      </trkpt>
      <trkpt lat="47.30099" lon="-2.29987">
        <ele>-2.4000000953674</ele>
        <time>2022-08-04T09:21:08.000Z</time>
      </trkpt>
      <trkpt lat="47.30096" lon="-2.29975">
        <ele>-2.4000000953674</ele>
        <time>2022-08-04T09:21:11.000Z</time>
      </trkpt>
      <trkpt lat="47.30097" lon="-2.29971">
        <ele>-2.4000000953674</ele>
        <time>2022-08-04T09:21:12.000Z</time>
      </trkpt>
      <trkpt lat="47.30094" lon="-2.2995">
        <ele>-2.4000000953674</ele>
        <time>2022-08-04T09:21:17.000Z</time>
      </trkpt>
      <trkpt lat="47.30089" lon="-2.29934">
        <ele>-2.4000000953674</ele>
        <time>2022-08-04T09:21:21.000Z</time>
      </trkpt>
      <trkpt lat="47.3009" lon="-2.2993">
        <ele>-2.4000000953674</ele>
        <time>2022-08-04T09:21:22.000Z</time>
      </trkpt>
      <trkpt lat="47.30092" lon="-2.29922">
        <ele>-2.4000000953674</ele>
        <time>2022-08-04T09:21:24.000Z</time>
      </trkpt>
      <trkpt lat="47.30095" lon="-2.29919">
        <ele>-2.4000000953674</ele>
        <time>2022-08-04T09:21:25.000Z</time>
      </trkpt>
      <trkpt lat="47.30103" lon="-2.29909">
        <ele>-2.4000000953674</ele>
        <time>2022-08-04T09:21:28.000Z</time>
      </trkpt>
      <trkpt lat="47.3012" lon="-2.29893">
        <ele>-2.4000000953674</ele>
        <time>2022-08-04T09:21:32.000Z</time>
      </trkpt>
      <trkpt lat="47.30132" lon="-2.29883">
        <ele>-2.4000000953674</ele>
        <time>2022-08-04T09:21:35.000Z</time>
      </trkpt>
      <trkpt lat="47.30144" lon="-2.29869">
        <ele>-2.4000000953674</ele>
        <time>2022-08-04T09:21:39.000Z</time>
      </trkpt>
      <trkpt lat="47.30146" lon="-2.29865">
        <ele>-2.4000000953674</ele>
        <time>2022-08-04T09:21:40.000Z</time>
      </trkpt>
      <trkpt lat="47.30152" lon="-2.29854">
        <ele>-2.4000000953674</ele>
        <time>2022-08-04T09:21:43.000Z</time>
      </trkpt>
      <trkpt lat="47.30162" lon="-2.29836">
        <ele>-2.4000000953674</ele>
        <time>2022-08-04T09:21:48.000Z</time>
      </trkpt>
      <trkpt lat="47.3017" lon="-2.29824">
        <ele>-2.4000000953674</ele>
        <time>2022-08-04T09:21:53.000Z</time>
      </trkpt>
      <trkpt lat="47.3018" lon="-2.29806">
        <ele>-2.4000000953674</ele>
        <time>2022-08-04T09:21:58.000Z</time>
      </trkpt>
      <trkpt lat="47.30189" lon="-2.29792">
        <ele>-2.4000000953674</ele>
        <time>2022-08-04T09:22:02.000Z</time>
      </trkpt>
      <trkpt lat="47.30203" lon="-2.29769">
        <ele>-2.4000000953674</ele>
        <time>2022-08-04T09:22:06.000Z</time>
      </trkpt>
      <trkpt lat="47.30217" lon="-2.29745">
        <ele>-2.4000000953674</ele>
        <time>2022-08-04T09:22:11.000Z</time>
      </trkpt>
      <trkpt lat="47.30228" lon="-2.29731">
        <ele>-2.4000000953674</ele>
        <time>2022-08-04T09:22:15.000Z</time>
      </trkpt>
      <trkpt lat="47.3023" lon="-2.29727">
        <ele>-2.4000000953674</ele>
        <time>2022-08-04T09:22:16.000Z</time>
      </trkpt>
      <trkpt lat="47.30236" lon="-2.29717">
        <ele>-2.4000000953674</ele>
        <time>2022-08-04T09:22:19.000Z</time>
      </trkpt>
      <trkpt lat="47.30236" lon="-2.29714">
        <ele>-2.4000000953674</ele>
        <time>2022-08-04T09:22:20.000Z</time>
      </trkpt>
      <trkpt lat="47.3023" lon="-2.2971">
        <ele>-2.4000000953674</ele>
        <time>2022-08-04T09:22:23.000Z</time>
      </trkpt>
      <trkpt lat="47.30224" lon="-2.29704">
        <ele>-2.4000000953674</ele>
        <time>2022-08-04T09:22:26.000Z</time>
      </trkpt>
      <trkpt lat="47.30217" lon="-2.297">
        <ele>-2.4000000953674</ele>
        <time>2022-08-04T09:22:28.000Z</time>
      </trkpt>
      <trkpt lat="47.30187" lon="-2.29683">
        <ele>-2.4000000953674</ele>
        <time>2022-08-04T09:22:35.000Z</time>
      </trkpt>
      <trkpt lat="47.30167" lon="-2.29671">
        <ele>-2.4000000953674</ele>
        <time>2022-08-04T09:22:41.000Z</time>
      </trkpt>
      <trkpt lat="47.30154" lon="-2.29666">
        <ele>-2.4000000953674</ele>
        <time>2022-08-04T09:22:46.000Z</time>
      </trkpt>
      <trkpt lat="47.30128" lon="-2.29656">
        <ele>-2.4000000953674</ele>
        <time>2022-08-04T09:22:53.000Z</time>
      </trkpt>
      <trkpt lat="47.3011" lon="-2.29651">
        <ele>-2.4000000953674</ele>
        <time>2022-08-04T09:22:58.000Z</time>
      </trkpt>
      <trkpt lat="47.30077" lon="-2.2964">
        <ele>-2.4000000953674</ele>
        <time>2022-08-04T09:23:07.000Z</time>
      </trkpt>
      <trkpt lat="47.30052" lon="-2.29634">
        <ele>-2.4000000953674</ele>
        <time>2022-08-04T09:23:14.000Z</time>
      </trkpt>
      <trkpt lat="47.30024" lon="-2.2963">
        <ele>-2.4000000953674</ele>
        <time>2022-08-04T09:23:21.000Z</time>
      </trkpt>
      <trkpt lat="47.30001" lon="-2.29634">
        <ele>-2.4000000953674</ele>
        <time>2022-08-04T09:23:28.000Z</time>
      </trkpt>
      <trkpt lat="47.2999" lon="-2.29636">
        <ele>-2.4000000953674</ele>
        <time>2022-08-04T09:23:33.000Z</time>
      </trkpt>
      <trkpt lat="47.29986" lon="-2.29638">
        <ele>-2.4000000953674</ele>
        <time>2022-08-04T09:23:35.000Z</time>
      </trkpt>
      <trkpt lat="47.29981" lon="-2.2964">
        <ele>-2.4000000953674</ele>
        <time>2022-08-04T09:23:37.000Z</time>
      </trkpt>
      <trkpt lat="47.29964" lon="-2.29641">
        <ele>-2.4000000953674</ele>
        <time>2022-08-04T09:23:42.000Z</time>
      </trkpt>
      <trkpt lat="47.29944" lon="-2.29649">
        <ele>-2.4000000953674</ele>
        <time>2022-08-04T09:23:48.000Z</time>
      </trkpt>
      <trkpt lat="47.29925" lon="-2.29661">
        <ele>-2.4000000953674</ele>
        <time>2022-08-04T09:23:54.000Z</time>
      </trkpt>
      <trkpt lat="47.29915" lon="-2.29672">
        <ele>-2.4000000953674</ele>
        <time>2022-08-04T09:23:58.000Z</time>
      </trkpt>
      <trkpt lat="47.29915" lon="-2.29676">
        <ele>-2.4000000953674</ele>
        <time>2022-08-04T09:23:59.000Z</time>
      </trkpt>
      <trkpt lat="47.29916" lon="-2.29686">
        <ele>-2</ele>
        <time>2022-08-04T09:24:01.000Z</time>
      </trkpt>
      <trkpt lat="47.29917" lon="-2.29691">
        <ele>-1.3999999761581</ele>
        <time>2022-08-04T09:24:02.000Z</time>
      </trkpt>
      <trkpt lat="47.29919" lon="-2.29696">
        <ele>-1</ele>
        <time>2022-08-04T09:24:03.000Z</time>
      </trkpt>
      <trkpt lat="47.29921" lon="-2.29701">
        <ele>-0.60000002384186</ele>
        <time>2022-08-04T09:24:04.000Z</time>
      </trkpt>
      <trkpt lat="47.29923" lon="-2.29707">
        <ele>-0.20000000298023</ele>
        <time>2022-08-04T09:24:05.000Z</time>
      </trkpt>
      <trkpt lat="47.29936" lon="-2.29744">
        <ele>-0.20000000298023</ele>
        <time>2022-08-04T09:24:11.000Z</time>
      </trkpt>
      <trkpt lat="47.29951" lon="-2.29787">
        <ele>-0.20000000298023</ele>
        <time>2022-08-04T09:24:18.000Z</time>
      </trkpt>
      <trkpt lat="47.29952" lon="-2.29793">
        <ele>-0.20000000298023</ele>
        <time>2022-08-04T09:24:19.000Z</time>
      </trkpt>
      <trkpt lat="47.29949" lon="-2.29801">
        <ele>-0.20000000298023</ele>
        <time>2022-08-04T09:24:21.000Z</time>
      </trkpt>
      <trkpt lat="47.29945" lon="-2.29807">
        <ele>-0.20000000298023</ele>
        <time>2022-08-04T09:24:23.000Z</time>
      </trkpt>
      <trkpt lat="47.29937" lon="-2.29812">
        <ele>-0.20000000298023</ele>
        <time>2022-08-04T09:24:25.000Z</time>
      </trkpt>
      <trkpt lat="47.29933" lon="-2.29815">
        <ele>-0.20000000298023</ele>
        <time>2022-08-04T09:24:26.000Z</time>
      </trkpt>
      <trkpt lat="47.29907" lon="-2.29834">
        <ele>-0.20000000298023</ele>
        <time>2022-08-04T09:24:32.000Z</time>
      </trkpt>
      <trkpt lat="47.29902" lon="-2.29855">
        <ele>-0.20000000298023</ele>
        <time>2022-08-04T09:24:35.000Z</time>
      </trkpt>
      <trkpt lat="47.29903" lon="-2.2988">
        <ele>-0.20000000298023</ele>
        <time>2022-08-04T09:24:38.000Z</time>
      </trkpt>
      <trkpt lat="47.29904" lon="-2.29889">
        <ele>-0.20000000298023</ele>
        <time>2022-08-04T09:24:39.000Z</time>
      </trkpt>
      <trkpt lat="47.29905" lon="-2.29917">
        <ele>-0.20000000298023</ele>
        <time>2022-08-04T09:24:42.000Z</time>
      </trkpt>
      <trkpt lat="47.29902" lon="-2.29933">
        <ele>-0.20000000298023</ele>
        <time>2022-08-04T09:24:44.000Z</time>
      </trkpt>
      <trkpt lat="47.29887" lon="-2.29942">
        <ele>-0.20000000298023</ele>
        <time>2022-08-04T09:24:47.000Z</time>
      </trkpt>
      <trkpt lat="47.29881" lon="-2.29943">
        <ele>-0.20000000298023</ele>
        <time>2022-08-04T09:24:48.000Z</time>
      </trkpt>
      <trkpt lat="47.29852" lon="-2.29949">
        <ele>-0.20000000298023</ele>
        <time>2022-08-04T09:24:53.000Z</time>
      </trkpt>
      <trkpt lat="47.29828" lon="-2.29953">
        <ele>-0.20000000298023</ele>
        <time>2022-08-04T09:24:57.000Z</time>
      </trkpt>
      <trkpt lat="47.29821" lon="-2.29953">
        <ele>-0.20000000298023</ele>
        <time>2022-08-04T09:24:58.000Z</time>
      </trkpt>
      <trkpt lat="47.2979" lon="-2.29951">
        <ele>-0.20000000298023</ele>
        <time>2022-08-04T09:25:03.000Z</time>
      </trkpt>
      <trkpt lat="47.29783" lon="-2.29954">
        <ele>-0.20000000298023</ele>
        <time>2022-08-04T09:25:04.000Z</time>
      </trkpt>
      <trkpt lat="47.29768" lon="-2.29968">
        <ele>-0.20000000298023</ele>
        <time>2022-08-04T09:25:07.000Z</time>
      </trkpt>
      <trkpt lat="47.29763" lon="-2.29972">
        <ele>-0.20000000298023</ele>
        <time>2022-08-04T09:25:08.000Z</time>
      </trkpt>
      <trkpt lat="47.29732" lon="-2.29991">
        <ele>-0.20000000298023</ele>
        <time>2022-08-04T09:25:13.000Z</time>
      </trkpt>
      <trkpt lat="47.29695" lon="-2.3">
        <ele>-0.20000000298023</ele>
        <time>2022-08-04T09:25:19.000Z</time>
      </trkpt>
      <trkpt lat="47.29664" lon="-2.29996">
        <ele>-0.20000000298023</ele>
        <time>2022-08-04T09:25:24.000Z</time>
      </trkpt>
      <trkpt lat="47.29659" lon="-2.29993">
        <ele>-0.20000000298023</ele>
        <time>2022-08-04T09:25:25.000Z</time>
      </trkpt>
      <trkpt lat="47.29645" lon="-2.29982">
        <ele>-0.20000000298023</ele>
        <time>2022-08-04T09:25:28.000Z</time>
      </trkpt>
      <trkpt lat="47.29641" lon="-2.29983">
        <ele>-0.20000000298023</ele>
        <time>2022-08-04T09:25:29.000Z</time>
      </trkpt>
      <trkpt lat="47.29627" lon="-2.29994">
        <ele>-0.20000000298023</ele>
        <time>2022-08-04T09:25:32.000Z</time>
      </trkpt>
      <trkpt lat="47.296" lon="-2.30005">
        <ele>-0.20000000298023</ele>
        <time>2022-08-04T09:25:36.000Z</time>
      </trkpt>
      <trkpt lat="47.29592" lon="-2.30007">
        <ele>-0.20000000298023</ele>
        <time>2022-08-04T09:25:37.000Z</time>
      </trkpt>
      <trkpt lat="47.29535" lon="-2.30026">
        <ele>-0.20000000298023</ele>
        <time>2022-08-04T09:25:45.000Z</time>
      </trkpt>
      <trkpt lat="47.29521" lon="-2.30029">
        <ele>-0.20000000298023</ele>
        <time>2022-08-04T09:25:47.000Z</time>
      </trkpt>
      <trkpt lat="47.29515" lon="-2.30026">
        <ele>-0.20000000298023</ele>
        <time>2022-08-04T09:25:48.000Z</time>
      </trkpt>
      <trkpt lat="47.29492" lon="-2.30028">
        <ele>-0.20000000298023</ele>
        <time>2022-08-04T09:25:52.000Z</time>
      </trkpt>
      <trkpt lat="47.29486" lon="-2.30028">
        <ele>-0.20000000298023</ele>
        <time>2022-08-04T09:25:53.000Z</time>
      </trkpt>
      <trkpt lat="47.29465" lon="-2.30028">
        <ele>-0.20000000298023</ele>
        <time>2022-08-04T09:25:56.000Z</time>
      </trkpt>
      <trkpt lat="47.29409" lon="-2.30028">
        <ele>-0.20000000298023</ele>
        <time>2022-08-04T09:26:04.000Z</time>
      </trkpt>
      <trkpt lat="47.29402" lon="-2.30026">
        <ele>-0.20000000298023</ele>
        <time>2022-08-04T09:26:05.000Z</time>
      </trkpt>
      <trkpt lat="47.29377" lon="-2.30018">
        <ele>-0.20000000298023</ele>
        <time>2022-08-04T09:26:09.000Z</time>
      </trkpt>
      <trkpt lat="47.29361" lon="-2.3001">
        <ele>-0.20000000298023</ele>
        <time>2022-08-04T09:26:12.000Z</time>
      </trkpt>
      <trkpt lat="47.29357" lon="-2.30008">
        <ele>-0.20000000298023</ele>
        <time>2022-08-04T09:26:13.000Z</time>
      </trkpt>
      <trkpt lat="47.2935" lon="-2.30004">
        <ele>0.20000000298023</ele>
        <time>2022-08-04T09:26:15.000Z</time>
      </trkpt>
      <trkpt lat="47.29347" lon="-2.30004">
        <ele>0.60000002384186</ele>
        <time>2022-08-04T09:26:16.000Z</time>
      </trkpt>
      <trkpt lat="47.29346" lon="-2.30006">
        <ele>1</ele>
        <time>2022-08-04T09:26:17.000Z</time>
      </trkpt>
      <trkpt lat="47.29345" lon="-2.3001">
        <ele>1.3999999761581</ele>
        <time>2022-08-04T09:26:19.000Z</time>
      </trkpt>
      <trkpt lat="47.29344" lon="-2.30014">
        <ele>1.7999999523163</ele>
        <time>2022-08-04T09:26:20.000Z</time>
      </trkpt>
      <trkpt lat="47.29344" lon="-2.3002">
        <ele>1.7999999523163</ele>
        <time>2022-08-04T09:26:21.000Z</time>
      </trkpt>
      <trkpt lat="47.29342" lon="-2.30026">
        <ele>1.7999999523163</ele>
        <time>2022-08-04T09:26:22.000Z</time>
      </trkpt>
      <trkpt lat="47.2934" lon="-2.30053">
        <ele>1.7999999523163</ele>
        <time>2022-08-04T09:26:26.000Z</time>
      </trkpt>
      <trkpt lat="47.29333" lon="-2.30111">
        <ele>1.7999999523163</ele>
        <time>2022-08-04T09:26:34.000Z</time>
      </trkpt>
      <trkpt lat="47.29323" lon="-2.30126">
        <ele>1.7999999523163</ele>
        <time>2022-08-04T09:26:37.000Z</time>
      </trkpt>
      <trkpt lat="47.29316" lon="-2.30137">
        <ele>1.7999999523163</ele>
        <time>2022-08-04T09:26:40.000Z</time>
      </trkpt>
      <trkpt lat="47.29308" lon="-2.30137">
        <ele>1.7999999523163</ele>
        <time>2022-08-04T09:26:42.000Z</time>
      </trkpt>
      <trkpt lat="47.29296" lon="-2.30137">
        <ele>1.7999999523163</ele>
        <time>2022-08-04T09:26:45.000Z</time>
      </trkpt>
      <trkpt lat="47.29274" lon="-2.30139">
        <ele>1.7999999523163</ele>
        <time>2022-08-04T09:26:52.000Z</time>
      </trkpt>
      <trkpt lat="47.29265" lon="-2.3014">
        <ele>1.7999999523163</ele>
        <time>2022-08-04T09:26:58.000Z</time>
      </trkpt>
      <trkpt lat="47.29249" lon="-2.3014">
        <ele>1.7999999523163</ele>
        <time>2022-08-04T09:27:03.000Z</time>
      </trkpt>
      <trkpt lat="47.29234" lon="-2.30146">
        <ele>1.7999999523163</ele>
        <time>2022-08-04T09:27:08.000Z</time>
      </trkpt>
      <trkpt lat="47.29207" lon="-2.30161">
        <ele>1.7999999523163</ele>
        <time>2022-08-04T09:27:16.000Z</time>
      </trkpt>
      <trkpt lat="47.29178" lon="-2.30179">
        <ele>1.7999999523163</ele>
        <time>2022-08-04T09:27:25.000Z</time>
      </trkpt>
      <trkpt lat="47.29162" lon="-2.30188">
        <ele>1.7999999523163</ele>
        <time>2022-08-04T09:27:30.000Z</time>
      </trkpt>
      <trkpt lat="47.29143" lon="-2.30199">
        <ele>1.7999999523163</ele>
        <time>2022-08-04T09:27:35.000Z</time>
      </trkpt>
      <trkpt lat="47.29114" lon="-2.30216">
        <ele>1.7999999523163</ele>
        <time>2022-08-04T09:27:42.000Z</time>
      </trkpt>
      <trkpt lat="47.29073" lon="-2.30239">
        <ele>1.7999999523163</ele>
        <time>2022-08-04T09:27:51.000Z</time>
      </trkpt>
      <trkpt lat="47.29036" lon="-2.30251">
        <ele>1.7999999523163</ele>
        <time>2022-08-04T09:27:59.000Z</time>
      </trkpt>
      <trkpt lat="47.29003" lon="-2.30259">
        <ele>1.7999999523163</ele>
        <time>2022-08-04T09:28:06.000Z</time>
      </trkpt>
      <trkpt lat="47.28994" lon="-2.3026">
        <ele>1.7999999523163</ele>
        <time>2022-08-04T09:28:08.000Z</time>
      </trkpt>
      <trkpt lat="47.28983" lon="-2.30262">
        <ele>1.7999999523163</ele>
        <time>2022-08-04T09:28:11.000Z</time>
      </trkpt>
      <trkpt lat="47.28979" lon="-2.30266">
        <ele>1.7999999523163</ele>
        <time>2022-08-04T09:28:12.000Z</time>
      </trkpt>
      <trkpt lat="47.28977" lon="-2.30271">
        <ele>2.2000000476837</ele>
        <time>2022-08-04T09:28:13.000Z</time>
      </trkpt>
      <trkpt lat="47.28976" lon="-2.30278">
        <ele>3</ele>
        <time>2022-08-04T09:28:14.000Z</time>
      </trkpt>
      <trkpt lat="47.28976" lon="-2.30284">
        <ele>3.5999999046326</ele>
        <time>2022-08-04T09:28:15.000Z</time>
      </trkpt>
      <trkpt lat="47.28976" lon="-2.30291">
        <ele>4</ele>
        <time>2022-08-04T09:28:16.000Z</time>
      </trkpt>
      <trkpt lat="47.28976" lon="-2.30305">
        <ele>4</ele>
        <time>2022-08-04T09:28:18.000Z</time>
      </trkpt>
      <trkpt lat="47.28977" lon="-2.30318">
        <ele>4</ele>
        <time>2022-08-04T09:28:20.000Z</time>
      </trkpt>
      <trkpt lat="47.28979" lon="-2.30331">
        <ele>4</ele>
        <time>2022-08-04T09:28:22.000Z</time>
      </trkpt>
      <trkpt lat="47.28979" lon="-2.30343">
        <ele>4</ele>
        <time>2022-08-04T09:28:24.000Z</time>
      </trkpt>
      <trkpt lat="47.28976" lon="-2.30384">
        <ele>4</ele>
        <time>2022-08-04T09:28:30.000Z</time>
      </trkpt>
      <trkpt lat="47.28976" lon="-2.30398">
        <ele>4</ele>
        <time>2022-08-04T09:28:32.000Z</time>
      </trkpt>
      <trkpt lat="47.28978" lon="-2.3042">
        <ele>4</ele>
        <time>2022-08-04T09:28:35.000Z</time>
      </trkpt>
      <trkpt lat="47.2898" lon="-2.30434">
        <ele>4.4000000953674</ele>
        <time>2022-08-04T09:28:37.000Z</time>
      </trkpt>
      <trkpt lat="47.28981" lon="-2.30441">
        <ele>4.8000001907349</ele>
        <time>2022-08-04T09:28:38.000Z</time>
      </trkpt>
      <trkpt lat="47.28982" lon="-2.30448">
        <ele>5.5999999046326</ele>
        <time>2022-08-04T09:28:39.000Z</time>
      </trkpt>
      <trkpt lat="47.28983" lon="-2.30455">
        <ele>6</ele>
        <time>2022-08-04T09:28:40.000Z</time>
      </trkpt>
      <trkpt lat="47.28986" lon="-2.30478">
        <ele>6</ele>
        <time>2022-08-04T09:28:43.000Z</time>
      </trkpt>
      <trkpt lat="47.28987" lon="-2.30493">
        <ele>6</ele>
        <time>2022-08-04T09:28:45.000Z</time>
      </trkpt>
      <trkpt lat="47.28989" lon="-2.305">
        <ele>6</ele>
        <time>2022-08-04T09:28:46.000Z</time>
      </trkpt>
      <trkpt lat="47.28992" lon="-2.30521">
        <ele>6</ele>
        <time>2022-08-04T09:28:49.000Z</time>
      </trkpt>
      <trkpt lat="47.28998" lon="-2.30565">
        <ele>6</ele>
        <time>2022-08-04T09:28:55.000Z</time>
      </trkpt>
      <trkpt lat="47.29002" lon="-2.30595">
        <ele>6</ele>
        <time>2022-08-04T09:28:59.000Z</time>
      </trkpt>
      <trkpt lat="47.29003" lon="-2.30603">
        <ele>6</ele>
        <time>2022-08-04T09:29:00.000Z</time>
      </trkpt>
      <trkpt lat="47.29003" lon="-2.30613">
        <ele>6</ele>
        <time>2022-08-04T09:29:03.000Z</time>
      </trkpt>
      <trkpt lat="47.29003" lon="-2.30617">
        <ele>6</ele>
        <time>2022-08-04T09:29:07.000Z</time>
      </trkpt>
      <trkpt lat="47.29003" lon="-2.30625">
        <ele>6</ele>
        <time>2022-08-04T09:29:09.000Z</time>
      </trkpt>
      <trkpt lat="47.29003" lon="-2.30651">
        <ele>6</ele>
        <time>2022-08-04T09:29:13.000Z</time>
      </trkpt>
      <trkpt lat="47.29004" lon="-2.30658">
        <ele>6</ele>
        <time>2022-08-04T09:29:14.000Z</time>
      </trkpt>
      <trkpt lat="47.29005" lon="-2.3071">
        <ele>6</ele>
        <time>2022-08-04T09:29:20.000Z</time>
      </trkpt>
      <trkpt lat="47.29005" lon="-2.30743">
        <ele>6</ele>
        <time>2022-08-04T09:29:24.000Z</time>
      </trkpt>
      <trkpt lat="47.29008" lon="-2.3076">
        <ele>6</ele>
        <time>2022-08-04T09:29:26.000Z</time>
      </trkpt>
      <trkpt lat="47.29014" lon="-2.30785">
        <ele>6</ele>
        <time>2022-08-04T09:29:29.000Z</time>
      </trkpt>
      <trkpt lat="47.29018" lon="-2.30801">
        <ele>6</ele>
        <time>2022-08-04T09:29:31.000Z</time>
      </trkpt>
      <trkpt lat="47.2902" lon="-2.30809">
        <ele>6</ele>
        <time>2022-08-04T09:29:32.000Z</time>
      </trkpt>
      <trkpt lat="47.29026" lon="-2.30853">
        <ele>6</ele>
        <time>2022-08-04T09:29:37.000Z</time>
      </trkpt>
      <trkpt lat="47.2903" lon="-2.30887">
        <ele>6.4000000953674</ele>
        <time>2022-08-04T09:29:41.000Z</time>
      </trkpt>
      <trkpt lat="47.2903" lon="-2.30896">
        <ele>6.8000001907349</ele>
        <time>2022-08-04T09:29:42.000Z</time>
      </trkpt>
      <trkpt lat="47.29031" lon="-2.30904">
        <ele>7.4000000953674</ele>
        <time>2022-08-04T09:29:43.000Z</time>
      </trkpt>
      <trkpt lat="47.29031" lon="-2.30912">
        <ele>7.8000001907349</ele>
        <time>2022-08-04T09:29:44.000Z</time>
      </trkpt>
      <trkpt lat="47.29031" lon="-2.3092">
        <ele>8.1999998092651</ele>
        <time>2022-08-04T09:29:45.000Z</time>
      </trkpt>
      <trkpt lat="47.29033" lon="-2.30952">
        <ele>8.6000003814697</ele>
        <time>2022-08-04T09:29:49.000Z</time>
      </trkpt>
      <trkpt lat="47.29033" lon="-2.3096">
        <ele>9</ele>
        <time>2022-08-04T09:29:50.000Z</time>
      </trkpt>
      <trkpt lat="47.29033" lon="-2.30968">
        <ele>9.3999996185303</ele>
        <time>2022-08-04T09:29:51.000Z</time>
      </trkpt>
      <trkpt lat="47.29033" lon="-2.30976">
        <ele>10.199999809265</ele>
        <time>2022-08-04T09:29:52.000Z</time>
      </trkpt>
      <trkpt lat="47.29033" lon="-2.31">
        <ele>10.199999809265</ele>
        <time>2022-08-04T09:29:55.000Z</time>
      </trkpt>
      <trkpt lat="47.29033" lon="-2.31008">
        <ele>10.60000038147</ele>
        <time>2022-08-04T09:29:56.000Z</time>
      </trkpt>
      <trkpt lat="47.29033" lon="-2.31015">
        <ele>11</ele>
        <time>2022-08-04T09:29:57.000Z</time>
      </trkpt>
      <trkpt lat="47.29033" lon="-2.31023">
        <ele>11.39999961853</ele>
        <time>2022-08-04T09:29:58.000Z</time>
      </trkpt>
      <trkpt lat="47.29033" lon="-2.31031">
        <ele>11.800000190735</ele>
        <time>2022-08-04T09:29:59.000Z</time>
      </trkpt>
      <trkpt lat="47.29033" lon="-2.31039">
        <ele>12.199999809265</ele>
        <time>2022-08-04T09:30:00.000Z</time>
      </trkpt>
      <trkpt lat="47.29033" lon="-2.31062">
        <ele>12.199999809265</ele>
        <time>2022-08-04T09:30:03.000Z</time>
      </trkpt>
      <trkpt lat="47.29034" lon="-2.31093">
        <ele>12.800000190735</ele>
        <time>2022-08-04T09:30:07.000Z</time>
      </trkpt>
      <trkpt lat="47.29035" lon="-2.311">
        <ele>13.199999809265</ele>
        <time>2022-08-04T09:30:08.000Z</time>
      </trkpt>
      <trkpt lat="47.29035" lon="-2.31108">
        <ele>13.60000038147</ele>
        <time>2022-08-04T09:30:09.000Z</time>
      </trkpt>
      <trkpt lat="47.29036" lon="-2.31115">
        <ele>14</ele>
        <time>2022-08-04T09:30:10.000Z</time>
      </trkpt>
      <trkpt lat="47.29036" lon="-2.31123">
        <ele>14.60000038147</ele>
        <time>2022-08-04T09:30:11.000Z</time>
      </trkpt>
      <trkpt lat="47.29039" lon="-2.31168">
        <ele>15</ele>
        <time>2022-08-04T09:30:17.000Z</time>
      </trkpt>
      <trkpt lat="47.2904" lon="-2.31175">
        <ele>15.39999961853</ele>
        <time>2022-08-04T09:30:18.000Z</time>
      </trkpt>
      <trkpt lat="47.29041" lon="-2.31183">
        <ele>15.800000190735</ele>
        <time>2022-08-04T09:30:19.000Z</time>
      </trkpt>
      <trkpt lat="47.29042" lon="-2.31191">
        <ele>16.200000762939</ele>
        <time>2022-08-04T09:30:20.000Z</time>
      </trkpt>
      <trkpt lat="47.29042" lon="-2.31199">
        <ele>16.60000038147</ele>
        <time>2022-08-04T09:30:21.000Z</time>
      </trkpt>
      <trkpt lat="47.29041" lon="-2.31222">
        <ele>16.60000038147</ele>
        <time>2022-08-04T09:30:24.000Z</time>
      </trkpt>
      <trkpt lat="47.29027" lon="-2.31259">
        <ele>16.60000038147</ele>
        <time>2022-08-04T09:30:29.000Z</time>
      </trkpt>
      <trkpt lat="47.29004" lon="-2.31315">
        <ele>16.60000038147</ele>
        <time>2022-08-04T09:30:37.000Z</time>
      </trkpt>
      <trkpt lat="47.29001" lon="-2.31322">
        <ele>16.60000038147</ele>
        <time>2022-08-04T09:30:38.000Z</time>
      </trkpt>
      <trkpt lat="47.28991" lon="-2.31338">
        <ele>16.60000038147</ele>
        <time>2022-08-04T09:30:41.000Z</time>
      </trkpt>
      <trkpt lat="47.28975" lon="-2.31361">
        <ele>16.60000038147</ele>
        <time>2022-08-04T09:30:45.000Z</time>
      </trkpt>
      <trkpt lat="47.28971" lon="-2.31366">
        <ele>16.60000038147</ele>
        <time>2022-08-04T09:30:46.000Z</time>
      </trkpt>
      <trkpt lat="47.28966" lon="-2.31371">
        <ele>17</ele>
        <time>2022-08-04T09:30:47.000Z</time>
      </trkpt>
      <trkpt lat="47.28961" lon="-2.31376">
        <ele>17.39999961853</ele>
        <time>2022-08-04T09:30:48.000Z</time>
      </trkpt>
      <trkpt lat="47.28956" lon="-2.3138">
        <ele>17.799999237061</ele>
        <time>2022-08-04T09:30:49.000Z</time>
      </trkpt>
      <trkpt lat="47.28951" lon="-2.31384">
        <ele>18.200000762939</ele>
        <time>2022-08-04T09:30:50.000Z</time>
      </trkpt>
      <trkpt lat="47.28946" lon="-2.31387">
        <ele>18.60000038147</ele>
        <time>2022-08-04T09:30:51.000Z</time>
      </trkpt>
      <trkpt lat="47.2894" lon="-2.31389">
        <ele>18.60000038147</ele>
        <time>2022-08-04T09:30:52.000Z</time>
      </trkpt>
      <trkpt lat="47.2891" lon="-2.31392">
        <ele>18.60000038147</ele>
        <time>2022-08-04T09:30:57.000Z</time>
      </trkpt>
      <trkpt lat="47.28866" lon="-2.314">
        <ele>18.60000038147</ele>
        <time>2022-08-04T09:31:04.000Z</time>
      </trkpt>
      <trkpt lat="47.28825" lon="-2.31421">
        <ele>18.60000038147</ele>
        <time>2022-08-04T09:31:11.000Z</time>
      </trkpt>
      <trkpt lat="47.28785" lon="-2.31449">
        <ele>18.60000038147</ele>
        <time>2022-08-04T09:31:18.000Z</time>
      </trkpt>
      <trkpt lat="47.28757" lon="-2.31465">
        <ele>18.60000038147</ele>
        <time>2022-08-04T09:31:23.000Z</time>
      </trkpt>
      <trkpt lat="47.28721" lon="-2.31486">
        <ele>18.60000038147</ele>
        <time>2022-08-04T09:31:29.000Z</time>
      </trkpt>
      <trkpt lat="47.28694" lon="-2.31495">
        <ele>18.60000038147</ele>
        <time>2022-08-04T09:31:34.000Z</time>
      </trkpt>
      <trkpt lat="47.28689" lon="-2.31494">
        <ele>18.60000038147</ele>
        <time>2022-08-04T09:31:35.000Z</time>
      </trkpt>
      <trkpt lat="47.28675" lon="-2.31481">
        <ele>18.60000038147</ele>
        <time>2022-08-04T09:31:38.000Z</time>
      </trkpt>
      <trkpt lat="47.28671" lon="-2.31474">
        <ele>19.200000762939</ele>
        <time>2022-08-04T09:31:39.000Z</time>
      </trkpt>
      <trkpt lat="47.28669" lon="-2.31468">
        <ele>19.60000038147</ele>
        <time>2022-08-04T09:31:40.000Z</time>
      </trkpt>
      <trkpt lat="47.28667" lon="-2.31462">
        <ele>20</ele>
        <time>2022-08-04T09:31:41.000Z</time>
      </trkpt>
      <trkpt lat="47.28666" lon="-2.31456">
        <ele>20.39999961853</ele>
        <time>2022-08-04T09:31:42.000Z</time>
      </trkpt>
      <trkpt lat="47.28663" lon="-2.31452">
        <ele>20.799999237061</ele>
        <time>2022-08-04T09:31:43.000Z</time>
      </trkpt>
      <trkpt lat="47.2866" lon="-2.31452">
        <ele>20.799999237061</ele>
        <time>2022-08-04T09:31:44.000Z</time>
      </trkpt>
      <trkpt lat="47.28656" lon="-2.31453">
        <ele>20.799999237061</ele>
        <time>2022-08-04T09:31:45.000Z</time>
      </trkpt>
      <trkpt lat="47.28634" lon="-2.31466">
        <ele>20.799999237061</ele>
        <time>2022-08-04T09:31:50.000Z</time>
      </trkpt>
      <trkpt lat="47.28599" lon="-2.31483">
        <ele>20.799999237061</ele>
        <time>2022-08-04T09:31:57.000Z</time>
      </trkpt>
      <trkpt lat="47.28561" lon="-2.31496">
        <ele>20.799999237061</ele>
        <time>2022-08-04T09:32:03.000Z</time>
      </trkpt>
      <trkpt lat="47.28527" lon="-2.31503">
        <ele>20.799999237061</ele>
        <time>2022-08-04T09:32:09.000Z</time>
      </trkpt>
      <trkpt lat="47.28511" lon="-2.31506">
        <ele>20.39999961853</ele>
        <time>2022-08-04T09:32:12.000Z</time>
      </trkpt>
      <trkpt lat="47.28506" lon="-2.31507">
        <ele>20</ele>
        <time>2022-08-04T09:32:13.000Z</time>
      </trkpt>
      <trkpt lat="47.28501" lon="-2.31508">
        <ele>19.60000038147</ele>
        <time>2022-08-04T09:32:14.000Z</time>
      </trkpt>
      <trkpt lat="47.28496" lon="-2.3151">
        <ele>19.200000762939</ele>
        <time>2022-08-04T09:32:15.000Z</time>
      </trkpt>
      <trkpt lat="47.28491" lon="-2.3151">
        <ele>18.799999237061</ele>
        <time>2022-08-04T09:32:16.000Z</time>
      </trkpt>
      <trkpt lat="47.28463" lon="-2.31516">
        <ele>18.799999237061</ele>
        <time>2022-08-04T09:32:22.000Z</time>
      </trkpt>
      <trkpt lat="47.2845" lon="-2.31524">
        <ele>18.799999237061</ele>
        <time>2022-08-04T09:32:25.000Z</time>
      </trkpt>
      <trkpt lat="47.28445" lon="-2.31529">
        <ele>18.799999237061</ele>
        <time>2022-08-04T09:32:26.000Z</time>
      </trkpt>
      <trkpt lat="47.28431" lon="-2.31546">
        <ele>18.799999237061</ele>
        <time>2022-08-04T09:32:29.000Z</time>
      </trkpt>
      <trkpt lat="47.28426" lon="-2.31551">
        <ele>18.799999237061</ele>
        <time>2022-08-04T09:32:30.000Z</time>
      </trkpt>
      <trkpt lat="47.2842" lon="-2.31555">
        <ele>18.799999237061</ele>
        <time>2022-08-04T09:32:31.000Z</time>
      </trkpt>
      <trkpt lat="47.2839" lon="-2.31568">
        <ele>18.799999237061</ele>
        <time>2022-08-04T09:32:36.000Z</time>
      </trkpt>
      <trkpt lat="47.28351" lon="-2.31582">
        <ele>18.799999237061</ele>
        <time>2022-08-04T09:32:43.000Z</time>
      </trkpt>
      <trkpt lat="47.28328" lon="-2.3159">
        <ele>18.799999237061</ele>
        <time>2022-08-04T09:32:49.000Z</time>
      </trkpt>
      <trkpt lat="47.28316" lon="-2.31591">
        <ele>18.799999237061</ele>
        <time>2022-08-04T09:32:54.000Z</time>
      </trkpt>
      <trkpt lat="47.28295" lon="-2.31593">
        <ele>18.799999237061</ele>
        <time>2022-08-04T09:32:59.000Z</time>
      </trkpt>
      <trkpt lat="47.28261" lon="-2.31604">
        <ele>18.799999237061</ele>
        <time>2022-08-04T09:33:05.000Z</time>
      </trkpt>
      <trkpt lat="47.28229" lon="-2.31613">
        <ele>18.39999961853</ele>
        <time>2022-08-04T09:33:10.000Z</time>
      </trkpt>
      <trkpt lat="47.28222" lon="-2.31615">
        <ele>18</ele>
        <time>2022-08-04T09:33:11.000Z</time>
      </trkpt>
      <trkpt lat="47.28215" lon="-2.31616">
        <ele>17.60000038147</ele>
        <time>2022-08-04T09:33:12.000Z</time>
      </trkpt>
      <trkpt lat="47.28209" lon="-2.31617">
        <ele>17.200000762939</ele>
        <time>2022-08-04T09:33:13.000Z</time>
      </trkpt>
      <trkpt lat="47.28202" lon="-2.31619">
        <ele>16.799999237061</ele>
        <time>2022-08-04T09:33:14.000Z</time>
      </trkpt>
      <trkpt lat="47.28163" lon="-2.31624">
        <ele>16.799999237061</ele>
        <time>2022-08-04T09:33:20.000Z</time>
      </trkpt>
      <trkpt lat="47.28109" lon="-2.31629">
        <ele>16.799999237061</ele>
        <time>2022-08-04T09:33:28.000Z</time>
      </trkpt>
      <trkpt lat="47.28076" lon="-2.31628">
        <ele>16.200000762939</ele>
        <time>2022-08-04T09:33:33.000Z</time>
      </trkpt>
      <trkpt lat="47.28069" lon="-2.31628">
        <ele>15.800000190735</ele>
        <time>2022-08-04T09:33:34.000Z</time>
      </trkpt>
      <trkpt lat="47.28062" lon="-2.31629">
        <ele>15</ele>
        <time>2022-08-04T09:33:35.000Z</time>
      </trkpt>
      <trkpt lat="47.28056" lon="-2.3163">
        <ele>14.60000038147</ele>
        <time>2022-08-04T09:33:36.000Z</time>
      </trkpt>
      <trkpt lat="47.28035" lon="-2.31636">
        <ele>14.60000038147</ele>
        <time>2022-08-04T09:33:39.000Z</time>
      </trkpt>
      <trkpt lat="47.27998" lon="-2.31653">
        <ele>14.60000038147</ele>
        <time>2022-08-04T09:33:45.000Z</time>
      </trkpt>
      <trkpt lat="47.27967" lon="-2.31671">
        <ele>14.60000038147</ele>
        <time>2022-08-04T09:33:51.000Z</time>
      </trkpt>
      <trkpt lat="47.27948" lon="-2.31685">
        <ele>14.60000038147</ele>
        <time>2022-08-04T09:33:55.000Z</time>
      </trkpt>
      <trkpt lat="47.27943" lon="-2.31689">
        <ele>14.60000038147</ele>
        <time>2022-08-04T09:33:56.000Z</time>
      </trkpt>
      <trkpt lat="47.2793" lon="-2.317">
        <ele>14.60000038147</ele>
        <time>2022-08-04T09:33:59.000Z</time>
      </trkpt>
      <trkpt lat="47.2792" lon="-2.31709">
        <ele>14.60000038147</ele>
        <time>2022-08-04T09:34:01.000Z</time>
      </trkpt>
      <trkpt lat="47.27915" lon="-2.31713">
        <ele>15</ele>
        <time>2022-08-04T09:34:02.000Z</time>
      </trkpt>
      <trkpt lat="47.2791" lon="-2.31717">
        <ele>15.60000038147</ele>
        <time>2022-08-04T09:34:03.000Z</time>
      </trkpt>
      <trkpt lat="47.27904" lon="-2.3172">
        <ele>16</ele>
        <time>2022-08-04T09:34:04.000Z</time>
      </trkpt>
      <trkpt lat="47.27899" lon="-2.31724">
        <ele>16.39999961853</ele>
        <time>2022-08-04T09:34:05.000Z</time>
      </trkpt>
      <trkpt lat="47.27894" lon="-2.31727">
        <ele>16.799999237061</ele>
        <time>2022-08-04T09:34:06.000Z</time>
      </trkpt>
      <trkpt lat="47.27889" lon="-2.3173">
        <ele>16.799999237061</ele>
        <time>2022-08-04T09:34:07.000Z</time>
      </trkpt>
      <trkpt lat="47.27875" lon="-2.31739">
        <ele>16.799999237061</ele>
        <time>2022-08-04T09:34:10.000Z</time>
      </trkpt>
      <trkpt lat="47.27864" lon="-2.31743">
        <ele>16.799999237061</ele>
        <time>2022-08-04T09:34:12.000Z</time>
      </trkpt>
      <trkpt lat="47.27827" lon="-2.31753">
        <ele>16.799999237061</ele>
        <time>2022-08-04T09:34:18.000Z</time>
      </trkpt>
      <trkpt lat="47.2782" lon="-2.31753">
        <ele>16.799999237061</ele>
        <time>2022-08-04T09:34:19.000Z</time>
      </trkpt>
      <trkpt lat="47.27803" lon="-2.31745">
        <ele>16.39999961853</ele>
        <time>2022-08-04T09:34:22.000Z</time>
      </trkpt>
      <trkpt lat="47.27798" lon="-2.3174">
        <ele>16</ele>
        <time>2022-08-04T09:34:23.000Z</time>
      </trkpt>
      <trkpt lat="47.27793" lon="-2.31734">
        <ele>15.199999809265</ele>
        <time>2022-08-04T09:34:24.000Z</time>
      </trkpt>
      <trkpt lat="47.27789" lon="-2.31728">
        <ele>14.60000038147</ele>
        <time>2022-08-04T09:34:25.000Z</time>
      </trkpt>
      <trkpt lat="47.27785" lon="-2.31723">
        <ele>14.60000038147</ele>
        <time>2022-08-04T09:34:26.000Z</time>
      </trkpt>
      <trkpt lat="47.27781" lon="-2.3172">
        <ele>14.60000038147</ele>
        <time>2022-08-04T09:34:27.000Z</time>
      </trkpt>
      <trkpt lat="47.27769" lon="-2.31715">
        <ele>14.60000038147</ele>
        <time>2022-08-04T09:34:30.000Z</time>
      </trkpt>
      <trkpt lat="47.27761" lon="-2.31713">
        <ele>14.199999809265</ele>
        <time>2022-08-04T09:34:32.000Z</time>
      </trkpt>
      <trkpt lat="47.27756" lon="-2.31711">
        <ele>13.800000190735</ele>
        <time>2022-08-04T09:34:33.000Z</time>
      </trkpt>
      <trkpt lat="47.27752" lon="-2.31711">
        <ele>13.39999961853</ele>
        <time>2022-08-04T09:34:34.000Z</time>
      </trkpt>
      <trkpt lat="47.27747" lon="-2.31711">
        <ele>13</ele>
        <time>2022-08-04T09:34:35.000Z</time>
      </trkpt>
      <trkpt lat="47.27743" lon="-2.31712">
        <ele>12.60000038147</ele>
        <time>2022-08-04T09:34:36.000Z</time>
      </trkpt>
      <trkpt lat="47.27737" lon="-2.31724">
        <ele>12.60000038147</ele>
        <time>2022-08-04T09:34:38.000Z</time>
      </trkpt>
      <trkpt lat="47.27735" lon="-2.31731">
        <ele>12.60000038147</ele>
        <time>2022-08-04T09:34:39.000Z</time>
      </trkpt>
      <trkpt lat="47.27734" lon="-2.31737">
        <ele>12.60000038147</ele>
        <time>2022-08-04T09:34:40.000Z</time>
      </trkpt>
      <trkpt lat="47.27733" lon="-2.31751">
        <ele>12.60000038147</ele>
        <time>2022-08-04T09:34:42.000Z</time>
      </trkpt>
      <trkpt lat="47.27732" lon="-2.31794">
        <ele>12.60000038147</ele>
        <time>2022-08-04T09:34:48.000Z</time>
      </trkpt>
      <trkpt lat="47.27741" lon="-2.31832">
        <ele>12.60000038147</ele>
        <time>2022-08-04T09:34:53.000Z</time>
      </trkpt>
      <trkpt lat="47.27743" lon="-2.31883">
        <ele>12.60000038147</ele>
        <time>2022-08-04T09:34:59.000Z</time>
      </trkpt>
      <trkpt lat="47.27737" lon="-2.31906">
        <ele>12.60000038147</ele>
        <time>2022-08-04T09:35:02.000Z</time>
      </trkpt>
      <trkpt lat="47.27732" lon="-2.3192">
        <ele>12.60000038147</ele>
        <time>2022-08-04T09:35:04.000Z</time>
      </trkpt>
      <trkpt lat="47.27721" lon="-2.31955">
        <ele>12.60000038147</ele>
        <time>2022-08-04T09:35:08.000Z</time>
      </trkpt>
      <trkpt lat="47.27717" lon="-2.31965">
        <ele>12.60000038147</ele>
        <time>2022-08-04T09:35:09.000Z</time>
      </trkpt>
      <trkpt lat="47.27698" lon="-2.32013">
        <ele>12.199999809265</ele>
        <time>2022-08-04T09:35:14.000Z</time>
      </trkpt>
      <trkpt lat="47.27695" lon="-2.32022">
        <ele>11.800000190735</ele>
        <time>2022-08-04T09:35:15.000Z</time>
      </trkpt>
      <trkpt lat="47.27692" lon="-2.32032">
        <ele>11.39999961853</ele>
        <time>2022-08-04T09:35:16.000Z</time>
      </trkpt>
      <trkpt lat="47.27691" lon="-2.32041">
        <ele>11</ele>
        <time>2022-08-04T09:35:17.000Z</time>
      </trkpt>
      <trkpt lat="47.2769" lon="-2.3205">
        <ele>10.60000038147</ele>
        <time>2022-08-04T09:35:18.000Z</time>
      </trkpt>
      <trkpt lat="47.27689" lon="-2.32059">
        <ele>10.60000038147</ele>
        <time>2022-08-04T09:35:19.000Z</time>
      </trkpt>
      <trkpt lat="47.27679" lon="-2.32103">
        <ele>10.60000038147</ele>
        <time>2022-08-04T09:35:24.000Z</time>
      </trkpt>
      <trkpt lat="47.27665" lon="-2.3215">
        <ele>10.60000038147</ele>
        <time>2022-08-04T09:35:30.000Z</time>
      </trkpt>
      <trkpt lat="47.2766" lon="-2.32164">
        <ele>10.60000038147</ele>
        <time>2022-08-04T09:35:32.000Z</time>
      </trkpt>
      <trkpt lat="47.27657" lon="-2.32171">
        <ele>11</ele>
        <time>2022-08-04T09:35:33.000Z</time>
      </trkpt>
      <trkpt lat="47.27655" lon="-2.32178">
        <ele>11.39999961853</ele>
        <time>2022-08-04T09:35:34.000Z</time>
      </trkpt>
      <trkpt lat="47.27652" lon="-2.32185">
        <ele>12</ele>
        <time>2022-08-04T09:35:35.000Z</time>
      </trkpt>
      <trkpt lat="47.2765" lon="-2.32193">
        <ele>12.39999961853</ele>
        <time>2022-08-04T09:35:36.000Z</time>
      </trkpt>
      <trkpt lat="47.27648" lon="-2.322">
        <ele>12.800000190735</ele>
        <time>2022-08-04T09:35:37.000Z</time>
      </trkpt>
      <trkpt lat="47.2764" lon="-2.32219">
        <ele>12.800000190735</ele>
        <time>2022-08-04T09:35:40.000Z</time>
      </trkpt>
      <trkpt lat="47.27638" lon="-2.32225">
        <ele>12.800000190735</ele>
        <time>2022-08-04T09:35:41.000Z</time>
      </trkpt>
      <trkpt lat="47.27632" lon="-2.32242">
        <ele>12.800000190735</ele>
        <time>2022-08-04T09:35:44.000Z</time>
      </trkpt>
      <trkpt lat="47.27628" lon="-2.32258">
        <ele>12.800000190735</ele>
        <time>2022-08-04T09:35:47.000Z</time>
      </trkpt>
      <trkpt lat="47.27627" lon="-2.3226">
        <ele>12.800000190735</ele>
        <time>2022-08-04T09:35:49.000Z</time>
      </trkpt>
      <trkpt lat="47.27626" lon="-2.32264">
        <ele>12.800000190735</ele>
        <time>2022-08-04T09:36:09.000Z</time>
      </trkpt>
      <trkpt lat="47.27618" lon="-2.32279">
        <ele>12.800000190735</ele>
        <time>2022-08-04T09:36:14.000Z</time>
      </trkpt>
      <trkpt lat="47.27615" lon="-2.32289">
        <ele>12.800000190735</ele>
        <time>2022-08-04T09:36:17.000Z</time>
      </trkpt>
      <trkpt lat="47.27617" lon="-2.32292">
        <ele>12.800000190735</ele>
        <time>2022-08-04T09:36:18.000Z</time>
      </trkpt>
      <trkpt lat="47.27625" lon="-2.32299">
        <ele>12.800000190735</ele>
        <time>2022-08-04T09:36:22.000Z</time>
      </trkpt>
      <trkpt lat="47.27635" lon="-2.32305">
        <ele>12.800000190735</ele>
        <time>2022-08-04T09:36:28.000Z</time>
      </trkpt>
      <trkpt lat="47.27636" lon="-2.32306">
        <ele>12.800000190735</ele>
        <time>2022-08-04T09:36:29.000Z</time>
      </trkpt>
      <trkpt lat="47.2764" lon="-2.32308">
        <ele>12.800000190735</ele>
        <time>2022-08-04T09:36:34.000Z</time>
      </trkpt>
      <trkpt lat="47.27643" lon="-2.32308">
        <ele>12.800000190735</ele>
        <time>2022-08-04T09:36:36.000Z</time>
      </trkpt>
      <trkpt lat="47.27645" lon="-2.32309">
        <ele>13.199999809265</ele>
        <time>2022-08-04T09:36:37.000Z</time>
      </trkpt>
      <trkpt lat="47.27647" lon="-2.32309">
        <ele>13.60000038147</ele>
        <time>2022-08-04T09:36:38.000Z</time>
      </trkpt>
      <trkpt lat="47.27648" lon="-2.3231">
        <ele>14</ele>
        <time>2022-08-04T09:36:39.000Z</time>
      </trkpt>
      <trkpt lat="47.27651" lon="-2.32311">
        <ele>14.39999961853</ele>
        <time>2022-08-04T09:36:40.000Z</time>
      </trkpt>
      <trkpt lat="47.27653" lon="-2.32312">
        <ele>14.800000190735</ele>
        <time>2022-08-04T09:36:41.000Z</time>
      </trkpt>
      <trkpt lat="47.27659" lon="-2.32314">
        <ele>14.800000190735</ele>
        <time>2022-08-04T09:36:44.000Z</time>
      </trkpt>
      <trkpt lat="47.27679" lon="-2.3232">
        <ele>14.800000190735</ele>
        <time>2022-08-04T09:36:50.000Z</time>
      </trkpt>
      <trkpt lat="47.27695" lon="-2.32327">
        <ele>14.800000190735</ele>
        <time>2022-08-04T09:36:55.000Z</time>
      </trkpt>
      <trkpt lat="47.2771" lon="-2.32339">
        <ele>14.800000190735</ele>
        <time>2022-08-04T09:36:59.000Z</time>
      </trkpt>
      <trkpt lat="47.27719" lon="-2.32345">
        <ele>14.800000190735</ele>
        <time>2022-08-04T09:37:01.000Z</time>
      </trkpt>
      <trkpt lat="47.27732" lon="-2.32352">
        <ele>14.800000190735</ele>
        <time>2022-08-04T09:37:04.000Z</time>
      </trkpt>
      <trkpt lat="47.27759" lon="-2.32371">
        <ele>14.800000190735</ele>
        <time>2022-08-04T09:37:10.000Z</time>
      </trkpt>
      <trkpt lat="47.27778" lon="-2.32371">
        <ele>14.800000190735</ele>
        <time>2022-08-04T09:37:14.000Z</time>
      </trkpt>
      <trkpt lat="47.27791" lon="-2.32371">
        <ele>14.800000190735</ele>
        <time>2022-08-04T09:37:18.000Z</time>
      </trkpt>
      <trkpt lat="47.27808" lon="-2.32362">
        <ele>14.800000190735</ele>
        <time>2022-08-04T09:37:23.000Z</time>
      </trkpt>
      <trkpt lat="47.27831" lon="-2.32368">
        <ele>14.800000190735</ele>
        <time>2022-08-04T09:37:27.000Z</time>
      </trkpt>
      <trkpt lat="47.27849" lon="-2.32376">
        <ele>14.800000190735</ele>
        <time>2022-08-04T09:37:31.000Z</time>
      </trkpt>
      <trkpt lat="47.2786" lon="-2.3238">
        <ele>14.800000190735</ele>
        <time>2022-08-04T09:37:33.000Z</time>
      </trkpt>
      <trkpt lat="47.27871" lon="-2.32381">
        <ele>14.800000190735</ele>
        <time>2022-08-04T09:37:34.000Z</time>
      </trkpt>
      <trkpt lat="47.27884" lon="-2.32381">
        <ele>14.800000190735</ele>
        <time>2022-08-04T09:37:37.000Z</time>
      </trkpt>
      <trkpt lat="47.279" lon="-2.32387">
        <ele>14</ele>
        <time>2022-08-04T09:37:42.000Z</time>
      </trkpt>
      <trkpt lat="47.27901" lon="-2.3239">
        <ele>13.60000038147</ele>
        <time>2022-08-04T09:37:43.000Z</time>
      </trkpt>
      <trkpt lat="47.27901" lon="-2.32393">
        <ele>13.199999809265</ele>
        <time>2022-08-04T09:37:44.000Z</time>
      </trkpt>
      <trkpt lat="47.27902" lon="-2.32396">
        <ele>12.800000190735</ele>
        <time>2022-08-04T09:37:45.000Z</time>
      </trkpt>
      <trkpt lat="47.27901" lon="-2.324">
        <ele>12.800000190735</ele>
        <time>2022-08-04T09:37:47.000Z</time>
      </trkpt>
      <trkpt lat="47.27893" lon="-2.32411">
        <ele>12.800000190735</ele>
        <time>2022-08-04T09:37:50.000Z</time>
      </trkpt>
      <trkpt lat="47.27889" lon="-2.32419">
        <ele>12.800000190735</ele>
        <time>2022-08-04T09:37:52.000Z</time>
      </trkpt>
      <trkpt lat="47.2788" lon="-2.32435">
        <ele>12.800000190735</ele>
        <time>2022-08-04T09:37:56.000Z</time>
      </trkpt>
      <trkpt lat="47.27872" lon="-2.32447">
        <ele>12.800000190735</ele>
        <time>2022-08-04T09:37:59.000Z</time>
      </trkpt>
      <trkpt lat="47.27862" lon="-2.32455">
        <ele>12.800000190735</ele>
        <time>2022-08-04T09:38:02.000Z</time>
      </trkpt>
      <trkpt lat="47.2786" lon="-2.3246">
        <ele>12.800000190735</ele>
        <time>2022-08-04T09:38:03.000Z</time>
      </trkpt>
      <trkpt lat="47.2785" lon="-2.3248">
        <ele>12.800000190735</ele>
        <time>2022-08-04T09:38:07.000Z</time>
      </trkpt>
      <trkpt lat="47.27836" lon="-2.32498">
        <ele>12.800000190735</ele>
        <time>2022-08-04T09:38:11.000Z</time>
      </trkpt>
      <trkpt lat="47.27833" lon="-2.32503">
        <ele>12.800000190735</ele>
        <time>2022-08-04T09:38:12.000Z</time>
      </trkpt>
      <trkpt lat="47.27822" lon="-2.32518">
        <ele>12.800000190735</ele>
        <time>2022-08-04T09:38:15.000Z</time>
      </trkpt>
      <trkpt lat="47.27818" lon="-2.32524">
        <ele>12.800000190735</ele>
        <time>2022-08-04T09:38:16.000Z</time>
      </trkpt>
      <trkpt lat="47.27803" lon="-2.32548">
        <ele>12.800000190735</ele>
        <time>2022-08-04T09:38:20.000Z</time>
      </trkpt>
      <trkpt lat="47.2779" lon="-2.32567">
        <ele>12.800000190735</ele>
        <time>2022-08-04T09:38:23.000Z</time>
      </trkpt>
      <trkpt lat="47.2778" lon="-2.32578">
        <ele>12.800000190735</ele>
        <time>2022-08-04T09:38:25.000Z</time>
      </trkpt>
      <trkpt lat="47.27772" lon="-2.32591">
        <ele>12.800000190735</ele>
        <time>2022-08-04T09:38:27.000Z</time>
      </trkpt>
      <trkpt lat="47.27762" lon="-2.32611">
        <ele>12.800000190735</ele>
        <time>2022-08-04T09:38:30.000Z</time>
      </trkpt>
      <trkpt lat="47.27744" lon="-2.32643">
        <ele>12.39999961853</ele>
        <time>2022-08-04T09:38:34.000Z</time>
      </trkpt>
      <trkpt lat="47.2774" lon="-2.32653">
        <ele>11.800000190735</ele>
        <time>2022-08-04T09:38:35.000Z</time>
      </trkpt>
      <trkpt lat="47.27735" lon="-2.32662">
        <ele>11.39999961853</ele>
        <time>2022-08-04T09:38:36.000Z</time>
      </trkpt>
      <trkpt lat="47.2773" lon="-2.32671">
        <ele>10.60000038147</ele>
        <time>2022-08-04T09:38:37.000Z</time>
      </trkpt>
      <trkpt lat="47.27726" lon="-2.32678">
        <ele>9.8000001907349</ele>
        <time>2022-08-04T09:38:38.000Z</time>
      </trkpt>
      <trkpt lat="47.27721" lon="-2.32684">
        <ele>9</ele>
        <time>2022-08-04T09:38:39.000Z</time>
      </trkpt>
      <trkpt lat="47.27717" lon="-2.32689">
        <ele>8.1999998092651</ele>
        <time>2022-08-04T09:38:40.000Z</time>
      </trkpt>
      <trkpt lat="47.27714" lon="-2.32695">
        <ele>7.4000000953674</ele>
        <time>2022-08-04T09:38:41.000Z</time>
      </trkpt>
      <trkpt lat="47.27712" lon="-2.32702">
        <ele>6.5999999046326</ele>
        <time>2022-08-04T09:38:42.000Z</time>
      </trkpt>
      <trkpt lat="47.2771" lon="-2.32705">
        <ele>5.8000001907349</ele>
        <time>2022-08-04T09:38:43.000Z</time>
      </trkpt>
      <trkpt lat="47.27708" lon="-2.32707">
        <ele>5</ele>
        <time>2022-08-04T09:38:44.000Z</time>
      </trkpt>
      <trkpt lat="47.27707" lon="-2.32711">
        <ele>5</ele>
        <time>2022-08-04T09:38:45.000Z</time>
      </trkpt>
      <trkpt lat="47.27704" lon="-2.32714">
        <ele>5</ele>
        <time>2022-08-04T09:38:46.000Z</time>
      </trkpt>
      <trkpt lat="47.27694" lon="-2.32722">
        <ele>5</ele>
        <time>2022-08-04T09:38:50.000Z</time>
      </trkpt>
      <trkpt lat="47.2769" lon="-2.32725">
        <ele>4.5999999046326</ele>
        <time>2022-08-04T09:38:51.000Z</time>
      </trkpt>
      <trkpt lat="47.27685" lon="-2.32726">
        <ele>4.1999998092651</ele>
        <time>2022-08-04T09:38:52.000Z</time>
      </trkpt>
      <trkpt lat="47.2768" lon="-2.32726">
        <ele>3.7999999523163</ele>
        <time>2022-08-04T09:38:53.000Z</time>
      </trkpt>
      <trkpt lat="47.27675" lon="-2.32725">
        <ele>3.4000000953674</ele>
        <time>2022-08-04T09:38:54.000Z</time>
      </trkpt>
      <trkpt lat="47.2767" lon="-2.32722">
        <ele>3</ele>
        <time>2022-08-04T09:38:55.000Z</time>
      </trkpt>
      <trkpt lat="47.27666" lon="-2.32719">
        <ele>3</ele>
        <time>2022-08-04T09:38:56.000Z</time>
      </trkpt>
      <trkpt lat="47.27642" lon="-2.32708">
        <ele>3</ele>
        <time>2022-08-04T09:39:01.000Z</time>
      </trkpt>
      <trkpt lat="47.27625" lon="-2.327">
        <ele>3</ele>
        <time>2022-08-04T09:39:05.000Z</time>
      </trkpt>
      <trkpt lat="47.27623" lon="-2.32694">
        <ele>3</ele>
        <time>2022-08-04T09:39:06.000Z</time>
      </trkpt>
      <trkpt lat="47.27615" lon="-2.32688">
        <ele>3</ele>
        <time>2022-08-04T09:39:08.000Z</time>
      </trkpt>
      <trkpt lat="47.27609" lon="-2.32691">
        <ele>3</ele>
        <time>2022-08-04T09:39:10.000Z</time>
      </trkpt>
      <trkpt lat="47.27601" lon="-2.32711">
        <ele>3</ele>
        <time>2022-08-04T09:39:14.000Z</time>
      </trkpt>
      <trkpt lat="47.27592" lon="-2.32736">
        <ele>3</ele>
        <time>2022-08-04T09:39:19.000Z</time>
      </trkpt>
      <trkpt lat="47.27592" lon="-2.32745">
        <ele>4</ele>
        <time>2022-08-04T09:39:21.000Z</time>
      </trkpt>
      <trkpt lat="47.27593" lon="-2.32749">
        <ele>4.5999999046326</ele>
        <time>2022-08-04T09:39:22.000Z</time>
      </trkpt>
      <trkpt lat="47.27594" lon="-2.32753">
        <ele>5</ele>
        <time>2022-08-04T09:39:23.000Z</time>
      </trkpt>
      <trkpt lat="47.27594" lon="-2.32756">
        <ele>5.5999999046326</ele>
        <time>2022-08-04T09:39:24.000Z</time>
      </trkpt>
      <trkpt lat="47.27593" lon="-2.32759">
        <ele>6.1999998092651</ele>
        <time>2022-08-04T09:39:25.000Z</time>
      </trkpt>
      <trkpt lat="47.27592" lon="-2.32763">
        <ele>6.5999999046326</ele>
        <time>2022-08-04T09:39:26.000Z</time>
      </trkpt>
      <trkpt lat="47.2759" lon="-2.32766">
        <ele>7.1999998092651</ele>
        <time>2022-08-04T09:39:27.000Z</time>
      </trkpt>
      <trkpt lat="47.27589" lon="-2.3277">
        <ele>7.8000001907349</ele>
        <time>2022-08-04T09:39:28.000Z</time>
      </trkpt>
      <trkpt lat="47.27586" lon="-2.32774">
        <ele>7.8000001907349</ele>
        <time>2022-08-04T09:39:29.000Z</time>
      </trkpt>
      <trkpt lat="47.27583" lon="-2.3279">
        <ele>7.8000001907349</ele>
        <time>2022-08-04T09:39:32.000Z</time>
      </trkpt>
      <trkpt lat="47.27573" lon="-2.32814">
        <ele>7.8000001907349</ele>
        <time>2022-08-04T09:39:37.000Z</time>
      </trkpt>
      <trkpt lat="47.27569" lon="-2.32819">
        <ele>8.1999998092651</ele>
        <time>2022-08-04T09:39:39.000Z</time>
      </trkpt>
      <trkpt lat="47.27569" lon="-2.32821">
        <ele>8.8000001907349</ele>
        <time>2022-08-04T09:39:40.000Z</time>
      </trkpt>
      <trkpt lat="47.27568" lon="-2.32823">
        <ele>9.1999998092651</ele>
        <time>2022-08-04T09:39:41.000Z</time>
      </trkpt>
      <trkpt lat="47.27566" lon="-2.32825">
        <ele>9.6000003814697</ele>
        <time>2022-08-04T09:39:42.000Z</time>
      </trkpt>
      <trkpt lat="47.27564" lon="-2.32826">
        <ele>10.199999809265</ele>
        <time>2022-08-04T09:39:43.000Z</time>
      </trkpt>
      <trkpt lat="47.2756" lon="-2.3283">
        <ele>10.199999809265</ele>
        <time>2022-08-04T09:39:46.000Z</time>
      </trkpt>
      <trkpt lat="47.27548" lon="-2.32839">
        <ele>10.199999809265</ele>
        <time>2022-08-04T09:39:52.000Z</time>
      </trkpt>
      <trkpt lat="47.2753" lon="-2.32852">
        <ele>10.199999809265</ele>
        <time>2022-08-04T09:40:01.000Z</time>
      </trkpt>
      <trkpt lat="47.27521" lon="-2.32859">
        <ele>10.199999809265</ele>
        <time>2022-08-04T09:40:07.000Z</time>
      </trkpt>
      <trkpt lat="47.2751" lon="-2.32878">
        <ele>10.199999809265</ele>
        <time>2022-08-04T09:40:12.000Z</time>
      </trkpt>
      <trkpt lat="47.27506" lon="-2.32889">
        <ele>10.199999809265</ele>
        <time>2022-08-04T09:40:14.000Z</time>
      </trkpt>
      <trkpt lat="47.27503" lon="-2.32899">
        <ele>10.60000038147</ele>
        <time>2022-08-04T09:40:16.000Z</time>
      </trkpt>
      <trkpt lat="47.27501" lon="-2.32905">
        <ele>11</ele>
        <time>2022-08-04T09:40:17.000Z</time>
      </trkpt>
      <trkpt lat="47.275" lon="-2.32911">
        <ele>11.39999961853</ele>
        <time>2022-08-04T09:40:18.000Z</time>
      </trkpt>
      <trkpt lat="47.27499" lon="-2.32916">
        <ele>11.800000190735</ele>
        <time>2022-08-04T09:40:19.000Z</time>
      </trkpt>
      <trkpt lat="47.27499" lon="-2.32922">
        <ele>12.199999809265</ele>
        <time>2022-08-04T09:40:20.000Z</time>
      </trkpt>
      <trkpt lat="47.27496" lon="-2.3294">
        <ele>12.199999809265</ele>
        <time>2022-08-04T09:40:23.000Z</time>
      </trkpt>
      <trkpt lat="47.27486" lon="-2.32964">
        <ele>12.199999809265</ele>
        <time>2022-08-04T09:40:28.000Z</time>
      </trkpt>
      <trkpt lat="47.27483" lon="-2.32973">
        <ele>12.60000038147</ele>
        <time>2022-08-04T09:40:30.000Z</time>
      </trkpt>
      <trkpt lat="47.27481" lon="-2.32978">
        <ele>13</ele>
        <time>2022-08-04T09:40:31.000Z</time>
      </trkpt>
      <trkpt lat="47.2748" lon="-2.32982">
        <ele>13.39999961853</ele>
        <time>2022-08-04T09:40:32.000Z</time>
      </trkpt>
      <trkpt lat="47.27478" lon="-2.32987">
        <ele>13.800000190735</ele>
        <time>2022-08-04T09:40:33.000Z</time>
      </trkpt>
      <trkpt lat="47.27476" lon="-2.32991">
        <ele>14.199999809265</ele>
        <time>2022-08-04T09:40:34.000Z</time>
      </trkpt>
      <trkpt lat="47.27473" lon="-2.33001">
        <ele>14.199999809265</ele>
        <time>2022-08-04T09:40:36.000Z</time>
      </trkpt>
      <trkpt lat="47.27464" lon="-2.33021">
        <ele>14.199999809265</ele>
        <time>2022-08-04T09:40:42.000Z</time>
      </trkpt>
      <trkpt lat="47.27457" lon="-2.33027">
        <ele>14.60000038147</ele>
        <time>2022-08-04T09:40:46.000Z</time>
      </trkpt>
      <trkpt lat="47.27454" lon="-2.33028">
        <ele>15</ele>
        <time>2022-08-04T09:40:47.000Z</time>
      </trkpt>
      <trkpt lat="47.27452" lon="-2.3303">
        <ele>15.39999961853</ele>
        <time>2022-08-04T09:40:48.000Z</time>
      </trkpt>
      <trkpt lat="47.2745" lon="-2.33031">
        <ele>16</ele>
        <time>2022-08-04T09:40:49.000Z</time>
      </trkpt>
      <trkpt lat="47.27448" lon="-2.33032">
        <ele>16.39999961853</ele>
        <time>2022-08-04T09:40:50.000Z</time>
      </trkpt>
      <trkpt lat="47.27446" lon="-2.33036">
        <ele>16.39999961853</ele>
        <time>2022-08-04T09:40:53.000Z</time>
      </trkpt>
      <trkpt lat="47.27446" lon="-2.33035">
        <ele>16.39999961853</ele>
        <time>2022-08-04T09:40:54.000Z</time>
      </trkpt>
      <trkpt lat="47.27444" lon="-2.33037">
        <ele>16.39999961853</ele>
        <time>2022-08-04T09:40:56.000Z</time>
      </trkpt>
      <trkpt lat="47.27439" lon="-2.33039">
        <ele>16.39999961853</ele>
        <time>2022-08-04T09:40:58.000Z</time>
      </trkpt>
      <trkpt lat="47.27428" lon="-2.33038">
        <ele>16.39999961853</ele>
        <time>2022-08-04T09:41:03.000Z</time>
      </trkpt>
      <trkpt lat="47.27426" lon="-2.33034">
        <ele>16.39999961853</ele>
        <time>2022-08-04T09:41:04.000Z</time>
      </trkpt>
      <trkpt lat="47.2742" lon="-2.33013">
        <ele>16.39999961853</ele>
        <time>2022-08-04T09:41:08.000Z</time>
      </trkpt>
      <trkpt lat="47.27416" lon="-2.33001">
        <ele>16.39999961853</ele>
        <time>2022-08-04T09:41:10.000Z</time>
      </trkpt>
      <trkpt lat="47.27403" lon="-2.3296">
        <ele>16.39999961853</ele>
        <time>2022-08-04T09:41:16.000Z</time>
      </trkpt>
      <trkpt lat="47.27401" lon="-2.32952">
        <ele>15.800000190735</ele>
        <time>2022-08-04T09:41:17.000Z</time>
      </trkpt>
      <trkpt lat="47.27399" lon="-2.32946">
        <ele>15.39999961853</ele>
        <time>2022-08-04T09:41:18.000Z</time>
      </trkpt>
      <trkpt lat="47.27398" lon="-2.3294">
        <ele>15</ele>
        <time>2022-08-04T09:41:19.000Z</time>
      </trkpt>
      <trkpt lat="47.27398" lon="-2.32933">
        <ele>14.60000038147</ele>
        <time>2022-08-04T09:41:20.000Z</time>
      </trkpt>
      <trkpt lat="47.27398" lon="-2.3293">
        <ele>14.199999809265</ele>
        <time>2022-08-04T09:41:21.000Z</time>
      </trkpt>
      <trkpt lat="47.27395" lon="-2.32917">
        <ele>14.199999809265</ele>
        <time>2022-08-04T09:41:25.000Z</time>
      </trkpt>
      <trkpt lat="47.27395" lon="-2.32913">
        <ele>14.199999809265</ele>
        <time>2022-08-04T09:41:27.000Z</time>
      </trkpt>
      <trkpt lat="47.27396" lon="-2.32911">
        <ele>14.199999809265</ele>
        <time>2022-08-04T09:41:30.000Z</time>
      </trkpt>
      <trkpt lat="47.27398" lon="-2.32904">
        <ele>12</ele>
        <time>2022-08-04T09:42:08.000Z</time>
      </trkpt>
      <trkpt lat="47.27402" lon="-2.32899">
        <ele>12</ele>
        <time>2022-08-04T09:42:11.000Z</time>
      </trkpt>
      <trkpt lat="47.27407" lon="-2.32883">
        <ele>12</ele>
        <time>2022-08-04T09:42:16.000Z</time>
      </trkpt>
      <trkpt lat="47.27414" lon="-2.32868">
        <ele>12</ele>
        <time>2022-08-04T09:42:20.000Z</time>
      </trkpt>
      <trkpt lat="47.27416" lon="-2.32862">
        <ele>12</ele>
        <time>2022-08-04T09:42:21.000Z</time>
      </trkpt>
      <trkpt lat="47.27423" lon="-2.32846">
        <ele>12</ele>
        <time>2022-08-04T09:42:24.000Z</time>
      </trkpt>
      <trkpt lat="47.27425" lon="-2.3284">
        <ele>12</ele>
        <time>2022-08-04T09:42:25.000Z</time>
      </trkpt>
      <trkpt lat="47.27429" lon="-2.32818">
        <ele>12</ele>
        <time>2022-08-04T09:42:28.000Z</time>
      </trkpt>
      <trkpt lat="47.27431" lon="-2.3281">
        <ele>11.60000038147</ele>
        <time>2022-08-04T09:42:29.000Z</time>
      </trkpt>
      <trkpt lat="47.27431" lon="-2.32803">
        <ele>11.199999809265</ele>
        <time>2022-08-04T09:42:30.000Z</time>
      </trkpt>
      <trkpt lat="47.27432" lon="-2.32796">
        <ele>10.800000190735</ele>
        <time>2022-08-04T09:42:31.000Z</time>
      </trkpt>
      <trkpt lat="47.27434" lon="-2.32788">
        <ele>10.39999961853</ele>
        <time>2022-08-04T09:42:32.000Z</time>
      </trkpt>
      <trkpt lat="47.27435" lon="-2.3278">
        <ele>10</ele>
        <time>2022-08-04T09:42:33.000Z</time>
      </trkpt>
      <trkpt lat="47.27437" lon="-2.32772">
        <ele>10</ele>
        <time>2022-08-04T09:42:34.000Z</time>
      </trkpt>
      <trkpt lat="47.2744" lon="-2.32764">
        <ele>10</ele>
        <time>2022-08-04T09:42:35.000Z</time>
      </trkpt>
      <trkpt lat="47.27446" lon="-2.32747">
        <ele>10</ele>
        <time>2022-08-04T09:42:37.000Z</time>
      </trkpt>
      <trkpt lat="47.27449" lon="-2.32738">
        <ele>9.3999996185303</ele>
        <time>2022-08-04T09:42:38.000Z</time>
      </trkpt>
      <trkpt lat="47.27454" lon="-2.3273">
        <ele>8.6000003814697</ele>
        <time>2022-08-04T09:42:39.000Z</time>
      </trkpt>
      <trkpt lat="47.27458" lon="-2.32718">
        <ele>8.1999998092651</ele>
        <time>2022-08-04T09:42:40.000Z</time>
      </trkpt>
      <trkpt lat="47.27463" lon="-2.32708">
        <ele>7.8000001907349</ele>
        <time>2022-08-04T09:42:41.000Z</time>
      </trkpt>
      <trkpt lat="47.27467" lon="-2.327">
        <ele>7.1999998092651</ele>
        <time>2022-08-04T09:42:42.000Z</time>
      </trkpt>
      <trkpt lat="47.27471" lon="-2.32694">
        <ele>6.8000001907349</ele>
        <time>2022-08-04T09:42:43.000Z</time>
      </trkpt>
      <trkpt lat="47.27475" lon="-2.32688">
        <ele>6.1999998092651</ele>
        <time>2022-08-04T09:42:44.000Z</time>
      </trkpt>
      <trkpt lat="47.27479" lon="-2.32684">
        <ele>5.8000001907349</ele>
        <time>2022-08-04T09:42:45.000Z</time>
      </trkpt>
      <trkpt lat="47.2749" lon="-2.3268">
        <ele>5.8000001907349</ele>
        <time>2022-08-04T09:42:47.000Z</time>
      </trkpt>
      <trkpt lat="47.27501" lon="-2.32674">
        <ele>5.4000000953674</ele>
        <time>2022-08-04T09:42:49.000Z</time>
      </trkpt>
      <trkpt lat="47.27504" lon="-2.32669">
        <ele>5</ele>
        <time>2022-08-04T09:42:50.000Z</time>
      </trkpt>
      <trkpt lat="47.27508" lon="-2.32663">
        <ele>4.4000000953674</ele>
        <time>2022-08-04T09:42:51.000Z</time>
      </trkpt>
      <trkpt lat="47.2751" lon="-2.32656">
        <ele>4</ele>
        <time>2022-08-04T09:42:52.000Z</time>
      </trkpt>
      <trkpt lat="47.27511" lon="-2.32648">
        <ele>3.5999999046326</ele>
        <time>2022-08-04T09:42:53.000Z</time>
      </trkpt>
      <trkpt lat="47.27514" lon="-2.3264">
        <ele>3.5999999046326</ele>
        <time>2022-08-04T09:42:54.000Z</time>
      </trkpt>
      <trkpt lat="47.27516" lon="-2.32633">
        <ele>3.5999999046326</ele>
        <time>2022-08-04T09:42:55.000Z</time>
      </trkpt>
      <trkpt lat="47.2752" lon="-2.32626">
        <ele>3.5999999046326</ele>
        <time>2022-08-04T09:42:56.000Z</time>
      </trkpt>
      <trkpt lat="47.2753" lon="-2.32623">
        <ele>3.5999999046326</ele>
        <time>2022-08-04T09:42:58.000Z</time>
      </trkpt>
      <trkpt lat="47.27541" lon="-2.32617">
        <ele>3.5999999046326</ele>
        <time>2022-08-04T09:43:00.000Z</time>
      </trkpt>
      <trkpt lat="47.27548" lon="-2.32604">
        <ele>3.5999999046326</ele>
        <time>2022-08-04T09:43:02.000Z</time>
      </trkpt>
      <trkpt lat="47.27554" lon="-2.32586">
        <ele>3.5999999046326</ele>
        <time>2022-08-04T09:43:05.000Z</time>
      </trkpt>
      <trkpt lat="47.27554" lon="-2.32579">
        <ele>3.5999999046326</ele>
        <time>2022-08-04T09:43:06.000Z</time>
      </trkpt>
      <trkpt lat="47.27549" lon="-2.32571">
        <ele>3.5999999046326</ele>
        <time>2022-08-04T09:43:08.000Z</time>
      </trkpt>
      <trkpt lat="47.27546" lon="-2.32566">
        <ele>3.5999999046326</ele>
        <time>2022-08-04T09:43:09.000Z</time>
      </trkpt>
      <trkpt lat="47.27534" lon="-2.32542">
        <ele>3.5999999046326</ele>
        <time>2022-08-04T09:43:14.000Z</time>
      </trkpt>
      <trkpt lat="47.27535" lon="-2.32537">
        <ele>3.5999999046326</ele>
        <time>2022-08-04T09:43:15.000Z</time>
      </trkpt>
      <trkpt lat="47.27536" lon="-2.3253">
        <ele>4</ele>
        <time>2022-08-04T09:43:16.000Z</time>
      </trkpt>
      <trkpt lat="47.27539" lon="-2.32525">
        <ele>4.4000000953674</ele>
        <time>2022-08-04T09:43:17.000Z</time>
      </trkpt>
      <trkpt lat="47.27541" lon="-2.3252">
        <ele>4.8000001907349</ele>
        <time>2022-08-04T09:43:18.000Z</time>
      </trkpt>
      <trkpt lat="47.27542" lon="-2.32516">
        <ele>5.1999998092651</ele>
        <time>2022-08-04T09:43:19.000Z</time>
      </trkpt>
      <trkpt lat="47.27543" lon="-2.32511">
        <ele>5.8000001907349</ele>
        <time>2022-08-04T09:43:20.000Z</time>
      </trkpt>
      <trkpt lat="47.27544" lon="-2.32508">
        <ele>6.4000000953674</ele>
        <time>2022-08-04T09:43:21.000Z</time>
      </trkpt>
      <trkpt lat="47.27546" lon="-2.32503">
        <ele>6.8000001907349</ele>
        <time>2022-08-04T09:43:22.000Z</time>
      </trkpt>
      <trkpt lat="47.27548" lon="-2.32498">
        <ele>7.4000000953674</ele>
        <time>2022-08-04T09:43:23.000Z</time>
      </trkpt>
      <trkpt lat="47.2755" lon="-2.32493">
        <ele>7.8000001907349</ele>
        <time>2022-08-04T09:43:24.000Z</time>
      </trkpt>
      <trkpt lat="47.27551" lon="-2.32488">
        <ele>8.1999998092651</ele>
        <time>2022-08-04T09:43:25.000Z</time>
      </trkpt>
      <trkpt lat="47.27552" lon="-2.32482">
        <ele>8.8000001907349</ele>
        <time>2022-08-04T09:43:26.000Z</time>
      </trkpt>
      <trkpt lat="47.27553" lon="-2.32478">
        <ele>9.1999998092651</ele>
        <time>2022-08-04T09:43:27.000Z</time>
      </trkpt>
      <trkpt lat="47.27554" lon="-2.3247">
        <ele>10</ele>
        <time>2022-08-04T09:43:28.000Z</time>
      </trkpt>
      <trkpt lat="47.27561" lon="-2.32445">
        <ele>10</ele>
        <time>2022-08-04T09:43:32.000Z</time>
      </trkpt>
      <trkpt lat="47.27562" lon="-2.32441">
        <ele>10.39999961853</ele>
        <time>2022-08-04T09:43:33.000Z</time>
      </trkpt>
      <trkpt lat="47.27564" lon="-2.32437">
        <ele>10.800000190735</ele>
        <time>2022-08-04T09:43:34.000Z</time>
      </trkpt>
      <trkpt lat="47.27566" lon="-2.32434">
        <ele>11.199999809265</ele>
        <time>2022-08-04T09:43:35.000Z</time>
      </trkpt>
      <trkpt lat="47.27568" lon="-2.3243">
        <ele>11.60000038147</ele>
        <time>2022-08-04T09:43:36.000Z</time>
      </trkpt>
      <trkpt lat="47.2757" lon="-2.32427">
        <ele>12</ele>
        <time>2022-08-04T09:43:37.000Z</time>
      </trkpt>
      <trkpt lat="47.27572" lon="-2.32423">
        <ele>12</ele>
        <time>2022-08-04T09:43:38.000Z</time>
      </trkpt>
      <trkpt lat="47.27572" lon="-2.3242">
        <ele>12</ele>
        <time>2022-08-04T09:43:39.000Z</time>
      </trkpt>
      <trkpt lat="47.27572" lon="-2.32409">
        <ele>12</ele>
        <time>2022-08-04T09:43:41.000Z</time>
      </trkpt>
      <trkpt lat="47.27572" lon="-2.32397">
        <ele>12</ele>
        <time>2022-08-04T09:43:43.000Z</time>
      </trkpt>
      <trkpt lat="47.27573" lon="-2.32391">
        <ele>12</ele>
        <time>2022-08-04T09:43:44.000Z</time>
      </trkpt>
      <trkpt lat="47.27576" lon="-2.32379">
        <ele>12</ele>
        <time>2022-08-04T09:43:46.000Z</time>
      </trkpt>
      <trkpt lat="47.27581" lon="-2.32367">
        <ele>12</ele>
        <time>2022-08-04T09:43:48.000Z</time>
      </trkpt>
      <trkpt lat="47.27588" lon="-2.32347">
        <ele>12</ele>
        <time>2022-08-04T09:43:52.000Z</time>
      </trkpt>
      <trkpt lat="47.27599" lon="-2.32323">
        <ele>12</ele>
        <time>2022-08-04T09:43:57.000Z</time>
      </trkpt>
      <trkpt lat="47.27607" lon="-2.32293">
        <ele>12</ele>
        <time>2022-08-04T09:44:03.000Z</time>
      </trkpt>
      <trkpt lat="47.27601" lon="-2.32281">
        <ele>12</ele>
        <time>2022-08-04T09:44:06.000Z</time>
      </trkpt>
      <trkpt lat="47.27593" lon="-2.32274">
        <ele>12</ele>
        <time>2022-08-04T09:44:08.000Z</time>
      </trkpt>
      <trkpt lat="47.27579" lon="-2.32262">
        <ele>12</ele>
        <time>2022-08-04T09:44:11.000Z</time>
      </trkpt>
      <trkpt lat="47.27546" lon="-2.32231">
        <ele>11.199999809265</ele>
        <time>2022-08-04T09:44:17.000Z</time>
      </trkpt>
      <trkpt lat="47.2754" lon="-2.32226">
        <ele>10.800000190735</ele>
        <time>2022-08-04T09:44:18.000Z</time>
      </trkpt>
      <trkpt lat="47.27534" lon="-2.32221">
        <ele>10.39999961853</ele>
        <time>2022-08-04T09:44:19.000Z</time>
      </trkpt>
      <trkpt lat="47.27528" lon="-2.32214">
        <ele>10</ele>
        <time>2022-08-04T09:44:20.000Z</time>
      </trkpt>
      <trkpt lat="47.27515" lon="-2.322">
        <ele>9.6000003814697</ele>
        <time>2022-08-04T09:44:22.000Z</time>
      </trkpt>
      <trkpt lat="47.2751" lon="-2.32192">
        <ele>9.1999998092651</ele>
        <time>2022-08-04T09:44:23.000Z</time>
      </trkpt>
      <trkpt lat="47.27504" lon="-2.32184">
        <ele>8.8000001907349</ele>
        <time>2022-08-04T09:44:24.000Z</time>
      </trkpt>
      <trkpt lat="47.27498" lon="-2.32176">
        <ele>8.3999996185303</ele>
        <time>2022-08-04T09:44:25.000Z</time>
      </trkpt>
      <trkpt lat="47.27492" lon="-2.32168">
        <ele>8</ele>
        <time>2022-08-04T09:44:26.000Z</time>
      </trkpt>
      <trkpt lat="47.2748" lon="-2.32153">
        <ele>8</ele>
        <time>2022-08-04T09:44:28.000Z</time>
      </trkpt>
      <trkpt lat="47.27474" lon="-2.32145">
        <ele>7.5999999046326</ele>
        <time>2022-08-04T09:44:29.000Z</time>
      </trkpt>
      <trkpt lat="47.27468" lon="-2.32138">
        <ele>7.1999998092651</ele>
        <time>2022-08-04T09:44:30.000Z</time>
      </trkpt>
      <trkpt lat="47.27462" lon="-2.32131">
        <ele>6.5999999046326</ele>
        <time>2022-08-04T09:44:31.000Z</time>
      </trkpt>
      <trkpt lat="47.27457" lon="-2.32124">
        <ele>6.1999998092651</ele>
        <time>2022-08-04T09:44:32.000Z</time>
      </trkpt>
      <trkpt lat="47.27452" lon="-2.32117">
        <ele>5.8000001907349</ele>
        <time>2022-08-04T09:44:33.000Z</time>
      </trkpt>
      <trkpt lat="47.27447" lon="-2.32111">
        <ele>5.8000001907349</ele>
        <time>2022-08-04T09:44:34.000Z</time>
      </trkpt>
      <trkpt lat="47.27418" lon="-2.32073">
        <ele>5.8000001907349</ele>
        <time>2022-08-04T09:44:40.000Z</time>
      </trkpt>
      <trkpt lat="47.27407" lon="-2.32062">
        <ele>5.4000000953674</ele>
        <time>2022-08-04T09:44:42.000Z</time>
      </trkpt>
      <trkpt lat="47.27401" lon="-2.32055">
        <ele>5</ele>
        <time>2022-08-04T09:44:43.000Z</time>
      </trkpt>
      <trkpt lat="47.27395" lon="-2.32049">
        <ele>4.5999999046326</ele>
        <time>2022-08-04T09:44:44.000Z</time>
      </trkpt>
      <trkpt lat="47.27389" lon="-2.32042">
        <ele>4.1999998092651</ele>
        <time>2022-08-04T09:44:45.000Z</time>
      </trkpt>
      <trkpt lat="47.27383" lon="-2.32035">
        <ele>3.7999999523163</ele>
        <time>2022-08-04T09:44:46.000Z</time>
      </trkpt>
      <trkpt lat="47.27378" lon="-2.32028">
        <ele>3.7999999523163</ele>
        <time>2022-08-04T09:44:47.000Z</time>
      </trkpt>
      <trkpt lat="47.27367" lon="-2.32016">
        <ele>3.4000000953674</ele>
        <time>2022-08-04T09:44:49.000Z</time>
      </trkpt>
      <trkpt lat="47.27363" lon="-2.32013">
        <ele>2.7999999523163</ele>
        <time>2022-08-04T09:44:50.000Z</time>
      </trkpt>
      <trkpt lat="47.2736" lon="-2.32012">
        <ele>2.4000000953674</ele>
        <time>2022-08-04T09:44:51.000Z</time>
      </trkpt>
      <trkpt lat="47.27358" lon="-2.32015">
        <ele>2</ele>
        <time>2022-08-04T09:44:52.000Z</time>
      </trkpt>
      <trkpt lat="47.27357" lon="-2.32019">
        <ele>1.3999999761581</ele>
        <time>2022-08-04T09:44:53.000Z</time>
      </trkpt>
      <trkpt lat="47.27358" lon="-2.32026">
        <ele>1.3999999761581</ele>
        <time>2022-08-04T09:44:55.000Z</time>
      </trkpt>
      <trkpt lat="47.27363" lon="-2.32031">
        <ele>1</ele>
        <time>2022-08-04T09:44:57.000Z</time>
      </trkpt>
      <trkpt lat="47.27365" lon="-2.32034">
        <ele>0.60000002384186</ele>
        <time>2022-08-04T09:44:58.000Z</time>
      </trkpt>
      <trkpt lat="47.27368" lon="-2.32038">
        <ele>0.20000000298023</ele>
        <time>2022-08-04T09:44:59.000Z</time>
      </trkpt>
      <trkpt lat="47.27371" lon="-2.32043">
        <ele>-0.20000000298023</ele>
        <time>2022-08-04T09:45:00.000Z</time>
      </trkpt>
      <trkpt lat="47.27375" lon="-2.32048">
        <ele>-0.60000002384186</ele>
        <time>2022-08-04T09:45:01.000Z</time>
      </trkpt>
      <trkpt lat="47.27379" lon="-2.32052">
        <ele>-0.60000002384186</ele>
        <time>2022-08-04T09:45:02.000Z</time>
      </trkpt>
      <trkpt lat="47.27391" lon="-2.32066">
        <ele>-0.60000002384186</ele>
        <time>2022-08-04T09:45:05.000Z</time>
      </trkpt>
      <trkpt lat="47.27395" lon="-2.32072">
        <ele>-0.60000002384186</ele>
        <time>2022-08-04T09:45:06.000Z</time>
      </trkpt>
      <trkpt lat="47.27406" lon="-2.32092">
        <ele>-0.60000002384186</ele>
        <time>2022-08-04T09:45:09.000Z</time>
      </trkpt>
      <trkpt lat="47.27404" lon="-2.32119">
        <ele>-0.60000002384186</ele>
        <time>2022-08-04T09:45:12.000Z</time>
      </trkpt>
      <trkpt lat="47.27403" lon="-2.32129">
        <ele>-0.60000002384186</ele>
        <time>2022-08-04T09:45:13.000Z</time>
      </trkpt>
      <trkpt lat="47.27398" lon="-2.32167">
        <ele>-0.60000002384186</ele>
        <time>2022-08-04T09:45:17.000Z</time>
      </trkpt>
      <trkpt lat="47.27392" lon="-2.32236">
        <ele>-0.60000002384186</ele>
        <time>2022-08-04T09:45:24.000Z</time>
      </trkpt>
      <trkpt lat="47.27379" lon="-2.32286">
        <ele>-0.60000002384186</ele>
        <time>2022-08-04T09:45:30.000Z</time>
      </trkpt>
      <trkpt lat="47.27375" lon="-2.32302">
        <ele>0.40000000596046</ele>
        <time>2022-08-04T09:45:32.000Z</time>
      </trkpt>
      <trkpt lat="47.27373" lon="-2.32311">
        <ele>0.80000001192093</ele>
        <time>2022-08-04T09:45:33.000Z</time>
      </trkpt>
      <trkpt lat="47.27371" lon="-2.32319">
        <ele>1.2000000476837</ele>
        <time>2022-08-04T09:45:34.000Z</time>
      </trkpt>
      <trkpt lat="47.2737" lon="-2.32327">
        <ele>1.6000000238419</ele>
        <time>2022-08-04T09:45:35.000Z</time>
      </trkpt>
      <trkpt lat="47.27364" lon="-2.32354">
        <ele>1.6000000238419</ele>
        <time>2022-08-04T09:45:38.000Z</time>
      </trkpt>
      <trkpt lat="47.27353" lon="-2.32406">
        <ele>1.6000000238419</ele>
        <time>2022-08-04T09:45:43.000Z</time>
      </trkpt>
      <trkpt lat="47.27333" lon="-2.32463">
        <ele>1.6000000238419</ele>
        <time>2022-08-04T09:45:49.000Z</time>
      </trkpt>
      <trkpt lat="47.2733" lon="-2.32471">
        <ele>1.6000000238419</ele>
        <time>2022-08-04T09:45:50.000Z</time>
      </trkpt>
      <trkpt lat="47.27313" lon="-2.325">
        <ele>1.6000000238419</ele>
        <time>2022-08-04T09:45:54.000Z</time>
      </trkpt>
      <trkpt lat="47.27285" lon="-2.3254">
        <ele>1.6000000238419</ele>
        <time>2022-08-04T09:46:00.000Z</time>
      </trkpt>
      <trkpt lat="47.27253" lon="-2.32577">
        <ele>1.6000000238419</ele>
        <time>2022-08-04T09:46:06.000Z</time>
      </trkpt>
      <trkpt lat="47.2723" lon="-2.326">
        <ele>1.6000000238419</ele>
        <time>2022-08-04T09:46:10.000Z</time>
      </trkpt>
      <trkpt lat="47.27219" lon="-2.32611">
        <ele>1.6000000238419</ele>
        <time>2022-08-04T09:46:12.000Z</time>
      </trkpt>
      <trkpt lat="47.27179" lon="-2.32649">
        <ele>1.6000000238419</ele>
        <time>2022-08-04T09:46:19.000Z</time>
      </trkpt>
      <trkpt lat="47.27146" lon="-2.3268">
        <ele>1.6000000238419</ele>
        <time>2022-08-04T09:46:25.000Z</time>
      </trkpt>
      <trkpt lat="47.27137" lon="-2.3269">
        <ele>1.6000000238419</ele>
        <time>2022-08-04T09:46:27.000Z</time>
      </trkpt>
      <trkpt lat="47.2713" lon="-2.32703">
        <ele>1.6000000238419</ele>
        <time>2022-08-04T09:46:29.000Z</time>
      </trkpt>
      <trkpt lat="47.27118" lon="-2.32715">
        <ele>1.6000000238419</ele>
        <time>2022-08-04T09:46:32.000Z</time>
      </trkpt>
      <trkpt lat="47.27094" lon="-2.32738">
        <ele>1.6000000238419</ele>
        <time>2022-08-04T09:46:37.000Z</time>
      </trkpt>
      <trkpt lat="47.27063" lon="-2.32767">
        <ele>1.6000000238419</ele>
        <time>2022-08-04T09:46:43.000Z</time>
      </trkpt>
      <trkpt lat="47.27016" lon="-2.32809">
        <ele>1.6000000238419</ele>
        <time>2022-08-04T09:46:51.000Z</time>
      </trkpt>
      <trkpt lat="47.26967" lon="-2.32854">
        <ele>1.6000000238419</ele>
        <time>2022-08-04T09:46:59.000Z</time>
      </trkpt>
      <trkpt lat="47.26942" lon="-2.32876">
        <ele>1.2000000476837</ele>
        <time>2022-08-04T09:47:03.000Z</time>
      </trkpt>
      <trkpt lat="47.26936" lon="-2.32882">
        <ele>0.80000001192093</ele>
        <time>2022-08-04T09:47:04.000Z</time>
      </trkpt>
      <trkpt lat="47.26931" lon="-2.32887">
        <ele>0.40000000596046</ele>
        <time>2022-08-04T09:47:05.000Z</time>
      </trkpt>
      <trkpt lat="47.26925" lon="-2.32893">
        <ele>4.2</ele>
        <time>2022-08-04T09:47:06.000Z</time>
      </trkpt>
      <trkpt lat="47.26919" lon="-2.32899">
        <ele>-0.40000000596046</ele>
        <time>2022-08-04T09:47:07.000Z</time>
      </trkpt>
      <trkpt lat="47.26895" lon="-2.32919">
        <ele>-0.40000000596046</ele>
        <time>2022-08-04T09:47:11.000Z</time>
      </trkpt>
      <trkpt lat="47.26883" lon="-2.3293">
        <ele>-0.40000000596046</ele>
        <time>2022-08-04T09:47:13.000Z</time>
      </trkpt>
      <trkpt lat="47.26867" lon="-2.32946">
        <ele>-0.40000000596046</ele>
        <time>2022-08-04T09:47:16.000Z</time>
      </trkpt>
      <trkpt lat="47.2683" lon="-2.32982">
        <ele>-0.40000000596046</ele>
        <time>2022-08-04T09:47:23.000Z</time>
      </trkpt>
      <trkpt lat="47.26799" lon="-2.33014">
        <ele>-0.40000000596046</ele>
        <time>2022-08-04T09:47:29.000Z</time>
      </trkpt>
      <trkpt lat="47.2678" lon="-2.33031">
        <ele>-0.40000000596046</ele>
        <time>2022-08-04T09:47:32.000Z</time>
      </trkpt>
      <trkpt lat="47.26769" lon="-2.33041">
        <ele>-0.40000000596046</ele>
        <time>2022-08-04T09:47:34.000Z</time>
      </trkpt>
      <trkpt lat="47.26747" lon="-2.33062">
        <ele>-0.40000000596046</ele>
        <time>2022-08-04T09:47:39.000Z</time>
      </trkpt>
      <trkpt lat="47.26744" lon="-2.33063">
        <ele>-0.40000000596046</ele>
        <time>2022-08-04T09:47:40.000Z</time>
      </trkpt>
      <trkpt lat="47.26741" lon="-2.33062">
        <ele>-1</ele>
        <time>2022-08-04T09:47:41.000Z</time>
      </trkpt>
      <trkpt lat="47.26738" lon="-2.33059">
        <ele>-1.3999999761581</ele>
        <time>2022-08-04T09:47:42.000Z</time>
      </trkpt>
      <trkpt lat="47.26734" lon="-2.33058">
        <ele>-1.7999999523163</ele>
        <time>2022-08-04T09:47:43.000Z</time>
      </trkpt>
      <trkpt lat="47.26731" lon="-2.33059">
        <ele>-2.2000000476837</ele>
        <time>2022-08-04T09:47:44.000Z</time>
      </trkpt>
      <trkpt lat="47.26727" lon="-2.33062">
        <ele>-2.5999999046326</ele>
        <time>2022-08-04T09:47:45.000Z</time>
      </trkpt>
      <trkpt lat="47.26716" lon="-2.33078">
        <ele>-2.5999999046326</ele>
        <time>2022-08-04T09:47:49.000Z</time>
      </trkpt>
      <trkpt lat="47.26711" lon="-2.33086">
        <ele>-2.5999999046326</ele>
        <time>2022-08-04T09:47:51.000Z</time>
      </trkpt>
      <trkpt lat="47.26694" lon="-2.331">
        <ele>-2.5999999046326</ele>
        <time>2022-08-04T09:47:57.000Z</time>
      </trkpt>
      <trkpt lat="47.26684" lon="-2.33111">
        <ele>-2.5999999046326</ele>
        <time>2022-08-04T09:48:03.000Z</time>
      </trkpt>
      <trkpt lat="47.26673" lon="-2.33123">
        <ele>-2.5999999046326</ele>
        <time>2022-08-04T09:48:10.000Z</time>
      </trkpt>
      <trkpt lat="47.26671" lon="-2.33124">
        <ele>-2.5999999046326</ele>
        <time>2022-08-04T09:49:05.000Z</time>
      </trkpt>
      <trkpt lat="47.26667" lon="-2.33126">
        <ele>-2.5999999046326</ele>
        <time>2022-08-04T09:49:07.000Z</time>
      </trkpt>
      <trkpt lat="47.26662" lon="-2.33131">
        <ele>-2.5999999046326</ele>
        <time>2022-08-04T09:49:09.000Z</time>
      </trkpt>
      <trkpt lat="47.26652" lon="-2.33139">
        <ele>-2.5999999046326</ele>
        <time>2022-08-04T09:49:12.000Z</time>
      </trkpt>
      <trkpt lat="47.26642" lon="-2.33149">
        <ele>-2.5999999046326</ele>
        <time>2022-08-04T09:49:15.000Z</time>
      </trkpt>
      <trkpt lat="47.26633" lon="-2.33153">
        <ele>-2.5999999046326</ele>
        <time>2022-08-04T09:49:17.000Z</time>
      </trkpt>
      <trkpt lat="47.2662" lon="-2.33152">
        <ele>-2.5999999046326</ele>
        <time>2022-08-04T09:49:20.000Z</time>
      </trkpt>
      <trkpt lat="47.26615" lon="-2.33151">
        <ele>-2.5999999046326</ele>
        <time>2022-08-04T09:49:21.000Z</time>
      </trkpt>
      <trkpt lat="47.26608" lon="-2.33159">
        <ele>-2.5999999046326</ele>
        <time>2022-08-04T09:49:24.000Z</time>
      </trkpt>
      <trkpt lat="47.26605" lon="-2.33167">
        <ele>-2.5999999046326</ele>
        <time>2022-08-04T09:49:26.000Z</time>
      </trkpt>
      <trkpt lat="47.26598" lon="-2.33182">
        <ele>-2.5999999046326</ele>
        <time>2022-08-04T09:49:29.000Z</time>
      </trkpt>
      <trkpt lat="47.26594" lon="-2.33195">
        <ele>-2.5999999046326</ele>
        <time>2022-08-04T09:49:31.000Z</time>
      </trkpt>
      <trkpt lat="47.26586" lon="-2.33205">
        <ele>-2.5999999046326</ele>
        <time>2022-08-04T09:49:34.000Z</time>
      </trkpt>
      <trkpt lat="47.26582" lon="-2.33208">
        <ele>-2.5999999046326</ele>
        <time>2022-08-04T09:49:35.000Z</time>
      </trkpt>
      <trkpt lat="47.26566" lon="-2.33217">
        <ele>-2.5999999046326</ele>
        <time>2022-08-04T09:49:38.000Z</time>
      </trkpt>
      <trkpt lat="47.26548" lon="-2.33229">
        <ele>-2.5999999046326</ele>
        <time>2022-08-04T09:49:42.000Z</time>
      </trkpt>
      <trkpt lat="47.26522" lon="-2.33246">
        <ele>-2.5999999046326</ele>
        <time>2022-08-04T09:49:48.000Z</time>
      </trkpt>
      <trkpt lat="47.26517" lon="-2.33249">
        <ele>-2.5999999046326</ele>
        <time>2022-08-04T09:49:49.000Z</time>
      </trkpt>
      <trkpt lat="47.26504" lon="-2.3326">
        <ele>-2.5999999046326</ele>
        <time>2022-08-04T09:49:53.000Z</time>
      </trkpt>
      <trkpt lat="47.26502" lon="-2.33264">
        <ele>-2.5999999046326</ele>
        <time>2022-08-04T09:49:56.000Z</time>
      </trkpt>
      <trkpt lat="47.26501" lon="-2.33268">
        <ele>-2.5999999046326</ele>
        <time>2022-08-04T09:51:09.000Z</time>
      </trkpt>
      <trkpt lat="47.26501" lon="-2.33272">
        <ele>-2.5999999046326</ele>
        <time>2022-08-04T09:51:11.000Z</time>
      </trkpt>
      <trkpt lat="47.26504" lon="-2.33281">
        <ele>-2.5999999046326</ele>
        <time>2022-08-04T09:51:17.000Z</time>
      </trkpt>
      <trkpt lat="47.26505" lon="-2.33285">
        <ele>-2.5999999046326</ele>
        <time>2022-08-04T09:51:21.000Z</time>
      </trkpt>
      <trkpt lat="47.26506" lon="-2.33285">
        <ele>-2.5999999046326</ele>
        <time>2022-08-04T09:51:31.000Z</time>
      </trkpt>
      <trkpt lat="47.26516" lon="-2.33292">
        <ele>-2.5999999046326</ele>
        <time>2022-08-04T09:51:35.000Z</time>
      </trkpt>
      <trkpt lat="47.26521" lon="-2.33301">
        <ele>-2.5999999046326</ele>
        <time>2022-08-04T09:51:37.000Z</time>
      </trkpt>
      <trkpt lat="47.26523" lon="-2.33307">
        <ele>-2.5999999046326</ele>
        <time>2022-08-04T09:51:38.000Z</time>
      </trkpt>
      <trkpt lat="47.26524" lon="-2.33336">
        <ele>-2.5999999046326</ele>
        <time>2022-08-04T09:51:42.000Z</time>
      </trkpt>
      <trkpt lat="47.26524" lon="-2.33344">
        <ele>-2.5999999046326</ele>
        <time>2022-08-04T09:51:43.000Z</time>
      </trkpt>
      <trkpt lat="47.26528" lon="-2.33366">
        <ele>-2.5999999046326</ele>
        <time>2022-08-04T09:51:46.000Z</time>
      </trkpt>
      <trkpt lat="47.2653" lon="-2.33373">
        <ele>-2.5999999046326</ele>
        <time>2022-08-04T09:51:47.000Z</time>
      </trkpt>
      <trkpt lat="47.26543" lon="-2.33425">
        <ele>-2.5999999046326</ele>
        <time>2022-08-04T09:51:54.000Z</time>
      </trkpt>
      <trkpt lat="47.26551" lon="-2.33472">
        <ele>-2.5999999046326</ele>
        <time>2022-08-04T09:52:00.000Z</time>
      </trkpt>
      <trkpt lat="47.26552" lon="-2.3348">
        <ele>-2.5999999046326</ele>
        <time>2022-08-04T09:52:01.000Z</time>
      </trkpt>
      <trkpt lat="47.26556" lon="-2.33512">
        <ele>-2.5999999046326</ele>
        <time>2022-08-04T09:52:05.000Z</time>
      </trkpt>
      <trkpt lat="47.26561" lon="-2.33558">
        <ele>-2.5999999046326</ele>
        <time>2022-08-04T09:52:11.000Z</time>
      </trkpt>
      <trkpt lat="47.26563" lon="-2.33573">
        <ele>-2.5999999046326</ele>
        <time>2022-08-04T09:52:13.000Z</time>
      </trkpt>
      <trkpt lat="47.26567" lon="-2.33596">
        <ele>-2.5999999046326</ele>
        <time>2022-08-04T09:52:16.000Z</time>
      </trkpt>
      <trkpt lat="47.26572" lon="-2.33631">
        <ele>-2.5999999046326</ele>
        <time>2022-08-04T09:52:21.000Z</time>
      </trkpt>
      <trkpt lat="47.26572" lon="-2.33638">
        <ele>-2.5999999046326</ele>
        <time>2022-08-04T09:52:22.000Z</time>
      </trkpt>
      <trkpt lat="47.26574" lon="-2.33657">
        <ele>-2.5999999046326</ele>
        <time>2022-08-04T09:52:25.000Z</time>
      </trkpt>
      <trkpt lat="47.26576" lon="-2.33662">
        <ele>-2.5999999046326</ele>
        <time>2022-08-04T09:52:26.000Z</time>
      </trkpt>
      <trkpt lat="47.26579" lon="-2.33666">
        <ele>-2.5999999046326</ele>
        <time>2022-08-04T09:52:27.000Z</time>
      </trkpt>
      <trkpt lat="47.26588" lon="-2.33681">
        <ele>-2.2000000476837</ele>
        <time>2022-08-04T09:52:30.000Z</time>
      </trkpt>
      <trkpt lat="47.26591" lon="-2.33686">
        <ele>-1.7999999523163</ele>
        <time>2022-08-04T09:52:31.000Z</time>
      </trkpt>
      <trkpt lat="47.26594" lon="-2.3369">
        <ele>-0.80000001192093</ele>
        <time>2022-08-04T09:52:32.000Z</time>
      </trkpt>
      <trkpt lat="47.26598" lon="-2.33694">
        <ele>-0.40000000596046</ele>
        <time>2022-08-04T09:52:33.000Z</time>
      </trkpt>
      <trkpt lat="47.26607" lon="-2.33696">
        <ele>-0.40000000596046</ele>
        <time>2022-08-04T09:52:35.000Z</time>
      </trkpt>
      <trkpt lat="47.26612" lon="-2.33697">
        <ele>-0.40000000596046</ele>
        <time>2022-08-04T09:52:36.000Z</time>
      </trkpt>
      <trkpt lat="47.26638" lon="-2.33698">
        <ele>-0.40000000596046</ele>
        <time>2022-08-04T09:52:41.000Z</time>
      </trkpt>
      <trkpt lat="47.26648" lon="-2.33697">
        <ele>-0.40000000596046</ele>
        <time>2022-08-04T09:52:43.000Z</time>
      </trkpt>
      <trkpt lat="47.26665" lon="-2.33697">
        <ele>-0.40000000596046</ele>
        <time>2022-08-04T09:52:46.000Z</time>
      </trkpt>
      <trkpt lat="47.26706" lon="-2.33696">
        <ele>-0.40000000596046</ele>
        <time>2022-08-04T09:52:54.000Z</time>
      </trkpt>
      <trkpt lat="47.26743" lon="-2.33696">
        <ele>-0.40000000596046</ele>
        <time>2022-08-04T09:53:01.000Z</time>
      </trkpt>
      <trkpt lat="47.26769" lon="-2.33701">
        <ele>-0.40000000596046</ele>
        <time>2022-08-04T09:53:06.000Z</time>
      </trkpt>
      <trkpt lat="47.26789" lon="-2.33712">
        <ele>-0.40000000596046</ele>
        <time>2022-08-04T09:53:10.000Z</time>
      </trkpt>
      <trkpt lat="47.26798" lon="-2.3372">
        <ele>-0.40000000596046</ele>
        <time>2022-08-04T09:53:12.000Z</time>
      </trkpt>
      <trkpt lat="47.26823" lon="-2.3375">
        <ele>-0.40000000596046</ele>
        <time>2022-08-04T09:53:18.000Z</time>
      </trkpt>
      <trkpt lat="47.26839" lon="-2.3377">
        <ele>-0.40000000596046</ele>
        <time>2022-08-04T09:53:22.000Z</time>
      </trkpt>
      <trkpt lat="47.26849" lon="-2.33775">
        <ele>-0.40000000596046</ele>
        <time>2022-08-04T09:53:24.000Z</time>
      </trkpt>
      <trkpt lat="47.26859" lon="-2.33779">
        <ele>-0.40000000596046</ele>
        <time>2022-08-04T09:53:26.000Z</time>
      </trkpt>
      <trkpt lat="47.26879" lon="-2.33789">
        <ele>-0.40000000596046</ele>
        <time>2022-08-04T09:53:30.000Z</time>
      </trkpt>
      <trkpt lat="47.26884" lon="-2.33792">
        <ele>-0.40000000596046</ele>
        <time>2022-08-04T09:53:31.000Z</time>
      </trkpt>
      <trkpt lat="47.26894" lon="-2.33809">
        <ele>-0.40000000596046</ele>
        <time>2022-08-04T09:53:34.000Z</time>
      </trkpt>
      <trkpt lat="47.26896" lon="-2.33817">
        <ele>-0.40000000596046</ele>
        <time>2022-08-04T09:53:35.000Z</time>
      </trkpt>
      <trkpt lat="47.26906" lon="-2.33857">
        <ele>-0.40000000596046</ele>
        <time>2022-08-04T09:53:40.000Z</time>
      </trkpt>
      <trkpt lat="47.26916" lon="-2.33903">
        <ele>-0.40000000596046</ele>
        <time>2022-08-04T09:53:46.000Z</time>
      </trkpt>
      <trkpt lat="47.26921" lon="-2.33918">
        <ele>-0.40000000596046</ele>
        <time>2022-08-04T09:53:48.000Z</time>
      </trkpt>
      <trkpt lat="47.26928" lon="-2.33949">
        <ele>9</ele>
        <time>2022-08-04T09:53:52.000Z</time>
      </trkpt>
      <trkpt lat="47.2693" lon="-2.33956">
        <ele>0.40000000596046</ele>
        <time>2022-08-04T09:53:53.000Z</time>
      </trkpt>
      <trkpt lat="47.26932" lon="-2.33964">
        <ele>0.80000001192093</ele>
        <time>2022-08-04T09:53:54.000Z</time>
      </trkpt>
      <trkpt lat="47.26934" lon="-2.33971">
        <ele>1.2000000476837</ele>
        <time>2022-08-04T09:53:55.000Z</time>
      </trkpt>
      <trkpt lat="47.26936" lon="-2.33979">
        <ele>1.6000000238419</ele>
        <time>2022-08-04T09:53:56.000Z</time>
      </trkpt>
      <trkpt lat="47.26944" lon="-2.34018">
        <ele>1.6000000238419</ele>
        <time>2022-08-04T09:54:01.000Z</time>
      </trkpt>
      <trkpt lat="47.26951" lon="-2.3405">
        <ele>1.6000000238419</ele>
        <time>2022-08-04T09:54:05.000Z</time>
      </trkpt>
      <trkpt lat="47.26952" lon="-2.34058">
        <ele>1.6000000238419</ele>
        <time>2022-08-04T09:54:06.000Z</time>
      </trkpt>
      <trkpt lat="47.26958" lon="-2.34082">
        <ele>1.6000000238419</ele>
        <time>2022-08-04T09:54:09.000Z</time>
      </trkpt>
      <trkpt lat="47.26963" lon="-2.34106">
        <ele>1.6000000238419</ele>
        <time>2022-08-04T09:54:12.000Z</time>
      </trkpt>
      <trkpt lat="47.26976" lon="-2.34163">
        <ele>1.6000000238419</ele>
        <time>2022-08-04T09:54:19.000Z</time>
      </trkpt>
      <trkpt lat="47.2699" lon="-2.34219">
        <ele>1.6000000238419</ele>
        <time>2022-08-04T09:54:26.000Z</time>
      </trkpt>
      <trkpt lat="47.27002" lon="-2.3427">
        <ele>1.6000000238419</ele>
        <time>2022-08-04T09:54:33.000Z</time>
      </trkpt>
      <trkpt lat="47.27004" lon="-2.34297">
        <ele>1.6000000238419</ele>
        <time>2022-08-04T09:54:38.000Z</time>
      </trkpt>
      <trkpt lat="47.27007" lon="-2.34313">
        <ele>1.6000000238419</ele>
        <time>2022-08-04T09:54:42.000Z</time>
      </trkpt>
      <trkpt lat="47.27009" lon="-2.3432">
        <ele>1.6000000238419</ele>
        <time>2022-08-04T09:54:45.000Z</time>
      </trkpt>
      <trkpt lat="47.27008" lon="-2.34327">
        <ele>1.6000000238419</ele>
        <time>2022-08-04T09:54:47.000Z</time>
      </trkpt>
      <trkpt lat="47.2701" lon="-2.34352">
        <ele>1.6000000238419</ele>
        <time>2022-08-04T09:54:52.000Z</time>
      </trkpt>
      <trkpt lat="47.27016" lon="-2.34378">
        <ele>1.6000000238419</ele>
        <time>2022-08-04T09:54:57.000Z</time>
      </trkpt>
      <trkpt lat="47.27019" lon="-2.34389">
        <ele>1.6000000238419</ele>
        <time>2022-08-04T09:54:59.000Z</time>
      </trkpt>
      <trkpt lat="47.27023" lon="-2.34406">
        <ele>1.6000000238419</ele>
        <time>2022-08-04T09:55:02.000Z</time>
      </trkpt>
      <trkpt lat="47.27029" lon="-2.34442">
        <ele>1.6000000238419</ele>
        <time>2022-08-04T09:55:08.000Z</time>
      </trkpt>
      <trkpt lat="47.27029" lon="-2.34448">
        <ele>1.6000000238419</ele>
        <time>2022-08-04T09:55:09.000Z</time>
      </trkpt>
      <trkpt lat="47.27028" lon="-2.34471">
        <ele>1.6000000238419</ele>
        <time>2022-08-04T09:55:13.000Z</time>
      </trkpt>
      <trkpt lat="47.27026" lon="-2.34483">
        <ele>1.6000000238419</ele>
        <time>2022-08-04T09:55:17.000Z</time>
      </trkpt>
      <trkpt lat="47.27024" lon="-2.34487">
        <ele>1.6000000238419</ele>
        <time>2022-08-04T09:55:20.000Z</time>
      </trkpt>
    </trkseg>
  </trk>
</gpx>